<?xml version="1.0" encoding="UTF-8" standalone="no" ?>
<gpx xmlns="http://www.topografix.com/GPX/1/1" xmlns:xsi="http://www.w3.org/2001/XMLSchema-instance" xsi:schemaLocation="http://www.topografix.com/GPX/1/1 http://www.topografix.com/GPX/1/1/gpx.xsd" version="1.1" creator="VisuGPX - https://www.visugpx.com">
  <metadata>
    <name>[26/05/2017] Traces de la BNO</name>
    <desc><![CDATA[Séjour VTT SpeedEure.
Départ du VVF de St Jean la Vêtre]]></desc>
  </metadata>
  <trk>
    <name><![CDATA[[26/05/2017] Traces de la BNO_1]]></name>
    <trkseg>
      <trkpt lat="45.77613" lon="3.80724">
        <ele>942.915405</ele>
        <time>2017-05-26T06:43:53Z</time>
      </trkpt>
      <trkpt lat="45.77612" lon="3.80723">
        <ele>942.915405</ele>
        <time>2017-05-26T06:43:54Z</time>
      </trkpt>
      <trkpt lat="45.77609" lon="3.8071">
        <ele>943.637451</ele>
        <time>2017-05-26T06:44:00Z</time>
      </trkpt>
      <trkpt lat="45.77603" lon="3.80699">
        <ele>944.097168</ele>
        <time>2017-05-26T06:44:07Z</time>
      </trkpt>
      <trkpt lat="45.77596" lon="3.8069">
        <ele>944.531067</ele>
        <time>2017-05-26T06:44:13Z</time>
      </trkpt>
      <trkpt lat="45.77589" lon="3.8068">
        <ele>944.903564</ele>
        <time>2017-05-26T06:44:19Z</time>
      </trkpt>
      <trkpt lat="45.77582" lon="3.80671">
        <ele>946.545532</ele>
        <time>2017-05-26T06:44:26Z</time>
      </trkpt>
      <trkpt lat="45.77576" lon="3.80661">
        <ele>946.687134</ele>
        <time>2017-05-26T06:44:32Z</time>
      </trkpt>
      <trkpt lat="45.77569" lon="3.80652">
        <ele>947.152222</ele>
        <time>2017-05-26T06:44:38Z</time>
      </trkpt>
      <trkpt lat="45.77563" lon="3.80642">
        <ele>947.923523</ele>
        <time>2017-05-26T06:44:44Z</time>
      </trkpt>
      <trkpt lat="45.77557" lon="3.80631">
        <ele>948.93042</ele>
        <time>2017-05-26T06:44:50Z</time>
      </trkpt>
      <trkpt lat="45.77551" lon="3.8062">
        <ele>949.700012</ele>
        <time>2017-05-26T06:44:57Z</time>
      </trkpt>
      <trkpt lat="45.77547" lon="3.80608">
        <ele>950.5</ele>
        <time>2017-05-26T06:45:03Z</time>
      </trkpt>
      <trkpt lat="45.77543" lon="3.80594">
        <ele>951</ele>
        <time>2017-05-26T06:45:10Z</time>
      </trkpt>
      <trkpt lat="45.7754" lon="3.8058">
        <ele>951.799988</ele>
        <time>2017-05-26T06:45:17Z</time>
      </trkpt>
      <trkpt lat="45.77537" lon="3.80566">
        <ele>952.599976</ele>
        <time>2017-05-26T06:45:23Z</time>
      </trkpt>
      <trkpt lat="45.77535" lon="3.80553">
        <ele>953.099976</ele>
        <time>2017-05-26T06:45:28Z</time>
      </trkpt>
      <trkpt lat="45.77532" lon="3.80538">
        <ele>953.299988</ele>
        <time>2017-05-26T06:45:34Z</time>
      </trkpt>
      <trkpt lat="45.77529" lon="3.80524">
        <ele>953.900024</ele>
        <time>2017-05-26T06:45:40Z</time>
      </trkpt>
      <trkpt lat="45.77527" lon="3.80511">
        <ele>954.200012</ele>
        <time>2017-05-26T06:45:45Z</time>
      </trkpt>
      <trkpt lat="45.77525" lon="3.80497">
        <ele>954.5</ele>
        <time>2017-05-26T06:45:50Z</time>
      </trkpt>
      <trkpt lat="45.77524" lon="3.80483">
        <ele>954.900024</ele>
        <time>2017-05-26T06:45:55Z</time>
      </trkpt>
      <trkpt lat="45.77524" lon="3.80468">
        <ele>955.400024</ele>
        <time>2017-05-26T06:46:00Z</time>
      </trkpt>
      <trkpt lat="45.77525" lon="3.80454">
        <ele>956</ele>
        <time>2017-05-26T06:46:05Z</time>
      </trkpt>
      <trkpt lat="45.77526" lon="3.80441">
        <ele>956.599976</ele>
        <time>2017-05-26T06:46:09Z</time>
      </trkpt>
      <trkpt lat="45.77528" lon="3.80428">
        <ele>957.700012</ele>
        <time>2017-05-26T06:46:15Z</time>
      </trkpt>
      <trkpt lat="45.77529" lon="3.80414">
        <ele>958.5</ele>
        <time>2017-05-26T06:46:21Z</time>
      </trkpt>
      <trkpt lat="45.77528" lon="3.80401">
        <ele>959</ele>
        <time>2017-05-26T06:46:26Z</time>
      </trkpt>
      <trkpt lat="45.77525" lon="3.80387">
        <ele>959.900024</ele>
        <time>2017-05-26T06:46:32Z</time>
      </trkpt>
      <trkpt lat="45.77525" lon="3.80373">
        <ele>960.5</ele>
        <time>2017-05-26T06:46:37Z</time>
      </trkpt>
      <trkpt lat="45.77524" lon="3.80359">
        <ele>961.099976</ele>
        <time>2017-05-26T06:46:42Z</time>
      </trkpt>
      <trkpt lat="45.77525" lon="3.80345">
        <ele>961.900024</ele>
        <time>2017-05-26T06:46:47Z</time>
      </trkpt>
      <trkpt lat="45.77527" lon="3.80331">
        <ele>963</ele>
        <time>2017-05-26T06:46:52Z</time>
      </trkpt>
      <trkpt lat="45.77526" lon="3.80316">
        <ele>963.799988</ele>
        <time>2017-05-26T06:46:57Z</time>
      </trkpt>
      <trkpt lat="45.77526" lon="3.80303">
        <ele>964.599976</ele>
        <time>2017-05-26T06:47:02Z</time>
      </trkpt>
      <trkpt lat="45.77526" lon="3.80288">
        <ele>965</ele>
        <time>2017-05-26T06:47:07Z</time>
      </trkpt>
      <trkpt lat="45.77526" lon="3.80274">
        <ele>965.599976</ele>
        <time>2017-05-26T06:47:12Z</time>
      </trkpt>
      <trkpt lat="45.77527" lon="3.8026">
        <ele>965.900024</ele>
        <time>2017-05-26T06:47:17Z</time>
      </trkpt>
      <trkpt lat="45.77525" lon="3.80247">
        <ele>966.5</ele>
        <time>2017-05-26T06:47:22Z</time>
      </trkpt>
      <trkpt lat="45.77523" lon="3.80232">
        <ele>966.799988</ele>
        <time>2017-05-26T06:47:27Z</time>
      </trkpt>
      <trkpt lat="45.7752" lon="3.80218">
        <ele>967.099976</ele>
        <time>2017-05-26T06:47:32Z</time>
      </trkpt>
      <trkpt lat="45.77516" lon="3.80204">
        <ele>967.299988</ele>
        <time>2017-05-26T06:47:37Z</time>
      </trkpt>
      <trkpt lat="45.77512" lon="3.80191">
        <ele>967.299988</ele>
        <time>2017-05-26T06:47:40Z</time>
      </trkpt>
      <trkpt lat="45.77508" lon="3.80179">
        <ele>967.200012</ele>
        <time>2017-05-26T06:47:43Z</time>
      </trkpt>
      <trkpt lat="45.77504" lon="3.80166">
        <ele>966.900024</ele>
        <time>2017-05-26T06:47:46Z</time>
      </trkpt>
      <trkpt lat="45.77498" lon="3.80151">
        <ele>966.700012</ele>
        <time>2017-05-26T06:47:50Z</time>
      </trkpt>
      <trkpt lat="45.77493" lon="3.80137">
        <ele>967</ele>
        <time>2017-05-26T06:47:54Z</time>
      </trkpt>
      <trkpt lat="45.77488" lon="3.80123">
        <ele>967</ele>
        <time>2017-05-26T06:47:58Z</time>
      </trkpt>
      <trkpt lat="45.77482" lon="3.80108">
        <ele>967.200012</ele>
        <time>2017-05-26T06:48:02Z</time>
      </trkpt>
      <trkpt lat="45.77476" lon="3.80095">
        <ele>967.299988</ele>
        <time>2017-05-26T06:48:06Z</time>
      </trkpt>
      <trkpt lat="45.77471" lon="3.80081">
        <ele>967</ele>
        <time>2017-05-26T06:48:10Z</time>
      </trkpt>
      <trkpt lat="45.77466" lon="3.80068">
        <ele>967.400024</ele>
        <time>2017-05-26T06:48:14Z</time>
      </trkpt>
      <trkpt lat="45.77461" lon="3.80057">
        <ele>967.700012</ele>
        <time>2017-05-26T06:48:18Z</time>
      </trkpt>
      <trkpt lat="45.77457" lon="3.80044">
        <ele>968.700012</ele>
        <time>2017-05-26T06:48:49Z</time>
      </trkpt>
      <trkpt lat="45.77457" lon="3.80043">
        <ele>969.400024</ele>
        <time>2017-05-26T06:49:27Z</time>
      </trkpt>
      <trkpt lat="45.77451" lon="3.80056">
        <ele>968.700012</ele>
        <time>2017-05-26T06:49:33Z</time>
      </trkpt>
      <trkpt lat="45.77443" lon="3.80064">
        <ele>968.599976</ele>
        <time>2017-05-26T06:49:36Z</time>
      </trkpt>
      <trkpt lat="45.77433" lon="3.80074">
        <ele>968.299988</ele>
        <time>2017-05-26T06:49:40Z</time>
      </trkpt>
      <trkpt lat="45.77424" lon="3.80069">
        <ele>968</ele>
        <time>2017-05-26T06:49:45Z</time>
      </trkpt>
      <trkpt lat="45.77415" lon="3.80062">
        <ele>968.200012</ele>
        <time>2017-05-26T06:49:53Z</time>
      </trkpt>
      <trkpt lat="45.77409" lon="3.80054">
        <ele>968.700012</ele>
        <time>2017-05-26T06:50:00Z</time>
      </trkpt>
      <trkpt lat="45.774" lon="3.80048">
        <ele>969.099976</ele>
        <time>2017-05-26T06:50:06Z</time>
      </trkpt>
      <trkpt lat="45.7739" lon="3.80043">
        <ele>969.799988</ele>
        <time>2017-05-26T06:50:11Z</time>
      </trkpt>
      <trkpt lat="45.77381" lon="3.80038">
        <ele>970.299988</ele>
        <time>2017-05-26T06:50:15Z</time>
      </trkpt>
      <trkpt lat="45.77372" lon="3.80035">
        <ele>970.599976</ele>
        <time>2017-05-26T06:50:20Z</time>
      </trkpt>
      <trkpt lat="45.77364" lon="3.80028">
        <ele>970.900024</ele>
        <time>2017-05-26T06:50:25Z</time>
      </trkpt>
      <trkpt lat="45.77356" lon="3.80022">
        <ele>971.599976</ele>
        <time>2017-05-26T06:50:30Z</time>
      </trkpt>
      <trkpt lat="45.77347" lon="3.80014">
        <ele>972.299988</ele>
        <time>2017-05-26T06:50:35Z</time>
      </trkpt>
      <trkpt lat="45.77339" lon="3.80008">
        <ele>972.599976</ele>
        <time>2017-05-26T06:50:39Z</time>
      </trkpt>
      <trkpt lat="45.7733" lon="3.8">
        <ele>973.400024</ele>
        <time>2017-05-26T06:50:44Z</time>
      </trkpt>
      <trkpt lat="45.77321" lon="3.7999">
        <ele>974.299988</ele>
        <time>2017-05-26T06:50:49Z</time>
      </trkpt>
      <trkpt lat="45.77315" lon="3.7998">
        <ele>974.799988</ele>
        <time>2017-05-26T06:50:53Z</time>
      </trkpt>
      <trkpt lat="45.77309" lon="3.7997">
        <ele>975.299988</ele>
        <time>2017-05-26T06:50:57Z</time>
      </trkpt>
      <trkpt lat="45.77304" lon="3.79959">
        <ele>975.599976</ele>
        <time>2017-05-26T06:51:01Z</time>
      </trkpt>
      <trkpt lat="45.77298" lon="3.79945">
        <ele>976.400024</ele>
        <time>2017-05-26T06:51:06Z</time>
      </trkpt>
      <trkpt lat="45.77293" lon="3.79935">
        <ele>976.799988</ele>
        <time>2017-05-26T06:51:10Z</time>
      </trkpt>
      <trkpt lat="45.77288" lon="3.79923">
        <ele>977.5</ele>
        <time>2017-05-26T06:51:14Z</time>
      </trkpt>
      <trkpt lat="45.77282" lon="3.7991">
        <ele>978.099976</ele>
        <time>2017-05-26T06:51:19Z</time>
      </trkpt>
      <trkpt lat="45.77277" lon="3.79896">
        <ele>978.900024</ele>
        <time>2017-05-26T06:51:24Z</time>
      </trkpt>
      <trkpt lat="45.77272" lon="3.79883">
        <ele>979.400024</ele>
        <time>2017-05-26T06:51:29Z</time>
      </trkpt>
      <trkpt lat="45.77268" lon="3.79868">
        <ele>980.5</ele>
        <time>2017-05-26T06:51:34Z</time>
      </trkpt>
      <trkpt lat="45.77264" lon="3.79855">
        <ele>981</ele>
        <time>2017-05-26T06:51:38Z</time>
      </trkpt>
      <trkpt lat="45.7726" lon="3.79842">
        <ele>981.5</ele>
        <time>2017-05-26T06:51:42Z</time>
      </trkpt>
      <trkpt lat="45.77256" lon="3.7983">
        <ele>982.099976</ele>
        <time>2017-05-26T06:51:46Z</time>
      </trkpt>
      <trkpt lat="45.77252" lon="3.79818">
        <ele>982.5</ele>
        <time>2017-05-26T06:51:50Z</time>
      </trkpt>
      <trkpt lat="45.77246" lon="3.79807">
        <ele>983</ele>
        <time>2017-05-26T06:51:54Z</time>
      </trkpt>
      <trkpt lat="45.7724" lon="3.79795">
        <ele>983.599976</ele>
        <time>2017-05-26T06:51:58Z</time>
      </trkpt>
      <trkpt lat="45.77234" lon="3.79785">
        <ele>984.099976</ele>
        <time>2017-05-26T06:52:02Z</time>
      </trkpt>
      <trkpt lat="45.77228" lon="3.79774">
        <ele>984.700012</ele>
        <time>2017-05-26T06:52:06Z</time>
      </trkpt>
      <trkpt lat="45.77223" lon="3.79763">
        <ele>985.099976</ele>
        <time>2017-05-26T06:52:10Z</time>
      </trkpt>
      <trkpt lat="45.77216" lon="3.79753">
        <ele>985.5</ele>
        <time>2017-05-26T06:52:14Z</time>
      </trkpt>
      <trkpt lat="45.77211" lon="3.79742">
        <ele>985.799988</ele>
        <time>2017-05-26T06:52:18Z</time>
      </trkpt>
      <trkpt lat="45.77207" lon="3.7973">
        <ele>986</ele>
        <time>2017-05-26T06:52:22Z</time>
      </trkpt>
      <trkpt lat="45.77203" lon="3.79717">
        <ele>986.400024</ele>
        <time>2017-05-26T06:52:26Z</time>
      </trkpt>
      <trkpt lat="45.77199" lon="3.79705">
        <ele>986.700012</ele>
        <time>2017-05-26T06:52:30Z</time>
      </trkpt>
      <trkpt lat="45.77193" lon="3.79692">
        <ele>987.299988</ele>
        <time>2017-05-26T06:52:35Z</time>
      </trkpt>
      <trkpt lat="45.77187" lon="3.7968">
        <ele>988.099976</ele>
        <time>2017-05-26T06:52:40Z</time>
      </trkpt>
      <trkpt lat="45.77181" lon="3.79669">
        <ele>989</ele>
        <time>2017-05-26T06:52:45Z</time>
      </trkpt>
      <trkpt lat="45.77173" lon="3.79658">
        <ele>990.400024</ele>
        <time>2017-05-26T06:52:51Z</time>
      </trkpt>
      <trkpt lat="45.77168" lon="3.79644">
        <ele>991.799988</ele>
        <time>2017-05-26T06:52:57Z</time>
      </trkpt>
      <trkpt lat="45.77162" lon="3.79632">
        <ele>992.900024</ele>
        <time>2017-05-26T06:53:02Z</time>
      </trkpt>
      <trkpt lat="45.77156" lon="3.7962">
        <ele>994.200012</ele>
        <time>2017-05-26T06:53:08Z</time>
      </trkpt>
      <trkpt lat="45.77149" lon="3.79609">
        <ele>995.700012</ele>
        <time>2017-05-26T06:53:14Z</time>
      </trkpt>
      <trkpt lat="45.77144" lon="3.79598">
        <ele>997.299988</ele>
        <time>2017-05-26T06:53:20Z</time>
      </trkpt>
      <trkpt lat="45.77134" lon="3.79596">
        <ele>999</ele>
        <time>2017-05-26T06:53:27Z</time>
      </trkpt>
      <trkpt lat="45.77127" lon="3.79608">
        <ele>999.900024</ele>
        <time>2017-05-26T06:53:34Z</time>
      </trkpt>
      <trkpt lat="45.77122" lon="3.79619">
        <ele>1000.799988</ele>
        <time>2017-05-26T06:53:40Z</time>
      </trkpt>
      <trkpt lat="45.77115" lon="3.79631">
        <ele>1001.599976</ele>
        <time>2017-05-26T06:53:46Z</time>
      </trkpt>
      <trkpt lat="45.77108" lon="3.79643">
        <ele>1002.099976</ele>
        <time>2017-05-26T06:53:51Z</time>
      </trkpt>
      <trkpt lat="45.77102" lon="3.79652">
        <ele>1002.400024</ele>
        <time>2017-05-26T06:53:55Z</time>
      </trkpt>
      <trkpt lat="45.77096" lon="3.79661">
        <ele>1002.700012</ele>
        <time>2017-05-26T06:53:59Z</time>
      </trkpt>
      <trkpt lat="45.77087" lon="3.7967">
        <ele>1002.799988</ele>
        <time>2017-05-26T06:54:03Z</time>
      </trkpt>
      <trkpt lat="45.77078" lon="3.79678">
        <ele>1002.900024</ele>
        <time>2017-05-26T06:54:07Z</time>
      </trkpt>
      <trkpt lat="45.77069" lon="3.79685">
        <ele>1003.099976</ele>
        <time>2017-05-26T06:54:11Z</time>
      </trkpt>
      <trkpt lat="45.7706" lon="3.79688">
        <ele>1003.400024</ele>
        <time>2017-05-26T06:54:15Z</time>
      </trkpt>
      <trkpt lat="45.77051" lon="3.79689">
        <ele>1003.799988</ele>
        <time>2017-05-26T06:54:19Z</time>
      </trkpt>
      <trkpt lat="45.77041" lon="3.79691">
        <ele>1004.400024</ele>
        <time>2017-05-26T06:54:23Z</time>
      </trkpt>
      <trkpt lat="45.77031" lon="3.79691">
        <ele>1005</ele>
        <time>2017-05-26T06:54:27Z</time>
      </trkpt>
      <trkpt lat="45.7702" lon="3.79692">
        <ele>1005</ele>
        <time>2017-05-26T06:54:31Z</time>
      </trkpt>
      <trkpt lat="45.77011" lon="3.79694">
        <ele>1005</ele>
        <time>2017-05-26T06:54:34Z</time>
      </trkpt>
      <trkpt lat="45.77002" lon="3.79694">
        <ele>1005</ele>
        <time>2017-05-26T06:54:37Z</time>
      </trkpt>
      <trkpt lat="45.7699" lon="3.79689">
        <ele>1005.099976</ele>
        <time>2017-05-26T06:54:40Z</time>
      </trkpt>
      <trkpt lat="45.76983" lon="3.79681">
        <ele>1005</ele>
        <time>2017-05-26T06:54:43Z</time>
      </trkpt>
      <trkpt lat="45.76974" lon="3.79672">
        <ele>1005.099976</ele>
        <time>2017-05-26T06:54:47Z</time>
      </trkpt>
      <trkpt lat="45.76966" lon="3.79663">
        <ele>1005.299988</ele>
        <time>2017-05-26T06:54:51Z</time>
      </trkpt>
      <trkpt lat="45.76957" lon="3.79654">
        <ele>1005.700012</ele>
        <time>2017-05-26T06:54:55Z</time>
      </trkpt>
      <trkpt lat="45.7695" lon="3.79645">
        <ele>1006.299988</ele>
        <time>2017-05-26T06:55:00Z</time>
      </trkpt>
      <trkpt lat="45.76942" lon="3.79639">
        <ele>1007.299988</ele>
        <time>2017-05-26T06:55:05Z</time>
      </trkpt>
      <trkpt lat="45.76935" lon="3.7963">
        <ele>1008.099976</ele>
        <time>2017-05-26T06:55:11Z</time>
      </trkpt>
      <trkpt lat="45.76926" lon="3.79626">
        <ele>1008.599976</ele>
        <time>2017-05-26T06:55:15Z</time>
      </trkpt>
      <trkpt lat="45.76915" lon="3.7962">
        <ele>1009.200012</ele>
        <time>2017-05-26T06:55:21Z</time>
      </trkpt>
      <trkpt lat="45.76906" lon="3.79614">
        <ele>1009.700012</ele>
        <time>2017-05-26T06:55:25Z</time>
      </trkpt>
      <trkpt lat="45.76896" lon="3.79609">
        <ele>1010.299988</ele>
        <time>2017-05-26T06:55:31Z</time>
      </trkpt>
      <trkpt lat="45.76884" lon="3.79608">
        <ele>1010.900024</ele>
        <time>2017-05-26T06:55:37Z</time>
      </trkpt>
      <trkpt lat="45.76875" lon="3.79608">
        <ele>1011.599976</ele>
        <time>2017-05-26T06:55:40Z</time>
      </trkpt>
      <trkpt lat="45.76865" lon="3.79608">
        <ele>1012.200012</ele>
        <time>2017-05-26T06:55:43Z</time>
      </trkpt>
      <trkpt lat="45.76855" lon="3.79612">
        <ele>1012.900024</ele>
        <time>2017-05-26T06:55:48Z</time>
      </trkpt>
      <trkpt lat="45.76846" lon="3.79618">
        <ele>1014.299988</ele>
        <time>2017-05-26T06:55:53Z</time>
      </trkpt>
      <trkpt lat="45.76835" lon="3.79622">
        <ele>1015.299988</ele>
        <time>2017-05-26T06:55:58Z</time>
      </trkpt>
      <trkpt lat="45.76825" lon="3.79624">
        <ele>1015.700012</ele>
        <time>2017-05-26T06:56:02Z</time>
      </trkpt>
      <trkpt lat="45.76816" lon="3.79626">
        <ele>1015.799988</ele>
        <time>2017-05-26T06:56:05Z</time>
      </trkpt>
      <trkpt lat="45.76806" lon="3.79626">
        <ele>1015.799988</ele>
        <time>2017-05-26T06:56:08Z</time>
      </trkpt>
      <trkpt lat="45.76796" lon="3.79626">
        <ele>1015.799988</ele>
        <time>2017-05-26T06:56:11Z</time>
      </trkpt>
      <trkpt lat="45.76787" lon="3.79622">
        <ele>1015.799988</ele>
        <time>2017-05-26T06:56:14Z</time>
      </trkpt>
      <trkpt lat="45.76777" lon="3.79616">
        <ele>1015.799988</ele>
        <time>2017-05-26T06:56:17Z</time>
      </trkpt>
      <trkpt lat="45.76768" lon="3.79607">
        <ele>1015.900024</ele>
        <time>2017-05-26T06:56:20Z</time>
      </trkpt>
      <trkpt lat="45.76758" lon="3.79601">
        <ele>1015.900024</ele>
        <time>2017-05-26T06:56:23Z</time>
      </trkpt>
      <trkpt lat="45.76749" lon="3.79598">
        <ele>1015.599976</ele>
        <time>2017-05-26T06:56:25Z</time>
      </trkpt>
      <trkpt lat="45.76739" lon="3.79596">
        <ele>1015.599976</ele>
        <time>2017-05-26T06:56:27Z</time>
      </trkpt>
      <trkpt lat="45.76729" lon="3.79594">
        <ele>1015.5</ele>
        <time>2017-05-26T06:56:29Z</time>
      </trkpt>
      <trkpt lat="45.76719" lon="3.79591">
        <ele>1015.299988</ele>
        <time>2017-05-26T06:56:31Z</time>
      </trkpt>
      <trkpt lat="45.76709" lon="3.79588">
        <ele>1014.900024</ele>
        <time>2017-05-26T06:56:33Z</time>
      </trkpt>
      <trkpt lat="45.767" lon="3.79584">
        <ele>1014.599976</ele>
        <time>2017-05-26T06:56:35Z</time>
      </trkpt>
      <trkpt lat="45.76689" lon="3.7958">
        <ele>1014.299988</ele>
        <time>2017-05-26T06:56:38Z</time>
      </trkpt>
      <trkpt lat="45.76677" lon="3.7958">
        <ele>1014.400024</ele>
        <time>2017-05-26T06:57:59Z</time>
      </trkpt>
      <trkpt lat="45.76664" lon="3.79584">
        <ele>1013.900024</ele>
        <time>2017-05-26T06:58:02Z</time>
      </trkpt>
      <trkpt lat="45.76654" lon="3.79586">
        <ele>1013.400024</ele>
        <time>2017-05-26T06:58:04Z</time>
      </trkpt>
      <trkpt lat="45.76643" lon="3.79589">
        <ele>1013.099976</ele>
        <time>2017-05-26T06:58:06Z</time>
      </trkpt>
      <trkpt lat="45.76632" lon="3.79591">
        <ele>1012.700012</ele>
        <time>2017-05-26T06:58:08Z</time>
      </trkpt>
      <trkpt lat="45.76621" lon="3.7959">
        <ele>1012.299988</ele>
        <time>2017-05-26T06:58:10Z</time>
      </trkpt>
      <trkpt lat="45.7661" lon="3.79589">
        <ele>1012</ele>
        <time>2017-05-26T06:58:12Z</time>
      </trkpt>
      <trkpt lat="45.766" lon="3.7959">
        <ele>1011.900024</ele>
        <time>2017-05-26T06:58:14Z</time>
      </trkpt>
      <trkpt lat="45.7659" lon="3.79591">
        <ele>1011.900024</ele>
        <time>2017-05-26T06:58:16Z</time>
      </trkpt>
      <trkpt lat="45.76581" lon="3.79594">
        <ele>1011.799988</ele>
        <time>2017-05-26T06:58:18Z</time>
      </trkpt>
      <trkpt lat="45.7657" lon="3.79606">
        <ele>1011.5</ele>
        <time>2017-05-26T06:58:21Z</time>
      </trkpt>
      <trkpt lat="45.76562" lon="3.7962">
        <ele>1011.400024</ele>
        <time>2017-05-26T06:58:24Z</time>
      </trkpt>
      <trkpt lat="45.76552" lon="3.79634">
        <ele>1011.299988</ele>
        <time>2017-05-26T06:58:27Z</time>
      </trkpt>
      <trkpt lat="45.76544" lon="3.79642">
        <ele>1011.099976</ele>
        <time>2017-05-26T06:58:29Z</time>
      </trkpt>
      <trkpt lat="45.76535" lon="3.79647">
        <ele>1011.099976</ele>
        <time>2017-05-26T06:58:31Z</time>
      </trkpt>
      <trkpt lat="45.76522" lon="3.79646">
        <ele>1011.099976</ele>
        <time>2017-05-26T06:58:34Z</time>
      </trkpt>
      <trkpt lat="45.76513" lon="3.79641">
        <ele>1011.099976</ele>
        <time>2017-05-26T06:58:36Z</time>
      </trkpt>
      <trkpt lat="45.76504" lon="3.79634">
        <ele>1011</ele>
        <time>2017-05-26T06:58:38Z</time>
      </trkpt>
      <trkpt lat="45.76494" lon="3.79628">
        <ele>1010.700012</ele>
        <time>2017-05-26T06:58:40Z</time>
      </trkpt>
      <trkpt lat="45.76482" lon="3.79623">
        <ele>1010.400024</ele>
        <time>2017-05-26T06:58:42Z</time>
      </trkpt>
      <trkpt lat="45.7647" lon="3.79614">
        <ele>1009.599976</ele>
        <time>2017-05-26T06:58:44Z</time>
      </trkpt>
      <trkpt lat="45.76457" lon="3.79603">
        <ele>1009</ele>
        <time>2017-05-26T06:58:46Z</time>
      </trkpt>
      <trkpt lat="45.76446" lon="3.79589">
        <ele>1008.400024</ele>
        <time>2017-05-26T06:58:48Z</time>
      </trkpt>
      <trkpt lat="45.76436" lon="3.79575">
        <ele>1008</ele>
        <time>2017-05-26T06:58:50Z</time>
      </trkpt>
      <trkpt lat="45.76425" lon="3.79562">
        <ele>1007.599976</ele>
        <time>2017-05-26T06:58:52Z</time>
      </trkpt>
      <trkpt lat="45.76414" lon="3.79557">
        <ele>1007.299988</ele>
        <time>2017-05-26T06:58:54Z</time>
      </trkpt>
      <trkpt lat="45.76404" lon="3.79558">
        <ele>1007.200012</ele>
        <time>2017-05-26T06:58:57Z</time>
      </trkpt>
      <trkpt lat="45.76396" lon="3.79566">
        <ele>1007.400024</ele>
        <time>2017-05-26T06:58:59Z</time>
      </trkpt>
      <trkpt lat="45.76386" lon="3.7958">
        <ele>1007.200012</ele>
        <time>2017-05-26T06:59:03Z</time>
      </trkpt>
      <trkpt lat="45.76379" lon="3.79593">
        <ele>1007.400024</ele>
        <time>2017-05-26T06:59:06Z</time>
      </trkpt>
      <trkpt lat="45.76375" lon="3.79606">
        <ele>1008</ele>
        <time>2017-05-26T06:59:10Z</time>
      </trkpt>
      <trkpt lat="45.7637" lon="3.79619">
        <ele>1009.299988</ele>
        <time>2017-05-26T06:59:14Z</time>
      </trkpt>
      <trkpt lat="45.76368" lon="3.79632">
        <ele>1011.400024</ele>
        <time>2017-05-26T06:59:21Z</time>
      </trkpt>
      <trkpt lat="45.76366" lon="3.79646">
        <ele>1013.700012</ele>
        <time>2017-05-26T06:59:28Z</time>
      </trkpt>
      <trkpt lat="45.76364" lon="3.7966">
        <ele>1015</ele>
        <time>2017-05-26T06:59:35Z</time>
      </trkpt>
      <trkpt lat="45.76364" lon="3.79674">
        <ele>1015.900024</ele>
        <time>2017-05-26T06:59:39Z</time>
      </trkpt>
      <trkpt lat="45.76363" lon="3.79688">
        <ele>1016.700012</ele>
        <time>2017-05-26T06:59:43Z</time>
      </trkpt>
      <trkpt lat="45.76363" lon="3.79701">
        <ele>1017.700012</ele>
        <time>2017-05-26T06:59:48Z</time>
      </trkpt>
      <trkpt lat="45.76359" lon="3.79714">
        <ele>1018.700012</ele>
        <time>2017-05-26T06:59:52Z</time>
      </trkpt>
      <trkpt lat="45.76354" lon="3.79726">
        <ele>1020</ele>
        <time>2017-05-26T06:59:57Z</time>
      </trkpt>
      <trkpt lat="45.7635" lon="3.7974">
        <ele>1021.599976</ele>
        <time>2017-05-26T07:00:03Z</time>
      </trkpt>
      <trkpt lat="45.76345" lon="3.79752">
        <ele>1022.5</ele>
        <time>2017-05-26T07:00:08Z</time>
      </trkpt>
      <trkpt lat="45.7634" lon="3.79763">
        <ele>1023.400024</ele>
        <time>2017-05-26T07:00:14Z</time>
      </trkpt>
      <trkpt lat="45.76339" lon="3.79777">
        <ele>1024.400024</ele>
        <time>2017-05-26T07:00:20Z</time>
      </trkpt>
      <trkpt lat="45.76337" lon="3.79791">
        <ele>1024.800049</ele>
        <time>2017-05-26T07:00:25Z</time>
      </trkpt>
      <trkpt lat="45.76335" lon="3.79805">
        <ele>1024.900024</ele>
        <time>2017-05-26T07:00:30Z</time>
      </trkpt>
      <trkpt lat="45.7633" lon="3.79818">
        <ele>1024.900024</ele>
        <time>2017-05-26T07:00:34Z</time>
      </trkpt>
      <trkpt lat="45.76323" lon="3.79829">
        <ele>1024.800049</ele>
        <time>2017-05-26T07:00:39Z</time>
      </trkpt>
      <trkpt lat="45.76316" lon="3.79837">
        <ele>1024.699951</ele>
        <time>2017-05-26T07:00:42Z</time>
      </trkpt>
      <trkpt lat="45.76307" lon="3.79845">
        <ele>1024.599976</ele>
        <time>2017-05-26T07:00:45Z</time>
      </trkpt>
      <trkpt lat="45.763" lon="3.79854">
        <ele>1024.5</ele>
        <time>2017-05-26T07:00:48Z</time>
      </trkpt>
      <trkpt lat="45.76291" lon="3.79864">
        <ele>1024.5</ele>
        <time>2017-05-26T07:00:52Z</time>
      </trkpt>
      <trkpt lat="45.76283" lon="3.79874">
        <ele>1024.900024</ele>
        <time>2017-05-26T07:00:56Z</time>
      </trkpt>
      <trkpt lat="45.76276" lon="3.79883">
        <ele>1025.099976</ele>
        <time>2017-05-26T07:00:59Z</time>
      </trkpt>
      <trkpt lat="45.76267" lon="3.79895">
        <ele>1025.5</ele>
        <time>2017-05-26T07:01:03Z</time>
      </trkpt>
      <trkpt lat="45.76265" lon="3.79911">
        <ele>1025.900024</ele>
        <time>2017-05-26T07:01:08Z</time>
      </trkpt>
      <trkpt lat="45.76261" lon="3.79924">
        <ele>1025.900024</ele>
        <time>2017-05-26T07:01:11Z</time>
      </trkpt>
      <trkpt lat="45.76257" lon="3.79942">
        <ele>1026</ele>
        <time>2017-05-26T07:01:14Z</time>
      </trkpt>
      <trkpt lat="45.76257" lon="3.79961">
        <ele>1025.400024</ele>
        <time>2017-05-26T07:01:17Z</time>
      </trkpt>
      <trkpt lat="45.76259" lon="3.79978">
        <ele>1025</ele>
        <time>2017-05-26T07:01:19Z</time>
      </trkpt>
      <trkpt lat="45.7626" lon="3.79997">
        <ele>1024.300049</ele>
        <time>2017-05-26T07:01:21Z</time>
      </trkpt>
      <trkpt lat="45.76257" lon="3.80021">
        <ele>1023.5</ele>
        <time>2017-05-26T07:01:23Z</time>
      </trkpt>
      <trkpt lat="45.76257" lon="3.80038">
        <ele>1022.099976</ele>
        <time>2017-05-26T07:01:25Z</time>
      </trkpt>
      <trkpt lat="45.7626" lon="3.80055">
        <ele>1021.200012</ele>
        <time>2017-05-26T07:01:27Z</time>
      </trkpt>
      <trkpt lat="45.76265" lon="3.80078">
        <ele>1020.299988</ele>
        <time>2017-05-26T07:01:29Z</time>
      </trkpt>
      <trkpt lat="45.76266" lon="3.801">
        <ele>1019.700012</ele>
        <time>2017-05-26T07:01:31Z</time>
      </trkpt>
      <trkpt lat="45.76269" lon="3.80117">
        <ele>1019.299988</ele>
        <time>2017-05-26T07:01:34Z</time>
      </trkpt>
      <trkpt lat="45.76275" lon="3.80127">
        <ele>1019.5</ele>
        <time>2017-05-26T07:01:37Z</time>
      </trkpt>
      <trkpt lat="45.76276" lon="3.80141">
        <ele>1020.599976</ele>
        <time>2017-05-26T07:01:41Z</time>
      </trkpt>
      <trkpt lat="45.76278" lon="3.80154">
        <ele>1021.5</ele>
        <time>2017-05-26T07:01:45Z</time>
      </trkpt>
      <trkpt lat="45.76279" lon="3.80167">
        <ele>1022.599976</ele>
        <time>2017-05-26T07:01:50Z</time>
      </trkpt>
      <trkpt lat="45.76278" lon="3.80181">
        <ele>1023.700012</ele>
        <time>2017-05-26T07:01:55Z</time>
      </trkpt>
      <trkpt lat="45.76279" lon="3.80196">
        <ele>1025.300049</ele>
        <time>2017-05-26T07:02:01Z</time>
      </trkpt>
      <trkpt lat="45.76283" lon="3.80209">
        <ele>1028</ele>
        <time>2017-05-26T07:02:08Z</time>
      </trkpt>
      <trkpt lat="45.76286" lon="3.80223">
        <ele>1030.400024</ele>
        <time>2017-05-26T07:02:15Z</time>
      </trkpt>
      <trkpt lat="45.76288" lon="3.80237">
        <ele>1033</ele>
        <time>2017-05-26T07:02:23Z</time>
      </trkpt>
      <trkpt lat="45.76292" lon="3.80249">
        <ele>1034.900024</ele>
        <time>2017-05-26T07:02:31Z</time>
      </trkpt>
      <trkpt lat="45.76292" lon="3.80263">
        <ele>1036.699951</ele>
        <time>2017-05-26T07:02:40Z</time>
      </trkpt>
      <trkpt lat="45.76294" lon="3.80276">
        <ele>1038.199951</ele>
        <time>2017-05-26T07:02:48Z</time>
      </trkpt>
      <trkpt lat="45.76296" lon="3.80289">
        <ele>1039.599976</ele>
        <time>2017-05-26T07:02:56Z</time>
      </trkpt>
      <trkpt lat="45.76298" lon="3.80302">
        <ele>1041.199951</ele>
        <time>2017-05-26T07:03:04Z</time>
      </trkpt>
      <trkpt lat="45.76298" lon="3.80317">
        <ele>1043.300049</ele>
        <time>2017-05-26T07:03:13Z</time>
      </trkpt>
      <trkpt lat="45.76299" lon="3.80331">
        <ele>1045</ele>
        <time>2017-05-26T07:03:22Z</time>
      </trkpt>
      <trkpt lat="45.76298" lon="3.80344">
        <ele>1046.599976</ele>
        <time>2017-05-26T07:03:30Z</time>
      </trkpt>
      <trkpt lat="45.76296" lon="3.80358">
        <ele>1048.599976</ele>
        <time>2017-05-26T07:03:39Z</time>
      </trkpt>
      <trkpt lat="45.76286" lon="3.80365">
        <ele>1050.800049</ele>
        <time>2017-05-26T07:03:47Z</time>
      </trkpt>
      <trkpt lat="45.76277" lon="3.80369">
        <ele>1052.599976</ele>
        <time>2017-05-26T07:03:54Z</time>
      </trkpt>
      <trkpt lat="45.76269" lon="3.80375">
        <ele>1053.199951</ele>
        <time>2017-05-26T07:04:37Z</time>
      </trkpt>
      <trkpt lat="45.76258" lon="3.8037">
        <ele>1053.199951</ele>
        <time>2017-05-26T07:07:06Z</time>
      </trkpt>
      <trkpt lat="45.76248" lon="3.80371">
        <ele>1053.099976</ele>
        <time>2017-05-26T07:07:10Z</time>
      </trkpt>
      <trkpt lat="45.76239" lon="3.80374">
        <ele>1052.900024</ele>
        <time>2017-05-26T07:07:16Z</time>
      </trkpt>
      <trkpt lat="45.76229" lon="3.80373">
        <ele>1053.199951</ele>
        <time>2017-05-26T07:07:32Z</time>
      </trkpt>
      <trkpt lat="45.76223" lon="3.80383">
        <ele>1053.800049</ele>
        <time>2017-05-26T07:07:49Z</time>
      </trkpt>
      <trkpt lat="45.76216" lon="3.80393">
        <ele>1054.199951</ele>
        <time>2017-05-26T07:08:05Z</time>
      </trkpt>
      <trkpt lat="45.76207" lon="3.80401">
        <ele>1054.5</ele>
        <time>2017-05-26T07:08:11Z</time>
      </trkpt>
      <trkpt lat="45.762" lon="3.80409">
        <ele>1055</ele>
        <time>2017-05-26T07:08:16Z</time>
      </trkpt>
      <trkpt lat="45.76192" lon="3.80418">
        <ele>1056.199951</ele>
        <time>2017-05-26T07:08:22Z</time>
      </trkpt>
      <trkpt lat="45.76184" lon="3.80426">
        <ele>1058</ele>
        <time>2017-05-26T07:08:30Z</time>
      </trkpt>
      <trkpt lat="45.76176" lon="3.80433">
        <ele>1059</ele>
        <time>2017-05-26T07:08:35Z</time>
      </trkpt>
      <trkpt lat="45.76167" lon="3.80439">
        <ele>1060.400024</ele>
        <time>2017-05-26T07:08:41Z</time>
      </trkpt>
      <trkpt lat="45.76159" lon="3.80448">
        <ele>1061.199951</ele>
        <time>2017-05-26T07:08:47Z</time>
      </trkpt>
      <trkpt lat="45.7615" lon="3.80455">
        <ele>1061.5</ele>
        <time>2017-05-26T07:08:53Z</time>
      </trkpt>
      <trkpt lat="45.76142" lon="3.80464">
        <ele>1061.900024</ele>
        <time>2017-05-26T07:09:00Z</time>
      </trkpt>
      <trkpt lat="45.76135" lon="3.80474">
        <ele>1062.400024</ele>
        <time>2017-05-26T07:09:05Z</time>
      </trkpt>
      <trkpt lat="45.76128" lon="3.80485">
        <ele>1063.5</ele>
        <time>2017-05-26T07:09:11Z</time>
      </trkpt>
      <trkpt lat="45.7612" lon="3.80494">
        <ele>1064.5</ele>
        <time>2017-05-26T07:09:16Z</time>
      </trkpt>
      <trkpt lat="45.76112" lon="3.80502">
        <ele>1065.400024</ele>
        <time>2017-05-26T07:09:22Z</time>
      </trkpt>
      <trkpt lat="45.76105" lon="3.80511">
        <ele>1066.699951</ele>
        <time>2017-05-26T07:09:28Z</time>
      </trkpt>
      <trkpt lat="45.76097" lon="3.80518">
        <ele>1067.800049</ele>
        <time>2017-05-26T07:09:32Z</time>
      </trkpt>
      <trkpt lat="45.76089" lon="3.80526">
        <ele>1068.699951</ele>
        <time>2017-05-26T07:09:37Z</time>
      </trkpt>
      <trkpt lat="45.76082" lon="3.80534">
        <ele>1070</ele>
        <time>2017-05-26T07:09:44Z</time>
      </trkpt>
      <trkpt lat="45.76074" lon="3.80544">
        <ele>1070.900024</ele>
        <time>2017-05-26T07:09:50Z</time>
      </trkpt>
      <trkpt lat="45.76071" lon="3.80557">
        <ele>1071.400024</ele>
        <time>2017-05-26T07:09:54Z</time>
      </trkpt>
      <trkpt lat="45.76065" lon="3.80567">
        <ele>1072.199951</ele>
        <time>2017-05-26T07:09:59Z</time>
      </trkpt>
      <trkpt lat="45.76058" lon="3.80577">
        <ele>1073.800049</ele>
        <time>2017-05-26T07:10:05Z</time>
      </trkpt>
      <trkpt lat="45.76052" lon="3.80586">
        <ele>1076</ele>
        <time>2017-05-26T07:10:15Z</time>
      </trkpt>
      <trkpt lat="45.76044" lon="3.80598">
        <ele>1077.199951</ele>
        <time>2017-05-26T07:10:22Z</time>
      </trkpt>
      <trkpt lat="45.76035" lon="3.80603">
        <ele>1078.199951</ele>
        <time>2017-05-26T07:10:29Z</time>
      </trkpt>
      <trkpt lat="45.76023" lon="3.80607">
        <ele>1078.599976</ele>
        <time>2017-05-26T07:10:34Z</time>
      </trkpt>
      <trkpt lat="45.76014" lon="3.8061">
        <ele>1079.800049</ele>
        <time>2017-05-26T07:10:40Z</time>
      </trkpt>
      <trkpt lat="45.76003" lon="3.80611">
        <ele>1080.699951</ele>
        <time>2017-05-26T07:10:47Z</time>
      </trkpt>
      <trkpt lat="45.75994" lon="3.80605">
        <ele>1080.900024</ele>
        <time>2017-05-26T07:10:53Z</time>
      </trkpt>
      <trkpt lat="45.75985" lon="3.80602">
        <ele>1080.900024</ele>
        <time>2017-05-26T07:10:59Z</time>
      </trkpt>
      <trkpt lat="45.75977" lon="3.80594">
        <ele>1081.5</ele>
        <time>2017-05-26T07:11:04Z</time>
      </trkpt>
      <trkpt lat="45.75968" lon="3.80591">
        <ele>1082.400024</ele>
        <time>2017-05-26T07:11:11Z</time>
      </trkpt>
      <trkpt lat="45.75958" lon="3.80596">
        <ele>1083.400024</ele>
        <time>2017-05-26T07:11:19Z</time>
      </trkpt>
      <trkpt lat="45.7595" lon="3.80603">
        <ele>1084.900024</ele>
        <time>2017-05-26T07:11:25Z</time>
      </trkpt>
      <trkpt lat="45.75942" lon="3.80612">
        <ele>1086.599976</ele>
        <time>2017-05-26T07:11:31Z</time>
      </trkpt>
      <trkpt lat="45.75935" lon="3.80621">
        <ele>1088.300049</ele>
        <time>2017-05-26T07:11:37Z</time>
      </trkpt>
      <trkpt lat="45.75927" lon="3.80628">
        <ele>1091</ele>
        <time>2017-05-26T07:11:45Z</time>
      </trkpt>
      <trkpt lat="45.75922" lon="3.8064">
        <ele>1094.400024</ele>
        <time>2017-05-26T07:12:08Z</time>
      </trkpt>
      <trkpt lat="45.7591" lon="3.80647">
        <ele>1094.300049</ele>
        <time>2017-05-26T07:12:23Z</time>
      </trkpt>
      <trkpt lat="45.75901" lon="3.80645">
        <ele>1095.099976</ele>
        <time>2017-05-26T07:12:28Z</time>
      </trkpt>
      <trkpt lat="45.75892" lon="3.80641">
        <ele>1096.900024</ele>
        <time>2017-05-26T07:12:34Z</time>
      </trkpt>
      <trkpt lat="45.75882" lon="3.8064">
        <ele>1098.300049</ele>
        <time>2017-05-26T07:12:40Z</time>
      </trkpt>
      <trkpt lat="45.75873" lon="3.80632">
        <ele>1099.300049</ele>
        <time>2017-05-26T07:12:47Z</time>
      </trkpt>
      <trkpt lat="45.75864" lon="3.8063">
        <ele>1100.900024</ele>
        <time>2017-05-26T07:12:58Z</time>
      </trkpt>
      <trkpt lat="45.75854" lon="3.80629">
        <ele>1102.099976</ele>
        <time>2017-05-26T07:13:16Z</time>
      </trkpt>
      <trkpt lat="45.75845" lon="3.8063">
        <ele>1102.5</ele>
        <time>2017-05-26T07:16:15Z</time>
      </trkpt>
      <trkpt lat="45.75836" lon="3.80627">
        <ele>1103.599976</ele>
        <time>2017-05-26T07:16:25Z</time>
      </trkpt>
      <trkpt lat="45.75827" lon="3.8062">
        <ele>1104.599976</ele>
        <time>2017-05-26T07:16:31Z</time>
      </trkpt>
      <trkpt lat="45.75817" lon="3.80617">
        <ele>1105.099976</ele>
        <time>2017-05-26T07:16:37Z</time>
      </trkpt>
      <trkpt lat="45.75808" lon="3.80612">
        <ele>1105.599976</ele>
        <time>2017-05-26T07:16:43Z</time>
      </trkpt>
      <trkpt lat="45.758" lon="3.80607">
        <ele>1105.699951</ele>
        <time>2017-05-26T07:16:48Z</time>
      </trkpt>
      <trkpt lat="45.75789" lon="3.80605">
        <ele>1106.199951</ele>
        <time>2017-05-26T07:16:53Z</time>
      </trkpt>
      <trkpt lat="45.7578" lon="3.80605">
        <ele>1106.400024</ele>
        <time>2017-05-26T07:16:59Z</time>
      </trkpt>
      <trkpt lat="45.75771" lon="3.806">
        <ele>1107.300049</ele>
        <time>2017-05-26T07:17:06Z</time>
      </trkpt>
      <trkpt lat="45.75762" lon="3.80596">
        <ele>1108.199951</ele>
        <time>2017-05-26T07:17:13Z</time>
      </trkpt>
      <trkpt lat="45.75752" lon="3.80594">
        <ele>1108.800049</ele>
        <time>2017-05-26T07:17:21Z</time>
      </trkpt>
      <trkpt lat="45.75742" lon="3.80591">
        <ele>1110</ele>
        <time>2017-05-26T07:17:27Z</time>
      </trkpt>
      <trkpt lat="45.75733" lon="3.80589">
        <ele>1111.199951</ele>
        <time>2017-05-26T07:17:33Z</time>
      </trkpt>
      <trkpt lat="45.75724" lon="3.80592">
        <ele>1112.400024</ele>
        <time>2017-05-26T07:17:41Z</time>
      </trkpt>
      <trkpt lat="45.75713" lon="3.80595">
        <ele>1114.099976</ele>
        <time>2017-05-26T07:17:50Z</time>
      </trkpt>
      <trkpt lat="45.75704" lon="3.806">
        <ele>1115.699951</ele>
        <time>2017-05-26T07:17:59Z</time>
      </trkpt>
      <trkpt lat="45.75696" lon="3.80605">
        <ele>1117.300049</ele>
        <time>2017-05-26T07:18:08Z</time>
      </trkpt>
      <trkpt lat="45.75686" lon="3.80612">
        <ele>1118.900024</ele>
        <time>2017-05-26T07:18:16Z</time>
      </trkpt>
      <trkpt lat="45.75677" lon="3.8062">
        <ele>1120.199951</ele>
        <time>2017-05-26T07:18:23Z</time>
      </trkpt>
      <trkpt lat="45.75669" lon="3.80628">
        <ele>1121.900024</ele>
        <time>2017-05-26T07:18:29Z</time>
      </trkpt>
      <trkpt lat="45.75658" lon="3.8063">
        <ele>1124.599976</ele>
        <time>2017-05-26T07:18:35Z</time>
      </trkpt>
      <trkpt lat="45.75648" lon="3.80625">
        <ele>1126.800049</ele>
        <time>2017-05-26T07:18:44Z</time>
      </trkpt>
      <trkpt lat="45.75638" lon="3.80623">
        <ele>1128.5</ele>
        <time>2017-05-26T07:18:55Z</time>
      </trkpt>
      <trkpt lat="45.75629" lon="3.80618">
        <ele>1128.900024</ele>
        <time>2017-05-26T07:19:01Z</time>
      </trkpt>
      <trkpt lat="45.7562" lon="3.80618">
        <ele>1129.400024</ele>
        <time>2017-05-26T07:19:10Z</time>
      </trkpt>
      <trkpt lat="45.75611" lon="3.80615">
        <ele>1130</ele>
        <time>2017-05-26T07:19:14Z</time>
      </trkpt>
      <trkpt lat="45.75601" lon="3.80616">
        <ele>1131.400024</ele>
        <time>2017-05-26T07:19:20Z</time>
      </trkpt>
      <trkpt lat="45.75591" lon="3.8062">
        <ele>1132.800049</ele>
        <time>2017-05-26T07:19:26Z</time>
      </trkpt>
      <trkpt lat="45.75582" lon="3.8062">
        <ele>1135.099976</ele>
        <time>2017-05-26T07:19:32Z</time>
      </trkpt>
      <trkpt lat="45.75572" lon="3.80622">
        <ele>1137.400024</ele>
        <time>2017-05-26T07:19:38Z</time>
      </trkpt>
      <trkpt lat="45.75567" lon="3.80632">
        <ele>1138.5</ele>
        <time>2017-05-26T07:22:45Z</time>
      </trkpt>
      <trkpt lat="45.75575" lon="3.80642">
        <ele>1139.800049</ele>
        <time>2017-05-26T07:24:07Z</time>
      </trkpt>
      <trkpt lat="45.75582" lon="3.80652">
        <ele>1139.900024</ele>
        <time>2017-05-26T07:24:12Z</time>
      </trkpt>
      <trkpt lat="45.7559" lon="3.80659">
        <ele>1140</ele>
        <time>2017-05-26T07:24:16Z</time>
      </trkpt>
      <trkpt lat="45.75598" lon="3.80667">
        <ele>1140.099976</ele>
        <time>2017-05-26T07:24:20Z</time>
      </trkpt>
      <trkpt lat="45.75608" lon="3.80676">
        <ele>1140.400024</ele>
        <time>2017-05-26T07:24:25Z</time>
      </trkpt>
      <trkpt lat="45.75618" lon="3.80686">
        <ele>1140.699951</ele>
        <time>2017-05-26T07:24:29Z</time>
      </trkpt>
      <trkpt lat="45.75625" lon="3.80695">
        <ele>1140.900024</ele>
        <time>2017-05-26T07:24:32Z</time>
      </trkpt>
      <trkpt lat="45.75633" lon="3.80704">
        <ele>1141.099976</ele>
        <time>2017-05-26T07:24:35Z</time>
      </trkpt>
      <trkpt lat="45.75642" lon="3.80714">
        <ele>1141.199951</ele>
        <time>2017-05-26T07:24:38Z</time>
      </trkpt>
      <trkpt lat="45.75651" lon="3.80727">
        <ele>1141.099976</ele>
        <time>2017-05-26T07:24:41Z</time>
      </trkpt>
      <trkpt lat="45.7566" lon="3.8074">
        <ele>1140.900024</ele>
        <time>2017-05-26T07:24:44Z</time>
      </trkpt>
      <trkpt lat="45.7567" lon="3.80751">
        <ele>1140.699951</ele>
        <time>2017-05-26T07:24:47Z</time>
      </trkpt>
      <trkpt lat="45.75678" lon="3.8076">
        <ele>1140.599976</ele>
        <time>2017-05-26T07:24:49Z</time>
      </trkpt>
      <trkpt lat="45.75686" lon="3.80766">
        <ele>1140.300049</ele>
        <time>2017-05-26T07:24:51Z</time>
      </trkpt>
      <trkpt lat="45.75698" lon="3.80774">
        <ele>1140</ele>
        <time>2017-05-26T07:24:54Z</time>
      </trkpt>
      <trkpt lat="45.75708" lon="3.80779">
        <ele>1139.800049</ele>
        <time>2017-05-26T07:24:56Z</time>
      </trkpt>
      <trkpt lat="45.75717" lon="3.80784">
        <ele>1139.699951</ele>
        <time>2017-05-26T07:24:59Z</time>
      </trkpt>
      <trkpt lat="45.75728" lon="3.80793">
        <ele>1139.800049</ele>
        <time>2017-05-26T07:25:03Z</time>
      </trkpt>
      <trkpt lat="45.75739" lon="3.80801">
        <ele>1139.800049</ele>
        <time>2017-05-26T07:25:06Z</time>
      </trkpt>
      <trkpt lat="45.75748" lon="3.80812">
        <ele>1139.599976</ele>
        <time>2017-05-26T07:25:09Z</time>
      </trkpt>
      <trkpt lat="45.75756" lon="3.80826">
        <ele>1139.400024</ele>
        <time>2017-05-26T07:25:12Z</time>
      </trkpt>
      <trkpt lat="45.75764" lon="3.8084">
        <ele>1139.099976</ele>
        <time>2017-05-26T07:25:15Z</time>
      </trkpt>
      <trkpt lat="45.7577" lon="3.80851">
        <ele>1138.900024</ele>
        <time>2017-05-26T07:25:17Z</time>
      </trkpt>
      <trkpt lat="45.75774" lon="3.80868">
        <ele>1138.400024</ele>
        <time>2017-05-26T07:25:20Z</time>
      </trkpt>
      <trkpt lat="45.75778" lon="3.80884">
        <ele>1138</ele>
        <time>2017-05-26T07:25:23Z</time>
      </trkpt>
      <trkpt lat="45.75779" lon="3.809">
        <ele>1137.599976</ele>
        <time>2017-05-26T07:25:26Z</time>
      </trkpt>
      <trkpt lat="45.7578" lon="3.80914">
        <ele>1137.300049</ele>
        <time>2017-05-26T07:25:29Z</time>
      </trkpt>
      <trkpt lat="45.75782" lon="3.8093">
        <ele>1136.699951</ele>
        <time>2017-05-26T07:25:32Z</time>
      </trkpt>
      <trkpt lat="45.75782" lon="3.80944">
        <ele>1136.5</ele>
        <time>2017-05-26T07:25:34Z</time>
      </trkpt>
      <trkpt lat="45.7578" lon="3.80958">
        <ele>1136.400024</ele>
        <time>2017-05-26T07:25:36Z</time>
      </trkpt>
      <trkpt lat="45.7578" lon="3.80973">
        <ele>1136.300049</ele>
        <time>2017-05-26T07:25:38Z</time>
      </trkpt>
      <trkpt lat="45.75781" lon="3.80987">
        <ele>1136.199951</ele>
        <time>2017-05-26T07:25:40Z</time>
      </trkpt>
      <trkpt lat="45.75781" lon="3.81001">
        <ele>1135.800049</ele>
        <time>2017-05-26T07:25:42Z</time>
      </trkpt>
      <trkpt lat="45.75774" lon="3.81009">
        <ele>1134.900024</ele>
        <time>2017-05-26T07:25:57Z</time>
      </trkpt>
      <trkpt lat="45.75766" lon="3.81002">
        <ele>1137.400024</ele>
        <time>2017-05-26T07:26:09Z</time>
      </trkpt>
      <trkpt lat="45.75756" lon="3.80995">
        <ele>1139.300049</ele>
        <time>2017-05-26T07:26:18Z</time>
      </trkpt>
      <trkpt lat="45.75749" lon="3.80988">
        <ele>1140.099976</ele>
        <time>2017-05-26T07:26:24Z</time>
      </trkpt>
      <trkpt lat="45.7574" lon="3.80978">
        <ele>1140.599976</ele>
        <time>2017-05-26T07:26:30Z</time>
      </trkpt>
      <trkpt lat="45.75733" lon="3.80969">
        <ele>1141.300049</ele>
        <time>2017-05-26T07:26:37Z</time>
      </trkpt>
      <trkpt lat="45.75724" lon="3.8096">
        <ele>1141.699951</ele>
        <time>2017-05-26T07:26:43Z</time>
      </trkpt>
      <trkpt lat="45.75715" lon="3.80954">
        <ele>1142.300049</ele>
        <time>2017-05-26T07:26:50Z</time>
      </trkpt>
      <trkpt lat="45.75706" lon="3.80946">
        <ele>1142.699951</ele>
        <time>2017-05-26T07:26:56Z</time>
      </trkpt>
      <trkpt lat="45.75699" lon="3.80938">
        <ele>1143.400024</ele>
        <time>2017-05-26T07:27:01Z</time>
      </trkpt>
      <trkpt lat="45.75691" lon="3.80928">
        <ele>1144.199951</ele>
        <time>2017-05-26T07:27:09Z</time>
      </trkpt>
      <trkpt lat="45.75684" lon="3.80917">
        <ele>1145.099976</ele>
        <time>2017-05-26T07:27:16Z</time>
      </trkpt>
      <trkpt lat="45.75676" lon="3.80908">
        <ele>1146</ele>
        <time>2017-05-26T07:27:21Z</time>
      </trkpt>
      <trkpt lat="45.75668" lon="3.80899">
        <ele>1146.699951</ele>
        <time>2017-05-26T07:27:26Z</time>
      </trkpt>
      <trkpt lat="45.7566" lon="3.80891">
        <ele>1147.699951</ele>
        <time>2017-05-26T07:27:32Z</time>
      </trkpt>
      <trkpt lat="45.75652" lon="3.80884">
        <ele>1148.900024</ele>
        <time>2017-05-26T07:27:38Z</time>
      </trkpt>
      <trkpt lat="45.75645" lon="3.80876">
        <ele>1150.900024</ele>
        <time>2017-05-26T07:27:46Z</time>
      </trkpt>
      <trkpt lat="45.75636" lon="3.8087">
        <ele>1152.400024</ele>
        <time>2017-05-26T07:27:52Z</time>
      </trkpt>
      <trkpt lat="45.75626" lon="3.80866">
        <ele>1154.099976</ele>
        <time>2017-05-26T07:28:00Z</time>
      </trkpt>
      <trkpt lat="45.75618" lon="3.80859">
        <ele>1155</ele>
        <time>2017-05-26T07:28:06Z</time>
      </trkpt>
      <trkpt lat="45.75611" lon="3.8085">
        <ele>1156.300049</ele>
        <time>2017-05-26T07:28:12Z</time>
      </trkpt>
      <trkpt lat="45.75603" lon="3.80843">
        <ele>1158.300049</ele>
        <time>2017-05-26T07:28:19Z</time>
      </trkpt>
      <trkpt lat="45.75595" lon="3.80836">
        <ele>1159.599976</ele>
        <time>2017-05-26T07:28:25Z</time>
      </trkpt>
      <trkpt lat="45.75586" lon="3.80831">
        <ele>1161.699951</ele>
        <time>2017-05-26T07:28:35Z</time>
      </trkpt>
      <trkpt lat="45.75577" lon="3.80825">
        <ele>1163.099976</ele>
        <time>2017-05-26T07:28:43Z</time>
      </trkpt>
      <trkpt lat="45.7557" lon="3.80818">
        <ele>1164.099976</ele>
        <time>2017-05-26T07:28:50Z</time>
      </trkpt>
      <trkpt lat="45.75565" lon="3.80807">
        <ele>1165</ele>
        <time>2017-05-26T07:28:57Z</time>
      </trkpt>
      <trkpt lat="45.75558" lon="3.80796">
        <ele>1165.300049</ele>
        <time>2017-05-26T07:29:03Z</time>
      </trkpt>
      <trkpt lat="45.75549" lon="3.80786">
        <ele>1165.900024</ele>
        <time>2017-05-26T07:29:09Z</time>
      </trkpt>
      <trkpt lat="45.7554" lon="3.8078">
        <ele>1167.099976</ele>
        <time>2017-05-26T07:29:16Z</time>
      </trkpt>
      <trkpt lat="45.75533" lon="3.80772">
        <ele>1166.900024</ele>
        <time>2017-05-26T07:29:22Z</time>
      </trkpt>
      <trkpt lat="45.75524" lon="3.80767">
        <ele>1166.400024</ele>
        <time>2017-05-26T07:29:25Z</time>
      </trkpt>
      <trkpt lat="45.75514" lon="3.80761">
        <ele>1165.599976</ele>
        <time>2017-05-26T07:29:29Z</time>
      </trkpt>
      <trkpt lat="45.75506" lon="3.80755">
        <ele>1165</ele>
        <time>2017-05-26T07:29:31Z</time>
      </trkpt>
      <trkpt lat="45.75498" lon="3.80745">
        <ele>1164</ele>
        <time>2017-05-26T07:29:35Z</time>
      </trkpt>
      <trkpt lat="45.7549" lon="3.80738">
        <ele>1163.599976</ele>
        <time>2017-05-26T07:29:38Z</time>
      </trkpt>
      <trkpt lat="45.75481" lon="3.8073">
        <ele>1163.300049</ele>
        <time>2017-05-26T07:29:40Z</time>
      </trkpt>
      <trkpt lat="45.75473" lon="3.80726">
        <ele>1162.5</ele>
        <time>2017-05-26T07:29:58Z</time>
      </trkpt>
      <trkpt lat="45.75464" lon="3.8072">
        <ele>1162.199951</ele>
        <time>2017-05-26T07:31:36Z</time>
      </trkpt>
      <trkpt lat="45.75458" lon="3.8073">
        <ele>1162.5</ele>
        <time>2017-05-26T07:32:04Z</time>
      </trkpt>
      <trkpt lat="45.7546" lon="3.80744">
        <ele>1163.199951</ele>
        <time>2017-05-26T07:32:24Z</time>
      </trkpt>
      <trkpt lat="45.7546" lon="3.80756">
        <ele>1165</ele>
        <time>2017-05-26T07:32:49Z</time>
      </trkpt>
      <trkpt lat="45.75457" lon="3.8077">
        <ele>1166.699951</ele>
        <time>2017-05-26T07:33:02Z</time>
      </trkpt>
      <trkpt lat="45.75452" lon="3.80782">
        <ele>1168</ele>
        <time>2017-05-26T07:33:22Z</time>
      </trkpt>
      <trkpt lat="45.75445" lon="3.80792">
        <ele>1169.099976</ele>
        <time>2017-05-26T07:33:31Z</time>
      </trkpt>
      <trkpt lat="45.75441" lon="3.80805">
        <ele>1169.599976</ele>
        <time>2017-05-26T07:33:41Z</time>
      </trkpt>
      <trkpt lat="45.75436" lon="3.80817">
        <ele>1169.800049</ele>
        <time>2017-05-26T07:33:46Z</time>
      </trkpt>
      <trkpt lat="45.7543" lon="3.80827">
        <ele>1169.900024</ele>
        <time>2017-05-26T07:33:50Z</time>
      </trkpt>
      <trkpt lat="45.75423" lon="3.80838">
        <ele>1170.400024</ele>
        <time>2017-05-26T07:33:55Z</time>
      </trkpt>
      <trkpt lat="45.75416" lon="3.8085">
        <ele>1171.099976</ele>
        <time>2017-05-26T07:34:01Z</time>
      </trkpt>
      <trkpt lat="45.75407" lon="3.8086">
        <ele>1171.5</ele>
        <time>2017-05-26T07:34:06Z</time>
      </trkpt>
      <trkpt lat="45.75399" lon="3.80867">
        <ele>1171.900024</ele>
        <time>2017-05-26T07:34:11Z</time>
      </trkpt>
      <trkpt lat="45.7539" lon="3.80873">
        <ele>1172.099976</ele>
        <time>2017-05-26T07:34:18Z</time>
      </trkpt>
      <trkpt lat="45.7538" lon="3.80876">
        <ele>1172.300049</ele>
        <time>2017-05-26T07:34:22Z</time>
      </trkpt>
      <trkpt lat="45.75371" lon="3.80883">
        <ele>1172.699951</ele>
        <time>2017-05-26T07:34:28Z</time>
      </trkpt>
      <trkpt lat="45.75361" lon="3.8089">
        <ele>1173.5</ele>
        <time>2017-05-26T07:34:35Z</time>
      </trkpt>
      <trkpt lat="45.75351" lon="3.80896">
        <ele>1174</ele>
        <time>2017-05-26T07:34:41Z</time>
      </trkpt>
      <trkpt lat="45.75341" lon="3.809">
        <ele>1174.400024</ele>
        <time>2017-05-26T07:34:47Z</time>
      </trkpt>
      <trkpt lat="45.75331" lon="3.80902">
        <ele>1174.900024</ele>
        <time>2017-05-26T07:34:52Z</time>
      </trkpt>
      <trkpt lat="45.75323" lon="3.8091">
        <ele>1175.599976</ele>
        <time>2017-05-26T07:34:57Z</time>
      </trkpt>
      <trkpt lat="45.75315" lon="3.80918">
        <ele>1176.099976</ele>
        <time>2017-05-26T07:35:01Z</time>
      </trkpt>
      <trkpt lat="45.75308" lon="3.80925">
        <ele>1176.300049</ele>
        <time>2017-05-26T07:35:06Z</time>
      </trkpt>
      <trkpt lat="45.75299" lon="3.80932">
        <ele>1176.699951</ele>
        <time>2017-05-26T07:35:11Z</time>
      </trkpt>
      <trkpt lat="45.75291" lon="3.80938">
        <ele>1177.300049</ele>
        <time>2017-05-26T07:35:17Z</time>
      </trkpt>
      <trkpt lat="45.75281" lon="3.80942">
        <ele>1177.599976</ele>
        <time>2017-05-26T07:35:24Z</time>
      </trkpt>
      <trkpt lat="45.75271" lon="3.80944">
        <ele>1178.199951</ele>
        <time>2017-05-26T07:35:30Z</time>
      </trkpt>
      <trkpt lat="45.75262" lon="3.8094">
        <ele>1178.800049</ele>
        <time>2017-05-26T07:35:37Z</time>
      </trkpt>
      <trkpt lat="45.75254" lon="3.80934">
        <ele>1179.699951</ele>
        <time>2017-05-26T07:35:47Z</time>
      </trkpt>
      <trkpt lat="45.75245" lon="3.80927">
        <ele>1180.5</ele>
        <time>2017-05-26T07:35:54Z</time>
      </trkpt>
      <trkpt lat="45.75238" lon="3.80918">
        <ele>1181.300049</ele>
        <time>2017-05-26T07:36:01Z</time>
      </trkpt>
      <trkpt lat="45.75227" lon="3.80915">
        <ele>1182.199951</ele>
        <time>2017-05-26T07:36:09Z</time>
      </trkpt>
      <trkpt lat="45.75217" lon="3.80908">
        <ele>1183.599976</ele>
        <time>2017-05-26T07:36:18Z</time>
      </trkpt>
      <trkpt lat="45.75208" lon="3.80903">
        <ele>1184.199951</ele>
        <time>2017-05-26T07:36:25Z</time>
      </trkpt>
      <trkpt lat="45.752" lon="3.80897">
        <ele>1185.300049</ele>
        <time>2017-05-26T07:36:42Z</time>
      </trkpt>
      <trkpt lat="45.75191" lon="3.8089">
        <ele>1186.400024</ele>
        <time>2017-05-26T07:36:54Z</time>
      </trkpt>
      <trkpt lat="45.75184" lon="3.8088">
        <ele>1188</ele>
        <time>2017-05-26T07:37:02Z</time>
      </trkpt>
      <trkpt lat="45.7518" lon="3.80868">
        <ele>1189.400024</ele>
        <time>2017-05-26T07:37:09Z</time>
      </trkpt>
      <trkpt lat="45.75175" lon="3.80855">
        <ele>1191</ele>
        <time>2017-05-26T07:37:16Z</time>
      </trkpt>
      <trkpt lat="45.7517" lon="3.80844">
        <ele>1192.300049</ele>
        <time>2017-05-26T07:37:22Z</time>
      </trkpt>
      <trkpt lat="45.75164" lon="3.80832">
        <ele>1194.599976</ele>
        <time>2017-05-26T07:37:32Z</time>
      </trkpt>
      <trkpt lat="45.75156" lon="3.80825">
        <ele>1197.900024</ele>
        <time>2017-05-26T07:37:48Z</time>
      </trkpt>
      <trkpt lat="45.75147" lon="3.80825">
        <ele>1199</ele>
        <time>2017-05-26T07:37:55Z</time>
      </trkpt>
      <trkpt lat="45.75139" lon="3.80821">
        <ele>1200.699951</ele>
        <time>2017-05-26T07:38:05Z</time>
      </trkpt>
      <trkpt lat="45.75129" lon="3.80816">
        <ele>1202.300049</ele>
        <time>2017-05-26T07:38:12Z</time>
      </trkpt>
      <trkpt lat="45.75121" lon="3.80809">
        <ele>1203.699951</ele>
        <time>2017-05-26T07:38:18Z</time>
      </trkpt>
      <trkpt lat="45.75113" lon="3.808">
        <ele>1206.099976</ele>
        <time>2017-05-26T07:38:27Z</time>
      </trkpt>
      <trkpt lat="45.75105" lon="3.80794">
        <ele>1208.400024</ele>
        <time>2017-05-26T07:38:33Z</time>
      </trkpt>
      <trkpt lat="45.75098" lon="3.80786">
        <ele>1210.099976</ele>
        <time>2017-05-26T07:38:40Z</time>
      </trkpt>
      <trkpt lat="45.75088" lon="3.80786">
        <ele>1210.900024</ele>
        <time>2017-05-26T07:39:03Z</time>
      </trkpt>
      <trkpt lat="45.7508" lon="3.8078">
        <ele>1210.099976</ele>
        <time>2017-05-26T07:43:23Z</time>
      </trkpt>
      <trkpt lat="45.75069" lon="3.80782">
        <ele>1210.099976</ele>
        <time>2017-05-26T07:48:33Z</time>
      </trkpt>
      <trkpt lat="45.7506" lon="3.80786">
        <ele>1210.099976</ele>
        <time>2017-05-26T07:48:37Z</time>
      </trkpt>
      <trkpt lat="45.7505" lon="3.80792">
        <ele>1209.900024</ele>
        <time>2017-05-26T07:48:41Z</time>
      </trkpt>
      <trkpt lat="45.75039" lon="3.80799">
        <ele>1209.699951</ele>
        <time>2017-05-26T07:48:45Z</time>
      </trkpt>
      <trkpt lat="45.75028" lon="3.80807">
        <ele>1209.5</ele>
        <time>2017-05-26T07:48:48Z</time>
      </trkpt>
      <trkpt lat="45.7502" lon="3.80817">
        <ele>1209.400024</ele>
        <time>2017-05-26T07:48:51Z</time>
      </trkpt>
      <trkpt lat="45.75011" lon="3.80828">
        <ele>1209.300049</ele>
        <time>2017-05-26T07:48:54Z</time>
      </trkpt>
      <trkpt lat="45.75004" lon="3.80838">
        <ele>1209.400024</ele>
        <time>2017-05-26T07:48:57Z</time>
      </trkpt>
      <trkpt lat="45.74996" lon="3.80848">
        <ele>1209.699951</ele>
        <time>2017-05-26T07:49:00Z</time>
      </trkpt>
      <trkpt lat="45.7499" lon="3.80859">
        <ele>1210.199951</ele>
        <time>2017-05-26T07:49:04Z</time>
      </trkpt>
      <trkpt lat="45.74983" lon="3.8087">
        <ele>1210.800049</ele>
        <time>2017-05-26T07:49:08Z</time>
      </trkpt>
      <trkpt lat="45.74977" lon="3.80882">
        <ele>1211.300049</ele>
        <time>2017-05-26T07:49:12Z</time>
      </trkpt>
      <trkpt lat="45.74969" lon="3.80892">
        <ele>1211.800049</ele>
        <time>2017-05-26T07:49:16Z</time>
      </trkpt>
      <trkpt lat="45.74962" lon="3.80901">
        <ele>1212.400024</ele>
        <time>2017-05-26T07:49:20Z</time>
      </trkpt>
      <trkpt lat="45.74955" lon="3.80912">
        <ele>1212.599976</ele>
        <time>2017-05-26T07:49:24Z</time>
      </trkpt>
      <trkpt lat="45.74948" lon="3.80921">
        <ele>1213.099976</ele>
        <time>2017-05-26T07:49:27Z</time>
      </trkpt>
      <trkpt lat="45.7494" lon="3.80933">
        <ele>1213.400024</ele>
        <time>2017-05-26T07:49:31Z</time>
      </trkpt>
      <trkpt lat="45.74932" lon="3.80942">
        <ele>1213.400024</ele>
        <time>2017-05-26T07:49:34Z</time>
      </trkpt>
      <trkpt lat="45.74926" lon="3.80951">
        <ele>1213.599976</ele>
        <time>2017-05-26T07:49:37Z</time>
      </trkpt>
      <trkpt lat="45.74917" lon="3.80962">
        <ele>1213.699951</ele>
        <time>2017-05-26T07:49:41Z</time>
      </trkpt>
      <trkpt lat="45.74909" lon="3.80972">
        <ele>1213.800049</ele>
        <time>2017-05-26T07:49:45Z</time>
      </trkpt>
      <trkpt lat="45.749" lon="3.80982">
        <ele>1214.099976</ele>
        <time>2017-05-26T07:49:49Z</time>
      </trkpt>
      <trkpt lat="45.74893" lon="3.8099">
        <ele>1214.400024</ele>
        <time>2017-05-26T07:49:52Z</time>
      </trkpt>
      <trkpt lat="45.74886" lon="3.80999">
        <ele>1214.699951</ele>
        <time>2017-05-26T07:49:55Z</time>
      </trkpt>
      <trkpt lat="45.74877" lon="3.8101">
        <ele>1215</ele>
        <time>2017-05-26T07:49:59Z</time>
      </trkpt>
      <trkpt lat="45.74869" lon="3.81018">
        <ele>1215.099976</ele>
        <time>2017-05-26T07:50:02Z</time>
      </trkpt>
      <trkpt lat="45.7486" lon="3.81025">
        <ele>1215.199951</ele>
        <time>2017-05-26T07:50:06Z</time>
      </trkpt>
      <trkpt lat="45.74852" lon="3.81033">
        <ele>1215.300049</ele>
        <time>2017-05-26T07:50:09Z</time>
      </trkpt>
      <trkpt lat="45.74843" lon="3.81044">
        <ele>1215.5</ele>
        <time>2017-05-26T07:50:13Z</time>
      </trkpt>
      <trkpt lat="45.74834" lon="3.81054">
        <ele>1215.699951</ele>
        <time>2017-05-26T07:50:16Z</time>
      </trkpt>
      <trkpt lat="45.74827" lon="3.81062">
        <ele>1215.5</ele>
        <time>2017-05-26T07:50:18Z</time>
      </trkpt>
      <trkpt lat="45.74819" lon="3.81069">
        <ele>1215.400024</ele>
        <time>2017-05-26T07:50:20Z</time>
      </trkpt>
      <trkpt lat="45.74808" lon="3.81083">
        <ele>1215.099976</ele>
        <time>2017-05-26T07:50:23Z</time>
      </trkpt>
      <trkpt lat="45.748" lon="3.81094">
        <ele>1214.699951</ele>
        <time>2017-05-26T07:50:25Z</time>
      </trkpt>
      <trkpt lat="45.74791" lon="3.81104">
        <ele>1214.5</ele>
        <time>2017-05-26T07:50:27Z</time>
      </trkpt>
      <trkpt lat="45.74782" lon="3.81115">
        <ele>1214.099976</ele>
        <time>2017-05-26T07:50:29Z</time>
      </trkpt>
      <trkpt lat="45.74774" lon="3.81126">
        <ele>1213.800049</ele>
        <time>2017-05-26T07:50:31Z</time>
      </trkpt>
      <trkpt lat="45.74766" lon="3.81137">
        <ele>1213.199951</ele>
        <time>2017-05-26T07:50:33Z</time>
      </trkpt>
      <trkpt lat="45.74759" lon="3.81151">
        <ele>1212.699951</ele>
        <time>2017-05-26T07:50:35Z</time>
      </trkpt>
      <trkpt lat="45.74753" lon="3.81164">
        <ele>1212.400024</ele>
        <time>2017-05-26T07:50:37Z</time>
      </trkpt>
      <trkpt lat="45.74748" lon="3.81177">
        <ele>1212.199951</ele>
        <time>2017-05-26T07:50:39Z</time>
      </trkpt>
      <trkpt lat="45.74743" lon="3.81188">
        <ele>1212.099976</ele>
        <time>2017-05-26T07:50:41Z</time>
      </trkpt>
      <trkpt lat="45.74738" lon="3.81199">
        <ele>1211.900024</ele>
        <time>2017-05-26T07:50:43Z</time>
      </trkpt>
      <trkpt lat="45.74732" lon="3.8121">
        <ele>1211.900024</ele>
        <time>2017-05-26T07:50:45Z</time>
      </trkpt>
      <trkpt lat="45.74726" lon="3.8122">
        <ele>1211.699951</ele>
        <time>2017-05-26T07:50:47Z</time>
      </trkpt>
      <trkpt lat="45.74721" lon="3.81231">
        <ele>1211.599976</ele>
        <time>2017-05-26T07:50:49Z</time>
      </trkpt>
      <trkpt lat="45.74712" lon="3.81245">
        <ele>1211.400024</ele>
        <time>2017-05-26T07:50:52Z</time>
      </trkpt>
      <trkpt lat="45.74702" lon="3.81259">
        <ele>1211.300049</ele>
        <time>2017-05-26T07:50:55Z</time>
      </trkpt>
      <trkpt lat="45.74695" lon="3.81266">
        <ele>1211.300049</ele>
        <time>2017-05-26T07:50:57Z</time>
      </trkpt>
      <trkpt lat="45.74686" lon="3.81274">
        <ele>1211.199951</ele>
        <time>2017-05-26T07:50:59Z</time>
      </trkpt>
      <trkpt lat="45.74678" lon="3.81282">
        <ele>1211</ele>
        <time>2017-05-26T07:51:01Z</time>
      </trkpt>
      <trkpt lat="45.7467" lon="3.81293">
        <ele>1210.599976</ele>
        <time>2017-05-26T07:51:03Z</time>
      </trkpt>
      <trkpt lat="45.74663" lon="3.81304">
        <ele>1210.400024</ele>
        <time>2017-05-26T07:51:05Z</time>
      </trkpt>
      <trkpt lat="45.74656" lon="3.81314">
        <ele>1209.900024</ele>
        <time>2017-05-26T07:51:07Z</time>
      </trkpt>
      <trkpt lat="45.74649" lon="3.81325">
        <ele>1209.599976</ele>
        <time>2017-05-26T07:51:09Z</time>
      </trkpt>
      <trkpt lat="45.74642" lon="3.81334">
        <ele>1209.5</ele>
        <time>2017-05-26T07:51:11Z</time>
      </trkpt>
      <trkpt lat="45.74635" lon="3.81342">
        <ele>1209.199951</ele>
        <time>2017-05-26T07:51:13Z</time>
      </trkpt>
      <trkpt lat="45.74627" lon="3.8135">
        <ele>1209.099976</ele>
        <time>2017-05-26T07:51:15Z</time>
      </trkpt>
      <trkpt lat="45.74619" lon="3.81357">
        <ele>1208.900024</ele>
        <time>2017-05-26T07:51:17Z</time>
      </trkpt>
      <trkpt lat="45.74609" lon="3.81363">
        <ele>1208.800049</ele>
        <time>2017-05-26T07:51:19Z</time>
      </trkpt>
      <trkpt lat="45.746" lon="3.81369">
        <ele>1208.5</ele>
        <time>2017-05-26T07:51:21Z</time>
      </trkpt>
      <trkpt lat="45.74591" lon="3.81376">
        <ele>1208</ele>
        <time>2017-05-26T07:51:23Z</time>
      </trkpt>
      <trkpt lat="45.74581" lon="3.81385">
        <ele>1207.599976</ele>
        <time>2017-05-26T07:51:25Z</time>
      </trkpt>
      <trkpt lat="45.74569" lon="3.81393">
        <ele>1206.900024</ele>
        <time>2017-05-26T07:51:27Z</time>
      </trkpt>
      <trkpt lat="45.74557" lon="3.81401">
        <ele>1206.5</ele>
        <time>2017-05-26T07:51:29Z</time>
      </trkpt>
      <trkpt lat="45.74544" lon="3.81407">
        <ele>1206.199951</ele>
        <time>2017-05-26T07:51:31Z</time>
      </trkpt>
      <trkpt lat="45.74532" lon="3.81413">
        <ele>1205.599976</ele>
        <time>2017-05-26T07:51:33Z</time>
      </trkpt>
      <trkpt lat="45.74519" lon="3.81416">
        <ele>1204.900024</ele>
        <time>2017-05-26T07:51:35Z</time>
      </trkpt>
      <trkpt lat="45.74506" lon="3.81416">
        <ele>1204.199951</ele>
        <time>2017-05-26T07:51:37Z</time>
      </trkpt>
      <trkpt lat="45.74491" lon="3.81412">
        <ele>1203.300049</ele>
        <time>2017-05-26T07:51:39Z</time>
      </trkpt>
      <trkpt lat="45.74477" lon="3.81408">
        <ele>1201.900024</ele>
        <time>2017-05-26T07:51:41Z</time>
      </trkpt>
      <trkpt lat="45.74466" lon="3.81399">
        <ele>1200.699951</ele>
        <time>2017-05-26T07:51:43Z</time>
      </trkpt>
      <trkpt lat="45.74458" lon="3.81391">
        <ele>1199.199951</ele>
        <time>2017-05-26T07:51:45Z</time>
      </trkpt>
      <trkpt lat="45.74449" lon="3.81387">
        <ele>1197.400024</ele>
        <time>2017-05-26T07:51:48Z</time>
      </trkpt>
      <trkpt lat="45.74439" lon="3.81394">
        <ele>1195.900024</ele>
        <time>2017-05-26T07:51:51Z</time>
      </trkpt>
      <trkpt lat="45.74431" lon="3.81406">
        <ele>1194.900024</ele>
        <time>2017-05-26T07:51:54Z</time>
      </trkpt>
      <trkpt lat="45.74424" lon="3.81418">
        <ele>1194.599976</ele>
        <time>2017-05-26T07:51:57Z</time>
      </trkpt>
      <trkpt lat="45.74416" lon="3.8143">
        <ele>1194.199951</ele>
        <time>2017-05-26T07:52:00Z</time>
      </trkpt>
      <trkpt lat="45.74408" lon="3.8144">
        <ele>1193.800049</ele>
        <time>2017-05-26T07:52:03Z</time>
      </trkpt>
      <trkpt lat="45.74399" lon="3.81452">
        <ele>1193.599976</ele>
        <time>2017-05-26T07:52:06Z</time>
      </trkpt>
      <trkpt lat="45.74391" lon="3.81463">
        <ele>1193.5</ele>
        <time>2017-05-26T07:52:09Z</time>
      </trkpt>
      <trkpt lat="45.74381" lon="3.81474">
        <ele>1193.5</ele>
        <time>2017-05-26T07:52:12Z</time>
      </trkpt>
      <trkpt lat="45.74374" lon="3.81481">
        <ele>1193.400024</ele>
        <time>2017-05-26T07:52:14Z</time>
      </trkpt>
      <trkpt lat="45.74365" lon="3.81487">
        <ele>1193.199951</ele>
        <time>2017-05-26T07:52:16Z</time>
      </trkpt>
      <trkpt lat="45.74357" lon="3.81494">
        <ele>1193</ele>
        <time>2017-05-26T07:52:18Z</time>
      </trkpt>
      <trkpt lat="45.74348" lon="3.81501">
        <ele>1192.900024</ele>
        <time>2017-05-26T07:52:20Z</time>
      </trkpt>
      <trkpt lat="45.7434" lon="3.81509">
        <ele>1193</ele>
        <time>2017-05-26T07:52:22Z</time>
      </trkpt>
      <trkpt lat="45.74331" lon="3.81517">
        <ele>1192.900024</ele>
        <time>2017-05-26T07:52:24Z</time>
      </trkpt>
      <trkpt lat="45.74323" lon="3.81526">
        <ele>1192.800049</ele>
        <time>2017-05-26T07:52:26Z</time>
      </trkpt>
      <trkpt lat="45.74315" lon="3.81535">
        <ele>1192.699951</ele>
        <time>2017-05-26T07:52:28Z</time>
      </trkpt>
      <trkpt lat="45.74307" lon="3.81545">
        <ele>1192.5</ele>
        <time>2017-05-26T07:52:30Z</time>
      </trkpt>
      <trkpt lat="45.743" lon="3.81554">
        <ele>1192.400024</ele>
        <time>2017-05-26T07:52:32Z</time>
      </trkpt>
      <trkpt lat="45.74292" lon="3.81562">
        <ele>1192.099976</ele>
        <time>2017-05-26T07:52:34Z</time>
      </trkpt>
      <trkpt lat="45.74283" lon="3.8157">
        <ele>1192</ele>
        <time>2017-05-26T07:52:36Z</time>
      </trkpt>
      <trkpt lat="45.74275" lon="3.81578">
        <ele>1191.900024</ele>
        <time>2017-05-26T07:52:38Z</time>
      </trkpt>
      <trkpt lat="45.74267" lon="3.81584">
        <ele>1191.699951</ele>
        <time>2017-05-26T07:52:40Z</time>
      </trkpt>
      <trkpt lat="45.74258" lon="3.81589">
        <ele>1191.599976</ele>
        <time>2017-05-26T07:52:42Z</time>
      </trkpt>
      <trkpt lat="45.7425" lon="3.81595">
        <ele>1191.400024</ele>
        <time>2017-05-26T07:52:44Z</time>
      </trkpt>
      <trkpt lat="45.74238" lon="3.81602">
        <ele>1191.300049</ele>
        <time>2017-05-26T07:52:47Z</time>
      </trkpt>
      <trkpt lat="45.74226" lon="3.8161">
        <ele>1191</ele>
        <time>2017-05-26T07:52:50Z</time>
      </trkpt>
      <trkpt lat="45.74217" lon="3.81614">
        <ele>1191</ele>
        <time>2017-05-26T07:52:52Z</time>
      </trkpt>
      <trkpt lat="45.74208" lon="3.81619">
        <ele>1190.900024</ele>
        <time>2017-05-26T07:52:54Z</time>
      </trkpt>
      <trkpt lat="45.74199" lon="3.81624">
        <ele>1190.800049</ele>
        <time>2017-05-26T07:52:56Z</time>
      </trkpt>
      <trkpt lat="45.74187" lon="3.81632">
        <ele>1190.5</ele>
        <time>2017-05-26T07:52:59Z</time>
      </trkpt>
      <trkpt lat="45.74179" lon="3.81638">
        <ele>1190.400024</ele>
        <time>2017-05-26T07:53:01Z</time>
      </trkpt>
      <trkpt lat="45.74171" lon="3.81644">
        <ele>1190.199951</ele>
        <time>2017-05-26T07:53:03Z</time>
      </trkpt>
      <trkpt lat="45.74162" lon="3.8165">
        <ele>1190.099976</ele>
        <time>2017-05-26T07:53:05Z</time>
      </trkpt>
      <trkpt lat="45.74155" lon="3.81658">
        <ele>1190</ele>
        <time>2017-05-26T07:53:07Z</time>
      </trkpt>
      <trkpt lat="45.74148" lon="3.81666">
        <ele>1189.800049</ele>
        <time>2017-05-26T07:53:09Z</time>
      </trkpt>
      <trkpt lat="45.74139" lon="3.8168">
        <ele>1189.699951</ele>
        <time>2017-05-26T07:53:12Z</time>
      </trkpt>
      <trkpt lat="45.74133" lon="3.81691">
        <ele>1189.699951</ele>
        <time>2017-05-26T07:53:14Z</time>
      </trkpt>
      <trkpt lat="45.74128" lon="3.81703">
        <ele>1189.5</ele>
        <time>2017-05-26T07:53:16Z</time>
      </trkpt>
      <trkpt lat="45.74123" lon="3.81716">
        <ele>1189.300049</ele>
        <time>2017-05-26T07:53:18Z</time>
      </trkpt>
      <trkpt lat="45.74117" lon="3.81729">
        <ele>1189</ele>
        <time>2017-05-26T07:53:20Z</time>
      </trkpt>
      <trkpt lat="45.74113" lon="3.81743">
        <ele>1188.800049</ele>
        <time>2017-05-26T07:53:22Z</time>
      </trkpt>
      <trkpt lat="45.74108" lon="3.81757">
        <ele>1188.599976</ele>
        <time>2017-05-26T07:53:24Z</time>
      </trkpt>
      <trkpt lat="45.74103" lon="3.81769">
        <ele>1188.400024</ele>
        <time>2017-05-26T07:53:26Z</time>
      </trkpt>
      <trkpt lat="45.74098" lon="3.81782">
        <ele>1188.199951</ele>
        <time>2017-05-26T07:53:28Z</time>
      </trkpt>
      <trkpt lat="45.74094" lon="3.81795">
        <ele>1188.099976</ele>
        <time>2017-05-26T07:53:30Z</time>
      </trkpt>
      <trkpt lat="45.74088" lon="3.81806">
        <ele>1188</ele>
        <time>2017-05-26T07:53:32Z</time>
      </trkpt>
      <trkpt lat="45.74084" lon="3.81818">
        <ele>1188</ele>
        <time>2017-05-26T07:53:34Z</time>
      </trkpt>
      <trkpt lat="45.74079" lon="3.81831">
        <ele>1187.699951</ele>
        <time>2017-05-26T07:53:36Z</time>
      </trkpt>
      <trkpt lat="45.74074" lon="3.81844">
        <ele>1187.699951</ele>
        <time>2017-05-26T07:53:38Z</time>
      </trkpt>
      <trkpt lat="45.74069" lon="3.81856">
        <ele>1187.400024</ele>
        <time>2017-05-26T07:53:40Z</time>
      </trkpt>
      <trkpt lat="45.74064" lon="3.81868">
        <ele>1187.099976</ele>
        <time>2017-05-26T07:53:42Z</time>
      </trkpt>
      <trkpt lat="45.74059" lon="3.8188">
        <ele>1187</ele>
        <time>2017-05-26T07:53:44Z</time>
      </trkpt>
      <trkpt lat="45.74053" lon="3.81892">
        <ele>1186.800049</ele>
        <time>2017-05-26T07:53:46Z</time>
      </trkpt>
      <trkpt lat="45.74047" lon="3.81904">
        <ele>1186.599976</ele>
        <time>2017-05-26T07:53:48Z</time>
      </trkpt>
      <trkpt lat="45.74042" lon="3.81917">
        <ele>1186.400024</ele>
        <time>2017-05-26T07:53:50Z</time>
      </trkpt>
      <trkpt lat="45.74037" lon="3.81929">
        <ele>1186.199951</ele>
        <time>2017-05-26T07:53:52Z</time>
      </trkpt>
      <trkpt lat="45.7403" lon="3.8194">
        <ele>1185.900024</ele>
        <time>2017-05-26T07:53:54Z</time>
      </trkpt>
      <trkpt lat="45.74022" lon="3.81949">
        <ele>1185.699951</ele>
        <time>2017-05-26T07:53:56Z</time>
      </trkpt>
      <trkpt lat="45.74013" lon="3.81961">
        <ele>1185.5</ele>
        <time>2017-05-26T07:53:58Z</time>
      </trkpt>
      <trkpt lat="45.74003" lon="3.81975">
        <ele>1185.099976</ele>
        <time>2017-05-26T07:54:00Z</time>
      </trkpt>
      <trkpt lat="45.73992" lon="3.81989">
        <ele>1184.300049</ele>
        <time>2017-05-26T07:54:02Z</time>
      </trkpt>
      <trkpt lat="45.73981" lon="3.82002">
        <ele>1183.699951</ele>
        <time>2017-05-26T07:54:04Z</time>
      </trkpt>
      <trkpt lat="45.7397" lon="3.82014">
        <ele>1182.900024</ele>
        <time>2017-05-26T07:54:06Z</time>
      </trkpt>
      <trkpt lat="45.73958" lon="3.82024">
        <ele>1182.199951</ele>
        <time>2017-05-26T07:54:08Z</time>
      </trkpt>
      <trkpt lat="45.73944" lon="3.82035">
        <ele>1181.400024</ele>
        <time>2017-05-26T07:54:10Z</time>
      </trkpt>
      <trkpt lat="45.73929" lon="3.82045">
        <ele>1180.699951</ele>
        <time>2017-05-26T07:54:12Z</time>
      </trkpt>
      <trkpt lat="45.73913" lon="3.82053">
        <ele>1179.5</ele>
        <time>2017-05-26T07:54:14Z</time>
      </trkpt>
      <trkpt lat="45.73904" lon="3.82057">
        <ele>1178.900024</ele>
        <time>2017-05-26T07:54:15Z</time>
      </trkpt>
      <trkpt lat="45.73895" lon="3.82061">
        <ele>1178.5</ele>
        <time>2017-05-26T07:54:16Z</time>
      </trkpt>
      <trkpt lat="45.73885" lon="3.82064">
        <ele>1177.800049</ele>
        <time>2017-05-26T07:54:17Z</time>
      </trkpt>
      <trkpt lat="45.73876" lon="3.82068">
        <ele>1177</ele>
        <time>2017-05-26T07:54:18Z</time>
      </trkpt>
      <trkpt lat="45.73866" lon="3.82071">
        <ele>1176.5</ele>
        <time>2017-05-26T07:54:19Z</time>
      </trkpt>
      <trkpt lat="45.73857" lon="3.82076">
        <ele>1176</ele>
        <time>2017-05-26T07:54:20Z</time>
      </trkpt>
      <trkpt lat="45.73847" lon="3.8208">
        <ele>1175.5</ele>
        <time>2017-05-26T07:54:21Z</time>
      </trkpt>
      <trkpt lat="45.73837" lon="3.82084">
        <ele>1174.900024</ele>
        <time>2017-05-26T07:54:22Z</time>
      </trkpt>
      <trkpt lat="45.73827" lon="3.82088">
        <ele>1174.199951</ele>
        <time>2017-05-26T07:54:23Z</time>
      </trkpt>
      <trkpt lat="45.73817" lon="3.82092">
        <ele>1173.599976</ele>
        <time>2017-05-26T07:54:24Z</time>
      </trkpt>
      <trkpt lat="45.73807" lon="3.82095">
        <ele>1173.099976</ele>
        <time>2017-05-26T07:54:25Z</time>
      </trkpt>
      <trkpt lat="45.73797" lon="3.82099">
        <ele>1172.5</ele>
        <time>2017-05-26T07:54:26Z</time>
      </trkpt>
      <trkpt lat="45.73787" lon="3.82103">
        <ele>1172</ele>
        <time>2017-05-26T07:54:27Z</time>
      </trkpt>
      <trkpt lat="45.73778" lon="3.82107">
        <ele>1171.400024</ele>
        <time>2017-05-26T07:54:28Z</time>
      </trkpt>
      <trkpt lat="45.73761" lon="3.82113">
        <ele>1170.699951</ele>
        <time>2017-05-26T07:54:30Z</time>
      </trkpt>
      <trkpt lat="45.73743" lon="3.82117">
        <ele>1170</ele>
        <time>2017-05-26T07:54:32Z</time>
      </trkpt>
      <trkpt lat="45.73734" lon="3.82118">
        <ele>1169.300049</ele>
        <time>2017-05-26T07:54:33Z</time>
      </trkpt>
      <trkpt lat="45.73725" lon="3.82119">
        <ele>1168.900024</ele>
        <time>2017-05-26T07:54:34Z</time>
      </trkpt>
      <trkpt lat="45.73708" lon="3.82122">
        <ele>1168.099976</ele>
        <time>2017-05-26T07:54:36Z</time>
      </trkpt>
      <trkpt lat="45.73691" lon="3.82126">
        <ele>1167.300049</ele>
        <time>2017-05-26T07:54:38Z</time>
      </trkpt>
      <trkpt lat="45.73675" lon="3.8213">
        <ele>1166.400024</ele>
        <time>2017-05-26T07:54:40Z</time>
      </trkpt>
      <trkpt lat="45.73658" lon="3.82136">
        <ele>1165.900024</ele>
        <time>2017-05-26T07:54:42Z</time>
      </trkpt>
      <trkpt lat="45.73649" lon="3.82138">
        <ele>1165.599976</ele>
        <time>2017-05-26T07:54:43Z</time>
      </trkpt>
      <trkpt lat="45.7364" lon="3.82139">
        <ele>1165.5</ele>
        <time>2017-05-26T07:54:44Z</time>
      </trkpt>
      <trkpt lat="45.7363" lon="3.82139">
        <ele>1165.400024</ele>
        <time>2017-05-26T07:54:45Z</time>
      </trkpt>
      <trkpt lat="45.73621" lon="3.82137">
        <ele>1165.300049</ele>
        <time>2017-05-26T07:54:46Z</time>
      </trkpt>
      <trkpt lat="45.73604" lon="3.8213">
        <ele>1164.900024</ele>
        <time>2017-05-26T07:54:48Z</time>
      </trkpt>
      <trkpt lat="45.73588" lon="3.82123">
        <ele>1164.300049</ele>
        <time>2017-05-26T07:54:50Z</time>
      </trkpt>
      <trkpt lat="45.73573" lon="3.82118">
        <ele>1163.900024</ele>
        <time>2017-05-26T07:54:52Z</time>
      </trkpt>
      <trkpt lat="45.73559" lon="3.82113">
        <ele>1163.800049</ele>
        <time>2017-05-26T07:54:54Z</time>
      </trkpt>
      <trkpt lat="45.7355" lon="3.82101">
        <ele>1163.400024</ele>
        <time>2017-05-26T07:54:56Z</time>
      </trkpt>
      <trkpt lat="45.73548" lon="3.82085">
        <ele>1163.300049</ele>
        <time>2017-05-26T07:54:58Z</time>
      </trkpt>
      <trkpt lat="45.73551" lon="3.8207">
        <ele>1163.199951</ele>
        <time>2017-05-26T07:55:00Z</time>
      </trkpt>
      <trkpt lat="45.73554" lon="3.82056">
        <ele>1162.900024</ele>
        <time>2017-05-26T07:55:02Z</time>
      </trkpt>
      <trkpt lat="45.73559" lon="3.82042">
        <ele>1162.900024</ele>
        <time>2017-05-26T07:55:04Z</time>
      </trkpt>
      <trkpt lat="45.73562" lon="3.82027">
        <ele>1162.900024</ele>
        <time>2017-05-26T07:55:06Z</time>
      </trkpt>
      <trkpt lat="45.73567" lon="3.82011">
        <ele>1162.699951</ele>
        <time>2017-05-26T07:55:08Z</time>
      </trkpt>
      <trkpt lat="45.73571" lon="3.81994">
        <ele>1162.400024</ele>
        <time>2017-05-26T07:55:10Z</time>
      </trkpt>
      <trkpt lat="45.73576" lon="3.81975">
        <ele>1161.900024</ele>
        <time>2017-05-26T07:55:12Z</time>
      </trkpt>
      <trkpt lat="45.73579" lon="3.81953">
        <ele>1161.300049</ele>
        <time>2017-05-26T07:55:14Z</time>
      </trkpt>
      <trkpt lat="45.73581" lon="3.81928">
        <ele>1160.599976</ele>
        <time>2017-05-26T07:55:16Z</time>
      </trkpt>
      <trkpt lat="45.73581" lon="3.81914">
        <ele>1160.099976</ele>
        <time>2017-05-26T07:55:17Z</time>
      </trkpt>
      <trkpt lat="45.73583" lon="3.819">
        <ele>1159.699951</ele>
        <time>2017-05-26T07:55:18Z</time>
      </trkpt>
      <trkpt lat="45.73585" lon="3.81885">
        <ele>1159.199951</ele>
        <time>2017-05-26T07:55:19Z</time>
      </trkpt>
      <trkpt lat="45.73588" lon="3.81871">
        <ele>1158.599976</ele>
        <time>2017-05-26T07:55:20Z</time>
      </trkpt>
      <trkpt lat="45.7359" lon="3.81857">
        <ele>1158.099976</ele>
        <time>2017-05-26T07:55:21Z</time>
      </trkpt>
      <trkpt lat="45.73591" lon="3.81843">
        <ele>1157.199951</ele>
        <time>2017-05-26T07:55:22Z</time>
      </trkpt>
      <trkpt lat="45.73591" lon="3.81828">
        <ele>1156.400024</ele>
        <time>2017-05-26T07:55:23Z</time>
      </trkpt>
      <trkpt lat="45.7359" lon="3.81813">
        <ele>1155.5</ele>
        <time>2017-05-26T07:55:24Z</time>
      </trkpt>
      <trkpt lat="45.73589" lon="3.81797">
        <ele>1154.599976</ele>
        <time>2017-05-26T07:55:25Z</time>
      </trkpt>
      <trkpt lat="45.73587" lon="3.81781">
        <ele>1153.5</ele>
        <time>2017-05-26T07:55:26Z</time>
      </trkpt>
      <trkpt lat="45.73585" lon="3.81763">
        <ele>1152.400024</ele>
        <time>2017-05-26T07:55:27Z</time>
      </trkpt>
      <trkpt lat="45.73583" lon="3.81745">
        <ele>1151.099976</ele>
        <time>2017-05-26T07:55:28Z</time>
      </trkpt>
      <trkpt lat="45.73579" lon="3.81728">
        <ele>1149.900024</ele>
        <time>2017-05-26T07:55:29Z</time>
      </trkpt>
      <trkpt lat="45.73576" lon="3.81712">
        <ele>1148.599976</ele>
        <time>2017-05-26T07:55:30Z</time>
      </trkpt>
      <trkpt lat="45.73571" lon="3.81696">
        <ele>1147.099976</ele>
        <time>2017-05-26T07:55:31Z</time>
      </trkpt>
      <trkpt lat="45.73567" lon="3.8168">
        <ele>1145.800049</ele>
        <time>2017-05-26T07:55:32Z</time>
      </trkpt>
      <trkpt lat="45.73561" lon="3.81666">
        <ele>1144.400024</ele>
        <time>2017-05-26T07:55:33Z</time>
      </trkpt>
      <trkpt lat="45.73555" lon="3.81654">
        <ele>1142.900024</ele>
        <time>2017-05-26T07:55:34Z</time>
      </trkpt>
      <trkpt lat="45.73548" lon="3.81639">
        <ele>1141.300049</ele>
        <time>2017-05-26T07:55:35Z</time>
      </trkpt>
      <trkpt lat="45.73542" lon="3.81625">
        <ele>1139.699951</ele>
        <time>2017-05-26T07:55:36Z</time>
      </trkpt>
      <trkpt lat="45.73535" lon="3.81611">
        <ele>1138.400024</ele>
        <time>2017-05-26T07:55:37Z</time>
      </trkpt>
      <trkpt lat="45.73529" lon="3.81597">
        <ele>1136.800049</ele>
        <time>2017-05-26T07:55:38Z</time>
      </trkpt>
      <trkpt lat="45.73521" lon="3.81583">
        <ele>1135.300049</ele>
        <time>2017-05-26T07:55:39Z</time>
      </trkpt>
      <trkpt lat="45.73513" lon="3.81568">
        <ele>1133.800049</ele>
        <time>2017-05-26T07:55:40Z</time>
      </trkpt>
      <trkpt lat="45.73504" lon="3.81554">
        <ele>1132.300049</ele>
        <time>2017-05-26T07:55:41Z</time>
      </trkpt>
      <trkpt lat="45.73494" lon="3.81539">
        <ele>1130.599976</ele>
        <time>2017-05-26T07:55:42Z</time>
      </trkpt>
      <trkpt lat="45.73484" lon="3.81526">
        <ele>1129.199951</ele>
        <time>2017-05-26T07:55:43Z</time>
      </trkpt>
      <trkpt lat="45.73472" lon="3.81515">
        <ele>1127.599976</ele>
        <time>2017-05-26T07:55:44Z</time>
      </trkpt>
      <trkpt lat="45.7346" lon="3.81506">
        <ele>1125.699951</ele>
        <time>2017-05-26T07:55:45Z</time>
      </trkpt>
      <trkpt lat="45.73447" lon="3.81497">
        <ele>1124</ele>
        <time>2017-05-26T07:55:46Z</time>
      </trkpt>
      <trkpt lat="45.73434" lon="3.81487">
        <ele>1122.5</ele>
        <time>2017-05-26T07:55:47Z</time>
      </trkpt>
      <trkpt lat="45.73422" lon="3.81477">
        <ele>1120.800049</ele>
        <time>2017-05-26T07:55:48Z</time>
      </trkpt>
      <trkpt lat="45.73412" lon="3.81468">
        <ele>1119</ele>
        <time>2017-05-26T07:55:49Z</time>
      </trkpt>
      <trkpt lat="45.73405" lon="3.81459">
        <ele>1117.300049</ele>
        <time>2017-05-26T07:55:50Z</time>
      </trkpt>
      <trkpt lat="45.73396" lon="3.81447">
        <ele>1113.400024</ele>
        <time>2017-05-26T07:55:52Z</time>
      </trkpt>
      <trkpt lat="45.73397" lon="3.81433">
        <ele>1110.199951</ele>
        <time>2017-05-26T07:55:54Z</time>
      </trkpt>
      <trkpt lat="45.73403" lon="3.81415">
        <ele>1107.400024</ele>
        <time>2017-05-26T07:55:56Z</time>
      </trkpt>
      <trkpt lat="45.73404" lon="3.81397">
        <ele>1104.5</ele>
        <time>2017-05-26T07:55:58Z</time>
      </trkpt>
      <trkpt lat="45.73395" lon="3.81386">
        <ele>1101.699951</ele>
        <time>2017-05-26T07:56:00Z</time>
      </trkpt>
      <trkpt lat="45.73383" lon="3.81389">
        <ele>1099.400024</ele>
        <time>2017-05-26T07:56:02Z</time>
      </trkpt>
      <trkpt lat="45.73369" lon="3.81401">
        <ele>1097.400024</ele>
        <time>2017-05-26T07:56:04Z</time>
      </trkpt>
      <trkpt lat="45.73359" lon="3.8141">
        <ele>1095.5</ele>
        <time>2017-05-26T07:56:06Z</time>
      </trkpt>
      <trkpt lat="45.73347" lon="3.81409">
        <ele>1093</ele>
        <time>2017-05-26T07:56:09Z</time>
      </trkpt>
      <trkpt lat="45.73342" lon="3.81396">
        <ele>1091.800049</ele>
        <time>2017-05-26T07:56:11Z</time>
      </trkpt>
      <trkpt lat="45.73336" lon="3.81379">
        <ele>1090.900024</ele>
        <time>2017-05-26T07:56:13Z</time>
      </trkpt>
      <trkpt lat="45.73333" lon="3.81361">
        <ele>1090.199951</ele>
        <time>2017-05-26T07:56:16Z</time>
      </trkpt>
      <trkpt lat="45.73333" lon="3.81346">
        <ele>1089.599976</ele>
        <time>2017-05-26T07:56:19Z</time>
      </trkpt>
      <trkpt lat="45.7333" lon="3.81333">
        <ele>1089.300049</ele>
        <time>2017-05-26T07:56:23Z</time>
      </trkpt>
      <trkpt lat="45.73333" lon="3.8132">
        <ele>1089.199951</ele>
        <time>2017-05-26T07:56:28Z</time>
      </trkpt>
      <trkpt lat="45.73337" lon="3.81309">
        <ele>1089.300049</ele>
        <time>2017-05-26T07:56:32Z</time>
      </trkpt>
      <trkpt lat="45.73341" lon="3.81295">
        <ele>1089.800049</ele>
        <time>2017-05-26T07:56:36Z</time>
      </trkpt>
      <trkpt lat="45.73345" lon="3.8128">
        <ele>1090.199951</ele>
        <time>2017-05-26T07:56:40Z</time>
      </trkpt>
      <trkpt lat="45.7335" lon="3.81269">
        <ele>1090.400024</ele>
        <time>2017-05-26T07:56:43Z</time>
      </trkpt>
      <trkpt lat="45.73355" lon="3.81254">
        <ele>1090.599976</ele>
        <time>2017-05-26T07:56:46Z</time>
      </trkpt>
      <trkpt lat="45.73356" lon="3.81241">
        <ele>1090.900024</ele>
        <time>2017-05-26T07:56:51Z</time>
      </trkpt>
      <trkpt lat="45.73358" lon="3.81226">
        <ele>1091.699951</ele>
        <time>2017-05-26T07:56:58Z</time>
      </trkpt>
      <trkpt lat="45.73361" lon="3.81212">
        <ele>1092.599976</ele>
        <time>2017-05-26T07:57:03Z</time>
      </trkpt>
      <trkpt lat="45.73363" lon="3.81195">
        <ele>1093.300049</ele>
        <time>2017-05-26T07:57:07Z</time>
      </trkpt>
      <trkpt lat="45.73366" lon="3.81182">
        <ele>1094.199951</ele>
        <time>2017-05-26T07:57:12Z</time>
      </trkpt>
      <trkpt lat="45.73371" lon="3.81168">
        <ele>1095.800049</ele>
        <time>2017-05-26T07:57:19Z</time>
      </trkpt>
      <trkpt lat="45.73373" lon="3.81155">
        <ele>1097.900024</ele>
        <time>2017-05-26T07:57:27Z</time>
      </trkpt>
      <trkpt lat="45.73371" lon="3.81142">
        <ele>1099.699951</ele>
        <time>2017-05-26T07:57:34Z</time>
      </trkpt>
      <trkpt lat="45.73365" lon="3.81132">
        <ele>1101.300049</ele>
        <time>2017-05-26T07:57:41Z</time>
      </trkpt>
      <trkpt lat="45.73356" lon="3.81129">
        <ele>1103.400024</ele>
        <time>2017-05-26T07:57:52Z</time>
      </trkpt>
      <trkpt lat="45.73347" lon="3.81132">
        <ele>1105.300049</ele>
        <time>2017-05-26T07:58:01Z</time>
      </trkpt>
      <trkpt lat="45.73339" lon="3.8114">
        <ele>1107.099976</ele>
        <time>2017-05-26T07:58:09Z</time>
      </trkpt>
      <trkpt lat="45.7333" lon="3.8115">
        <ele>1108.699951</ele>
        <time>2017-05-26T07:58:17Z</time>
      </trkpt>
      <trkpt lat="45.73322" lon="3.81156">
        <ele>1109.900024</ele>
        <time>2017-05-26T07:58:23Z</time>
      </trkpt>
      <trkpt lat="45.73314" lon="3.81166">
        <ele>1111.400024</ele>
        <time>2017-05-26T07:58:30Z</time>
      </trkpt>
      <trkpt lat="45.73307" lon="3.81176">
        <ele>1112.5</ele>
        <time>2017-05-26T07:58:37Z</time>
      </trkpt>
      <trkpt lat="45.73302" lon="3.81189">
        <ele>1113.599976</ele>
        <time>2017-05-26T07:58:45Z</time>
      </trkpt>
      <trkpt lat="45.73295" lon="3.81198">
        <ele>1114.300049</ele>
        <time>2017-05-26T07:58:50Z</time>
      </trkpt>
      <trkpt lat="45.73289" lon="3.81209">
        <ele>1114.900024</ele>
        <time>2017-05-26T07:58:54Z</time>
      </trkpt>
      <trkpt lat="45.73282" lon="3.81221">
        <ele>1115.400024</ele>
        <time>2017-05-26T07:58:59Z</time>
      </trkpt>
      <trkpt lat="45.73276" lon="3.81233">
        <ele>1115.900024</ele>
        <time>2017-05-26T07:59:03Z</time>
      </trkpt>
      <trkpt lat="45.73269" lon="3.81246">
        <ele>1116.5</ele>
        <time>2017-05-26T07:59:07Z</time>
      </trkpt>
      <trkpt lat="45.73265" lon="3.81258">
        <ele>1117.400024</ele>
        <time>2017-05-26T07:59:11Z</time>
      </trkpt>
      <trkpt lat="45.73258" lon="3.81266">
        <ele>1118.099976</ele>
        <time>2017-05-26T07:59:15Z</time>
      </trkpt>
      <trkpt lat="45.73249" lon="3.81271">
        <ele>1119.400024</ele>
        <time>2017-05-26T07:59:20Z</time>
      </trkpt>
      <trkpt lat="45.7324" lon="3.81276">
        <ele>1120.5</ele>
        <time>2017-05-26T07:59:26Z</time>
      </trkpt>
      <trkpt lat="45.73232" lon="3.81283">
        <ele>1121.5</ele>
        <time>2017-05-26T07:59:32Z</time>
      </trkpt>
      <trkpt lat="45.73223" lon="3.81287">
        <ele>1122.300049</ele>
        <time>2017-05-26T07:59:37Z</time>
      </trkpt>
      <trkpt lat="45.73214" lon="3.8129">
        <ele>1123.5</ele>
        <time>2017-05-26T07:59:42Z</time>
      </trkpt>
      <trkpt lat="45.73204" lon="3.81294">
        <ele>1124.800049</ele>
        <time>2017-05-26T07:59:48Z</time>
      </trkpt>
      <trkpt lat="45.73195" lon="3.81299">
        <ele>1126.199951</ele>
        <time>2017-05-26T07:59:54Z</time>
      </trkpt>
      <trkpt lat="45.73186" lon="3.81304">
        <ele>1127.400024</ele>
        <time>2017-05-26T07:59:59Z</time>
      </trkpt>
      <trkpt lat="45.73175" lon="3.81306">
        <ele>1128.300049</ele>
        <time>2017-05-26T08:00:04Z</time>
      </trkpt>
      <trkpt lat="45.73166" lon="3.81311">
        <ele>1129.699951</ele>
        <time>2017-05-26T08:00:10Z</time>
      </trkpt>
      <trkpt lat="45.73156" lon="3.81311">
        <ele>1130.5</ele>
        <time>2017-05-26T08:00:15Z</time>
      </trkpt>
      <trkpt lat="45.73146" lon="3.81312">
        <ele>1131.699951</ele>
        <time>2017-05-26T08:00:21Z</time>
      </trkpt>
      <trkpt lat="45.73136" lon="3.81311">
        <ele>1132.800049</ele>
        <time>2017-05-26T08:00:26Z</time>
      </trkpt>
      <trkpt lat="45.73126" lon="3.81309">
        <ele>1134.400024</ele>
        <time>2017-05-26T08:00:32Z</time>
      </trkpt>
      <trkpt lat="45.73118" lon="3.81305">
        <ele>1136.199951</ele>
        <time>2017-05-26T08:00:38Z</time>
      </trkpt>
      <trkpt lat="45.73116" lon="3.81292">
        <ele>1138.199951</ele>
        <time>2017-05-26T08:01:34Z</time>
      </trkpt>
      <trkpt lat="45.73107" lon="3.81287">
        <ele>1138.5</ele>
        <time>2017-05-26T08:02:50Z</time>
      </trkpt>
      <trkpt lat="45.73104" lon="3.81273">
        <ele>1139.400024</ele>
        <time>2017-05-26T08:02:57Z</time>
      </trkpt>
      <trkpt lat="45.73099" lon="3.8126">
        <ele>1140.099976</ele>
        <time>2017-05-26T08:03:03Z</time>
      </trkpt>
      <trkpt lat="45.73093" lon="3.81245">
        <ele>1141.300049</ele>
        <time>2017-05-26T08:03:10Z</time>
      </trkpt>
      <trkpt lat="45.73089" lon="3.81232">
        <ele>1142.599976</ele>
        <time>2017-05-26T08:03:17Z</time>
      </trkpt>
      <trkpt lat="45.73084" lon="3.8122">
        <ele>1143.5</ele>
        <time>2017-05-26T08:03:23Z</time>
      </trkpt>
      <trkpt lat="45.73079" lon="3.81208">
        <ele>1144.300049</ele>
        <time>2017-05-26T08:03:28Z</time>
      </trkpt>
      <trkpt lat="45.73074" lon="3.81198">
        <ele>1145.199951</ele>
        <time>2017-05-26T08:03:32Z</time>
      </trkpt>
      <trkpt lat="45.73068" lon="3.81186">
        <ele>1145.5</ele>
        <time>2017-05-26T08:03:36Z</time>
      </trkpt>
      <trkpt lat="45.73063" lon="3.81174">
        <ele>1145.900024</ele>
        <time>2017-05-26T08:03:40Z</time>
      </trkpt>
      <trkpt lat="45.73058" lon="3.81162">
        <ele>1146.400024</ele>
        <time>2017-05-26T08:03:45Z</time>
      </trkpt>
      <trkpt lat="45.73054" lon="3.8115">
        <ele>1146.800049</ele>
        <time>2017-05-26T08:03:51Z</time>
      </trkpt>
      <trkpt lat="45.7305" lon="3.81136">
        <ele>1147.800049</ele>
        <time>2017-05-26T08:03:57Z</time>
      </trkpt>
      <trkpt lat="45.73046" lon="3.81122">
        <ele>1148.5</ele>
        <time>2017-05-26T08:04:02Z</time>
      </trkpt>
      <trkpt lat="45.7304" lon="3.81112">
        <ele>1148.800049</ele>
        <time>2017-05-26T08:04:05Z</time>
      </trkpt>
      <trkpt lat="45.73036" lon="3.81099">
        <ele>1149.300049</ele>
        <time>2017-05-26T08:04:09Z</time>
      </trkpt>
      <trkpt lat="45.73033" lon="3.81085">
        <ele>1150.199951</ele>
        <time>2017-05-26T08:04:15Z</time>
      </trkpt>
      <trkpt lat="45.73029" lon="3.8107">
        <ele>1150.900024</ele>
        <time>2017-05-26T08:04:21Z</time>
      </trkpt>
      <trkpt lat="45.73025" lon="3.81056">
        <ele>1151.900024</ele>
        <time>2017-05-26T08:04:26Z</time>
      </trkpt>
      <trkpt lat="45.73021" lon="3.81042">
        <ele>1153</ele>
        <time>2017-05-26T08:04:31Z</time>
      </trkpt>
      <trkpt lat="45.73017" lon="3.81027">
        <ele>1153.699951</ele>
        <time>2017-05-26T08:04:36Z</time>
      </trkpt>
      <trkpt lat="45.73012" lon="3.81013">
        <ele>1154.800049</ele>
        <time>2017-05-26T08:04:41Z</time>
      </trkpt>
      <trkpt lat="45.73009" lon="3.80998">
        <ele>1155.699951</ele>
        <time>2017-05-26T08:04:47Z</time>
      </trkpt>
      <trkpt lat="45.73004" lon="3.80986">
        <ele>1156.599976</ele>
        <time>2017-05-26T08:04:52Z</time>
      </trkpt>
      <trkpt lat="45.73" lon="3.80973">
        <ele>1157.300049</ele>
        <time>2017-05-26T08:04:56Z</time>
      </trkpt>
      <trkpt lat="45.72997" lon="3.8096">
        <ele>1158.400024</ele>
        <time>2017-05-26T08:05:03Z</time>
      </trkpt>
      <trkpt lat="45.72993" lon="3.80946">
        <ele>1159.5</ele>
        <time>2017-05-26T08:05:09Z</time>
      </trkpt>
      <trkpt lat="45.7299" lon="3.80933">
        <ele>1160.300049</ele>
        <time>2017-05-26T08:05:15Z</time>
      </trkpt>
      <trkpt lat="45.72987" lon="3.8092">
        <ele>1161.199951</ele>
        <time>2017-05-26T08:05:20Z</time>
      </trkpt>
      <trkpt lat="45.72985" lon="3.80907">
        <ele>1162</ele>
        <time>2017-05-26T08:05:25Z</time>
      </trkpt>
      <trkpt lat="45.72984" lon="3.80892">
        <ele>1163</ele>
        <time>2017-05-26T08:05:31Z</time>
      </trkpt>
      <trkpt lat="45.72981" lon="3.80878">
        <ele>1164.300049</ele>
        <time>2017-05-26T08:05:38Z</time>
      </trkpt>
      <trkpt lat="45.72981" lon="3.80864">
        <ele>1165.400024</ele>
        <time>2017-05-26T08:05:44Z</time>
      </trkpt>
      <trkpt lat="45.72982" lon="3.8085">
        <ele>1166.900024</ele>
        <time>2017-05-26T08:05:51Z</time>
      </trkpt>
      <trkpt lat="45.72983" lon="3.80836">
        <ele>1168</ele>
        <time>2017-05-26T08:05:57Z</time>
      </trkpt>
      <trkpt lat="45.72986" lon="3.80824">
        <ele>1169.300049</ele>
        <time>2017-05-26T08:06:03Z</time>
      </trkpt>
      <trkpt lat="45.72987" lon="3.80811">
        <ele>1170.599976</ele>
        <time>2017-05-26T08:06:08Z</time>
      </trkpt>
      <trkpt lat="45.7299" lon="3.80797">
        <ele>1171.5</ele>
        <time>2017-05-26T08:06:14Z</time>
      </trkpt>
      <trkpt lat="45.72992" lon="3.80784">
        <ele>1172</ele>
        <time>2017-05-26T08:06:19Z</time>
      </trkpt>
      <trkpt lat="45.72995" lon="3.8077">
        <ele>1172.699951</ele>
        <time>2017-05-26T08:06:24Z</time>
      </trkpt>
      <trkpt lat="45.73" lon="3.80758">
        <ele>1173.699951</ele>
        <time>2017-05-26T08:06:29Z</time>
      </trkpt>
      <trkpt lat="45.73005" lon="3.80744">
        <ele>1174.699951</ele>
        <time>2017-05-26T08:06:34Z</time>
      </trkpt>
      <trkpt lat="45.73009" lon="3.80731">
        <ele>1175.699951</ele>
        <time>2017-05-26T08:06:39Z</time>
      </trkpt>
      <trkpt lat="45.73012" lon="3.80718">
        <ele>1176.699951</ele>
        <time>2017-05-26T08:06:43Z</time>
      </trkpt>
      <trkpt lat="45.73016" lon="3.80706">
        <ele>1177.5</ele>
        <time>2017-05-26T08:06:47Z</time>
      </trkpt>
      <trkpt lat="45.73017" lon="3.8069">
        <ele>1178.300049</ele>
        <time>2017-05-26T08:06:52Z</time>
      </trkpt>
      <trkpt lat="45.73016" lon="3.80674">
        <ele>1179.099976</ele>
        <time>2017-05-26T08:06:57Z</time>
      </trkpt>
      <trkpt lat="45.73015" lon="3.80659">
        <ele>1179.699951</ele>
        <time>2017-05-26T08:07:01Z</time>
      </trkpt>
      <trkpt lat="45.73013" lon="3.80645">
        <ele>1180.400024</ele>
        <time>2017-05-26T08:07:05Z</time>
      </trkpt>
      <trkpt lat="45.73011" lon="3.8063">
        <ele>1180.900024</ele>
        <time>2017-05-26T08:07:09Z</time>
      </trkpt>
      <trkpt lat="45.73009" lon="3.80615">
        <ele>1181.300049</ele>
        <time>2017-05-26T08:07:13Z</time>
      </trkpt>
      <trkpt lat="45.73006" lon="3.80601">
        <ele>1181.900024</ele>
        <time>2017-05-26T08:07:17Z</time>
      </trkpt>
      <trkpt lat="45.73004" lon="3.80587">
        <ele>1182.599976</ele>
        <time>2017-05-26T08:07:21Z</time>
      </trkpt>
      <trkpt lat="45.73001" lon="3.80573">
        <ele>1183.5</ele>
        <time>2017-05-26T08:07:25Z</time>
      </trkpt>
      <trkpt lat="45.73" lon="3.80559">
        <ele>1184.099976</ele>
        <time>2017-05-26T08:07:29Z</time>
      </trkpt>
      <trkpt lat="45.72999" lon="3.80545">
        <ele>1184.699951</ele>
        <time>2017-05-26T08:07:33Z</time>
      </trkpt>
      <trkpt lat="45.72998" lon="3.80531">
        <ele>1185.900024</ele>
        <time>2017-05-26T08:07:38Z</time>
      </trkpt>
      <trkpt lat="45.72997" lon="3.80517">
        <ele>1187</ele>
        <time>2017-05-26T08:07:44Z</time>
      </trkpt>
      <trkpt lat="45.72994" lon="3.80503">
        <ele>1188</ele>
        <time>2017-05-26T08:07:50Z</time>
      </trkpt>
      <trkpt lat="45.72991" lon="3.8049">
        <ele>1189.199951</ele>
        <time>2017-05-26T08:07:55Z</time>
      </trkpt>
      <trkpt lat="45.72989" lon="3.80475">
        <ele>1190.300049</ele>
        <time>2017-05-26T08:08:01Z</time>
      </trkpt>
      <trkpt lat="45.72988" lon="3.80461">
        <ele>1191.300049</ele>
        <time>2017-05-26T08:08:06Z</time>
      </trkpt>
      <trkpt lat="45.72986" lon="3.80446">
        <ele>1192.300049</ele>
        <time>2017-05-26T08:08:11Z</time>
      </trkpt>
      <trkpt lat="45.72984" lon="3.80434">
        <ele>1193</ele>
        <time>2017-05-26T08:08:15Z</time>
      </trkpt>
      <trkpt lat="45.72982" lon="3.80419">
        <ele>1193.599976</ele>
        <time>2017-05-26T08:08:20Z</time>
      </trkpt>
      <trkpt lat="45.7298" lon="3.80406">
        <ele>1194.400024</ele>
        <time>2017-05-26T08:08:24Z</time>
      </trkpt>
      <trkpt lat="45.72979" lon="3.80393">
        <ele>1195.099976</ele>
        <time>2017-05-26T08:08:28Z</time>
      </trkpt>
      <trkpt lat="45.72978" lon="3.80378">
        <ele>1195.800049</ele>
        <time>2017-05-26T08:08:32Z</time>
      </trkpt>
      <trkpt lat="45.72976" lon="3.80363">
        <ele>1196.599976</ele>
        <time>2017-05-26T08:08:36Z</time>
      </trkpt>
      <trkpt lat="45.72976" lon="3.80348">
        <ele>1197</ele>
        <time>2017-05-26T08:08:40Z</time>
      </trkpt>
      <trkpt lat="45.72976" lon="3.80332">
        <ele>1197.5</ele>
        <time>2017-05-26T08:08:44Z</time>
      </trkpt>
      <trkpt lat="45.72977" lon="3.80316">
        <ele>1198.199951</ele>
        <time>2017-05-26T08:08:48Z</time>
      </trkpt>
      <trkpt lat="45.72977" lon="3.80303">
        <ele>1198.599976</ele>
        <time>2017-05-26T08:08:51Z</time>
      </trkpt>
      <trkpt lat="45.72977" lon="3.80289">
        <ele>1198.900024</ele>
        <time>2017-05-26T08:08:54Z</time>
      </trkpt>
      <trkpt lat="45.72976" lon="3.80275">
        <ele>1199.199951</ele>
        <time>2017-05-26T08:08:57Z</time>
      </trkpt>
      <trkpt lat="45.72974" lon="3.80261">
        <ele>1199.699951</ele>
        <time>2017-05-26T08:09:02Z</time>
      </trkpt>
      <trkpt lat="45.72971" lon="3.80249">
        <ele>1200.199951</ele>
        <time>2017-05-26T08:10:09Z</time>
      </trkpt>
      <trkpt lat="45.72972" lon="3.80235">
        <ele>1200</ele>
        <time>2017-05-26T08:13:20Z</time>
      </trkpt>
      <trkpt lat="45.72971" lon="3.80221">
        <ele>1200.199951</ele>
        <time>2017-05-26T08:13:24Z</time>
      </trkpt>
      <trkpt lat="45.72971" lon="3.80207">
        <ele>1200.300049</ele>
        <time>2017-05-26T08:13:27Z</time>
      </trkpt>
      <trkpt lat="45.72972" lon="3.80193">
        <ele>1200.5</ele>
        <time>2017-05-26T08:13:31Z</time>
      </trkpt>
      <trkpt lat="45.72972" lon="3.80178">
        <ele>1200.599976</ele>
        <time>2017-05-26T08:13:35Z</time>
      </trkpt>
      <trkpt lat="45.72972" lon="3.80163">
        <ele>1200.5</ele>
        <time>2017-05-26T08:13:39Z</time>
      </trkpt>
      <trkpt lat="45.72976" lon="3.80146">
        <ele>1200.699951</ele>
        <time>2017-05-26T08:13:42Z</time>
      </trkpt>
      <trkpt lat="45.72982" lon="3.80131">
        <ele>1200.900024</ele>
        <time>2017-05-26T08:13:44Z</time>
      </trkpt>
      <trkpt lat="45.72985" lon="3.80119">
        <ele>1200.900024</ele>
        <time>2017-05-26T08:13:46Z</time>
      </trkpt>
      <trkpt lat="45.72989" lon="3.80107">
        <ele>1200.900024</ele>
        <time>2017-05-26T08:13:48Z</time>
      </trkpt>
      <trkpt lat="45.72991" lon="3.80091">
        <ele>1201.099976</ele>
        <time>2017-05-26T08:13:51Z</time>
      </trkpt>
      <trkpt lat="45.72993" lon="3.80075">
        <ele>1201.400024</ele>
        <time>2017-05-26T08:13:54Z</time>
      </trkpt>
      <trkpt lat="45.72994" lon="3.80062">
        <ele>1201.800049</ele>
        <time>2017-05-26T08:13:57Z</time>
      </trkpt>
      <trkpt lat="45.72994" lon="3.80046">
        <ele>1202</ele>
        <time>2017-05-26T08:14:00Z</time>
      </trkpt>
      <trkpt lat="45.72992" lon="3.8003">
        <ele>1202.099976</ele>
        <time>2017-05-26T08:14:02Z</time>
      </trkpt>
      <trkpt lat="45.72992" lon="3.80015">
        <ele>1202.199951</ele>
        <time>2017-05-26T08:14:05Z</time>
      </trkpt>
      <trkpt lat="45.72991" lon="3.80002">
        <ele>1202.5</ele>
        <time>2017-05-26T08:14:08Z</time>
      </trkpt>
      <trkpt lat="45.72989" lon="3.79987">
        <ele>1202.800049</ele>
        <time>2017-05-26T08:14:12Z</time>
      </trkpt>
      <trkpt lat="45.72989" lon="3.79972">
        <ele>1203.099976</ele>
        <time>2017-05-26T08:14:16Z</time>
      </trkpt>
      <trkpt lat="45.72991" lon="3.79959">
        <ele>1203.599976</ele>
        <time>2017-05-26T08:14:20Z</time>
      </trkpt>
      <trkpt lat="45.72985" lon="3.79947">
        <ele>1203.900024</ele>
        <time>2017-05-26T08:14:24Z</time>
      </trkpt>
      <trkpt lat="45.7298" lon="3.79936">
        <ele>1204.099976</ele>
        <time>2017-05-26T08:14:28Z</time>
      </trkpt>
      <trkpt lat="45.72974" lon="3.79926">
        <ele>1204.599976</ele>
        <time>2017-05-26T08:14:32Z</time>
      </trkpt>
      <trkpt lat="45.72965" lon="3.79914">
        <ele>1205.099976</ele>
        <time>2017-05-26T08:14:37Z</time>
      </trkpt>
      <trkpt lat="45.72958" lon="3.79904">
        <ele>1205.800049</ele>
        <time>2017-05-26T08:14:41Z</time>
      </trkpt>
      <trkpt lat="45.72951" lon="3.79894">
        <ele>1206.800049</ele>
        <time>2017-05-26T08:14:46Z</time>
      </trkpt>
      <trkpt lat="45.72943" lon="3.79885">
        <ele>1207.599976</ele>
        <time>2017-05-26T08:14:51Z</time>
      </trkpt>
      <trkpt lat="45.72936" lon="3.79877">
        <ele>1208.800049</ele>
        <time>2017-05-26T08:14:56Z</time>
      </trkpt>
      <trkpt lat="45.72928" lon="3.79868">
        <ele>1209.900024</ele>
        <time>2017-05-26T08:15:02Z</time>
      </trkpt>
      <trkpt lat="45.72923" lon="3.79857">
        <ele>1211.400024</ele>
        <time>2017-05-26T08:15:09Z</time>
      </trkpt>
      <trkpt lat="45.72922" lon="3.79843">
        <ele>1214.5</ele>
        <time>2017-05-26T08:15:22Z</time>
      </trkpt>
      <trkpt lat="45.72916" lon="3.79831">
        <ele>1216.199951</ele>
        <time>2017-05-26T08:15:30Z</time>
      </trkpt>
      <trkpt lat="45.7291" lon="3.7982">
        <ele>1217.199951</ele>
        <time>2017-05-26T08:15:36Z</time>
      </trkpt>
      <trkpt lat="45.72906" lon="3.79808">
        <ele>1219</ele>
        <time>2017-05-26T08:15:44Z</time>
      </trkpt>
      <trkpt lat="45.72902" lon="3.79795">
        <ele>1220.400024</ele>
        <time>2017-05-26T08:15:52Z</time>
      </trkpt>
      <trkpt lat="45.72897" lon="3.79784">
        <ele>1221.699951</ele>
        <time>2017-05-26T08:15:59Z</time>
      </trkpt>
      <trkpt lat="45.72891" lon="3.79773">
        <ele>1222.800049</ele>
        <time>2017-05-26T08:16:05Z</time>
      </trkpt>
      <trkpt lat="45.72886" lon="3.79761">
        <ele>1223.900024</ele>
        <time>2017-05-26T08:16:11Z</time>
      </trkpt>
      <trkpt lat="45.7288" lon="3.7975">
        <ele>1225</ele>
        <time>2017-05-26T08:16:18Z</time>
      </trkpt>
      <trkpt lat="45.72875" lon="3.79739">
        <ele>1225.800049</ele>
        <time>2017-05-26T08:16:24Z</time>
      </trkpt>
      <trkpt lat="45.72869" lon="3.79727">
        <ele>1226.800049</ele>
        <time>2017-05-26T08:16:31Z</time>
      </trkpt>
      <trkpt lat="45.72863" lon="3.79715">
        <ele>1227.900024</ele>
        <time>2017-05-26T08:16:37Z</time>
      </trkpt>
      <trkpt lat="45.72857" lon="3.79703">
        <ele>1228.800049</ele>
        <time>2017-05-26T08:16:45Z</time>
      </trkpt>
      <trkpt lat="45.72851" lon="3.79691">
        <ele>1229.400024</ele>
        <time>2017-05-26T08:16:52Z</time>
      </trkpt>
      <trkpt lat="45.72858" lon="3.79682">
        <ele>1230</ele>
        <time>2017-05-26T08:17:00Z</time>
      </trkpt>
      <trkpt lat="45.72868" lon="3.79685">
        <ele>1230.400024</ele>
        <time>2017-05-26T08:17:07Z</time>
      </trkpt>
      <trkpt lat="45.72877" lon="3.79688">
        <ele>1230.400024</ele>
        <time>2017-05-26T08:17:12Z</time>
      </trkpt>
      <trkpt lat="45.72889" lon="3.79689">
        <ele>1230.199951</ele>
        <time>2017-05-26T08:17:17Z</time>
      </trkpt>
      <trkpt lat="45.72899" lon="3.79684">
        <ele>1229.900024</ele>
        <time>2017-05-26T08:17:22Z</time>
      </trkpt>
      <trkpt lat="45.72908" lon="3.79683">
        <ele>1229.800049</ele>
        <time>2017-05-26T08:17:27Z</time>
      </trkpt>
      <trkpt lat="45.7292" lon="3.79681">
        <ele>1229.699951</ele>
        <time>2017-05-26T08:17:32Z</time>
      </trkpt>
      <trkpt lat="45.72929" lon="3.79675">
        <ele>1229.599976</ele>
        <time>2017-05-26T08:17:37Z</time>
      </trkpt>
      <trkpt lat="45.72938" lon="3.79669">
        <ele>1229.599976</ele>
        <time>2017-05-26T08:17:40Z</time>
      </trkpt>
      <trkpt lat="45.72944" lon="3.7966">
        <ele>1229.599976</ele>
        <time>2017-05-26T08:17:43Z</time>
      </trkpt>
      <trkpt lat="45.72952" lon="3.79649">
        <ele>1229.900024</ele>
        <time>2017-05-26T08:17:47Z</time>
      </trkpt>
      <trkpt lat="45.72961" lon="3.7964">
        <ele>1230.300049</ele>
        <time>2017-05-26T08:17:51Z</time>
      </trkpt>
      <trkpt lat="45.72969" lon="3.79631">
        <ele>1231.300049</ele>
        <time>2017-05-26T08:17:56Z</time>
      </trkpt>
      <trkpt lat="45.72978" lon="3.79623">
        <ele>1232.199951</ele>
        <time>2017-05-26T08:18:02Z</time>
      </trkpt>
      <trkpt lat="45.72986" lon="3.79613">
        <ele>1233.5</ele>
        <time>2017-05-26T08:18:09Z</time>
      </trkpt>
      <trkpt lat="45.72993" lon="3.79604">
        <ele>1234.5</ele>
        <time>2017-05-26T08:18:14Z</time>
      </trkpt>
      <trkpt lat="45.72999" lon="3.79593">
        <ele>1235.400024</ele>
        <time>2017-05-26T08:18:20Z</time>
      </trkpt>
      <trkpt lat="45.73006" lon="3.79582">
        <ele>1236.699951</ele>
        <time>2017-05-26T08:18:27Z</time>
      </trkpt>
      <trkpt lat="45.73014" lon="3.79575">
        <ele>1238.300049</ele>
        <time>2017-05-26T08:18:34Z</time>
      </trkpt>
      <trkpt lat="45.73021" lon="3.79564">
        <ele>1239.199951</ele>
        <time>2017-05-26T08:18:39Z</time>
      </trkpt>
      <trkpt lat="45.73029" lon="3.79552">
        <ele>1240.699951</ele>
        <time>2017-05-26T08:18:47Z</time>
      </trkpt>
      <trkpt lat="45.73037" lon="3.79543">
        <ele>1242</ele>
        <time>2017-05-26T08:18:53Z</time>
      </trkpt>
      <trkpt lat="45.73045" lon="3.79537">
        <ele>1243.099976</ele>
        <time>2017-05-26T08:18:58Z</time>
      </trkpt>
      <trkpt lat="45.73052" lon="3.79528">
        <ele>1244.5</ele>
        <time>2017-05-26T08:19:05Z</time>
      </trkpt>
      <trkpt lat="45.7306" lon="3.79522">
        <ele>1245.900024</ele>
        <time>2017-05-26T08:19:11Z</time>
      </trkpt>
      <trkpt lat="45.73068" lon="3.79517">
        <ele>1247.300049</ele>
        <time>2017-05-26T08:19:17Z</time>
      </trkpt>
      <trkpt lat="45.73079" lon="3.7951">
        <ele>1248.199951</ele>
        <time>2017-05-26T08:19:22Z</time>
      </trkpt>
      <trkpt lat="45.73088" lon="3.79505">
        <ele>1249</ele>
        <time>2017-05-26T08:19:27Z</time>
      </trkpt>
      <trkpt lat="45.73097" lon="3.79499">
        <ele>1249.599976</ele>
        <time>2017-05-26T08:19:33Z</time>
      </trkpt>
      <trkpt lat="45.73106" lon="3.79491">
        <ele>1249.699951</ele>
        <time>2017-05-26T08:19:38Z</time>
      </trkpt>
      <trkpt lat="45.73116" lon="3.79484">
        <ele>1249.599976</ele>
        <time>2017-05-26T08:19:43Z</time>
      </trkpt>
      <trkpt lat="45.73124" lon="3.79478">
        <ele>1249.300049</ele>
        <time>2017-05-26T08:19:47Z</time>
      </trkpt>
      <trkpt lat="45.73134" lon="3.79471">
        <ele>1249.599976</ele>
        <time>2017-05-26T08:19:52Z</time>
      </trkpt>
      <trkpt lat="45.73142" lon="3.79462">
        <ele>1249.5</ele>
        <time>2017-05-26T08:19:57Z</time>
      </trkpt>
      <trkpt lat="45.7315" lon="3.79453">
        <ele>1249.400024</ele>
        <time>2017-05-26T08:20:01Z</time>
      </trkpt>
      <trkpt lat="45.73158" lon="3.79448">
        <ele>1249.400024</ele>
        <time>2017-05-26T08:20:05Z</time>
      </trkpt>
      <trkpt lat="45.73166" lon="3.79441">
        <ele>1249.199951</ele>
        <time>2017-05-26T08:20:09Z</time>
      </trkpt>
      <trkpt lat="45.73177" lon="3.79435">
        <ele>1249.400024</ele>
        <time>2017-05-26T08:20:13Z</time>
      </trkpt>
      <trkpt lat="45.73187" lon="3.79427">
        <ele>1249.300049</ele>
        <time>2017-05-26T08:20:17Z</time>
      </trkpt>
      <trkpt lat="45.73196" lon="3.79418">
        <ele>1249.099976</ele>
        <time>2017-05-26T08:20:21Z</time>
      </trkpt>
      <trkpt lat="45.73205" lon="3.79408">
        <ele>1249.099976</ele>
        <time>2017-05-26T08:20:25Z</time>
      </trkpt>
      <trkpt lat="45.73212" lon="3.79397">
        <ele>1249</ele>
        <time>2017-05-26T08:20:29Z</time>
      </trkpt>
      <trkpt lat="45.73219" lon="3.79386">
        <ele>1249.099976</ele>
        <time>2017-05-26T08:20:33Z</time>
      </trkpt>
      <trkpt lat="45.73227" lon="3.79376">
        <ele>1249.199951</ele>
        <time>2017-05-26T08:20:37Z</time>
      </trkpt>
      <trkpt lat="45.73233" lon="3.79366">
        <ele>1249.300049</ele>
        <time>2017-05-26T08:20:40Z</time>
      </trkpt>
      <trkpt lat="45.7324" lon="3.79352">
        <ele>1249.400024</ele>
        <time>2017-05-26T08:20:44Z</time>
      </trkpt>
      <trkpt lat="45.73245" lon="3.79341">
        <ele>1249.400024</ele>
        <time>2017-05-26T08:20:47Z</time>
      </trkpt>
      <trkpt lat="45.73251" lon="3.79326">
        <ele>1249.300049</ele>
        <time>2017-05-26T08:20:51Z</time>
      </trkpt>
      <trkpt lat="45.73256" lon="3.79314">
        <ele>1248.800049</ele>
        <time>2017-05-26T08:20:54Z</time>
      </trkpt>
      <trkpt lat="45.73261" lon="3.79302">
        <ele>1248.699951</ele>
        <time>2017-05-26T08:20:57Z</time>
      </trkpt>
      <trkpt lat="45.73266" lon="3.79291">
        <ele>1248.599976</ele>
        <time>2017-05-26T08:21:00Z</time>
      </trkpt>
      <trkpt lat="45.7327" lon="3.79278">
        <ele>1248.5</ele>
        <time>2017-05-26T08:21:03Z</time>
      </trkpt>
      <trkpt lat="45.73273" lon="3.79264">
        <ele>1248.400024</ele>
        <time>2017-05-26T08:21:06Z</time>
      </trkpt>
      <trkpt lat="45.73276" lon="3.79248">
        <ele>1248.400024</ele>
        <time>2017-05-26T08:21:10Z</time>
      </trkpt>
      <trkpt lat="45.73276" lon="3.79235">
        <ele>1248.599976</ele>
        <time>2017-05-26T08:21:13Z</time>
      </trkpt>
      <trkpt lat="45.73277" lon="3.79221">
        <ele>1248.800049</ele>
        <time>2017-05-26T08:21:17Z</time>
      </trkpt>
      <trkpt lat="45.73278" lon="3.79207">
        <ele>1249.099976</ele>
        <time>2017-05-26T08:21:21Z</time>
      </trkpt>
      <trkpt lat="45.73278" lon="3.79192">
        <ele>1249.300049</ele>
        <time>2017-05-26T08:21:25Z</time>
      </trkpt>
      <trkpt lat="45.73278" lon="3.79178">
        <ele>1249.5</ele>
        <time>2017-05-26T08:21:31Z</time>
      </trkpt>
      <trkpt lat="45.73271" lon="3.79167">
        <ele>1249.900024</ele>
        <time>2017-05-26T08:21:38Z</time>
      </trkpt>
      <trkpt lat="45.73262" lon="3.79161">
        <ele>1250.199951</ele>
        <time>2017-05-26T08:22:25Z</time>
      </trkpt>
      <trkpt lat="45.73263" lon="3.79147">
        <ele>1250.300049</ele>
        <time>2017-05-26T08:22:34Z</time>
      </trkpt>
      <trkpt lat="45.73264" lon="3.79133">
        <ele>1250.800049</ele>
        <time>2017-05-26T08:22:41Z</time>
      </trkpt>
      <trkpt lat="45.73261" lon="3.79121">
        <ele>1251.199951</ele>
        <time>2017-05-26T08:22:47Z</time>
      </trkpt>
      <trkpt lat="45.73256" lon="3.79107">
        <ele>1251.900024</ele>
        <time>2017-05-26T08:22:54Z</time>
      </trkpt>
      <trkpt lat="45.7325" lon="3.79097">
        <ele>1252.900024</ele>
        <time>2017-05-26T08:22:59Z</time>
      </trkpt>
      <trkpt lat="45.73246" lon="3.79083">
        <ele>1254.099976</ele>
        <time>2017-05-26T08:23:04Z</time>
      </trkpt>
      <trkpt lat="45.73241" lon="3.79069">
        <ele>1255.400024</ele>
        <time>2017-05-26T08:23:11Z</time>
      </trkpt>
      <trkpt lat="45.73237" lon="3.79058">
        <ele>1256.599976</ele>
        <time>2017-05-26T08:23:18Z</time>
      </trkpt>
      <trkpt lat="45.73235" lon="3.79045">
        <ele>1257.900024</ele>
        <time>2017-05-26T08:23:25Z</time>
      </trkpt>
      <trkpt lat="45.73232" lon="3.79032">
        <ele>1259.199951</ele>
        <time>2017-05-26T08:23:32Z</time>
      </trkpt>
      <trkpt lat="45.7323" lon="3.79019">
        <ele>1260.599976</ele>
        <time>2017-05-26T08:23:39Z</time>
      </trkpt>
      <trkpt lat="45.73231" lon="3.79005">
        <ele>1262.400024</ele>
        <time>2017-05-26T08:23:46Z</time>
      </trkpt>
      <trkpt lat="45.7323" lon="3.78992">
        <ele>1263.800049</ele>
        <time>2017-05-26T08:23:53Z</time>
      </trkpt>
      <trkpt lat="45.73229" lon="3.78979">
        <ele>1265.199951</ele>
        <time>2017-05-26T08:23:59Z</time>
      </trkpt>
      <trkpt lat="45.7323" lon="3.78965">
        <ele>1266.800049</ele>
        <time>2017-05-26T08:24:06Z</time>
      </trkpt>
      <trkpt lat="45.73229" lon="3.7895">
        <ele>1268.099976</ele>
        <time>2017-05-26T08:24:12Z</time>
      </trkpt>
      <trkpt lat="45.7323" lon="3.78936">
        <ele>1269.5</ele>
        <time>2017-05-26T08:24:19Z</time>
      </trkpt>
      <trkpt lat="45.73231" lon="3.78923">
        <ele>1270.300049</ele>
        <time>2017-05-26T08:24:24Z</time>
      </trkpt>
      <trkpt lat="45.73233" lon="3.7891">
        <ele>1270.900024</ele>
        <time>2017-05-26T08:24:29Z</time>
      </trkpt>
      <trkpt lat="45.73233" lon="3.78896">
        <ele>1271.5</ele>
        <time>2017-05-26T08:24:34Z</time>
      </trkpt>
      <trkpt lat="45.73235" lon="3.78881">
        <ele>1272.300049</ele>
        <time>2017-05-26T08:24:40Z</time>
      </trkpt>
      <trkpt lat="45.73236" lon="3.78867">
        <ele>1272.800049</ele>
        <time>2017-05-26T08:24:44Z</time>
      </trkpt>
      <trkpt lat="45.73235" lon="3.78854">
        <ele>1273.400024</ele>
        <time>2017-05-26T08:24:48Z</time>
      </trkpt>
      <trkpt lat="45.73237" lon="3.7884">
        <ele>1273.800049</ele>
        <time>2017-05-26T08:24:53Z</time>
      </trkpt>
      <trkpt lat="45.73241" lon="3.78824">
        <ele>1274.599976</ele>
        <time>2017-05-26T08:24:58Z</time>
      </trkpt>
      <trkpt lat="45.73247" lon="3.78812">
        <ele>1274.699951</ele>
        <time>2017-05-26T08:25:02Z</time>
      </trkpt>
      <trkpt lat="45.7325" lon="3.78801">
        <ele>1275.099976</ele>
        <time>2017-05-26T08:25:06Z</time>
      </trkpt>
      <trkpt lat="45.73254" lon="3.78788">
        <ele>1275.300049</ele>
        <time>2017-05-26T08:25:11Z</time>
      </trkpt>
      <trkpt lat="45.73258" lon="3.78774">
        <ele>1275.099976</ele>
        <time>2017-05-26T08:25:15Z</time>
      </trkpt>
      <trkpt lat="45.73263" lon="3.7876">
        <ele>1275.099976</ele>
        <time>2017-05-26T08:25:18Z</time>
      </trkpt>
      <trkpt lat="45.73267" lon="3.78743">
        <ele>1274.800049</ele>
        <time>2017-05-26T08:25:21Z</time>
      </trkpt>
      <trkpt lat="45.73274" lon="3.78729">
        <ele>1274.400024</ele>
        <time>2017-05-26T08:25:24Z</time>
      </trkpt>
      <trkpt lat="45.73277" lon="3.78713">
        <ele>1274.300049</ele>
        <time>2017-05-26T08:25:28Z</time>
      </trkpt>
      <trkpt lat="45.73278" lon="3.78696">
        <ele>1274.099976</ele>
        <time>2017-05-26T08:25:32Z</time>
      </trkpt>
      <trkpt lat="45.7328" lon="3.7868">
        <ele>1274.300049</ele>
        <time>2017-05-26T08:25:35Z</time>
      </trkpt>
      <trkpt lat="45.73284" lon="3.78667">
        <ele>1274.599976</ele>
        <time>2017-05-26T08:25:38Z</time>
      </trkpt>
      <trkpt lat="45.73288" lon="3.78653">
        <ele>1275.199951</ele>
        <time>2017-05-26T08:25:42Z</time>
      </trkpt>
      <trkpt lat="45.73293" lon="3.78638">
        <ele>1275.800049</ele>
        <time>2017-05-26T08:25:46Z</time>
      </trkpt>
      <trkpt lat="45.73299" lon="3.78626">
        <ele>1276.400024</ele>
        <time>2017-05-26T08:25:50Z</time>
      </trkpt>
      <trkpt lat="45.73308" lon="3.78616">
        <ele>1277.099976</ele>
        <time>2017-05-26T08:25:55Z</time>
      </trkpt>
      <trkpt lat="45.73317" lon="3.78609">
        <ele>1277.699951</ele>
        <time>2017-05-26T08:26:00Z</time>
      </trkpt>
      <trkpt lat="45.73326" lon="3.78599">
        <ele>1278.400024</ele>
        <time>2017-05-26T08:26:05Z</time>
      </trkpt>
      <trkpt lat="45.73335" lon="3.78592">
        <ele>1279</ele>
        <time>2017-05-26T08:26:09Z</time>
      </trkpt>
      <trkpt lat="45.73342" lon="3.78581">
        <ele>1279.599976</ele>
        <time>2017-05-26T08:26:13Z</time>
      </trkpt>
      <trkpt lat="45.73348" lon="3.7857">
        <ele>1280.400024</ele>
        <time>2017-05-26T08:26:17Z</time>
      </trkpt>
      <trkpt lat="45.73354" lon="3.78558">
        <ele>1281.199951</ele>
        <time>2017-05-26T08:26:21Z</time>
      </trkpt>
      <trkpt lat="45.73359" lon="3.78545">
        <ele>1281.900024</ele>
        <time>2017-05-26T08:26:26Z</time>
      </trkpt>
      <trkpt lat="45.73365" lon="3.78533">
        <ele>1282.599976</ele>
        <time>2017-05-26T08:26:30Z</time>
      </trkpt>
      <trkpt lat="45.7337" lon="3.78522">
        <ele>1283.199951</ele>
        <time>2017-05-26T08:26:34Z</time>
      </trkpt>
      <trkpt lat="45.73376" lon="3.78509">
        <ele>1283.599976</ele>
        <time>2017-05-26T08:26:39Z</time>
      </trkpt>
      <trkpt lat="45.73384" lon="3.78497">
        <ele>1284.199951</ele>
        <time>2017-05-26T08:26:44Z</time>
      </trkpt>
      <trkpt lat="45.73391" lon="3.78484">
        <ele>1284.300049</ele>
        <time>2017-05-26T08:26:48Z</time>
      </trkpt>
      <trkpt lat="45.73395" lon="3.78472">
        <ele>1284.400024</ele>
        <time>2017-05-26T08:26:51Z</time>
      </trkpt>
      <trkpt lat="45.73401" lon="3.78459">
        <ele>1284.599976</ele>
        <time>2017-05-26T08:26:55Z</time>
      </trkpt>
      <trkpt lat="45.73406" lon="3.78446">
        <ele>1284.800049</ele>
        <time>2017-05-26T08:26:59Z</time>
      </trkpt>
      <trkpt lat="45.73411" lon="3.78433">
        <ele>1285</ele>
        <time>2017-05-26T08:27:03Z</time>
      </trkpt>
      <trkpt lat="45.73414" lon="3.78419">
        <ele>1285.400024</ele>
        <time>2017-05-26T08:27:07Z</time>
      </trkpt>
      <trkpt lat="45.7342" lon="3.78408">
        <ele>1285.800049</ele>
        <time>2017-05-26T08:27:11Z</time>
      </trkpt>
      <trkpt lat="45.73425" lon="3.78395">
        <ele>1285.800049</ele>
        <time>2017-05-26T08:27:15Z</time>
      </trkpt>
      <trkpt lat="45.73428" lon="3.78382">
        <ele>1286.199951</ele>
        <time>2017-05-26T08:27:19Z</time>
      </trkpt>
      <trkpt lat="45.73433" lon="3.78368">
        <ele>1285.900024</ele>
        <time>2017-05-26T08:27:23Z</time>
      </trkpt>
      <trkpt lat="45.73438" lon="3.78353">
        <ele>1285.900024</ele>
        <time>2017-05-26T08:27:27Z</time>
      </trkpt>
      <trkpt lat="45.73443" lon="3.78341">
        <ele>1285.699951</ele>
        <time>2017-05-26T08:27:30Z</time>
      </trkpt>
      <trkpt lat="45.7345" lon="3.78329">
        <ele>1285.300049</ele>
        <time>2017-05-26T08:27:33Z</time>
      </trkpt>
      <trkpt lat="45.73455" lon="3.78318">
        <ele>1285</ele>
        <time>2017-05-26T08:27:35Z</time>
      </trkpt>
      <trkpt lat="45.73462" lon="3.78304">
        <ele>1284.5</ele>
        <time>2017-05-26T08:27:37Z</time>
      </trkpt>
      <trkpt lat="45.73467" lon="3.7829">
        <ele>1284</ele>
        <time>2017-05-26T08:27:39Z</time>
      </trkpt>
      <trkpt lat="45.73472" lon="3.78276">
        <ele>1283.599976</ele>
        <time>2017-05-26T08:27:41Z</time>
      </trkpt>
      <trkpt lat="45.73476" lon="3.78263">
        <ele>1283.400024</ele>
        <time>2017-05-26T08:27:43Z</time>
      </trkpt>
      <trkpt lat="45.73478" lon="3.78248">
        <ele>1283.400024</ele>
        <time>2017-05-26T08:27:45Z</time>
      </trkpt>
      <trkpt lat="45.73484" lon="3.78229">
        <ele>1283.400024</ele>
        <time>2017-05-26T08:27:48Z</time>
      </trkpt>
      <trkpt lat="45.73488" lon="3.78217">
        <ele>1283.5</ele>
        <time>2017-05-26T08:27:50Z</time>
      </trkpt>
      <trkpt lat="45.73494" lon="3.78204">
        <ele>1283.699951</ele>
        <time>2017-05-26T08:27:53Z</time>
      </trkpt>
      <trkpt lat="45.735" lon="3.78192">
        <ele>1284</ele>
        <time>2017-05-26T08:27:56Z</time>
      </trkpt>
      <trkpt lat="45.73507" lon="3.78179">
        <ele>1284.599976</ele>
        <time>2017-05-26T08:27:59Z</time>
      </trkpt>
      <trkpt lat="45.73513" lon="3.78166">
        <ele>1284.900024</ele>
        <time>2017-05-26T08:28:02Z</time>
      </trkpt>
      <trkpt lat="45.7352" lon="3.78153">
        <ele>1285.400024</ele>
        <time>2017-05-26T08:28:06Z</time>
      </trkpt>
      <trkpt lat="45.73527" lon="3.78142">
        <ele>1286.199951</ele>
        <time>2017-05-26T08:28:10Z</time>
      </trkpt>
      <trkpt lat="45.73535" lon="3.78133">
        <ele>1286.800049</ele>
        <time>2017-05-26T08:28:14Z</time>
      </trkpt>
      <trkpt lat="45.73544" lon="3.78125">
        <ele>1287.099976</ele>
        <time>2017-05-26T08:28:19Z</time>
      </trkpt>
      <trkpt lat="45.73553" lon="3.7812">
        <ele>1287</ele>
        <time>2017-05-26T08:28:22Z</time>
      </trkpt>
      <trkpt lat="45.73565" lon="3.78115">
        <ele>1287.099976</ele>
        <time>2017-05-26T08:28:26Z</time>
      </trkpt>
      <trkpt lat="45.73576" lon="3.78115">
        <ele>1287</ele>
        <time>2017-05-26T08:28:30Z</time>
      </trkpt>
      <trkpt lat="45.73588" lon="3.78116">
        <ele>1286.699951</ele>
        <time>2017-05-26T08:28:34Z</time>
      </trkpt>
      <trkpt lat="45.736" lon="3.78116">
        <ele>1286.099976</ele>
        <time>2017-05-26T08:28:37Z</time>
      </trkpt>
      <trkpt lat="45.7361" lon="3.78117">
        <ele>1285.599976</ele>
        <time>2017-05-26T08:28:39Z</time>
      </trkpt>
      <trkpt lat="45.73619" lon="3.78117">
        <ele>1285</ele>
        <time>2017-05-26T08:28:41Z</time>
      </trkpt>
      <trkpt lat="45.73632" lon="3.78118">
        <ele>1284.5</ele>
        <time>2017-05-26T08:28:43Z</time>
      </trkpt>
      <trkpt lat="45.73643" lon="3.78121">
        <ele>1284.300049</ele>
        <time>2017-05-26T08:28:45Z</time>
      </trkpt>
      <trkpt lat="45.73652" lon="3.78124">
        <ele>1284.300049</ele>
        <time>2017-05-26T08:28:47Z</time>
      </trkpt>
      <trkpt lat="45.73665" lon="3.78126">
        <ele>1284.199951</ele>
        <time>2017-05-26T08:28:49Z</time>
      </trkpt>
      <trkpt lat="45.73675" lon="3.78129">
        <ele>1284.099976</ele>
        <time>2017-05-26T08:28:51Z</time>
      </trkpt>
      <trkpt lat="45.73686" lon="3.78135">
        <ele>1284.099976</ele>
        <time>2017-05-26T08:28:54Z</time>
      </trkpt>
      <trkpt lat="45.73698" lon="3.78137">
        <ele>1284</ele>
        <time>2017-05-26T08:28:56Z</time>
      </trkpt>
      <trkpt lat="45.73707" lon="3.78138">
        <ele>1284.099976</ele>
        <time>2017-05-26T08:28:58Z</time>
      </trkpt>
      <trkpt lat="45.73719" lon="3.78139">
        <ele>1284.300049</ele>
        <time>2017-05-26T08:29:01Z</time>
      </trkpt>
      <trkpt lat="45.73729" lon="3.7814">
        <ele>1284.400024</ele>
        <time>2017-05-26T08:29:04Z</time>
      </trkpt>
      <trkpt lat="45.73739" lon="3.78139">
        <ele>1285.099976</ele>
        <time>2017-05-26T08:29:08Z</time>
      </trkpt>
      <trkpt lat="45.7375" lon="3.78139">
        <ele>1285.5</ele>
        <time>2017-05-26T08:29:11Z</time>
      </trkpt>
      <trkpt lat="45.7376" lon="3.78141">
        <ele>1286.300049</ele>
        <time>2017-05-26T08:29:15Z</time>
      </trkpt>
      <trkpt lat="45.7377" lon="3.7814">
        <ele>1286.900024</ele>
        <time>2017-05-26T08:29:19Z</time>
      </trkpt>
      <trkpt lat="45.73781" lon="3.78138">
        <ele>1287.5</ele>
        <time>2017-05-26T08:29:23Z</time>
      </trkpt>
      <trkpt lat="45.73792" lon="3.78136">
        <ele>1288</ele>
        <time>2017-05-26T08:29:27Z</time>
      </trkpt>
      <trkpt lat="45.73804" lon="3.78134">
        <ele>1289.199951</ele>
        <time>2017-05-26T08:29:31Z</time>
      </trkpt>
      <trkpt lat="45.73815" lon="3.78133">
        <ele>1290.099976</ele>
        <time>2017-05-26T08:29:35Z</time>
      </trkpt>
      <trkpt lat="45.73826" lon="3.78133">
        <ele>1291</ele>
        <time>2017-05-26T08:29:39Z</time>
      </trkpt>
      <trkpt lat="45.73835" lon="3.78135">
        <ele>1291.800049</ele>
        <time>2017-05-26T08:29:42Z</time>
      </trkpt>
      <trkpt lat="45.73845" lon="3.78135">
        <ele>1292.900024</ele>
        <time>2017-05-26T08:29:46Z</time>
      </trkpt>
      <trkpt lat="45.73854" lon="3.78136">
        <ele>1294.199951</ele>
        <time>2017-05-26T08:29:50Z</time>
      </trkpt>
      <trkpt lat="45.73864" lon="3.78135">
        <ele>1295.199951</ele>
        <time>2017-05-26T08:29:55Z</time>
      </trkpt>
      <trkpt lat="45.73875" lon="3.78132">
        <ele>1296</ele>
        <time>2017-05-26T08:30:00Z</time>
      </trkpt>
      <trkpt lat="45.73885" lon="3.7813">
        <ele>1296.900024</ele>
        <time>2017-05-26T08:30:04Z</time>
      </trkpt>
      <trkpt lat="45.73896" lon="3.78127">
        <ele>1298</ele>
        <time>2017-05-26T08:30:09Z</time>
      </trkpt>
      <trkpt lat="45.73906" lon="3.78123">
        <ele>1298.900024</ele>
        <time>2017-05-26T08:30:13Z</time>
      </trkpt>
      <trkpt lat="45.73915" lon="3.78121">
        <ele>1299.5</ele>
        <time>2017-05-26T08:30:17Z</time>
      </trkpt>
      <trkpt lat="45.73925" lon="3.78118">
        <ele>1300.099976</ele>
        <time>2017-05-26T08:30:21Z</time>
      </trkpt>
      <trkpt lat="45.73935" lon="3.78115">
        <ele>1300.800049</ele>
        <time>2017-05-26T08:30:25Z</time>
      </trkpt>
      <trkpt lat="45.73944" lon="3.78113">
        <ele>1301.400024</ele>
        <time>2017-05-26T08:30:29Z</time>
      </trkpt>
      <trkpt lat="45.73955" lon="3.7811">
        <ele>1302.099976</ele>
        <time>2017-05-26T08:30:34Z</time>
      </trkpt>
      <trkpt lat="45.73964" lon="3.7811">
        <ele>1302.699951</ele>
        <time>2017-05-26T08:30:38Z</time>
      </trkpt>
      <trkpt lat="45.73974" lon="3.7811">
        <ele>1303.199951</ele>
        <time>2017-05-26T08:30:42Z</time>
      </trkpt>
      <trkpt lat="45.73984" lon="3.7811">
        <ele>1303.5</ele>
        <time>2017-05-26T08:30:47Z</time>
      </trkpt>
      <trkpt lat="45.73993" lon="3.78111">
        <ele>1303.900024</ele>
        <time>2017-05-26T08:30:57Z</time>
      </trkpt>
      <trkpt lat="45.74004" lon="3.78111">
        <ele>1304</ele>
        <time>2017-05-26T08:31:49Z</time>
      </trkpt>
      <trkpt lat="45.74015" lon="3.78108">
        <ele>1304.099976</ele>
        <time>2017-05-26T08:31:54Z</time>
      </trkpt>
      <trkpt lat="45.74024" lon="3.78107">
        <ele>1304.199951</ele>
        <time>2017-05-26T08:31:57Z</time>
      </trkpt>
      <trkpt lat="45.74034" lon="3.78102">
        <ele>1304.300049</ele>
        <time>2017-05-26T08:32:00Z</time>
      </trkpt>
      <trkpt lat="45.74046" lon="3.78098">
        <ele>1304.800049</ele>
        <time>2017-05-26T08:32:03Z</time>
      </trkpt>
      <trkpt lat="45.74058" lon="3.78096">
        <ele>1305.099976</ele>
        <time>2017-05-26T08:32:06Z</time>
      </trkpt>
      <trkpt lat="45.7407" lon="3.78093">
        <ele>1305.400024</ele>
        <time>2017-05-26T08:32:09Z</time>
      </trkpt>
      <trkpt lat="45.74081" lon="3.78091">
        <ele>1305.400024</ele>
        <time>2017-05-26T08:32:12Z</time>
      </trkpt>
      <trkpt lat="45.74094" lon="3.78088">
        <ele>1305.599976</ele>
        <time>2017-05-26T08:32:15Z</time>
      </trkpt>
      <trkpt lat="45.74103" lon="3.78083">
        <ele>1305.699951</ele>
        <time>2017-05-26T08:32:17Z</time>
      </trkpt>
      <trkpt lat="45.74111" lon="3.78079">
        <ele>1305.800049</ele>
        <time>2017-05-26T08:32:19Z</time>
      </trkpt>
      <trkpt lat="45.74122" lon="3.78075">
        <ele>1305.900024</ele>
        <time>2017-05-26T08:32:22Z</time>
      </trkpt>
      <trkpt lat="45.74134" lon="3.78071">
        <ele>1305.900024</ele>
        <time>2017-05-26T08:32:25Z</time>
      </trkpt>
      <trkpt lat="45.74144" lon="3.78061">
        <ele>1305.800049</ele>
        <time>2017-05-26T08:32:28Z</time>
      </trkpt>
      <trkpt lat="45.74153" lon="3.78055">
        <ele>1305.800049</ele>
        <time>2017-05-26T08:32:31Z</time>
      </trkpt>
      <trkpt lat="45.74161" lon="3.7805">
        <ele>1305.699951</ele>
        <time>2017-05-26T08:32:36Z</time>
      </trkpt>
      <trkpt lat="45.74169" lon="3.78042">
        <ele>1306.099976</ele>
        <time>2017-05-26T08:32:49Z</time>
      </trkpt>
      <trkpt lat="45.74177" lon="3.78035">
        <ele>1306</ele>
        <time>2017-05-26T08:32:59Z</time>
      </trkpt>
      <trkpt lat="45.74185" lon="3.78031">
        <ele>1305.300049</ele>
        <time>2017-05-26T08:33:44Z</time>
      </trkpt>
      <trkpt lat="45.74195" lon="3.78029">
        <ele>1305.699951</ele>
        <time>2017-05-26T08:34:20Z</time>
      </trkpt>
      <trkpt lat="45.74194" lon="3.78029">
        <ele>1306</ele>
        <time>2017-05-26T08:44:38Z</time>
      </trkpt>
      <trkpt lat="45.74203" lon="3.78022">
        <ele>1305.900024</ele>
        <time>2017-05-26T08:44:42Z</time>
      </trkpt>
      <trkpt lat="45.7421" lon="3.78013">
        <ele>1305.800049</ele>
        <time>2017-05-26T08:44:46Z</time>
      </trkpt>
      <trkpt lat="45.74218" lon="3.78004">
        <ele>1305.5</ele>
        <time>2017-05-26T08:44:50Z</time>
      </trkpt>
      <trkpt lat="45.74226" lon="3.77994">
        <ele>1305.400024</ele>
        <time>2017-05-26T08:44:54Z</time>
      </trkpt>
      <trkpt lat="45.74234" lon="3.77984">
        <ele>1305.300049</ele>
        <time>2017-05-26T08:44:58Z</time>
      </trkpt>
      <trkpt lat="45.74244" lon="3.77977">
        <ele>1304.900024</ele>
        <time>2017-05-26T08:45:02Z</time>
      </trkpt>
      <trkpt lat="45.74254" lon="3.7798">
        <ele>1304.599976</ele>
        <time>2017-05-26T08:45:06Z</time>
      </trkpt>
      <trkpt lat="45.74259" lon="3.77993">
        <ele>1304.099976</ele>
        <time>2017-05-26T08:45:10Z</time>
      </trkpt>
      <trkpt lat="45.74263" lon="3.78005">
        <ele>1303.800049</ele>
        <time>2017-05-26T08:45:14Z</time>
      </trkpt>
      <trkpt lat="45.74267" lon="3.78017">
        <ele>1303.699951</ele>
        <time>2017-05-26T08:45:20Z</time>
      </trkpt>
      <trkpt lat="45.74263" lon="3.78001">
        <ele>1303.699951</ele>
        <time>2017-05-26T08:51:39Z</time>
      </trkpt>
      <trkpt lat="45.74261" lon="3.77985">
        <ele>1303.800049</ele>
        <time>2017-05-26T08:51:43Z</time>
      </trkpt>
      <trkpt lat="45.74262" lon="3.77971">
        <ele>1303.800049</ele>
        <time>2017-05-26T08:51:46Z</time>
      </trkpt>
      <trkpt lat="45.74265" lon="3.77957">
        <ele>1303.800049</ele>
        <time>2017-05-26T08:51:49Z</time>
      </trkpt>
      <trkpt lat="45.74269" lon="3.77944">
        <ele>1303.699951</ele>
        <time>2017-05-26T08:51:51Z</time>
      </trkpt>
      <trkpt lat="45.74275" lon="3.77932">
        <ele>1303.599976</ele>
        <time>2017-05-26T08:51:53Z</time>
      </trkpt>
      <trkpt lat="45.74283" lon="3.7792">
        <ele>1303.400024</ele>
        <time>2017-05-26T08:51:55Z</time>
      </trkpt>
      <trkpt lat="45.74293" lon="3.7791">
        <ele>1302.900024</ele>
        <time>2017-05-26T08:51:57Z</time>
      </trkpt>
      <trkpt lat="45.74304" lon="3.77902">
        <ele>1302.5</ele>
        <time>2017-05-26T08:51:59Z</time>
      </trkpt>
      <trkpt lat="45.74315" lon="3.77895">
        <ele>1302.199951</ele>
        <time>2017-05-26T08:52:01Z</time>
      </trkpt>
      <trkpt lat="45.74326" lon="3.77888">
        <ele>1301.599976</ele>
        <time>2017-05-26T08:52:03Z</time>
      </trkpt>
      <trkpt lat="45.74336" lon="3.7788">
        <ele>1300.900024</ele>
        <time>2017-05-26T08:52:05Z</time>
      </trkpt>
      <trkpt lat="45.74345" lon="3.7787">
        <ele>1299.800049</ele>
        <time>2017-05-26T08:52:08Z</time>
      </trkpt>
      <trkpt lat="45.74351" lon="3.77858">
        <ele>1297.900024</ele>
        <time>2017-05-26T08:52:14Z</time>
      </trkpt>
      <trkpt lat="45.74355" lon="3.77846">
        <ele>1297.099976</ele>
        <time>2017-05-26T08:52:17Z</time>
      </trkpt>
      <trkpt lat="45.7436" lon="3.77834">
        <ele>1296.599976</ele>
        <time>2017-05-26T08:52:19Z</time>
      </trkpt>
      <trkpt lat="45.74366" lon="3.77821">
        <ele>1295.400024</ele>
        <time>2017-05-26T08:52:21Z</time>
      </trkpt>
      <trkpt lat="45.74372" lon="3.77805">
        <ele>1294.199951</ele>
        <time>2017-05-26T08:52:23Z</time>
      </trkpt>
      <trkpt lat="45.74377" lon="3.77791">
        <ele>1292.599976</ele>
        <time>2017-05-26T08:52:25Z</time>
      </trkpt>
      <trkpt lat="45.74381" lon="3.77774">
        <ele>1289.900024</ele>
        <time>2017-05-26T08:52:28Z</time>
      </trkpt>
      <trkpt lat="45.74384" lon="3.77757">
        <ele>1287.400024</ele>
        <time>2017-05-26T08:52:31Z</time>
      </trkpt>
      <trkpt lat="45.74387" lon="3.7774">
        <ele>1285.099976</ele>
        <time>2017-05-26T08:52:34Z</time>
      </trkpt>
      <trkpt lat="45.74389" lon="3.77725">
        <ele>1283.199951</ele>
        <time>2017-05-26T08:52:36Z</time>
      </trkpt>
      <trkpt lat="45.74391" lon="3.77713">
        <ele>1281.5</ele>
        <time>2017-05-26T08:52:38Z</time>
      </trkpt>
      <trkpt lat="45.74396" lon="3.77701">
        <ele>1279.300049</ele>
        <time>2017-05-26T08:52:41Z</time>
      </trkpt>
      <trkpt lat="45.74406" lon="3.77692">
        <ele>1276.300049</ele>
        <time>2017-05-26T08:52:45Z</time>
      </trkpt>
      <trkpt lat="45.74414" lon="3.77684">
        <ele>1274.900024</ele>
        <time>2017-05-26T08:52:47Z</time>
      </trkpt>
      <trkpt lat="45.74424" lon="3.77677">
        <ele>1273</ele>
        <time>2017-05-26T08:52:49Z</time>
      </trkpt>
      <trkpt lat="45.74434" lon="3.77674">
        <ele>1271.599976</ele>
        <time>2017-05-26T08:52:51Z</time>
      </trkpt>
      <trkpt lat="45.74445" lon="3.77672">
        <ele>1270.300049</ele>
        <time>2017-05-26T08:52:53Z</time>
      </trkpt>
      <trkpt lat="45.74454" lon="3.77671">
        <ele>1269.099976</ele>
        <time>2017-05-26T08:52:55Z</time>
      </trkpt>
      <trkpt lat="45.74468" lon="3.77668">
        <ele>1267.5</ele>
        <time>2017-05-26T08:52:58Z</time>
      </trkpt>
      <trkpt lat="45.74478" lon="3.77669">
        <ele>1266.5</ele>
        <time>2017-05-26T08:53:00Z</time>
      </trkpt>
      <trkpt lat="45.7449" lon="3.77669">
        <ele>1264.900024</ele>
        <time>2017-05-26T08:53:03Z</time>
      </trkpt>
      <trkpt lat="45.74502" lon="3.77667">
        <ele>1263.599976</ele>
        <time>2017-05-26T08:53:06Z</time>
      </trkpt>
      <trkpt lat="45.74512" lon="3.77661">
        <ele>1262</ele>
        <time>2017-05-26T08:53:10Z</time>
      </trkpt>
      <trkpt lat="45.74523" lon="3.77654">
        <ele>1260.699951</ele>
        <time>2017-05-26T08:53:14Z</time>
      </trkpt>
      <trkpt lat="45.74533" lon="3.77652">
        <ele>1259.699951</ele>
        <time>2017-05-26T08:53:17Z</time>
      </trkpt>
      <trkpt lat="45.74544" lon="3.7765">
        <ele>1258.5</ele>
        <time>2017-05-26T08:53:21Z</time>
      </trkpt>
      <trkpt lat="45.74555" lon="3.77648">
        <ele>1257.599976</ele>
        <time>2017-05-26T08:53:25Z</time>
      </trkpt>
      <trkpt lat="45.74565" lon="3.77643">
        <ele>1256.900024</ele>
        <time>2017-05-26T08:53:29Z</time>
      </trkpt>
      <trkpt lat="45.74577" lon="3.77641">
        <ele>1255.699951</ele>
        <time>2017-05-26T08:53:33Z</time>
      </trkpt>
      <trkpt lat="45.74587" lon="3.77636">
        <ele>1254.900024</ele>
        <time>2017-05-26T08:53:37Z</time>
      </trkpt>
      <trkpt lat="45.74598" lon="3.7763">
        <ele>1254</ele>
        <time>2017-05-26T08:53:41Z</time>
      </trkpt>
      <trkpt lat="45.74608" lon="3.77626">
        <ele>1253.300049</ele>
        <time>2017-05-26T08:53:44Z</time>
      </trkpt>
      <trkpt lat="45.74617" lon="3.7762">
        <ele>1252</ele>
        <time>2017-05-26T08:53:48Z</time>
      </trkpt>
      <trkpt lat="45.74626" lon="3.77618">
        <ele>1250.199951</ele>
        <time>2017-05-26T08:53:57Z</time>
      </trkpt>
      <trkpt lat="45.74636" lon="3.77625">
        <ele>1250.5</ele>
        <time>2017-05-26T08:54:04Z</time>
      </trkpt>
      <trkpt lat="45.74644" lon="3.7763">
        <ele>1251</ele>
        <time>2017-05-26T08:54:09Z</time>
      </trkpt>
      <trkpt lat="45.74655" lon="3.77635">
        <ele>1251.900024</ele>
        <time>2017-05-26T08:54:15Z</time>
      </trkpt>
      <trkpt lat="45.74664" lon="3.77639">
        <ele>1252.199951</ele>
        <time>2017-05-26T08:54:19Z</time>
      </trkpt>
      <trkpt lat="45.74673" lon="3.77647">
        <ele>1252.599976</ele>
        <time>2017-05-26T08:54:24Z</time>
      </trkpt>
      <trkpt lat="45.74682" lon="3.77656">
        <ele>1253.300049</ele>
        <time>2017-05-26T08:54:29Z</time>
      </trkpt>
      <trkpt lat="45.74688" lon="3.77665">
        <ele>1254</ele>
        <time>2017-05-26T08:54:34Z</time>
      </trkpt>
      <trkpt lat="45.74696" lon="3.77675">
        <ele>1255.300049</ele>
        <time>2017-05-26T08:54:40Z</time>
      </trkpt>
      <trkpt lat="45.74705" lon="3.77682">
        <ele>1256.599976</ele>
        <time>2017-05-26T08:54:46Z</time>
      </trkpt>
      <trkpt lat="45.74714" lon="3.77685">
        <ele>1257.5</ele>
        <time>2017-05-26T08:54:51Z</time>
      </trkpt>
      <trkpt lat="45.74726" lon="3.77683">
        <ele>1258.099976</ele>
        <time>2017-05-26T08:54:55Z</time>
      </trkpt>
      <trkpt lat="45.74739" lon="3.7768">
        <ele>1258</ele>
        <time>2017-05-26T08:54:58Z</time>
      </trkpt>
      <trkpt lat="45.74748" lon="3.77679">
        <ele>1258</ele>
        <time>2017-05-26T08:55:00Z</time>
      </trkpt>
      <trkpt lat="45.74759" lon="3.77679">
        <ele>1257.800049</ele>
        <time>2017-05-26T08:55:02Z</time>
      </trkpt>
      <trkpt lat="45.74769" lon="3.77681">
        <ele>1257.5</ele>
        <time>2017-05-26T08:55:04Z</time>
      </trkpt>
      <trkpt lat="45.74779" lon="3.77684">
        <ele>1257.199951</ele>
        <time>2017-05-26T08:55:06Z</time>
      </trkpt>
      <trkpt lat="45.74789" lon="3.77688">
        <ele>1257</ele>
        <time>2017-05-26T08:55:08Z</time>
      </trkpt>
      <trkpt lat="45.74798" lon="3.77694">
        <ele>1256.599976</ele>
        <time>2017-05-26T08:55:10Z</time>
      </trkpt>
      <trkpt lat="45.74806" lon="3.77702">
        <ele>1256.599976</ele>
        <time>2017-05-26T08:55:12Z</time>
      </trkpt>
      <trkpt lat="45.74816" lon="3.77713">
        <ele>1256.400024</ele>
        <time>2017-05-26T08:55:15Z</time>
      </trkpt>
      <trkpt lat="45.74826" lon="3.77724">
        <ele>1256.400024</ele>
        <time>2017-05-26T08:55:18Z</time>
      </trkpt>
      <trkpt lat="45.74835" lon="3.77736">
        <ele>1256.199951</ele>
        <time>2017-05-26T08:55:21Z</time>
      </trkpt>
      <trkpt lat="45.74843" lon="3.77747">
        <ele>1256.300049</ele>
        <time>2017-05-26T08:55:24Z</time>
      </trkpt>
      <trkpt lat="45.74853" lon="3.77756">
        <ele>1256.5</ele>
        <time>2017-05-26T08:55:27Z</time>
      </trkpt>
      <trkpt lat="45.74863" lon="3.77766">
        <ele>1256.599976</ele>
        <time>2017-05-26T08:55:30Z</time>
      </trkpt>
      <trkpt lat="45.74873" lon="3.77772">
        <ele>1256.699951</ele>
        <time>2017-05-26T08:55:33Z</time>
      </trkpt>
      <trkpt lat="45.74884" lon="3.77778">
        <ele>1256.199951</ele>
        <time>2017-05-26T08:55:36Z</time>
      </trkpt>
      <trkpt lat="45.74893" lon="3.77782">
        <ele>1254.699951</ele>
        <time>2017-05-26T08:55:39Z</time>
      </trkpt>
      <trkpt lat="45.74903" lon="3.77786">
        <ele>1253.400024</ele>
        <time>2017-05-26T08:55:43Z</time>
      </trkpt>
      <trkpt lat="45.74913" lon="3.77789">
        <ele>1252.699951</ele>
        <time>2017-05-26T08:55:46Z</time>
      </trkpt>
      <trkpt lat="45.74923" lon="3.77791">
        <ele>1252.099976</ele>
        <time>2017-05-26T08:55:49Z</time>
      </trkpt>
      <trkpt lat="45.74934" lon="3.77788">
        <ele>1250.099976</ele>
        <time>2017-05-26T08:55:54Z</time>
      </trkpt>
      <trkpt lat="45.74943" lon="3.77784">
        <ele>1249</ele>
        <time>2017-05-26T08:55:57Z</time>
      </trkpt>
      <trkpt lat="45.74954" lon="3.77779">
        <ele>1248.099976</ele>
        <time>2017-05-26T08:56:01Z</time>
      </trkpt>
      <trkpt lat="45.74954" lon="3.77764">
        <ele>1246.800049</ele>
        <time>2017-05-26T08:56:05Z</time>
      </trkpt>
      <trkpt lat="45.74949" lon="3.7775">
        <ele>1246.199951</ele>
        <time>2017-05-26T08:56:08Z</time>
      </trkpt>
      <trkpt lat="45.74943" lon="3.77734">
        <ele>1245.800049</ele>
        <time>2017-05-26T08:56:11Z</time>
      </trkpt>
      <trkpt lat="45.74939" lon="3.77721">
        <ele>1245.400024</ele>
        <time>2017-05-26T08:56:13Z</time>
      </trkpt>
      <trkpt lat="45.74935" lon="3.77707">
        <ele>1245.099976</ele>
        <time>2017-05-26T08:56:15Z</time>
      </trkpt>
      <trkpt lat="45.7493" lon="3.77691">
        <ele>1244.599976</ele>
        <time>2017-05-26T08:56:17Z</time>
      </trkpt>
      <trkpt lat="45.74925" lon="3.77673">
        <ele>1244</ele>
        <time>2017-05-26T08:56:19Z</time>
      </trkpt>
      <trkpt lat="45.7492" lon="3.77656">
        <ele>1243.400024</ele>
        <time>2017-05-26T08:56:21Z</time>
      </trkpt>
      <trkpt lat="45.74913" lon="3.77641">
        <ele>1242.800049</ele>
        <time>2017-05-26T08:56:23Z</time>
      </trkpt>
      <trkpt lat="45.74905" lon="3.77627">
        <ele>1242.099976</ele>
        <time>2017-05-26T08:56:25Z</time>
      </trkpt>
      <trkpt lat="45.749" lon="3.77613">
        <ele>1241.800049</ele>
        <time>2017-05-26T08:56:27Z</time>
      </trkpt>
      <trkpt lat="45.74898" lon="3.77598">
        <ele>1241.5</ele>
        <time>2017-05-26T08:56:29Z</time>
      </trkpt>
      <trkpt lat="45.74897" lon="3.7758">
        <ele>1240.699951</ele>
        <time>2017-05-26T08:56:31Z</time>
      </trkpt>
      <trkpt lat="45.74896" lon="3.7756">
        <ele>1240.099976</ele>
        <time>2017-05-26T08:56:33Z</time>
      </trkpt>
      <trkpt lat="45.74898" lon="3.77541">
        <ele>1239.5</ele>
        <time>2017-05-26T08:56:35Z</time>
      </trkpt>
      <trkpt lat="45.74905" lon="3.77522">
        <ele>1237.900024</ele>
        <time>2017-05-26T08:56:37Z</time>
      </trkpt>
      <trkpt lat="45.74912" lon="3.77501">
        <ele>1236.599976</ele>
        <time>2017-05-26T08:56:39Z</time>
      </trkpt>
      <trkpt lat="45.74913" lon="3.77478">
        <ele>1235.300049</ele>
        <time>2017-05-26T08:56:41Z</time>
      </trkpt>
      <trkpt lat="45.74909" lon="3.77455">
        <ele>1233.699951</ele>
        <time>2017-05-26T08:56:43Z</time>
      </trkpt>
      <trkpt lat="45.74908" lon="3.77434">
        <ele>1232.5</ele>
        <time>2017-05-26T08:56:45Z</time>
      </trkpt>
      <trkpt lat="45.74906" lon="3.77411">
        <ele>1231.099976</ele>
        <time>2017-05-26T08:56:47Z</time>
      </trkpt>
      <trkpt lat="45.74904" lon="3.77387">
        <ele>1229.900024</ele>
        <time>2017-05-26T08:56:49Z</time>
      </trkpt>
      <trkpt lat="45.749" lon="3.77365">
        <ele>1228.900024</ele>
        <time>2017-05-26T08:56:51Z</time>
      </trkpt>
      <trkpt lat="45.7489" lon="3.77344">
        <ele>1227.900024</ele>
        <time>2017-05-26T08:56:53Z</time>
      </trkpt>
      <trkpt lat="45.74884" lon="3.77335">
        <ele>1227.599976</ele>
        <time>2017-05-26T08:56:54Z</time>
      </trkpt>
      <trkpt lat="45.74871" lon="3.77323">
        <ele>1227</ele>
        <time>2017-05-26T08:56:56Z</time>
      </trkpt>
      <trkpt lat="45.74859" lon="3.77315">
        <ele>1226.300049</ele>
        <time>2017-05-26T08:56:58Z</time>
      </trkpt>
      <trkpt lat="45.74846" lon="3.77306">
        <ele>1225.699951</ele>
        <time>2017-05-26T08:57:00Z</time>
      </trkpt>
      <trkpt lat="45.74831" lon="3.77295">
        <ele>1225.099976</ele>
        <time>2017-05-26T08:57:02Z</time>
      </trkpt>
      <trkpt lat="45.74825" lon="3.77286">
        <ele>1224.900024</ele>
        <time>2017-05-26T08:57:03Z</time>
      </trkpt>
      <trkpt lat="45.74814" lon="3.77266">
        <ele>1224.099976</ele>
        <time>2017-05-26T08:57:05Z</time>
      </trkpt>
      <trkpt lat="45.74808" lon="3.77253">
        <ele>1223.599976</ele>
        <time>2017-05-26T08:57:06Z</time>
      </trkpt>
      <trkpt lat="45.74803" lon="3.77242">
        <ele>1223</ele>
        <time>2017-05-26T08:57:07Z</time>
      </trkpt>
      <trkpt lat="45.74797" lon="3.77232">
        <ele>1222.300049</ele>
        <time>2017-05-26T08:57:08Z</time>
      </trkpt>
      <trkpt lat="45.74791" lon="3.77222">
        <ele>1221.599976</ele>
        <time>2017-05-26T08:57:09Z</time>
      </trkpt>
      <trkpt lat="45.74785" lon="3.77212">
        <ele>1221</ele>
        <time>2017-05-26T08:57:10Z</time>
      </trkpt>
      <trkpt lat="45.74778" lon="3.77202">
        <ele>1220.300049</ele>
        <time>2017-05-26T08:57:11Z</time>
      </trkpt>
      <trkpt lat="45.74771" lon="3.77192">
        <ele>1218.800049</ele>
        <time>2017-05-26T08:57:12Z</time>
      </trkpt>
      <trkpt lat="45.74763" lon="3.77183">
        <ele>1218</ele>
        <time>2017-05-26T08:57:13Z</time>
      </trkpt>
      <trkpt lat="45.74756" lon="3.77173">
        <ele>1217.300049</ele>
        <time>2017-05-26T08:57:14Z</time>
      </trkpt>
      <trkpt lat="45.74748" lon="3.77164">
        <ele>1216.5</ele>
        <time>2017-05-26T08:57:15Z</time>
      </trkpt>
      <trkpt lat="45.74741" lon="3.77155">
        <ele>1215.099976</ele>
        <time>2017-05-26T08:57:16Z</time>
      </trkpt>
      <trkpt lat="45.74734" lon="3.77144">
        <ele>1213.800049</ele>
        <time>2017-05-26T08:57:17Z</time>
      </trkpt>
      <trkpt lat="45.74727" lon="3.77132">
        <ele>1212.599976</ele>
        <time>2017-05-26T08:57:18Z</time>
      </trkpt>
      <trkpt lat="45.7472" lon="3.77121">
        <ele>1211.699951</ele>
        <time>2017-05-26T08:57:19Z</time>
      </trkpt>
      <trkpt lat="45.74714" lon="3.7711">
        <ele>1210.699951</ele>
        <time>2017-05-26T08:57:20Z</time>
      </trkpt>
      <trkpt lat="45.74709" lon="3.77099">
        <ele>1209.5</ele>
        <time>2017-05-26T08:57:21Z</time>
      </trkpt>
      <trkpt lat="45.74704" lon="3.77089">
        <ele>1208.300049</ele>
        <time>2017-05-26T08:57:22Z</time>
      </trkpt>
      <trkpt lat="45.74697" lon="3.77067">
        <ele>1206.900024</ele>
        <time>2017-05-26T08:57:24Z</time>
      </trkpt>
      <trkpt lat="45.74689" lon="3.77047">
        <ele>1204.800049</ele>
        <time>2017-05-26T08:57:26Z</time>
      </trkpt>
      <trkpt lat="45.74684" lon="3.77036">
        <ele>1204</ele>
        <time>2017-05-26T08:57:27Z</time>
      </trkpt>
      <trkpt lat="45.74677" lon="3.77027">
        <ele>1203.099976</ele>
        <time>2017-05-26T08:57:28Z</time>
      </trkpt>
      <trkpt lat="45.74665" lon="3.77009">
        <ele>1201.400024</ele>
        <time>2017-05-26T08:57:30Z</time>
      </trkpt>
      <trkpt lat="45.74652" lon="3.76991">
        <ele>1200.300049</ele>
        <time>2017-05-26T08:57:32Z</time>
      </trkpt>
      <trkpt lat="45.7464" lon="3.76974">
        <ele>1199.199951</ele>
        <time>2017-05-26T08:57:34Z</time>
      </trkpt>
      <trkpt lat="45.74629" lon="3.76961">
        <ele>1198.300049</ele>
        <time>2017-05-26T08:57:36Z</time>
      </trkpt>
      <trkpt lat="45.74621" lon="3.76949">
        <ele>1197.699951</ele>
        <time>2017-05-26T08:57:38Z</time>
      </trkpt>
      <trkpt lat="45.74613" lon="3.76937">
        <ele>1197.099976</ele>
        <time>2017-05-26T08:57:40Z</time>
      </trkpt>
      <trkpt lat="45.74603" lon="3.76925">
        <ele>1196.599976</ele>
        <time>2017-05-26T08:57:42Z</time>
      </trkpt>
      <trkpt lat="45.74596" lon="3.76912">
        <ele>1196.199951</ele>
        <time>2017-05-26T08:57:44Z</time>
      </trkpt>
      <trkpt lat="45.74589" lon="3.76897">
        <ele>1195.900024</ele>
        <time>2017-05-26T08:57:46Z</time>
      </trkpt>
      <trkpt lat="45.74582" lon="3.76888">
        <ele>1195.5</ele>
        <time>2017-05-26T08:57:48Z</time>
      </trkpt>
      <trkpt lat="45.74572" lon="3.76876">
        <ele>1195.099976</ele>
        <time>2017-05-26T08:57:50Z</time>
      </trkpt>
      <trkpt lat="45.74563" lon="3.76862">
        <ele>1194.400024</ele>
        <time>2017-05-26T08:57:52Z</time>
      </trkpt>
      <trkpt lat="45.74555" lon="3.76848">
        <ele>1193.800049</ele>
        <time>2017-05-26T08:57:54Z</time>
      </trkpt>
      <trkpt lat="45.74547" lon="3.76829">
        <ele>1193</ele>
        <time>2017-05-26T08:57:56Z</time>
      </trkpt>
      <trkpt lat="45.74538" lon="3.76812">
        <ele>1191.800049</ele>
        <time>2017-05-26T08:57:58Z</time>
      </trkpt>
      <trkpt lat="45.74526" lon="3.76796">
        <ele>1191</ele>
        <time>2017-05-26T08:58:00Z</time>
      </trkpt>
      <trkpt lat="45.74515" lon="3.76789">
        <ele>1190.199951</ele>
        <time>2017-05-26T08:58:02Z</time>
      </trkpt>
      <trkpt lat="45.74504" lon="3.76777">
        <ele>1189.400024</ele>
        <time>2017-05-26T08:58:04Z</time>
      </trkpt>
      <trkpt lat="45.74497" lon="3.76768">
        <ele>1188.900024</ele>
        <time>2017-05-26T08:58:05Z</time>
      </trkpt>
      <trkpt lat="45.74487" lon="3.76749">
        <ele>1188.099976</ele>
        <time>2017-05-26T08:58:07Z</time>
      </trkpt>
      <trkpt lat="45.7448" lon="3.76728">
        <ele>1187.099976</ele>
        <time>2017-05-26T08:58:09Z</time>
      </trkpt>
      <trkpt lat="45.74479" lon="3.76715">
        <ele>1186.699951</ele>
        <time>2017-05-26T08:58:10Z</time>
      </trkpt>
      <trkpt lat="45.74473" lon="3.76697">
        <ele>1185.599976</ele>
        <time>2017-05-26T08:58:12Z</time>
      </trkpt>
      <trkpt lat="45.74467" lon="3.76681">
        <ele>1184</ele>
        <time>2017-05-26T08:58:14Z</time>
      </trkpt>
      <trkpt lat="45.74464" lon="3.76667">
        <ele>1182.599976</ele>
        <time>2017-05-26T08:58:16Z</time>
      </trkpt>
      <trkpt lat="45.7446" lon="3.76654">
        <ele>1181.099976</ele>
        <time>2017-05-26T08:58:18Z</time>
      </trkpt>
      <trkpt lat="45.74458" lon="3.76637">
        <ele>1179.400024</ele>
        <time>2017-05-26T08:58:20Z</time>
      </trkpt>
      <trkpt lat="45.74458" lon="3.76624">
        <ele>1178.599976</ele>
        <time>2017-05-26T08:58:21Z</time>
      </trkpt>
      <trkpt lat="45.74461" lon="3.76603">
        <ele>1176.699951</ele>
        <time>2017-05-26T08:58:23Z</time>
      </trkpt>
      <trkpt lat="45.74468" lon="3.76589">
        <ele>1175.099976</ele>
        <time>2017-05-26T08:58:25Z</time>
      </trkpt>
      <trkpt lat="45.74474" lon="3.76574">
        <ele>1173.199951</ele>
        <time>2017-05-26T08:58:27Z</time>
      </trkpt>
      <trkpt lat="45.7448" lon="3.7656">
        <ele>1171.199951</ele>
        <time>2017-05-26T08:58:29Z</time>
      </trkpt>
      <trkpt lat="45.74485" lon="3.76549">
        <ele>1168.699951</ele>
        <time>2017-05-26T08:58:31Z</time>
      </trkpt>
      <trkpt lat="45.74493" lon="3.76542">
        <ele>1166.5</ele>
        <time>2017-05-26T08:58:33Z</time>
      </trkpt>
      <trkpt lat="45.74502" lon="3.76536">
        <ele>1164.599976</ele>
        <time>2017-05-26T08:58:35Z</time>
      </trkpt>
      <trkpt lat="45.74515" lon="3.76528">
        <ele>1162.900024</ele>
        <time>2017-05-26T08:58:37Z</time>
      </trkpt>
      <trkpt lat="45.74528" lon="3.76523">
        <ele>1161.300049</ele>
        <time>2017-05-26T08:58:39Z</time>
      </trkpt>
      <trkpt lat="45.74544" lon="3.76518">
        <ele>1160</ele>
        <time>2017-05-26T08:58:41Z</time>
      </trkpt>
      <trkpt lat="45.74555" lon="3.76514">
        <ele>1158.400024</ele>
        <time>2017-05-26T08:58:43Z</time>
      </trkpt>
      <trkpt lat="45.74566" lon="3.76516">
        <ele>1156.699951</ele>
        <time>2017-05-26T08:58:45Z</time>
      </trkpt>
      <trkpt lat="45.74574" lon="3.76525">
        <ele>1155.400024</ele>
        <time>2017-05-26T08:58:47Z</time>
      </trkpt>
      <trkpt lat="45.74578" lon="3.76537">
        <ele>1154</ele>
        <time>2017-05-26T08:58:50Z</time>
      </trkpt>
      <trkpt lat="45.74583" lon="3.76549">
        <ele>1153.400024</ele>
        <time>2017-05-26T08:58:56Z</time>
      </trkpt>
      <trkpt lat="45.74593" lon="3.76555">
        <ele>1153.599976</ele>
        <time>2017-05-26T08:59:23Z</time>
      </trkpt>
      <trkpt lat="45.74604" lon="3.76559">
        <ele>1153.599976</ele>
        <time>2017-05-26T08:59:27Z</time>
      </trkpt>
      <trkpt lat="45.74615" lon="3.76562">
        <ele>1153.400024</ele>
        <time>2017-05-26T08:59:31Z</time>
      </trkpt>
      <trkpt lat="45.74625" lon="3.76568">
        <ele>1153.099976</ele>
        <time>2017-05-26T08:59:35Z</time>
      </trkpt>
      <trkpt lat="45.74635" lon="3.76575">
        <ele>1153.199951</ele>
        <time>2017-05-26T08:59:39Z</time>
      </trkpt>
      <trkpt lat="45.74645" lon="3.76582">
        <ele>1153.199951</ele>
        <time>2017-05-26T08:59:43Z</time>
      </trkpt>
      <trkpt lat="45.74655" lon="3.76589">
        <ele>1153.300049</ele>
        <time>2017-05-26T08:59:46Z</time>
      </trkpt>
      <trkpt lat="45.74664" lon="3.76593">
        <ele>1153.400024</ele>
        <time>2017-05-26T08:59:49Z</time>
      </trkpt>
      <trkpt lat="45.74674" lon="3.76599">
        <ele>1153.400024</ele>
        <time>2017-05-26T08:59:52Z</time>
      </trkpt>
      <trkpt lat="45.74683" lon="3.76607">
        <ele>1153.5</ele>
        <time>2017-05-26T08:59:55Z</time>
      </trkpt>
      <trkpt lat="45.74693" lon="3.76616">
        <ele>1153.400024</ele>
        <time>2017-05-26T08:59:58Z</time>
      </trkpt>
      <trkpt lat="45.74701" lon="3.76623">
        <ele>1153.800049</ele>
        <time>2017-05-26T09:00:01Z</time>
      </trkpt>
      <trkpt lat="45.74711" lon="3.76627">
        <ele>1154.199951</ele>
        <time>2017-05-26T09:00:06Z</time>
      </trkpt>
      <trkpt lat="45.74721" lon="3.76629">
        <ele>1154.5</ele>
        <time>2017-05-26T09:00:09Z</time>
      </trkpt>
      <trkpt lat="45.74731" lon="3.76632">
        <ele>1154.900024</ele>
        <time>2017-05-26T09:00:12Z</time>
      </trkpt>
      <trkpt lat="45.7474" lon="3.7664">
        <ele>1155.699951</ele>
        <time>2017-05-26T09:00:16Z</time>
      </trkpt>
      <trkpt lat="45.74751" lon="3.76643">
        <ele>1156.900024</ele>
        <time>2017-05-26T09:00:21Z</time>
      </trkpt>
      <trkpt lat="45.7476" lon="3.76648">
        <ele>1157.599976</ele>
        <time>2017-05-26T09:00:26Z</time>
      </trkpt>
      <trkpt lat="45.74769" lon="3.76654">
        <ele>1158.300049</ele>
        <time>2017-05-26T09:00:31Z</time>
      </trkpt>
      <trkpt lat="45.74779" lon="3.76658">
        <ele>1159.300049</ele>
        <time>2017-05-26T09:00:37Z</time>
      </trkpt>
      <trkpt lat="45.74789" lon="3.7666">
        <ele>1159.900024</ele>
        <time>2017-05-26T09:00:41Z</time>
      </trkpt>
      <trkpt lat="45.74798" lon="3.76663">
        <ele>1160.5</ele>
        <time>2017-05-26T09:00:45Z</time>
      </trkpt>
      <trkpt lat="45.74807" lon="3.7667">
        <ele>1161.300049</ele>
        <time>2017-05-26T09:00:51Z</time>
      </trkpt>
      <trkpt lat="45.74816" lon="3.76673">
        <ele>1162</ele>
        <time>2017-05-26T09:00:56Z</time>
      </trkpt>
      <trkpt lat="45.74826" lon="3.76674">
        <ele>1162.5</ele>
        <time>2017-05-26T09:01:00Z</time>
      </trkpt>
      <trkpt lat="45.74837" lon="3.76674">
        <ele>1163.300049</ele>
        <time>2017-05-26T09:01:05Z</time>
      </trkpt>
      <trkpt lat="45.74846" lon="3.76674">
        <ele>1163.900024</ele>
        <time>2017-05-26T09:01:10Z</time>
      </trkpt>
      <trkpt lat="45.74857" lon="3.76675">
        <ele>1164.599976</ele>
        <time>2017-05-26T09:01:16Z</time>
      </trkpt>
      <trkpt lat="45.74866" lon="3.76676">
        <ele>1165</ele>
        <time>2017-05-26T09:01:21Z</time>
      </trkpt>
      <trkpt lat="45.74875" lon="3.76679">
        <ele>1165.599976</ele>
        <time>2017-05-26T09:01:26Z</time>
      </trkpt>
      <trkpt lat="45.74885" lon="3.76683">
        <ele>1166.599976</ele>
        <time>2017-05-26T09:01:32Z</time>
      </trkpt>
      <trkpt lat="45.74895" lon="3.76683">
        <ele>1167.300049</ele>
        <time>2017-05-26T09:01:38Z</time>
      </trkpt>
      <trkpt lat="45.74906" lon="3.76687">
        <ele>1168.099976</ele>
        <time>2017-05-26T09:01:45Z</time>
      </trkpt>
      <trkpt lat="45.74915" lon="3.76688">
        <ele>1168.900024</ele>
        <time>2017-05-26T09:01:51Z</time>
      </trkpt>
      <trkpt lat="45.74925" lon="3.7669">
        <ele>1170.300049</ele>
        <time>2017-05-26T09:01:57Z</time>
      </trkpt>
      <trkpt lat="45.74934" lon="3.76693">
        <ele>1171.099976</ele>
        <time>2017-05-26T09:02:03Z</time>
      </trkpt>
      <trkpt lat="45.74943" lon="3.76699">
        <ele>1172.199951</ele>
        <time>2017-05-26T09:02:09Z</time>
      </trkpt>
      <trkpt lat="45.74951" lon="3.76706">
        <ele>1173.800049</ele>
        <time>2017-05-26T09:02:19Z</time>
      </trkpt>
      <trkpt lat="45.7496" lon="3.76712">
        <ele>1174.900024</ele>
        <time>2017-05-26T09:02:26Z</time>
      </trkpt>
      <trkpt lat="45.74968" lon="3.7672">
        <ele>1175.900024</ele>
        <time>2017-05-26T09:02:31Z</time>
      </trkpt>
      <trkpt lat="45.74974" lon="3.76731">
        <ele>1177.300049</ele>
        <time>2017-05-26T09:02:39Z</time>
      </trkpt>
      <trkpt lat="45.74981" lon="3.7674">
        <ele>1179</ele>
        <time>2017-05-26T09:02:47Z</time>
      </trkpt>
      <trkpt lat="45.74988" lon="3.76748">
        <ele>1180.199951</ele>
        <time>2017-05-26T09:02:54Z</time>
      </trkpt>
      <trkpt lat="45.74997" lon="3.76755">
        <ele>1180.900024</ele>
        <time>2017-05-26T09:03:01Z</time>
      </trkpt>
      <trkpt lat="45.75003" lon="3.76766">
        <ele>1181.599976</ele>
        <time>2017-05-26T09:03:06Z</time>
      </trkpt>
      <trkpt lat="45.7501" lon="3.76776">
        <ele>1182.400024</ele>
        <time>2017-05-26T09:03:12Z</time>
      </trkpt>
      <trkpt lat="45.75017" lon="3.76786">
        <ele>1183</ele>
        <time>2017-05-26T09:03:18Z</time>
      </trkpt>
      <trkpt lat="45.75023" lon="3.76797">
        <ele>1183.599976</ele>
        <time>2017-05-26T09:03:24Z</time>
      </trkpt>
      <trkpt lat="45.7503" lon="3.76807">
        <ele>1184.300049</ele>
        <time>2017-05-26T09:03:30Z</time>
      </trkpt>
      <trkpt lat="45.75036" lon="3.76817">
        <ele>1184.5</ele>
        <time>2017-05-26T09:03:35Z</time>
      </trkpt>
      <trkpt lat="45.75039" lon="3.76829">
        <ele>1185</ele>
        <time>2017-05-26T09:03:41Z</time>
      </trkpt>
      <trkpt lat="45.75043" lon="3.76841">
        <ele>1185.400024</ele>
        <time>2017-05-26T09:03:47Z</time>
      </trkpt>
      <trkpt lat="45.75046" lon="3.76853">
        <ele>1186.5</ele>
        <time>2017-05-26T09:03:54Z</time>
      </trkpt>
      <trkpt lat="45.75051" lon="3.76866">
        <ele>1187.400024</ele>
        <time>2017-05-26T09:04:00Z</time>
      </trkpt>
      <trkpt lat="45.75055" lon="3.76879">
        <ele>1188.199951</ele>
        <time>2017-05-26T09:04:06Z</time>
      </trkpt>
      <trkpt lat="45.75062" lon="3.76889">
        <ele>1189</ele>
        <time>2017-05-26T09:04:12Z</time>
      </trkpt>
      <trkpt lat="45.75068" lon="3.769">
        <ele>1189.400024</ele>
        <time>2017-05-26T09:04:18Z</time>
      </trkpt>
      <trkpt lat="45.75075" lon="3.76912">
        <ele>1189.699951</ele>
        <time>2017-05-26T09:04:24Z</time>
      </trkpt>
      <trkpt lat="45.7508" lon="3.76924">
        <ele>1189.699951</ele>
        <time>2017-05-26T09:04:28Z</time>
      </trkpt>
      <trkpt lat="45.75085" lon="3.76935">
        <ele>1189.699951</ele>
        <time>2017-05-26T09:04:32Z</time>
      </trkpt>
      <trkpt lat="45.7509" lon="3.76949">
        <ele>1189.699951</ele>
        <time>2017-05-26T09:04:37Z</time>
      </trkpt>
      <trkpt lat="45.75096" lon="3.7696">
        <ele>1189.699951</ele>
        <time>2017-05-26T09:04:41Z</time>
      </trkpt>
      <trkpt lat="45.75102" lon="3.76972">
        <ele>1189.400024</ele>
        <time>2017-05-26T09:04:45Z</time>
      </trkpt>
      <trkpt lat="45.75107" lon="3.76985">
        <ele>1189.400024</ele>
        <time>2017-05-26T09:04:49Z</time>
      </trkpt>
      <trkpt lat="45.75111" lon="3.76997">
        <ele>1189.199951</ele>
        <time>2017-05-26T09:04:52Z</time>
      </trkpt>
      <trkpt lat="45.75115" lon="3.77013">
        <ele>1188.900024</ele>
        <time>2017-05-26T09:04:55Z</time>
      </trkpt>
      <trkpt lat="45.75119" lon="3.77031">
        <ele>1188.300049</ele>
        <time>2017-05-26T09:04:58Z</time>
      </trkpt>
      <trkpt lat="45.75125" lon="3.77046">
        <ele>1187.800049</ele>
        <time>2017-05-26T09:05:00Z</time>
      </trkpt>
      <trkpt lat="45.75132" lon="3.77061">
        <ele>1187.300049</ele>
        <time>2017-05-26T09:05:02Z</time>
      </trkpt>
      <trkpt lat="45.75142" lon="3.77078">
        <ele>1186.599976</ele>
        <time>2017-05-26T09:05:04Z</time>
      </trkpt>
      <trkpt lat="45.7515" lon="3.77092">
        <ele>1186</ele>
        <time>2017-05-26T09:05:06Z</time>
      </trkpt>
      <trkpt lat="45.7516" lon="3.77109">
        <ele>1185.400024</ele>
        <time>2017-05-26T09:05:08Z</time>
      </trkpt>
      <trkpt lat="45.75172" lon="3.7712">
        <ele>1184.800049</ele>
        <time>2017-05-26T09:05:10Z</time>
      </trkpt>
      <trkpt lat="45.75186" lon="3.77123">
        <ele>1184</ele>
        <time>2017-05-26T09:05:12Z</time>
      </trkpt>
      <trkpt lat="45.75198" lon="3.77122">
        <ele>1183.599976</ele>
        <time>2017-05-26T09:05:14Z</time>
      </trkpt>
      <trkpt lat="45.75209" lon="3.77119">
        <ele>1183.300049</ele>
        <time>2017-05-26T09:05:16Z</time>
      </trkpt>
      <trkpt lat="45.7522" lon="3.77117">
        <ele>1182.900024</ele>
        <time>2017-05-26T09:05:18Z</time>
      </trkpt>
      <trkpt lat="45.75232" lon="3.77115">
        <ele>1182.400024</ele>
        <time>2017-05-26T09:05:20Z</time>
      </trkpt>
      <trkpt lat="45.75243" lon="3.77112">
        <ele>1182.099976</ele>
        <time>2017-05-26T09:05:22Z</time>
      </trkpt>
      <trkpt lat="45.75254" lon="3.77111">
        <ele>1181.800049</ele>
        <time>2017-05-26T09:05:24Z</time>
      </trkpt>
      <trkpt lat="45.75267" lon="3.77107">
        <ele>1181.400024</ele>
        <time>2017-05-26T09:05:26Z</time>
      </trkpt>
      <trkpt lat="45.75278" lon="3.77104">
        <ele>1180.699951</ele>
        <time>2017-05-26T09:05:28Z</time>
      </trkpt>
      <trkpt lat="45.75288" lon="3.771">
        <ele>1180.099976</ele>
        <time>2017-05-26T09:05:30Z</time>
      </trkpt>
      <trkpt lat="45.75299" lon="3.77097">
        <ele>1179.699951</ele>
        <time>2017-05-26T09:05:32Z</time>
      </trkpt>
      <trkpt lat="45.75312" lon="3.77091">
        <ele>1179.199951</ele>
        <time>2017-05-26T09:05:35Z</time>
      </trkpt>
      <trkpt lat="45.75325" lon="3.77082">
        <ele>1179</ele>
        <time>2017-05-26T09:05:38Z</time>
      </trkpt>
      <trkpt lat="45.75334" lon="3.77075">
        <ele>1178.900024</ele>
        <time>2017-05-26T09:05:40Z</time>
      </trkpt>
      <trkpt lat="45.75344" lon="3.7707">
        <ele>1178.800049</ele>
        <time>2017-05-26T09:05:42Z</time>
      </trkpt>
      <trkpt lat="45.75355" lon="3.77064">
        <ele>1178.699951</ele>
        <time>2017-05-26T09:05:44Z</time>
      </trkpt>
      <trkpt lat="45.75367" lon="3.77054">
        <ele>1178.599976</ele>
        <time>2017-05-26T09:05:46Z</time>
      </trkpt>
      <trkpt lat="45.75376" lon="3.77047">
        <ele>1178.5</ele>
        <time>2017-05-26T09:05:48Z</time>
      </trkpt>
      <trkpt lat="45.75387" lon="3.77039">
        <ele>1178.400024</ele>
        <time>2017-05-26T09:05:51Z</time>
      </trkpt>
      <trkpt lat="45.75396" lon="3.77033">
        <ele>1178.400024</ele>
        <time>2017-05-26T09:05:54Z</time>
      </trkpt>
      <trkpt lat="45.75408" lon="3.77023">
        <ele>1178.300049</ele>
        <time>2017-05-26T09:05:57Z</time>
      </trkpt>
      <trkpt lat="45.75417" lon="3.77012">
        <ele>1178.199951</ele>
        <time>2017-05-26T09:06:00Z</time>
      </trkpt>
      <trkpt lat="45.75424" lon="3.77">
        <ele>1178.300049</ele>
        <time>2017-05-26T09:06:03Z</time>
      </trkpt>
      <trkpt lat="45.75431" lon="3.7699">
        <ele>1178.5</ele>
        <time>2017-05-26T09:06:06Z</time>
      </trkpt>
      <trkpt lat="45.75438" lon="3.76978">
        <ele>1178.599976</ele>
        <time>2017-05-26T09:06:09Z</time>
      </trkpt>
      <trkpt lat="45.75447" lon="3.7697">
        <ele>1178.900024</ele>
        <time>2017-05-26T09:06:13Z</time>
      </trkpt>
      <trkpt lat="45.75455" lon="3.76963">
        <ele>1179.300049</ele>
        <time>2017-05-26T09:06:17Z</time>
      </trkpt>
      <trkpt lat="45.75463" lon="3.76952">
        <ele>1179.900024</ele>
        <time>2017-05-26T09:06:22Z</time>
      </trkpt>
      <trkpt lat="45.75471" lon="3.76939">
        <ele>1180.599976</ele>
        <time>2017-05-26T09:06:27Z</time>
      </trkpt>
      <trkpt lat="45.75475" lon="3.76926">
        <ele>1180.900024</ele>
        <time>2017-05-26T09:06:30Z</time>
      </trkpt>
      <trkpt lat="45.75477" lon="3.76912">
        <ele>1181.300049</ele>
        <time>2017-05-26T09:06:34Z</time>
      </trkpt>
      <trkpt lat="45.75477" lon="3.76898">
        <ele>1181.5</ele>
        <time>2017-05-26T09:06:38Z</time>
      </trkpt>
      <trkpt lat="45.75479" lon="3.76882">
        <ele>1182</ele>
        <time>2017-05-26T09:06:43Z</time>
      </trkpt>
      <trkpt lat="45.7548" lon="3.76869">
        <ele>1182.5</ele>
        <time>2017-05-26T09:06:47Z</time>
      </trkpt>
      <trkpt lat="45.75482" lon="3.76852">
        <ele>1183.199951</ele>
        <time>2017-05-26T09:06:52Z</time>
      </trkpt>
      <trkpt lat="45.75483" lon="3.76837">
        <ele>1183.800049</ele>
        <time>2017-05-26T09:06:56Z</time>
      </trkpt>
      <trkpt lat="45.75487" lon="3.76822">
        <ele>1184.099976</ele>
        <time>2017-05-26T09:07:00Z</time>
      </trkpt>
      <trkpt lat="45.7549" lon="3.76808">
        <ele>1184</ele>
        <time>2017-05-26T09:07:04Z</time>
      </trkpt>
      <trkpt lat="45.75493" lon="3.76795">
        <ele>1184.199951</ele>
        <time>2017-05-26T09:07:08Z</time>
      </trkpt>
      <trkpt lat="45.75496" lon="3.76779">
        <ele>1184.400024</ele>
        <time>2017-05-26T09:07:12Z</time>
      </trkpt>
      <trkpt lat="45.75503" lon="3.76771">
        <ele>1184.900024</ele>
        <time>2017-05-26T09:07:17Z</time>
      </trkpt>
      <trkpt lat="45.75498" lon="3.76757">
        <ele>1185.699951</ele>
        <time>2017-05-26T09:09:12Z</time>
      </trkpt>
      <trkpt lat="45.75491" lon="3.76742">
        <ele>1185.400024</ele>
        <time>2017-05-26T09:09:15Z</time>
      </trkpt>
      <trkpt lat="45.75485" lon="3.76729">
        <ele>1184.900024</ele>
        <time>2017-05-26T09:09:17Z</time>
      </trkpt>
      <trkpt lat="45.75479" lon="3.76713">
        <ele>1184.199951</ele>
        <time>2017-05-26T09:09:19Z</time>
      </trkpt>
      <trkpt lat="45.75479" lon="3.76694">
        <ele>1182.900024</ele>
        <time>2017-05-26T09:09:21Z</time>
      </trkpt>
      <trkpt lat="45.75487" lon="3.76674">
        <ele>1181.400024</ele>
        <time>2017-05-26T09:09:23Z</time>
      </trkpt>
      <trkpt lat="45.75496" lon="3.7666">
        <ele>1179.900024</ele>
        <time>2017-05-26T09:09:25Z</time>
      </trkpt>
      <trkpt lat="45.75504" lon="3.76651">
        <ele>1178.300049</ele>
        <time>2017-05-26T09:09:27Z</time>
      </trkpt>
      <trkpt lat="45.75512" lon="3.76644">
        <ele>1175.800049</ele>
        <time>2017-05-26T09:09:31Z</time>
      </trkpt>
      <trkpt lat="45.75524" lon="3.7664">
        <ele>1173.099976</ele>
        <time>2017-05-26T09:11:26Z</time>
      </trkpt>
      <trkpt lat="45.75534" lon="3.76638">
        <ele>1173</ele>
        <time>2017-05-26T09:11:29Z</time>
      </trkpt>
      <trkpt lat="45.75546" lon="3.76635">
        <ele>1172.900024</ele>
        <time>2017-05-26T09:11:32Z</time>
      </trkpt>
      <trkpt lat="45.75556" lon="3.7663">
        <ele>1172.699951</ele>
        <time>2017-05-26T09:11:34Z</time>
      </trkpt>
      <trkpt lat="45.75568" lon="3.76619">
        <ele>1172.099976</ele>
        <time>2017-05-26T09:11:36Z</time>
      </trkpt>
      <trkpt lat="45.75583" lon="3.76604">
        <ele>1171.099976</ele>
        <time>2017-05-26T09:11:38Z</time>
      </trkpt>
      <trkpt lat="45.75591" lon="3.76596">
        <ele>1170.300049</ele>
        <time>2017-05-26T09:11:39Z</time>
      </trkpt>
      <trkpt lat="45.756" lon="3.76589">
        <ele>1169.5</ele>
        <time>2017-05-26T09:11:40Z</time>
      </trkpt>
      <trkpt lat="45.75609" lon="3.76584">
        <ele>1168.599976</ele>
        <time>2017-05-26T09:11:41Z</time>
      </trkpt>
      <trkpt lat="45.75625" lon="3.76578">
        <ele>1166.800049</ele>
        <time>2017-05-26T09:11:43Z</time>
      </trkpt>
      <trkpt lat="45.75638" lon="3.76577">
        <ele>1164.900024</ele>
        <time>2017-05-26T09:11:45Z</time>
      </trkpt>
      <trkpt lat="45.75647" lon="3.76575">
        <ele>1162.199951</ele>
        <time>2017-05-26T09:11:48Z</time>
      </trkpt>
      <trkpt lat="45.75657" lon="3.76573">
        <ele>1159</ele>
        <time>2017-05-26T09:11:55Z</time>
      </trkpt>
      <trkpt lat="45.75669" lon="3.76569">
        <ele>1158.300049</ele>
        <time>2017-05-26T09:11:58Z</time>
      </trkpt>
      <trkpt lat="45.7568" lon="3.76566">
        <ele>1157.800049</ele>
        <time>2017-05-26T09:12:00Z</time>
      </trkpt>
      <trkpt lat="45.75692" lon="3.76564">
        <ele>1157.300049</ele>
        <time>2017-05-26T09:12:02Z</time>
      </trkpt>
      <trkpt lat="45.75705" lon="3.76564">
        <ele>1156.800049</ele>
        <time>2017-05-26T09:12:04Z</time>
      </trkpt>
      <trkpt lat="45.75717" lon="3.76562">
        <ele>1156.199951</ele>
        <time>2017-05-26T09:12:06Z</time>
      </trkpt>
      <trkpt lat="45.75728" lon="3.76555">
        <ele>1155.599976</ele>
        <time>2017-05-26T09:12:08Z</time>
      </trkpt>
      <trkpt lat="45.75737" lon="3.76539">
        <ele>1154.900024</ele>
        <time>2017-05-26T09:12:10Z</time>
      </trkpt>
      <trkpt lat="45.75743" lon="3.76516">
        <ele>1153.900024</ele>
        <time>2017-05-26T09:12:12Z</time>
      </trkpt>
      <trkpt lat="45.75745" lon="3.76503">
        <ele>1153.199951</ele>
        <time>2017-05-26T09:12:13Z</time>
      </trkpt>
      <trkpt lat="45.75742" lon="3.76478">
        <ele>1151.400024</ele>
        <time>2017-05-26T09:12:15Z</time>
      </trkpt>
      <trkpt lat="45.75737" lon="3.76466">
        <ele>1150.400024</ele>
        <time>2017-05-26T09:12:16Z</time>
      </trkpt>
      <trkpt lat="45.75732" lon="3.76454">
        <ele>1149.5</ele>
        <time>2017-05-26T09:12:17Z</time>
      </trkpt>
      <trkpt lat="45.75728" lon="3.76441">
        <ele>1148.5</ele>
        <time>2017-05-26T09:12:18Z</time>
      </trkpt>
      <trkpt lat="45.75725" lon="3.76428">
        <ele>1147.699951</ele>
        <time>2017-05-26T09:12:19Z</time>
      </trkpt>
      <trkpt lat="45.75719" lon="3.76405">
        <ele>1146.199951</ele>
        <time>2017-05-26T09:12:21Z</time>
      </trkpt>
      <trkpt lat="45.75713" lon="3.76385">
        <ele>1145.300049</ele>
        <time>2017-05-26T09:12:23Z</time>
      </trkpt>
      <trkpt lat="45.75707" lon="3.76369">
        <ele>1144.699951</ele>
        <time>2017-05-26T09:12:25Z</time>
      </trkpt>
      <trkpt lat="45.75704" lon="3.76356">
        <ele>1144.400024</ele>
        <time>2017-05-26T09:12:27Z</time>
      </trkpt>
      <trkpt lat="45.75699" lon="3.76344">
        <ele>1144.400024</ele>
        <time>2017-05-26T09:12:29Z</time>
      </trkpt>
      <trkpt lat="45.75694" lon="3.76333">
        <ele>1144.599976</ele>
        <time>2017-05-26T09:12:31Z</time>
      </trkpt>
      <trkpt lat="45.75688" lon="3.76321">
        <ele>1145.099976</ele>
        <time>2017-05-26T09:12:33Z</time>
      </trkpt>
      <trkpt lat="45.75683" lon="3.7631">
        <ele>1145.300049</ele>
        <time>2017-05-26T09:12:35Z</time>
      </trkpt>
      <trkpt lat="45.75678" lon="3.76298">
        <ele>1145.599976</ele>
        <time>2017-05-26T09:12:37Z</time>
      </trkpt>
      <trkpt lat="45.75671" lon="3.76285">
        <ele>1146.199951</ele>
        <time>2017-05-26T09:12:40Z</time>
      </trkpt>
      <trkpt lat="45.75664" lon="3.76269">
        <ele>1146.599976</ele>
        <time>2017-05-26T09:12:43Z</time>
      </trkpt>
      <trkpt lat="45.75659" lon="3.76258">
        <ele>1146.800049</ele>
        <time>2017-05-26T09:12:45Z</time>
      </trkpt>
      <trkpt lat="45.75652" lon="3.76242">
        <ele>1146.900024</ele>
        <time>2017-05-26T09:12:48Z</time>
      </trkpt>
      <trkpt lat="45.75648" lon="3.76229">
        <ele>1146.699951</ele>
        <time>2017-05-26T09:12:50Z</time>
      </trkpt>
      <trkpt lat="45.75646" lon="3.76215">
        <ele>1146.800049</ele>
        <time>2017-05-26T09:12:52Z</time>
      </trkpt>
      <trkpt lat="45.75643" lon="3.76201">
        <ele>1146.699951</ele>
        <time>2017-05-26T09:12:54Z</time>
      </trkpt>
      <trkpt lat="45.75638" lon="3.76184">
        <ele>1146.5</ele>
        <time>2017-05-26T09:12:56Z</time>
      </trkpt>
      <trkpt lat="45.75631" lon="3.76165">
        <ele>1146.199951</ele>
        <time>2017-05-26T09:12:58Z</time>
      </trkpt>
      <trkpt lat="45.75623" lon="3.76144">
        <ele>1145.699951</ele>
        <time>2017-05-26T09:13:00Z</time>
      </trkpt>
      <trkpt lat="45.75615" lon="3.76121">
        <ele>1144.599976</ele>
        <time>2017-05-26T09:13:02Z</time>
      </trkpt>
      <trkpt lat="45.75614" lon="3.76108">
        <ele>1144.099976</ele>
        <time>2017-05-26T09:13:03Z</time>
      </trkpt>
      <trkpt lat="45.75614" lon="3.76095">
        <ele>1143.400024</ele>
        <time>2017-05-26T09:13:04Z</time>
      </trkpt>
      <trkpt lat="45.75615" lon="3.76072">
        <ele>1142.400024</ele>
        <time>2017-05-26T09:13:06Z</time>
      </trkpt>
      <trkpt lat="45.75617" lon="3.76052">
        <ele>1142</ele>
        <time>2017-05-26T09:13:08Z</time>
      </trkpt>
      <trkpt lat="45.75618" lon="3.76034">
        <ele>1142</ele>
        <time>2017-05-26T09:13:10Z</time>
      </trkpt>
      <trkpt lat="45.75619" lon="3.76016">
        <ele>1142.199951</ele>
        <time>2017-05-26T09:13:12Z</time>
      </trkpt>
      <trkpt lat="45.75621" lon="3.76">
        <ele>1142.400024</ele>
        <time>2017-05-26T09:13:14Z</time>
      </trkpt>
      <trkpt lat="45.75621" lon="3.75987">
        <ele>1142.599976</ele>
        <time>2017-05-26T09:13:16Z</time>
      </trkpt>
      <trkpt lat="45.75621" lon="3.7597">
        <ele>1143.300049</ele>
        <time>2017-05-26T09:13:19Z</time>
      </trkpt>
      <trkpt lat="45.75618" lon="3.75954">
        <ele>1144.199951</ele>
        <time>2017-05-26T09:13:23Z</time>
      </trkpt>
      <trkpt lat="45.75615" lon="3.75942">
        <ele>1144.900024</ele>
        <time>2017-05-26T09:13:26Z</time>
      </trkpt>
      <trkpt lat="45.75607" lon="3.75928">
        <ele>1145.199951</ele>
        <time>2017-05-26T09:13:29Z</time>
      </trkpt>
      <trkpt lat="45.75601" lon="3.75919">
        <ele>1145.199951</ele>
        <time>2017-05-26T09:13:31Z</time>
      </trkpt>
      <trkpt lat="45.75594" lon="3.75908">
        <ele>1145.099976</ele>
        <time>2017-05-26T09:13:33Z</time>
      </trkpt>
      <trkpt lat="45.75586" lon="3.75897">
        <ele>1144.800049</ele>
        <time>2017-05-26T09:13:35Z</time>
      </trkpt>
      <trkpt lat="45.75578" lon="3.75882">
        <ele>1144.400024</ele>
        <time>2017-05-26T09:13:37Z</time>
      </trkpt>
      <trkpt lat="45.7557" lon="3.75865">
        <ele>1143.900024</ele>
        <time>2017-05-26T09:13:39Z</time>
      </trkpt>
      <trkpt lat="45.75564" lon="3.75845">
        <ele>1143.300049</ele>
        <time>2017-05-26T09:13:41Z</time>
      </trkpt>
      <trkpt lat="45.75559" lon="3.75823">
        <ele>1142.800049</ele>
        <time>2017-05-26T09:13:43Z</time>
      </trkpt>
      <trkpt lat="45.75553" lon="3.75801">
        <ele>1142.099976</ele>
        <time>2017-05-26T09:13:45Z</time>
      </trkpt>
      <trkpt lat="45.75549" lon="3.75782">
        <ele>1141.300049</ele>
        <time>2017-05-26T09:13:47Z</time>
      </trkpt>
      <trkpt lat="45.75545" lon="3.75766">
        <ele>1140.5</ele>
        <time>2017-05-26T09:13:49Z</time>
      </trkpt>
      <trkpt lat="45.75542" lon="3.7575">
        <ele>1139.800049</ele>
        <time>2017-05-26T09:13:51Z</time>
      </trkpt>
      <trkpt lat="45.7554" lon="3.75737">
        <ele>1139.099976</ele>
        <time>2017-05-26T09:13:53Z</time>
      </trkpt>
      <trkpt lat="45.75536" lon="3.75719">
        <ele>1138.199951</ele>
        <time>2017-05-26T09:13:56Z</time>
      </trkpt>
      <trkpt lat="45.75534" lon="3.75704">
        <ele>1137.400024</ele>
        <time>2017-05-26T09:14:00Z</time>
      </trkpt>
      <trkpt lat="45.75533" lon="3.75689">
        <ele>1136.199951</ele>
        <time>2017-05-26T09:15:04Z</time>
      </trkpt>
      <trkpt lat="45.75531" lon="3.75673">
        <ele>1136.099976</ele>
        <time>2017-05-26T09:15:07Z</time>
      </trkpt>
      <trkpt lat="45.75528" lon="3.75655">
        <ele>1135.800049</ele>
        <time>2017-05-26T09:15:10Z</time>
      </trkpt>
      <trkpt lat="45.75526" lon="3.75641">
        <ele>1135.599976</ele>
        <time>2017-05-26T09:15:12Z</time>
      </trkpt>
      <trkpt lat="45.75525" lon="3.75624">
        <ele>1135.199951</ele>
        <time>2017-05-26T09:15:14Z</time>
      </trkpt>
      <trkpt lat="45.75523" lon="3.75606">
        <ele>1134.699951</ele>
        <time>2017-05-26T09:15:16Z</time>
      </trkpt>
      <trkpt lat="45.7552" lon="3.75586">
        <ele>1134.199951</ele>
        <time>2017-05-26T09:15:18Z</time>
      </trkpt>
      <trkpt lat="45.75517" lon="3.75565">
        <ele>1133.5</ele>
        <time>2017-05-26T09:15:20Z</time>
      </trkpt>
      <trkpt lat="45.75515" lon="3.75542">
        <ele>1132.900024</ele>
        <time>2017-05-26T09:15:22Z</time>
      </trkpt>
      <trkpt lat="45.75511" lon="3.7552">
        <ele>1132.099976</ele>
        <time>2017-05-26T09:15:24Z</time>
      </trkpt>
      <trkpt lat="45.755" lon="3.755">
        <ele>1131.400024</ele>
        <time>2017-05-26T09:15:26Z</time>
      </trkpt>
      <trkpt lat="45.75485" lon="3.7549">
        <ele>1130.699951</ele>
        <time>2017-05-26T09:15:28Z</time>
      </trkpt>
      <trkpt lat="45.75476" lon="3.75487">
        <ele>1130.300049</ele>
        <time>2017-05-26T09:15:29Z</time>
      </trkpt>
      <trkpt lat="45.75467" lon="3.75483">
        <ele>1129.900024</ele>
        <time>2017-05-26T09:15:30Z</time>
      </trkpt>
      <trkpt lat="45.75458" lon="3.7548">
        <ele>1129.400024</ele>
        <time>2017-05-26T09:15:31Z</time>
      </trkpt>
      <trkpt lat="45.75448" lon="3.75477">
        <ele>1129.099976</ele>
        <time>2017-05-26T09:15:32Z</time>
      </trkpt>
      <trkpt lat="45.75431" lon="3.75473">
        <ele>1128.400024</ele>
        <time>2017-05-26T09:15:34Z</time>
      </trkpt>
      <trkpt lat="45.75422" lon="3.7547">
        <ele>1128</ele>
        <time>2017-05-26T09:15:35Z</time>
      </trkpt>
      <trkpt lat="45.75405" lon="3.75463">
        <ele>1127.300049</ele>
        <time>2017-05-26T09:15:37Z</time>
      </trkpt>
      <trkpt lat="45.75392" lon="3.75454">
        <ele>1126.400024</ele>
        <time>2017-05-26T09:15:39Z</time>
      </trkpt>
      <trkpt lat="45.7538" lon="3.7544">
        <ele>1125.599976</ele>
        <time>2017-05-26T09:15:41Z</time>
      </trkpt>
      <trkpt lat="45.75369" lon="3.75423">
        <ele>1124.400024</ele>
        <time>2017-05-26T09:15:43Z</time>
      </trkpt>
      <trkpt lat="45.75361" lon="3.7541">
        <ele>1123.199951</ele>
        <time>2017-05-26T09:15:45Z</time>
      </trkpt>
      <trkpt lat="45.7535" lon="3.75403">
        <ele>1121.5</ele>
        <time>2017-05-26T09:15:48Z</time>
      </trkpt>
      <trkpt lat="45.75341" lon="3.75395">
        <ele>1120.099976</ele>
        <time>2017-05-26T09:15:51Z</time>
      </trkpt>
      <trkpt lat="45.75333" lon="3.75387">
        <ele>1119.099976</ele>
        <time>2017-05-26T09:15:53Z</time>
      </trkpt>
      <trkpt lat="45.75326" lon="3.75377">
        <ele>1117.5</ele>
        <time>2017-05-26T09:15:55Z</time>
      </trkpt>
      <trkpt lat="45.75319" lon="3.75367">
        <ele>1116.300049</ele>
        <time>2017-05-26T09:15:57Z</time>
      </trkpt>
      <trkpt lat="45.75313" lon="3.75356">
        <ele>1115.199951</ele>
        <time>2017-05-26T09:15:59Z</time>
      </trkpt>
      <trkpt lat="45.75306" lon="3.75345">
        <ele>1114.099976</ele>
        <time>2017-05-26T09:16:01Z</time>
      </trkpt>
      <trkpt lat="45.75299" lon="3.75332">
        <ele>1111.800049</ele>
        <time>2017-05-26T09:16:04Z</time>
      </trkpt>
      <trkpt lat="45.75293" lon="3.75321">
        <ele>1110.300049</ele>
        <time>2017-05-26T09:16:06Z</time>
      </trkpt>
      <trkpt lat="45.75285" lon="3.75306">
        <ele>1108.5</ele>
        <time>2017-05-26T09:16:09Z</time>
      </trkpt>
      <trkpt lat="45.75281" lon="3.75293">
        <ele>1107.199951</ele>
        <time>2017-05-26T09:16:11Z</time>
      </trkpt>
      <trkpt lat="45.75276" lon="3.75277">
        <ele>1106.400024</ele>
        <time>2017-05-26T09:16:13Z</time>
      </trkpt>
      <trkpt lat="45.7527" lon="3.75259">
        <ele>1105</ele>
        <time>2017-05-26T09:16:15Z</time>
      </trkpt>
      <trkpt lat="45.75263" lon="3.75242">
        <ele>1103.5</ele>
        <time>2017-05-26T09:16:17Z</time>
      </trkpt>
      <trkpt lat="45.75255" lon="3.75227">
        <ele>1101.900024</ele>
        <time>2017-05-26T09:16:19Z</time>
      </trkpt>
      <trkpt lat="45.75249" lon="3.75216">
        <ele>1100</ele>
        <time>2017-05-26T09:16:21Z</time>
      </trkpt>
      <trkpt lat="45.75242" lon="3.75204">
        <ele>1098.300049</ele>
        <time>2017-05-26T09:16:23Z</time>
      </trkpt>
      <trkpt lat="45.75234" lon="3.75194">
        <ele>1095.5</ele>
        <time>2017-05-26T09:16:26Z</time>
      </trkpt>
      <trkpt lat="45.75224" lon="3.75188">
        <ele>1092.599976</ele>
        <time>2017-05-26T09:16:30Z</time>
      </trkpt>
      <trkpt lat="45.75214" lon="3.75185">
        <ele>1090.699951</ele>
        <time>2017-05-26T09:16:33Z</time>
      </trkpt>
      <trkpt lat="45.75202" lon="3.75182">
        <ele>1088.400024</ele>
        <time>2017-05-26T09:16:37Z</time>
      </trkpt>
      <trkpt lat="45.7519" lon="3.75177">
        <ele>1087.099976</ele>
        <time>2017-05-26T09:16:40Z</time>
      </trkpt>
      <trkpt lat="45.75182" lon="3.75168">
        <ele>1085.400024</ele>
        <time>2017-05-26T09:16:43Z</time>
      </trkpt>
      <trkpt lat="45.75176" lon="3.75154">
        <ele>1083.699951</ele>
        <time>2017-05-26T09:16:47Z</time>
      </trkpt>
      <trkpt lat="45.75173" lon="3.75138">
        <ele>1082.300049</ele>
        <time>2017-05-26T09:16:50Z</time>
      </trkpt>
      <trkpt lat="45.75175" lon="3.75125">
        <ele>1081.300049</ele>
        <time>2017-05-26T09:16:53Z</time>
      </trkpt>
      <trkpt lat="45.75178" lon="3.75109">
        <ele>1080.5</ele>
        <time>2017-05-26T09:16:57Z</time>
      </trkpt>
      <trkpt lat="45.75179" lon="3.75094">
        <ele>1080.5</ele>
        <time>2017-05-26T09:17:01Z</time>
      </trkpt>
      <trkpt lat="45.75178" lon="3.75079">
        <ele>1080.800049</ele>
        <time>2017-05-26T09:17:05Z</time>
      </trkpt>
      <trkpt lat="45.75173" lon="3.75064">
        <ele>1081.199951</ele>
        <time>2017-05-26T09:17:09Z</time>
      </trkpt>
      <trkpt lat="45.75166" lon="3.75052">
        <ele>1082</ele>
        <time>2017-05-26T09:17:14Z</time>
      </trkpt>
      <trkpt lat="45.75158" lon="3.75043">
        <ele>1082.900024</ele>
        <time>2017-05-26T09:17:19Z</time>
      </trkpt>
      <trkpt lat="45.75151" lon="3.75035">
        <ele>1084</ele>
        <time>2017-05-26T09:17:25Z</time>
      </trkpt>
      <trkpt lat="45.75142" lon="3.75027">
        <ele>1085.5</ele>
        <time>2017-05-26T09:17:32Z</time>
      </trkpt>
      <trkpt lat="45.75133" lon="3.75021">
        <ele>1087</ele>
        <time>2017-05-26T09:17:39Z</time>
      </trkpt>
      <trkpt lat="45.75125" lon="3.75014">
        <ele>1088.5</ele>
        <time>2017-05-26T09:17:47Z</time>
      </trkpt>
      <trkpt lat="45.75117" lon="3.75005">
        <ele>1089.800049</ele>
        <time>2017-05-26T09:17:54Z</time>
      </trkpt>
      <trkpt lat="45.75108" lon="3.74997">
        <ele>1090.699951</ele>
        <time>2017-05-26T09:18:00Z</time>
      </trkpt>
      <trkpt lat="45.75099" lon="3.74991">
        <ele>1091.300049</ele>
        <time>2017-05-26T09:18:06Z</time>
      </trkpt>
      <trkpt lat="45.75092" lon="3.74982">
        <ele>1091.5</ele>
        <time>2017-05-26T09:18:11Z</time>
      </trkpt>
      <trkpt lat="45.75081" lon="3.74973">
        <ele>1091.699951</ele>
        <time>2017-05-26T09:18:15Z</time>
      </trkpt>
      <trkpt lat="45.75073" lon="3.74967">
        <ele>1091.400024</ele>
        <time>2017-05-26T09:18:17Z</time>
      </trkpt>
      <trkpt lat="45.75063" lon="3.7496">
        <ele>1091.099976</ele>
        <time>2017-05-26T09:18:19Z</time>
      </trkpt>
      <trkpt lat="45.75052" lon="3.74952">
        <ele>1090.400024</ele>
        <time>2017-05-26T09:18:21Z</time>
      </trkpt>
      <trkpt lat="45.75043" lon="3.74944">
        <ele>1089.599976</ele>
        <time>2017-05-26T09:18:23Z</time>
      </trkpt>
      <trkpt lat="45.75034" lon="3.74933">
        <ele>1088.400024</ele>
        <time>2017-05-26T09:18:26Z</time>
      </trkpt>
      <trkpt lat="45.75026" lon="3.74922">
        <ele>1087.699951</ele>
        <time>2017-05-26T09:18:29Z</time>
      </trkpt>
      <trkpt lat="45.75018" lon="3.74915">
        <ele>1087.599976</ele>
        <time>2017-05-26T09:18:32Z</time>
      </trkpt>
      <trkpt lat="45.75011" lon="3.74903">
        <ele>1087.800049</ele>
        <time>2017-05-26T09:18:36Z</time>
      </trkpt>
      <trkpt lat="45.75004" lon="3.74895">
        <ele>1088.300049</ele>
        <time>2017-05-26T09:18:40Z</time>
      </trkpt>
      <trkpt lat="45.74998" lon="3.74882">
        <ele>1089.099976</ele>
        <time>2017-05-26T09:18:45Z</time>
      </trkpt>
      <trkpt lat="45.74991" lon="3.74873">
        <ele>1089.599976</ele>
        <time>2017-05-26T09:18:49Z</time>
      </trkpt>
      <trkpt lat="45.74985" lon="3.7486">
        <ele>1090.300049</ele>
        <time>2017-05-26T09:18:53Z</time>
      </trkpt>
      <trkpt lat="45.74979" lon="3.74846">
        <ele>1091.099976</ele>
        <time>2017-05-26T09:18:58Z</time>
      </trkpt>
      <trkpt lat="45.74974" lon="3.74832">
        <ele>1091.400024</ele>
        <time>2017-05-26T09:19:01Z</time>
      </trkpt>
      <trkpt lat="45.74969" lon="3.74819">
        <ele>1091.5</ele>
        <time>2017-05-26T09:19:04Z</time>
      </trkpt>
      <trkpt lat="45.74962" lon="3.74808">
        <ele>1091.800049</ele>
        <time>2017-05-26T09:19:07Z</time>
      </trkpt>
      <trkpt lat="45.74955" lon="3.74799">
        <ele>1092.099976</ele>
        <time>2017-05-26T09:19:10Z</time>
      </trkpt>
      <trkpt lat="45.74946" lon="3.74788">
        <ele>1092</ele>
        <time>2017-05-26T09:19:14Z</time>
      </trkpt>
      <trkpt lat="45.74936" lon="3.74778">
        <ele>1091.699951</ele>
        <time>2017-05-26T09:19:18Z</time>
      </trkpt>
      <trkpt lat="45.74927" lon="3.74769">
        <ele>1091.599976</ele>
        <time>2017-05-26T09:19:21Z</time>
      </trkpt>
      <trkpt lat="45.74918" lon="3.74759">
        <ele>1091.599976</ele>
        <time>2017-05-26T09:19:24Z</time>
      </trkpt>
      <trkpt lat="45.74907" lon="3.7475">
        <ele>1091.5</ele>
        <time>2017-05-26T09:19:27Z</time>
      </trkpt>
      <trkpt lat="45.74897" lon="3.74742">
        <ele>1091.400024</ele>
        <time>2017-05-26T09:19:30Z</time>
      </trkpt>
      <trkpt lat="45.74888" lon="3.74732">
        <ele>1091.699951</ele>
        <time>2017-05-26T09:19:33Z</time>
      </trkpt>
      <trkpt lat="45.74882" lon="3.74719">
        <ele>1091.800049</ele>
        <time>2017-05-26T09:19:36Z</time>
      </trkpt>
      <trkpt lat="45.74873" lon="3.74712">
        <ele>1092.199951</ele>
        <time>2017-05-26T09:19:39Z</time>
      </trkpt>
      <trkpt lat="45.74861" lon="3.74703">
        <ele>1091.800049</ele>
        <time>2017-05-26T09:19:42Z</time>
      </trkpt>
      <trkpt lat="45.74851" lon="3.74698">
        <ele>1091.599976</ele>
        <time>2017-05-26T09:19:44Z</time>
      </trkpt>
      <trkpt lat="45.74841" lon="3.74689">
        <ele>1091.400024</ele>
        <time>2017-05-26T09:19:46Z</time>
      </trkpt>
      <trkpt lat="45.7483" lon="3.7468">
        <ele>1091.099976</ele>
        <time>2017-05-26T09:19:48Z</time>
      </trkpt>
      <trkpt lat="45.7482" lon="3.74673">
        <ele>1090.800049</ele>
        <time>2017-05-26T09:19:50Z</time>
      </trkpt>
      <trkpt lat="45.7481" lon="3.74667">
        <ele>1090.599976</ele>
        <time>2017-05-26T09:19:52Z</time>
      </trkpt>
      <trkpt lat="45.748" lon="3.74663">
        <ele>1090.199951</ele>
        <time>2017-05-26T09:19:54Z</time>
      </trkpt>
      <trkpt lat="45.7479" lon="3.74654">
        <ele>1089.900024</ele>
        <time>2017-05-26T09:19:57Z</time>
      </trkpt>
      <trkpt lat="45.74781" lon="3.74645">
        <ele>1090.199951</ele>
        <time>2017-05-26T09:20:01Z</time>
      </trkpt>
      <trkpt lat="45.74773" lon="3.74638">
        <ele>1090.599976</ele>
        <time>2017-05-26T09:20:05Z</time>
      </trkpt>
      <trkpt lat="45.74765" lon="3.74632">
        <ele>1091.099976</ele>
        <time>2017-05-26T09:20:09Z</time>
      </trkpt>
      <trkpt lat="45.74756" lon="3.74627">
        <ele>1091.5</ele>
        <time>2017-05-26T09:20:13Z</time>
      </trkpt>
      <trkpt lat="45.74745" lon="3.74622">
        <ele>1091.900024</ele>
        <time>2017-05-26T09:20:18Z</time>
      </trkpt>
      <trkpt lat="45.74737" lon="3.74614">
        <ele>1092.400024</ele>
        <time>2017-05-26T09:20:22Z</time>
      </trkpt>
      <trkpt lat="45.74729" lon="3.74607">
        <ele>1092.800049</ele>
        <time>2017-05-26T09:20:26Z</time>
      </trkpt>
      <trkpt lat="45.7472" lon="3.74601">
        <ele>1093.599976</ele>
        <time>2017-05-26T09:20:30Z</time>
      </trkpt>
      <trkpt lat="45.74712" lon="3.74592">
        <ele>1094.099976</ele>
        <time>2017-05-26T09:20:34Z</time>
      </trkpt>
      <trkpt lat="45.74704" lon="3.74583">
        <ele>1095</ele>
        <time>2017-05-26T09:20:39Z</time>
      </trkpt>
      <trkpt lat="45.74694" lon="3.74576">
        <ele>1095.599976</ele>
        <time>2017-05-26T09:20:44Z</time>
      </trkpt>
      <trkpt lat="45.74687" lon="3.74563">
        <ele>1095.800049</ele>
        <time>2017-05-26T09:20:48Z</time>
      </trkpt>
      <trkpt lat="45.74682" lon="3.7455">
        <ele>1095.800049</ele>
        <time>2017-05-26T09:20:51Z</time>
      </trkpt>
      <trkpt lat="45.74677" lon="3.74536">
        <ele>1095.800049</ele>
        <time>2017-05-26T09:20:54Z</time>
      </trkpt>
      <trkpt lat="45.74674" lon="3.74521">
        <ele>1095.800049</ele>
        <time>2017-05-26T09:20:57Z</time>
      </trkpt>
      <trkpt lat="45.74672" lon="3.74506">
        <ele>1095.800049</ele>
        <time>2017-05-26T09:21:00Z</time>
      </trkpt>
      <trkpt lat="45.74671" lon="3.74489">
        <ele>1095.900024</ele>
        <time>2017-05-26T09:21:03Z</time>
      </trkpt>
      <trkpt lat="45.7467" lon="3.74471">
        <ele>1095.900024</ele>
        <time>2017-05-26T09:21:06Z</time>
      </trkpt>
      <trkpt lat="45.74669" lon="3.74452">
        <ele>1095.699951</ele>
        <time>2017-05-26T09:21:09Z</time>
      </trkpt>
      <trkpt lat="45.74668" lon="3.74439">
        <ele>1095.5</ele>
        <time>2017-05-26T09:21:11Z</time>
      </trkpt>
      <trkpt lat="45.74668" lon="3.74426">
        <ele>1095.300049</ele>
        <time>2017-05-26T09:21:13Z</time>
      </trkpt>
      <trkpt lat="45.7467" lon="3.74411">
        <ele>1094.800049</ele>
        <time>2017-05-26T09:21:16Z</time>
      </trkpt>
      <trkpt lat="45.74672" lon="3.74399">
        <ele>1093.699951</ele>
        <time>2017-05-26T09:21:33Z</time>
      </trkpt>
      <trkpt lat="45.74675" lon="3.74386">
        <ele>1093.599976</ele>
        <time>2017-05-26T09:21:36Z</time>
      </trkpt>
      <trkpt lat="45.7468" lon="3.74369">
        <ele>1093.199951</ele>
        <time>2017-05-26T09:21:39Z</time>
      </trkpt>
      <trkpt lat="45.74684" lon="3.74358">
        <ele>1093</ele>
        <time>2017-05-26T09:21:41Z</time>
      </trkpt>
      <trkpt lat="45.74688" lon="3.74346">
        <ele>1092.599976</ele>
        <time>2017-05-26T09:21:43Z</time>
      </trkpt>
      <trkpt lat="45.74692" lon="3.74333">
        <ele>1092.300049</ele>
        <time>2017-05-26T09:21:45Z</time>
      </trkpt>
      <trkpt lat="45.74695" lon="3.74319">
        <ele>1091.900024</ele>
        <time>2017-05-26T09:21:47Z</time>
      </trkpt>
      <trkpt lat="45.74698" lon="3.74305">
        <ele>1091.5</ele>
        <time>2017-05-26T09:21:49Z</time>
      </trkpt>
      <trkpt lat="45.74702" lon="3.74291">
        <ele>1091.099976</ele>
        <time>2017-05-26T09:21:51Z</time>
      </trkpt>
      <trkpt lat="45.74705" lon="3.74277">
        <ele>1090.5</ele>
        <time>2017-05-26T09:21:53Z</time>
      </trkpt>
      <trkpt lat="45.74709" lon="3.74263">
        <ele>1090</ele>
        <time>2017-05-26T09:21:55Z</time>
      </trkpt>
      <trkpt lat="45.74711" lon="3.74249">
        <ele>1089.800049</ele>
        <time>2017-05-26T09:21:57Z</time>
      </trkpt>
      <trkpt lat="45.74713" lon="3.74234">
        <ele>1089.800049</ele>
        <time>2017-05-26T09:21:59Z</time>
      </trkpt>
      <trkpt lat="45.74715" lon="3.74219">
        <ele>1089.5</ele>
        <time>2017-05-26T09:22:01Z</time>
      </trkpt>
      <trkpt lat="45.74716" lon="3.74204">
        <ele>1089.300049</ele>
        <time>2017-05-26T09:22:03Z</time>
      </trkpt>
      <trkpt lat="45.74717" lon="3.74189">
        <ele>1089.199951</ele>
        <time>2017-05-26T09:22:05Z</time>
      </trkpt>
      <trkpt lat="45.74718" lon="3.74175">
        <ele>1088.900024</ele>
        <time>2017-05-26T09:22:07Z</time>
      </trkpt>
      <trkpt lat="45.7472" lon="3.7416">
        <ele>1088.5</ele>
        <time>2017-05-26T09:22:09Z</time>
      </trkpt>
      <trkpt lat="45.74721" lon="3.74144">
        <ele>1088.199951</ele>
        <time>2017-05-26T09:22:11Z</time>
      </trkpt>
      <trkpt lat="45.74721" lon="3.74126">
        <ele>1087.900024</ele>
        <time>2017-05-26T09:22:13Z</time>
      </trkpt>
      <trkpt lat="45.7472" lon="3.74109">
        <ele>1087.599976</ele>
        <time>2017-05-26T09:22:15Z</time>
      </trkpt>
      <trkpt lat="45.74717" lon="3.74093">
        <ele>1087.199951</ele>
        <time>2017-05-26T09:22:17Z</time>
      </trkpt>
      <trkpt lat="45.74714" lon="3.74077">
        <ele>1087</ele>
        <time>2017-05-26T09:22:19Z</time>
      </trkpt>
      <trkpt lat="45.74712" lon="3.74062">
        <ele>1086.800049</ele>
        <time>2017-05-26T09:22:21Z</time>
      </trkpt>
      <trkpt lat="45.7471" lon="3.74048">
        <ele>1086.699951</ele>
        <time>2017-05-26T09:22:23Z</time>
      </trkpt>
      <trkpt lat="45.74706" lon="3.74031">
        <ele>1086.699951</ele>
        <time>2017-05-26T09:22:26Z</time>
      </trkpt>
      <trkpt lat="45.74706" lon="3.74017">
        <ele>1087.199951</ele>
        <time>2017-05-26T09:22:32Z</time>
      </trkpt>
      <trkpt lat="45.74705" lon="3.74004">
        <ele>1088.099976</ele>
        <time>2017-05-26T09:22:37Z</time>
      </trkpt>
      <trkpt lat="45.74702" lon="3.7399">
        <ele>1089.099976</ele>
        <time>2017-05-26T09:22:43Z</time>
      </trkpt>
      <trkpt lat="45.74699" lon="3.73976">
        <ele>1090.400024</ele>
        <time>2017-05-26T09:22:50Z</time>
      </trkpt>
      <trkpt lat="45.74693" lon="3.73965">
        <ele>1091.400024</ele>
        <time>2017-05-26T09:22:56Z</time>
      </trkpt>
      <trkpt lat="45.74685" lon="3.73959">
        <ele>1092.099976</ele>
        <time>2017-05-26T09:23:02Z</time>
      </trkpt>
      <trkpt lat="45.74676" lon="3.73955">
        <ele>1093</ele>
        <time>2017-05-26T09:23:09Z</time>
      </trkpt>
      <trkpt lat="45.74666" lon="3.73955">
        <ele>1094.699951</ele>
        <time>2017-05-26T09:23:17Z</time>
      </trkpt>
      <trkpt lat="45.74656" lon="3.73954">
        <ele>1096.099976</ele>
        <time>2017-05-26T09:23:23Z</time>
      </trkpt>
      <trkpt lat="45.74646" lon="3.73955">
        <ele>1097.199951</ele>
        <time>2017-05-26T09:23:29Z</time>
      </trkpt>
      <trkpt lat="45.74636" lon="3.73956">
        <ele>1098.300049</ele>
        <time>2017-05-26T09:23:35Z</time>
      </trkpt>
      <trkpt lat="45.74627" lon="3.73957">
        <ele>1100.099976</ele>
        <time>2017-05-26T09:23:43Z</time>
      </trkpt>
      <trkpt lat="45.74616" lon="3.73956">
        <ele>1101.599976</ele>
        <time>2017-05-26T09:23:50Z</time>
      </trkpt>
      <trkpt lat="45.74606" lon="3.73952">
        <ele>1102.400024</ele>
        <time>2017-05-26T09:23:57Z</time>
      </trkpt>
      <trkpt lat="45.74597" lon="3.73949">
        <ele>1103.300049</ele>
        <time>2017-05-26T09:24:03Z</time>
      </trkpt>
      <trkpt lat="45.74587" lon="3.73948">
        <ele>1104.199951</ele>
        <time>2017-05-26T09:24:10Z</time>
      </trkpt>
      <trkpt lat="45.74577" lon="3.73947">
        <ele>1105.5</ele>
        <time>2017-05-26T09:24:17Z</time>
      </trkpt>
      <trkpt lat="45.74567" lon="3.73951">
        <ele>1107.199951</ele>
        <time>2017-05-26T09:24:23Z</time>
      </trkpt>
      <trkpt lat="45.74558" lon="3.73955">
        <ele>1108.300049</ele>
        <time>2017-05-26T09:24:29Z</time>
      </trkpt>
      <trkpt lat="45.74548" lon="3.73958">
        <ele>1109.699951</ele>
        <time>2017-05-26T09:24:35Z</time>
      </trkpt>
      <trkpt lat="45.74539" lon="3.73962">
        <ele>1110.5</ele>
        <time>2017-05-26T09:24:41Z</time>
      </trkpt>
      <trkpt lat="45.74529" lon="3.73962">
        <ele>1111.699951</ele>
        <time>2017-05-26T09:24:48Z</time>
      </trkpt>
      <trkpt lat="45.74519" lon="3.73961">
        <ele>1112.800049</ele>
        <time>2017-05-26T09:24:54Z</time>
      </trkpt>
      <trkpt lat="45.74509" lon="3.73962">
        <ele>1113.699951</ele>
        <time>2017-05-26T09:25:00Z</time>
      </trkpt>
      <trkpt lat="45.74499" lon="3.73961">
        <ele>1114.599976</ele>
        <time>2017-05-26T09:25:07Z</time>
      </trkpt>
      <trkpt lat="45.74489" lon="3.73958">
        <ele>1115.599976</ele>
        <time>2017-05-26T09:25:14Z</time>
      </trkpt>
      <trkpt lat="45.7448" lon="3.73954">
        <ele>1116.300049</ele>
        <time>2017-05-26T09:25:19Z</time>
      </trkpt>
      <trkpt lat="45.74471" lon="3.73948">
        <ele>1117.199951</ele>
        <time>2017-05-26T09:25:26Z</time>
      </trkpt>
      <trkpt lat="45.74461" lon="3.73945">
        <ele>1118.599976</ele>
        <time>2017-05-26T09:25:33Z</time>
      </trkpt>
      <trkpt lat="45.74452" lon="3.73944">
        <ele>1119.800049</ele>
        <time>2017-05-26T09:25:40Z</time>
      </trkpt>
      <trkpt lat="45.74442" lon="3.73943">
        <ele>1120.900024</ele>
        <time>2017-05-26T09:25:47Z</time>
      </trkpt>
      <trkpt lat="45.74432" lon="3.73942">
        <ele>1122.400024</ele>
        <time>2017-05-26T09:25:54Z</time>
      </trkpt>
      <trkpt lat="45.74423" lon="3.73941">
        <ele>1123.699951</ele>
        <time>2017-05-26T09:26:02Z</time>
      </trkpt>
      <trkpt lat="45.74412" lon="3.73939">
        <ele>1125.300049</ele>
        <time>2017-05-26T09:26:09Z</time>
      </trkpt>
      <trkpt lat="45.74403" lon="3.73935">
        <ele>1127</ele>
        <time>2017-05-26T09:26:17Z</time>
      </trkpt>
      <trkpt lat="45.74393" lon="3.73929">
        <ele>1128.300049</ele>
        <time>2017-05-26T09:26:25Z</time>
      </trkpt>
      <trkpt lat="45.74385" lon="3.73921">
        <ele>1130.099976</ele>
        <time>2017-05-26T09:26:33Z</time>
      </trkpt>
      <trkpt lat="45.74379" lon="3.73912">
        <ele>1131.199951</ele>
        <time>2017-05-26T09:26:41Z</time>
      </trkpt>
      <trkpt lat="45.74372" lon="3.73901">
        <ele>1132.400024</ele>
        <time>2017-05-26T09:26:48Z</time>
      </trkpt>
      <trkpt lat="45.74367" lon="3.73891">
        <ele>1133.300049</ele>
        <time>2017-05-26T09:26:53Z</time>
      </trkpt>
      <trkpt lat="45.74361" lon="3.73881">
        <ele>1134</ele>
        <time>2017-05-26T09:26:58Z</time>
      </trkpt>
      <trkpt lat="45.74355" lon="3.73869">
        <ele>1134.5</ele>
        <time>2017-05-26T09:27:03Z</time>
      </trkpt>
      <trkpt lat="45.7435" lon="3.73857">
        <ele>1134.900024</ele>
        <time>2017-05-26T09:27:09Z</time>
      </trkpt>
      <trkpt lat="45.74344" lon="3.73847">
        <ele>1135.199951</ele>
        <time>2017-05-26T09:27:15Z</time>
      </trkpt>
      <trkpt lat="45.74342" lon="3.73833">
        <ele>1135.699951</ele>
        <time>2017-05-26T09:31:30Z</time>
      </trkpt>
      <trkpt lat="45.74336" lon="3.73822">
        <ele>1135.699951</ele>
        <time>2017-05-26T09:31:36Z</time>
      </trkpt>
      <trkpt lat="45.7433" lon="3.73809">
        <ele>1135.699951</ele>
        <time>2017-05-26T09:31:40Z</time>
      </trkpt>
      <trkpt lat="45.74325" lon="3.73794">
        <ele>1135.800049</ele>
        <time>2017-05-26T09:31:44Z</time>
      </trkpt>
      <trkpt lat="45.7432" lon="3.7378">
        <ele>1135.300049</ele>
        <time>2017-05-26T09:31:48Z</time>
      </trkpt>
      <trkpt lat="45.74316" lon="3.73766">
        <ele>1134.400024</ele>
        <time>2017-05-26T09:31:52Z</time>
      </trkpt>
      <trkpt lat="45.74312" lon="3.73754">
        <ele>1134.199951</ele>
        <time>2017-05-26T09:31:55Z</time>
      </trkpt>
      <trkpt lat="45.74307" lon="3.7374">
        <ele>1133.5</ele>
        <time>2017-05-26T09:31:58Z</time>
      </trkpt>
      <trkpt lat="45.74303" lon="3.73727">
        <ele>1132.699951</ele>
        <time>2017-05-26T09:32:01Z</time>
      </trkpt>
      <trkpt lat="45.74298" lon="3.73711">
        <ele>1132.099976</ele>
        <time>2017-05-26T09:32:04Z</time>
      </trkpt>
      <trkpt lat="45.74292" lon="3.73697">
        <ele>1131.699951</ele>
        <time>2017-05-26T09:32:07Z</time>
      </trkpt>
      <trkpt lat="45.74288" lon="3.73683">
        <ele>1131.199951</ele>
        <time>2017-05-26T09:32:09Z</time>
      </trkpt>
      <trkpt lat="45.74285" lon="3.7367">
        <ele>1130.199951</ele>
        <time>2017-05-26T09:32:11Z</time>
      </trkpt>
      <trkpt lat="45.74278" lon="3.73657">
        <ele>1128.599976</ele>
        <time>2017-05-26T09:32:14Z</time>
      </trkpt>
      <trkpt lat="45.74275" lon="3.73643">
        <ele>1127.900024</ele>
        <time>2017-05-26T09:32:16Z</time>
      </trkpt>
      <trkpt lat="45.74272" lon="3.73628">
        <ele>1126.400024</ele>
        <time>2017-05-26T09:32:19Z</time>
      </trkpt>
      <trkpt lat="45.74274" lon="3.73611">
        <ele>1125.300049</ele>
        <time>2017-05-26T09:32:23Z</time>
      </trkpt>
      <trkpt lat="45.74277" lon="3.73597">
        <ele>1124</ele>
        <time>2017-05-26T09:32:28Z</time>
      </trkpt>
      <trkpt lat="45.74282" lon="3.73581">
        <ele>1123.400024</ele>
        <time>2017-05-26T09:32:33Z</time>
      </trkpt>
      <trkpt lat="45.74285" lon="3.73567">
        <ele>1122.800049</ele>
        <time>2017-05-26T09:32:37Z</time>
      </trkpt>
      <trkpt lat="45.74287" lon="3.73551">
        <ele>1122.199951</ele>
        <time>2017-05-26T09:32:41Z</time>
      </trkpt>
      <trkpt lat="45.74288" lon="3.73535">
        <ele>1121</ele>
        <time>2017-05-26T09:32:45Z</time>
      </trkpt>
      <trkpt lat="45.74286" lon="3.7352">
        <ele>1120</ele>
        <time>2017-05-26T09:32:48Z</time>
      </trkpt>
      <trkpt lat="45.74284" lon="3.73507">
        <ele>1119.099976</ele>
        <time>2017-05-26T09:32:51Z</time>
      </trkpt>
      <trkpt lat="45.74281" lon="3.73495">
        <ele>1117.5</ele>
        <time>2017-05-26T09:32:56Z</time>
      </trkpt>
      <trkpt lat="45.74291" lon="3.73487">
        <ele>1116</ele>
        <time>2017-05-26T09:33:07Z</time>
      </trkpt>
      <trkpt lat="45.74301" lon="3.73486">
        <ele>1116</ele>
        <time>2017-05-26T09:33:11Z</time>
      </trkpt>
      <trkpt lat="45.74311" lon="3.73485">
        <ele>1116.199951</ele>
        <time>2017-05-26T09:33:15Z</time>
      </trkpt>
      <trkpt lat="45.74321" lon="3.73483">
        <ele>1116.300049</ele>
        <time>2017-05-26T09:33:19Z</time>
      </trkpt>
      <trkpt lat="45.74331" lon="3.7348">
        <ele>1116.699951</ele>
        <time>2017-05-26T09:33:23Z</time>
      </trkpt>
      <trkpt lat="45.74342" lon="3.73477">
        <ele>1117.199951</ele>
        <time>2017-05-26T09:33:27Z</time>
      </trkpt>
      <trkpt lat="45.74353" lon="3.73473">
        <ele>1117.699951</ele>
        <time>2017-05-26T09:33:31Z</time>
      </trkpt>
      <trkpt lat="45.74364" lon="3.73471">
        <ele>1118.300049</ele>
        <time>2017-05-26T09:33:35Z</time>
      </trkpt>
      <trkpt lat="45.74373" lon="3.73468">
        <ele>1118.900024</ele>
        <time>2017-05-26T09:33:39Z</time>
      </trkpt>
      <trkpt lat="45.74383" lon="3.73466">
        <ele>1119.400024</ele>
        <time>2017-05-26T09:33:43Z</time>
      </trkpt>
      <trkpt lat="45.74392" lon="3.73463">
        <ele>1120</ele>
        <time>2017-05-26T09:33:47Z</time>
      </trkpt>
      <trkpt lat="45.74401" lon="3.73461">
        <ele>1121</ele>
        <time>2017-05-26T09:33:52Z</time>
      </trkpt>
      <trkpt lat="45.74411" lon="3.73459">
        <ele>1121.599976</ele>
        <time>2017-05-26T09:33:57Z</time>
      </trkpt>
      <trkpt lat="45.74421" lon="3.73457">
        <ele>1122.400024</ele>
        <time>2017-05-26T09:34:03Z</time>
      </trkpt>
      <trkpt lat="45.74432" lon="3.73456">
        <ele>1122.800049</ele>
        <time>2017-05-26T09:34:08Z</time>
      </trkpt>
      <trkpt lat="45.74441" lon="3.73455">
        <ele>1123.5</ele>
        <time>2017-05-26T09:34:13Z</time>
      </trkpt>
      <trkpt lat="45.74451" lon="3.73454">
        <ele>1124.400024</ele>
        <time>2017-05-26T09:34:18Z</time>
      </trkpt>
      <trkpt lat="45.7446" lon="3.73457">
        <ele>1126.400024</ele>
        <time>2017-05-26T09:34:25Z</time>
      </trkpt>
      <trkpt lat="45.7447" lon="3.73463">
        <ele>1127.900024</ele>
        <time>2017-05-26T09:34:32Z</time>
      </trkpt>
      <trkpt lat="45.7448" lon="3.73466">
        <ele>1129.599976</ele>
        <time>2017-05-26T09:34:39Z</time>
      </trkpt>
      <trkpt lat="45.7449" lon="3.73467">
        <ele>1130.5</ele>
        <time>2017-05-26T09:34:44Z</time>
      </trkpt>
      <trkpt lat="45.745" lon="3.73467">
        <ele>1132</ele>
        <time>2017-05-26T09:34:50Z</time>
      </trkpt>
      <trkpt lat="45.74509" lon="3.73469">
        <ele>1133.300049</ele>
        <time>2017-05-26T09:34:56Z</time>
      </trkpt>
      <trkpt lat="45.74518" lon="3.73471">
        <ele>1134.5</ele>
        <time>2017-05-26T09:35:02Z</time>
      </trkpt>
      <trkpt lat="45.74529" lon="3.73471">
        <ele>1135.599976</ele>
        <time>2017-05-26T09:35:07Z</time>
      </trkpt>
      <trkpt lat="45.74538" lon="3.73472">
        <ele>1136.5</ele>
        <time>2017-05-26T09:35:12Z</time>
      </trkpt>
      <trkpt lat="45.74548" lon="3.73473">
        <ele>1137.300049</ele>
        <time>2017-05-26T09:35:17Z</time>
      </trkpt>
      <trkpt lat="45.74559" lon="3.73474">
        <ele>1138.5</ele>
        <time>2017-05-26T09:35:22Z</time>
      </trkpt>
      <trkpt lat="45.74569" lon="3.73477">
        <ele>1139.5</ele>
        <time>2017-05-26T09:35:27Z</time>
      </trkpt>
      <trkpt lat="45.74578" lon="3.7348">
        <ele>1139.900024</ele>
        <time>2017-05-26T09:35:31Z</time>
      </trkpt>
      <trkpt lat="45.74589" lon="3.73482">
        <ele>1140.599976</ele>
        <time>2017-05-26T09:35:35Z</time>
      </trkpt>
      <trkpt lat="45.746" lon="3.73484">
        <ele>1141</ele>
        <time>2017-05-26T09:35:39Z</time>
      </trkpt>
      <trkpt lat="45.74609" lon="3.73489">
        <ele>1141.5</ele>
        <time>2017-05-26T09:35:43Z</time>
      </trkpt>
      <trkpt lat="45.74619" lon="3.73493">
        <ele>1141.800049</ele>
        <time>2017-05-26T09:35:47Z</time>
      </trkpt>
      <trkpt lat="45.74628" lon="3.73497">
        <ele>1142.5</ele>
        <time>2017-05-26T09:35:51Z</time>
      </trkpt>
      <trkpt lat="45.74636" lon="3.73503">
        <ele>1143.400024</ele>
        <time>2017-05-26T09:35:57Z</time>
      </trkpt>
      <trkpt lat="45.7464" lon="3.73515">
        <ele>1144.099976</ele>
        <time>2017-05-26T09:37:36Z</time>
      </trkpt>
      <trkpt lat="45.74646" lon="3.73526">
        <ele>1144.599976</ele>
        <time>2017-05-26T09:37:40Z</time>
      </trkpt>
      <trkpt lat="45.74653" lon="3.73535">
        <ele>1145</ele>
        <time>2017-05-26T09:37:44Z</time>
      </trkpt>
      <trkpt lat="45.74663" lon="3.73539">
        <ele>1145.699951</ele>
        <time>2017-05-26T09:37:49Z</time>
      </trkpt>
      <trkpt lat="45.74674" lon="3.73539">
        <ele>1146.699951</ele>
        <time>2017-05-26T09:37:54Z</time>
      </trkpt>
      <trkpt lat="45.74684" lon="3.73538">
        <ele>1147.099976</ele>
        <time>2017-05-26T09:37:58Z</time>
      </trkpt>
      <trkpt lat="45.74693" lon="3.73536">
        <ele>1147.5</ele>
        <time>2017-05-26T09:38:02Z</time>
      </trkpt>
      <trkpt lat="45.74703" lon="3.73534">
        <ele>1148</ele>
        <time>2017-05-26T09:38:06Z</time>
      </trkpt>
      <trkpt lat="45.74713" lon="3.73532">
        <ele>1148.099976</ele>
        <time>2017-05-26T09:38:10Z</time>
      </trkpt>
      <trkpt lat="45.74724" lon="3.73529">
        <ele>1148.5</ele>
        <time>2017-05-26T09:38:14Z</time>
      </trkpt>
      <trkpt lat="45.74734" lon="3.73526">
        <ele>1148.699951</ele>
        <time>2017-05-26T09:38:18Z</time>
      </trkpt>
      <trkpt lat="45.74745" lon="3.73521">
        <ele>1149.199951</ele>
        <time>2017-05-26T09:38:22Z</time>
      </trkpt>
      <trkpt lat="45.74755" lon="3.73518">
        <ele>1149.699951</ele>
        <time>2017-05-26T09:38:26Z</time>
      </trkpt>
      <trkpt lat="45.74765" lon="3.73516">
        <ele>1149.900024</ele>
        <time>2017-05-26T09:38:30Z</time>
      </trkpt>
      <trkpt lat="45.74776" lon="3.73513">
        <ele>1150.599976</ele>
        <time>2017-05-26T09:38:35Z</time>
      </trkpt>
      <trkpt lat="45.74785" lon="3.7351">
        <ele>1151.199951</ele>
        <time>2017-05-26T09:38:40Z</time>
      </trkpt>
      <trkpt lat="45.74795" lon="3.73508">
        <ele>1151.900024</ele>
        <time>2017-05-26T09:38:45Z</time>
      </trkpt>
      <trkpt lat="45.74805" lon="3.73505">
        <ele>1152.900024</ele>
        <time>2017-05-26T09:38:50Z</time>
      </trkpt>
      <trkpt lat="45.74815" lon="3.73501">
        <ele>1154.5</ele>
        <time>2017-05-26T09:38:57Z</time>
      </trkpt>
      <trkpt lat="45.74822" lon="3.73491">
        <ele>1155.699951</ele>
        <time>2017-05-26T09:39:02Z</time>
      </trkpt>
      <trkpt lat="45.74827" lon="3.73478">
        <ele>1157</ele>
        <time>2017-05-26T09:39:07Z</time>
      </trkpt>
      <trkpt lat="45.74831" lon="3.73465">
        <ele>1158.599976</ele>
        <time>2017-05-26T09:39:13Z</time>
      </trkpt>
      <trkpt lat="45.74833" lon="3.73451">
        <ele>1160.199951</ele>
        <time>2017-05-26T09:39:20Z</time>
      </trkpt>
      <trkpt lat="45.74835" lon="3.73437">
        <ele>1161.5</ele>
        <time>2017-05-26T09:39:27Z</time>
      </trkpt>
      <trkpt lat="45.7484" lon="3.73422">
        <ele>1162.199951</ele>
        <time>2017-05-26T09:39:33Z</time>
      </trkpt>
      <trkpt lat="45.74845" lon="3.7341">
        <ele>1162.599976</ele>
        <time>2017-05-26T09:39:37Z</time>
      </trkpt>
      <trkpt lat="45.7485" lon="3.73399">
        <ele>1163.199951</ele>
        <time>2017-05-26T09:39:42Z</time>
      </trkpt>
      <trkpt lat="45.74853" lon="3.73385">
        <ele>1163.800049</ele>
        <time>2017-05-26T09:39:47Z</time>
      </trkpt>
      <trkpt lat="45.74853" lon="3.73372">
        <ele>1164.300049</ele>
        <time>2017-05-26T09:39:51Z</time>
      </trkpt>
      <trkpt lat="45.74855" lon="3.73353">
        <ele>1164.599976</ele>
        <time>2017-05-26T09:39:55Z</time>
      </trkpt>
      <trkpt lat="45.74853" lon="3.73337">
        <ele>1164.699951</ele>
        <time>2017-05-26T09:39:58Z</time>
      </trkpt>
      <trkpt lat="45.74849" lon="3.73319">
        <ele>1164.599976</ele>
        <time>2017-05-26T09:40:01Z</time>
      </trkpt>
      <trkpt lat="45.74846" lon="3.73307">
        <ele>1164.5</ele>
        <time>2017-05-26T09:40:03Z</time>
      </trkpt>
      <trkpt lat="45.74841" lon="3.73293">
        <ele>1164.5</ele>
        <time>2017-05-26T09:40:06Z</time>
      </trkpt>
      <trkpt lat="45.74836" lon="3.73282">
        <ele>1164.400024</ele>
        <time>2017-05-26T09:40:09Z</time>
      </trkpt>
      <trkpt lat="45.74831" lon="3.73271">
        <ele>1164.800049</ele>
        <time>2017-05-26T09:40:12Z</time>
      </trkpt>
      <trkpt lat="45.74827" lon="3.73258">
        <ele>1165.199951</ele>
        <time>2017-05-26T09:40:15Z</time>
      </trkpt>
      <trkpt lat="45.7482" lon="3.73245">
        <ele>1166</ele>
        <time>2017-05-26T09:40:19Z</time>
      </trkpt>
      <trkpt lat="45.74815" lon="3.73233">
        <ele>1166.699951</ele>
        <time>2017-05-26T09:40:23Z</time>
      </trkpt>
      <trkpt lat="45.74807" lon="3.73223">
        <ele>1167.199951</ele>
        <time>2017-05-26T09:40:28Z</time>
      </trkpt>
      <trkpt lat="45.74798" lon="3.73215">
        <ele>1167.199951</ele>
        <time>2017-05-26T09:40:33Z</time>
      </trkpt>
      <trkpt lat="45.74789" lon="3.7321">
        <ele>1167.800049</ele>
        <time>2017-05-26T09:40:38Z</time>
      </trkpt>
      <trkpt lat="45.74779" lon="3.73205">
        <ele>1168.300049</ele>
        <time>2017-05-26T09:40:44Z</time>
      </trkpt>
      <trkpt lat="45.74778" lon="3.73192">
        <ele>1168.400024</ele>
        <time>2017-05-26T09:40:54Z</time>
      </trkpt>
      <trkpt lat="45.7477" lon="3.73183">
        <ele>1168.300049</ele>
        <time>2017-05-26T09:41:26Z</time>
      </trkpt>
      <trkpt lat="45.74765" lon="3.73171">
        <ele>1168.300049</ele>
        <time>2017-05-26T09:41:31Z</time>
      </trkpt>
      <trkpt lat="45.74757" lon="3.73159">
        <ele>1168.400024</ele>
        <time>2017-05-26T09:41:35Z</time>
      </trkpt>
      <trkpt lat="45.74748" lon="3.73147">
        <ele>1168.800049</ele>
        <time>2017-05-26T09:41:40Z</time>
      </trkpt>
      <trkpt lat="45.74742" lon="3.73135">
        <ele>1169.199951</ele>
        <time>2017-05-26T09:41:44Z</time>
      </trkpt>
      <trkpt lat="45.74737" lon="3.73121">
        <ele>1169.699951</ele>
        <time>2017-05-26T09:41:48Z</time>
      </trkpt>
      <trkpt lat="45.74732" lon="3.73109">
        <ele>1170.400024</ele>
        <time>2017-05-26T09:41:52Z</time>
      </trkpt>
      <trkpt lat="45.74725" lon="3.73098">
        <ele>1170.800049</ele>
        <time>2017-05-26T09:41:56Z</time>
      </trkpt>
      <trkpt lat="45.7472" lon="3.73085">
        <ele>1170.900024</ele>
        <time>2017-05-26T09:41:59Z</time>
      </trkpt>
      <trkpt lat="45.74714" lon="3.73073">
        <ele>1171</ele>
        <time>2017-05-26T09:42:03Z</time>
      </trkpt>
      <trkpt lat="45.74708" lon="3.73063">
        <ele>1171.099976</ele>
        <time>2017-05-26T09:42:06Z</time>
      </trkpt>
      <trkpt lat="45.74701" lon="3.73053">
        <ele>1171.199951</ele>
        <time>2017-05-26T09:42:11Z</time>
      </trkpt>
      <trkpt lat="45.74694" lon="3.73042">
        <ele>1171.400024</ele>
        <time>2017-05-26T09:42:17Z</time>
      </trkpt>
      <trkpt lat="45.74685" lon="3.73033">
        <ele>1171.900024</ele>
        <time>2017-05-26T09:42:22Z</time>
      </trkpt>
      <trkpt lat="45.74681" lon="3.73021">
        <ele>1172.199951</ele>
        <time>2017-05-26T09:42:26Z</time>
      </trkpt>
      <trkpt lat="45.74678" lon="3.73006">
        <ele>1172.300049</ele>
        <time>2017-05-26T09:42:30Z</time>
      </trkpt>
      <trkpt lat="45.74673" lon="3.72992">
        <ele>1172.599976</ele>
        <time>2017-05-26T09:42:35Z</time>
      </trkpt>
      <trkpt lat="45.74668" lon="3.72981">
        <ele>1173.099976</ele>
        <time>2017-05-26T09:42:40Z</time>
      </trkpt>
      <trkpt lat="45.74662" lon="3.7297">
        <ele>1173.199951</ele>
        <time>2017-05-26T09:42:44Z</time>
      </trkpt>
      <trkpt lat="45.74659" lon="3.72958">
        <ele>1173.199951</ele>
        <time>2017-05-26T09:42:49Z</time>
      </trkpt>
      <trkpt lat="45.74655" lon="3.72947">
        <ele>1173.800049</ele>
        <time>2017-05-26T09:42:55Z</time>
      </trkpt>
      <trkpt lat="45.74649" lon="3.72933">
        <ele>1174.300049</ele>
        <time>2017-05-26T09:43:01Z</time>
      </trkpt>
      <trkpt lat="45.74644" lon="3.72921">
        <ele>1174.400024</ele>
        <time>2017-05-26T09:43:05Z</time>
      </trkpt>
      <trkpt lat="45.74639" lon="3.72908">
        <ele>1174.400024</ele>
        <time>2017-05-26T09:43:10Z</time>
      </trkpt>
      <trkpt lat="45.74634" lon="3.72895">
        <ele>1174.5</ele>
        <time>2017-05-26T09:43:14Z</time>
      </trkpt>
      <trkpt lat="45.74631" lon="3.72881">
        <ele>1175</ele>
        <time>2017-05-26T09:43:19Z</time>
      </trkpt>
      <trkpt lat="45.74628" lon="3.72868">
        <ele>1175.300049</ele>
        <time>2017-05-26T09:43:24Z</time>
      </trkpt>
      <trkpt lat="45.74626" lon="3.72855">
        <ele>1175.599976</ele>
        <time>2017-05-26T09:43:29Z</time>
      </trkpt>
      <trkpt lat="45.74623" lon="3.7284">
        <ele>1176</ele>
        <time>2017-05-26T09:43:35Z</time>
      </trkpt>
      <trkpt lat="45.74622" lon="3.72827">
        <ele>1176.400024</ele>
        <time>2017-05-26T09:43:41Z</time>
      </trkpt>
      <trkpt lat="45.74623" lon="3.72812">
        <ele>1176.800049</ele>
        <time>2017-05-26T09:43:48Z</time>
      </trkpt>
      <trkpt lat="45.74623" lon="3.72798">
        <ele>1177.400024</ele>
        <time>2017-05-26T09:43:53Z</time>
      </trkpt>
      <trkpt lat="45.74625" lon="3.72783">
        <ele>1177.800049</ele>
        <time>2017-05-26T09:43:58Z</time>
      </trkpt>
      <trkpt lat="45.74627" lon="3.7277">
        <ele>1177.800049</ele>
        <time>2017-05-26T09:44:05Z</time>
      </trkpt>
      <trkpt lat="45.7463" lon="3.72758">
        <ele>1178.300049</ele>
        <time>2017-05-26T09:44:10Z</time>
      </trkpt>
      <trkpt lat="45.74633" lon="3.72744">
        <ele>1178.5</ele>
        <time>2017-05-26T09:44:15Z</time>
      </trkpt>
      <trkpt lat="45.74639" lon="3.7273">
        <ele>1178.800049</ele>
        <time>2017-05-26T09:44:21Z</time>
      </trkpt>
      <trkpt lat="45.74644" lon="3.72717">
        <ele>1179.099976</ele>
        <time>2017-05-26T09:44:27Z</time>
      </trkpt>
      <trkpt lat="45.74644" lon="3.72703">
        <ele>1179</ele>
        <time>2017-05-26T09:44:36Z</time>
      </trkpt>
      <trkpt lat="45.74648" lon="3.7269">
        <ele>1178.699951</ele>
        <time>2017-05-26T09:44:46Z</time>
      </trkpt>
      <trkpt lat="45.74647" lon="3.72676">
        <ele>1178.900024</ele>
        <time>2017-05-26T09:45:00Z</time>
      </trkpt>
      <trkpt lat="45.74652" lon="3.72664">
        <ele>1179</ele>
        <time>2017-05-26T09:45:09Z</time>
      </trkpt>
      <trkpt lat="45.74654" lon="3.72651">
        <ele>1179.800049</ele>
        <time>2017-05-26T09:45:22Z</time>
      </trkpt>
      <trkpt lat="45.74655" lon="3.72636">
        <ele>1179.800049</ele>
        <time>2017-05-26T09:45:28Z</time>
      </trkpt>
      <trkpt lat="45.74653" lon="3.72621">
        <ele>1179.5</ele>
        <time>2017-05-26T09:45:32Z</time>
      </trkpt>
      <trkpt lat="45.74651" lon="3.72608">
        <ele>1179.5</ele>
        <time>2017-05-26T09:45:35Z</time>
      </trkpt>
      <trkpt lat="45.74651" lon="3.72595">
        <ele>1180.300049</ele>
        <time>2017-05-26T09:45:39Z</time>
      </trkpt>
      <trkpt lat="45.74647" lon="3.72581">
        <ele>1181.400024</ele>
        <time>2017-05-26T09:45:43Z</time>
      </trkpt>
      <trkpt lat="45.7465" lon="3.72568">
        <ele>1181.599976</ele>
        <time>2017-05-26T09:45:46Z</time>
      </trkpt>
      <trkpt lat="45.74652" lon="3.72553">
        <ele>1181.699951</ele>
        <time>2017-05-26T09:45:50Z</time>
      </trkpt>
      <trkpt lat="45.74652" lon="3.72539">
        <ele>1181.300049</ele>
        <time>2017-05-26T09:45:53Z</time>
      </trkpt>
      <trkpt lat="45.74652" lon="3.72524">
        <ele>1181.199951</ele>
        <time>2017-05-26T09:45:57Z</time>
      </trkpt>
      <trkpt lat="45.74651" lon="3.72509">
        <ele>1181.800049</ele>
        <time>2017-05-26T09:46:02Z</time>
      </trkpt>
      <trkpt lat="45.74653" lon="3.72497">
        <ele>1182.199951</ele>
        <time>2017-05-26T09:46:05Z</time>
      </trkpt>
      <trkpt lat="45.7466" lon="3.72482">
        <ele>1182.400024</ele>
        <time>2017-05-26T09:46:09Z</time>
      </trkpt>
      <trkpt lat="45.74665" lon="3.72469">
        <ele>1182.599976</ele>
        <time>2017-05-26T09:46:13Z</time>
      </trkpt>
      <trkpt lat="45.74672" lon="3.72458">
        <ele>1182.699951</ele>
        <time>2017-05-26T09:46:17Z</time>
      </trkpt>
      <trkpt lat="45.74679" lon="3.72443">
        <ele>1182.599976</ele>
        <time>2017-05-26T09:46:21Z</time>
      </trkpt>
      <trkpt lat="45.74684" lon="3.7243">
        <ele>1182.400024</ele>
        <time>2017-05-26T09:46:24Z</time>
      </trkpt>
      <trkpt lat="45.74688" lon="3.72414">
        <ele>1182.199951</ele>
        <time>2017-05-26T09:46:27Z</time>
      </trkpt>
      <trkpt lat="45.7469" lon="3.72399">
        <ele>1182.099976</ele>
        <time>2017-05-26T09:46:29Z</time>
      </trkpt>
      <trkpt lat="45.74694" lon="3.72384">
        <ele>1182</ele>
        <time>2017-05-26T09:46:32Z</time>
      </trkpt>
      <trkpt lat="45.74697" lon="3.7237">
        <ele>1181.699951</ele>
        <time>2017-05-26T09:46:35Z</time>
      </trkpt>
      <trkpt lat="45.74701" lon="3.72355">
        <ele>1181.300049</ele>
        <time>2017-05-26T09:46:39Z</time>
      </trkpt>
      <trkpt lat="45.74706" lon="3.72343">
        <ele>1181.099976</ele>
        <time>2017-05-26T09:46:43Z</time>
      </trkpt>
      <trkpt lat="45.74711" lon="3.7233">
        <ele>1181.199951</ele>
        <time>2017-05-26T09:46:47Z</time>
      </trkpt>
      <trkpt lat="45.74714" lon="3.72314">
        <ele>1181.199951</ele>
        <time>2017-05-26T09:46:51Z</time>
      </trkpt>
      <trkpt lat="45.74717" lon="3.72297">
        <ele>1180.800049</ele>
        <time>2017-05-26T09:46:55Z</time>
      </trkpt>
      <trkpt lat="45.7472" lon="3.72281">
        <ele>1179.900024</ele>
        <time>2017-05-26T09:46:57Z</time>
      </trkpt>
      <trkpt lat="45.74723" lon="3.72262">
        <ele>1179.300049</ele>
        <time>2017-05-26T09:46:59Z</time>
      </trkpt>
      <trkpt lat="45.74728" lon="3.72243">
        <ele>1178.5</ele>
        <time>2017-05-26T09:47:01Z</time>
      </trkpt>
      <trkpt lat="45.74731" lon="3.72224">
        <ele>1177.800049</ele>
        <time>2017-05-26T09:47:03Z</time>
      </trkpt>
      <trkpt lat="45.74733" lon="3.72206">
        <ele>1177.199951</ele>
        <time>2017-05-26T09:47:05Z</time>
      </trkpt>
      <trkpt lat="45.74733" lon="3.72188">
        <ele>1176.5</ele>
        <time>2017-05-26T09:47:07Z</time>
      </trkpt>
      <trkpt lat="45.74732" lon="3.72173">
        <ele>1176.300049</ele>
        <time>2017-05-26T09:47:09Z</time>
      </trkpt>
      <trkpt lat="45.74731" lon="3.7216">
        <ele>1176.300049</ele>
        <time>2017-05-26T09:47:11Z</time>
      </trkpt>
      <trkpt lat="45.74729" lon="3.72144">
        <ele>1177</ele>
        <time>2017-05-26T09:47:14Z</time>
      </trkpt>
      <trkpt lat="45.74727" lon="3.72129">
        <ele>1176.599976</ele>
        <time>2017-05-26T09:47:19Z</time>
      </trkpt>
      <trkpt lat="45.74725" lon="3.72112">
        <ele>1176.099976</ele>
        <time>2017-05-26T09:47:23Z</time>
      </trkpt>
      <trkpt lat="45.74726" lon="3.72097">
        <ele>1175.599976</ele>
        <time>2017-05-26T09:47:26Z</time>
      </trkpt>
      <trkpt lat="45.74726" lon="3.7208">
        <ele>1175</ele>
        <time>2017-05-26T09:47:29Z</time>
      </trkpt>
      <trkpt lat="45.7473" lon="3.72063">
        <ele>1174.599976</ele>
        <time>2017-05-26T09:47:33Z</time>
      </trkpt>
      <trkpt lat="45.74738" lon="3.72051">
        <ele>1174.199951</ele>
        <time>2017-05-26T09:47:36Z</time>
      </trkpt>
      <trkpt lat="45.74746" lon="3.72038">
        <ele>1173.699951</ele>
        <time>2017-05-26T09:47:39Z</time>
      </trkpt>
      <trkpt lat="45.74753" lon="3.72029">
        <ele>1173.400024</ele>
        <time>2017-05-26T09:47:41Z</time>
      </trkpt>
      <trkpt lat="45.74762" lon="3.7202">
        <ele>1173</ele>
        <time>2017-05-26T09:47:43Z</time>
      </trkpt>
      <trkpt lat="45.74772" lon="3.72007">
        <ele>1172.199951</ele>
        <time>2017-05-26T09:47:46Z</time>
      </trkpt>
      <trkpt lat="45.74779" lon="3.71996">
        <ele>1171.800049</ele>
        <time>2017-05-26T09:47:48Z</time>
      </trkpt>
      <trkpt lat="45.74783" lon="3.7198">
        <ele>1171.199951</ele>
        <time>2017-05-26T09:47:50Z</time>
      </trkpt>
      <trkpt lat="45.74787" lon="3.71964">
        <ele>1170.400024</ele>
        <time>2017-05-26T09:47:52Z</time>
      </trkpt>
      <trkpt lat="45.74792" lon="3.71948">
        <ele>1168.900024</ele>
        <time>2017-05-26T09:47:54Z</time>
      </trkpt>
      <trkpt lat="45.74798" lon="3.71928">
        <ele>1166.400024</ele>
        <time>2017-05-26T09:47:56Z</time>
      </trkpt>
      <trkpt lat="45.74801" lon="3.71915">
        <ele>1165</ele>
        <time>2017-05-26T09:47:58Z</time>
      </trkpt>
      <trkpt lat="45.74805" lon="3.71901">
        <ele>1164.199951</ele>
        <time>2017-05-26T09:48:01Z</time>
      </trkpt>
      <trkpt lat="45.74808" lon="3.71887">
        <ele>1163.199951</ele>
        <time>2017-05-26T09:48:05Z</time>
      </trkpt>
      <trkpt lat="45.74807" lon="3.71873">
        <ele>1162.400024</ele>
        <time>2017-05-26T09:48:09Z</time>
      </trkpt>
      <trkpt lat="45.74806" lon="3.71858">
        <ele>1161.900024</ele>
        <time>2017-05-26T09:48:12Z</time>
      </trkpt>
      <trkpt lat="45.74804" lon="3.71846">
        <ele>1161.599976</ele>
        <time>2017-05-26T09:48:14Z</time>
      </trkpt>
      <trkpt lat="45.74799" lon="3.71832">
        <ele>1161.099976</ele>
        <time>2017-05-26T09:48:16Z</time>
      </trkpt>
      <trkpt lat="45.74794" lon="3.71819">
        <ele>1160.5</ele>
        <time>2017-05-26T09:48:18Z</time>
      </trkpt>
      <trkpt lat="45.74788" lon="3.71805">
        <ele>1159.800049</ele>
        <time>2017-05-26T09:48:20Z</time>
      </trkpt>
      <trkpt lat="45.74782" lon="3.71789">
        <ele>1159</ele>
        <time>2017-05-26T09:48:22Z</time>
      </trkpt>
      <trkpt lat="45.74774" lon="3.71771">
        <ele>1157.800049</ele>
        <time>2017-05-26T09:48:24Z</time>
      </trkpt>
      <trkpt lat="45.74768" lon="3.71749">
        <ele>1156.300049</ele>
        <time>2017-05-26T09:48:26Z</time>
      </trkpt>
      <trkpt lat="45.74759" lon="3.71727">
        <ele>1154.699951</ele>
        <time>2017-05-26T09:48:28Z</time>
      </trkpt>
      <trkpt lat="45.74756" lon="3.71707">
        <ele>1153.300049</ele>
        <time>2017-05-26T09:48:30Z</time>
      </trkpt>
      <trkpt lat="45.74758" lon="3.71692">
        <ele>1151.400024</ele>
        <time>2017-05-26T09:48:33Z</time>
      </trkpt>
      <trkpt lat="45.74768" lon="3.71694">
        <ele>1149.699951</ele>
        <time>2017-05-26T09:48:38Z</time>
      </trkpt>
      <trkpt lat="45.74778" lon="3.71701">
        <ele>1149.599976</ele>
        <time>2017-05-26T09:48:42Z</time>
      </trkpt>
      <trkpt lat="45.74787" lon="3.71712">
        <ele>1149.900024</ele>
        <time>2017-05-26T09:48:47Z</time>
      </trkpt>
      <trkpt lat="45.74796" lon="3.71719">
        <ele>1150.300049</ele>
        <time>2017-05-26T09:48:51Z</time>
      </trkpt>
      <trkpt lat="45.74804" lon="3.71726">
        <ele>1150.699951</ele>
        <time>2017-05-26T09:48:55Z</time>
      </trkpt>
      <trkpt lat="45.74814" lon="3.71732">
        <ele>1151.199951</ele>
        <time>2017-05-26T09:49:00Z</time>
      </trkpt>
      <trkpt lat="45.74825" lon="3.71733">
        <ele>1151.300049</ele>
        <time>2017-05-26T09:49:03Z</time>
      </trkpt>
      <trkpt lat="45.74834" lon="3.71738">
        <ele>1151.699951</ele>
        <time>2017-05-26T09:49:07Z</time>
      </trkpt>
      <trkpt lat="45.74847" lon="3.71741">
        <ele>1151.900024</ele>
        <time>2017-05-26T09:49:11Z</time>
      </trkpt>
      <trkpt lat="45.74856" lon="3.71746">
        <ele>1151.900024</ele>
        <time>2017-05-26T09:49:14Z</time>
      </trkpt>
      <trkpt lat="45.74865" lon="3.71752">
        <ele>1152</ele>
        <time>2017-05-26T09:49:17Z</time>
      </trkpt>
      <trkpt lat="45.74877" lon="3.71758">
        <ele>1151.900024</ele>
        <time>2017-05-26T09:49:20Z</time>
      </trkpt>
      <trkpt lat="45.74888" lon="3.71765">
        <ele>1151.800049</ele>
        <time>2017-05-26T09:49:23Z</time>
      </trkpt>
      <trkpt lat="45.74898" lon="3.71772">
        <ele>1151.900024</ele>
        <time>2017-05-26T09:49:26Z</time>
      </trkpt>
      <trkpt lat="45.74909" lon="3.71774">
        <ele>1152</ele>
        <time>2017-05-26T09:49:29Z</time>
      </trkpt>
      <trkpt lat="45.74921" lon="3.71774">
        <ele>1152</ele>
        <time>2017-05-26T09:49:34Z</time>
      </trkpt>
      <trkpt lat="45.74928" lon="3.71764">
        <ele>1152.5</ele>
        <time>2017-05-26T09:50:14Z</time>
      </trkpt>
      <trkpt lat="45.74938" lon="3.71761">
        <ele>1152.300049</ele>
        <time>2017-05-26T09:50:30Z</time>
      </trkpt>
      <trkpt lat="45.74949" lon="3.71763">
        <ele>1152.5</ele>
        <time>2017-05-26T09:50:34Z</time>
      </trkpt>
      <trkpt lat="45.7496" lon="3.71764">
        <ele>1152.400024</ele>
        <time>2017-05-26T09:50:37Z</time>
      </trkpt>
      <trkpt lat="45.74971" lon="3.7176">
        <ele>1152.5</ele>
        <time>2017-05-26T09:50:40Z</time>
      </trkpt>
      <trkpt lat="45.7498" lon="3.71755">
        <ele>1152.599976</ele>
        <time>2017-05-26T09:50:42Z</time>
      </trkpt>
      <trkpt lat="45.74989" lon="3.7175">
        <ele>1152.599976</ele>
        <time>2017-05-26T09:50:44Z</time>
      </trkpt>
      <trkpt lat="45.75" lon="3.71746">
        <ele>1152.400024</ele>
        <time>2017-05-26T09:50:47Z</time>
      </trkpt>
      <trkpt lat="45.7501" lon="3.71743">
        <ele>1152.300049</ele>
        <time>2017-05-26T09:50:50Z</time>
      </trkpt>
      <trkpt lat="45.7502" lon="3.71741">
        <ele>1152.199951</ele>
        <time>2017-05-26T09:50:53Z</time>
      </trkpt>
      <trkpt lat="45.75033" lon="3.71736">
        <ele>1152</ele>
        <time>2017-05-26T09:50:56Z</time>
      </trkpt>
      <trkpt lat="45.75044" lon="3.7173">
        <ele>1151.900024</ele>
        <time>2017-05-26T09:50:58Z</time>
      </trkpt>
      <trkpt lat="45.75057" lon="3.71722">
        <ele>1151.699951</ele>
        <time>2017-05-26T09:51:00Z</time>
      </trkpt>
      <trkpt lat="45.7507" lon="3.71714">
        <ele>1151.400024</ele>
        <time>2017-05-26T09:51:02Z</time>
      </trkpt>
      <trkpt lat="45.7508" lon="3.71707">
        <ele>1151</ele>
        <time>2017-05-26T09:51:04Z</time>
      </trkpt>
      <trkpt lat="45.75089" lon="3.71701">
        <ele>1150.699951</ele>
        <time>2017-05-26T09:51:06Z</time>
      </trkpt>
      <trkpt lat="45.751" lon="3.717">
        <ele>1149.800049</ele>
        <time>2017-05-26T09:51:09Z</time>
      </trkpt>
      <trkpt lat="45.75109" lon="3.71702">
        <ele>1149.199951</ele>
        <time>2017-05-26T09:51:11Z</time>
      </trkpt>
      <trkpt lat="45.75125" lon="3.71701">
        <ele>1148.699951</ele>
        <time>2017-05-26T09:51:13Z</time>
      </trkpt>
      <trkpt lat="45.7514" lon="3.71699">
        <ele>1148.099976</ele>
        <time>2017-05-26T09:51:15Z</time>
      </trkpt>
      <trkpt lat="45.75157" lon="3.71694">
        <ele>1147.400024</ele>
        <time>2017-05-26T09:51:17Z</time>
      </trkpt>
      <trkpt lat="45.75171" lon="3.7169">
        <ele>1146.599976</ele>
        <time>2017-05-26T09:51:19Z</time>
      </trkpt>
      <trkpt lat="45.75186" lon="3.71686">
        <ele>1145.699951</ele>
        <time>2017-05-26T09:51:21Z</time>
      </trkpt>
      <trkpt lat="45.75202" lon="3.71685">
        <ele>1144.599976</ele>
        <time>2017-05-26T09:51:23Z</time>
      </trkpt>
      <trkpt lat="45.75215" lon="3.71683">
        <ele>1143.800049</ele>
        <time>2017-05-26T09:51:24Z</time>
      </trkpt>
      <trkpt lat="45.75226" lon="3.71685">
        <ele>1143.099976</ele>
        <time>2017-05-26T09:51:25Z</time>
      </trkpt>
      <trkpt lat="45.75237" lon="3.71688">
        <ele>1142.5</ele>
        <time>2017-05-26T09:51:26Z</time>
      </trkpt>
      <trkpt lat="45.75246" lon="3.71693">
        <ele>1141.599976</ele>
        <time>2017-05-26T09:51:27Z</time>
      </trkpt>
      <trkpt lat="45.75254" lon="3.71699">
        <ele>1140.900024</ele>
        <time>2017-05-26T09:51:28Z</time>
      </trkpt>
      <trkpt lat="45.75263" lon="3.71706">
        <ele>1140.300049</ele>
        <time>2017-05-26T09:51:29Z</time>
      </trkpt>
      <trkpt lat="45.75271" lon="3.71716">
        <ele>1139.5</ele>
        <time>2017-05-26T09:51:30Z</time>
      </trkpt>
      <trkpt lat="45.75279" lon="3.71726">
        <ele>1138.699951</ele>
        <time>2017-05-26T09:51:31Z</time>
      </trkpt>
      <trkpt lat="45.75288" lon="3.71734">
        <ele>1138</ele>
        <time>2017-05-26T09:51:32Z</time>
      </trkpt>
      <trkpt lat="45.75296" lon="3.71742">
        <ele>1137.300049</ele>
        <time>2017-05-26T09:51:33Z</time>
      </trkpt>
      <trkpt lat="45.75308" lon="3.71747">
        <ele>1136.5</ele>
        <time>2017-05-26T09:51:34Z</time>
      </trkpt>
      <trkpt lat="45.75318" lon="3.71753">
        <ele>1135.900024</ele>
        <time>2017-05-26T09:51:35Z</time>
      </trkpt>
      <trkpt lat="45.75331" lon="3.71762">
        <ele>1134.199951</ele>
        <time>2017-05-26T09:51:37Z</time>
      </trkpt>
      <trkpt lat="45.75348" lon="3.71759">
        <ele>1132.699951</ele>
        <time>2017-05-26T09:51:39Z</time>
      </trkpt>
      <trkpt lat="45.75361" lon="3.71756">
        <ele>1131.300049</ele>
        <time>2017-05-26T09:51:41Z</time>
      </trkpt>
      <trkpt lat="45.75373" lon="3.71757">
        <ele>1129.800049</ele>
        <time>2017-05-26T09:51:43Z</time>
      </trkpt>
      <trkpt lat="45.75383" lon="3.71758">
        <ele>1128.400024</ele>
        <time>2017-05-26T09:51:45Z</time>
      </trkpt>
      <trkpt lat="45.7539" lon="3.71768">
        <ele>1125.900024</ele>
        <time>2017-05-26T09:51:51Z</time>
      </trkpt>
      <trkpt lat="45.754" lon="3.71766">
        <ele>1124.400024</ele>
        <time>2017-05-26T09:52:12Z</time>
      </trkpt>
      <trkpt lat="45.754" lon="3.71779">
        <ele>1124.400024</ele>
        <time>2017-05-26T09:52:24Z</time>
      </trkpt>
      <trkpt lat="45.75403" lon="3.71796">
        <ele>1123.599976</ele>
        <time>2017-05-26T09:52:27Z</time>
      </trkpt>
      <trkpt lat="45.75404" lon="3.71813">
        <ele>1123.099976</ele>
        <time>2017-05-26T09:52:29Z</time>
      </trkpt>
      <trkpt lat="45.75404" lon="3.7183">
        <ele>1122.400024</ele>
        <time>2017-05-26T09:52:31Z</time>
      </trkpt>
      <trkpt lat="45.75403" lon="3.71844">
        <ele>1121.5</ele>
        <time>2017-05-26T09:52:33Z</time>
      </trkpt>
      <trkpt lat="45.754" lon="3.71859">
        <ele>1120.900024</ele>
        <time>2017-05-26T09:52:35Z</time>
      </trkpt>
      <trkpt lat="45.75398" lon="3.71874">
        <ele>1120.300049</ele>
        <time>2017-05-26T09:52:38Z</time>
      </trkpt>
      <trkpt lat="45.75395" lon="3.7189">
        <ele>1119.300049</ele>
        <time>2017-05-26T09:52:42Z</time>
      </trkpt>
      <trkpt lat="45.75394" lon="3.71906">
        <ele>1119.099976</ele>
        <time>2017-05-26T09:52:46Z</time>
      </trkpt>
      <trkpt lat="45.75395" lon="3.71921">
        <ele>1119.400024</ele>
        <time>2017-05-26T09:52:49Z</time>
      </trkpt>
      <trkpt lat="45.75393" lon="3.71938">
        <ele>1120.199951</ele>
        <time>2017-05-26T09:52:53Z</time>
      </trkpt>
      <trkpt lat="45.7539" lon="3.71952">
        <ele>1120.5</ele>
        <time>2017-05-26T09:52:55Z</time>
      </trkpt>
      <trkpt lat="45.75388" lon="3.71968">
        <ele>1120.900024</ele>
        <time>2017-05-26T09:52:58Z</time>
      </trkpt>
      <trkpt lat="45.75393" lon="3.71982">
        <ele>1120.5</ele>
        <time>2017-05-26T09:53:01Z</time>
      </trkpt>
      <trkpt lat="45.75398" lon="3.71993">
        <ele>1119.699951</ele>
        <time>2017-05-26T09:53:04Z</time>
      </trkpt>
      <trkpt lat="45.75402" lon="3.72005">
        <ele>1119.400024</ele>
        <time>2017-05-26T09:53:07Z</time>
      </trkpt>
      <trkpt lat="45.75405" lon="3.7202">
        <ele>1119</ele>
        <time>2017-05-26T09:53:10Z</time>
      </trkpt>
      <trkpt lat="45.75415" lon="3.72031">
        <ele>1118.800049</ele>
        <time>2017-05-26T09:53:13Z</time>
      </trkpt>
      <trkpt lat="45.75421" lon="3.72042">
        <ele>1118.300049</ele>
        <time>2017-05-26T09:53:15Z</time>
      </trkpt>
      <trkpt lat="45.75424" lon="3.72057">
        <ele>1117.900024</ele>
        <time>2017-05-26T09:53:17Z</time>
      </trkpt>
      <trkpt lat="45.75428" lon="3.72069">
        <ele>1117.099976</ele>
        <time>2017-05-26T09:53:19Z</time>
      </trkpt>
      <trkpt lat="45.7543" lon="3.72085">
        <ele>1116.599976</ele>
        <time>2017-05-26T09:53:21Z</time>
      </trkpt>
      <trkpt lat="45.75432" lon="3.72098">
        <ele>1116</ele>
        <time>2017-05-26T09:53:23Z</time>
      </trkpt>
      <trkpt lat="45.75436" lon="3.7211">
        <ele>1115.5</ele>
        <time>2017-05-26T09:53:25Z</time>
      </trkpt>
      <trkpt lat="45.75438" lon="3.72129">
        <ele>1114.900024</ele>
        <time>2017-05-26T09:53:28Z</time>
      </trkpt>
      <trkpt lat="45.75442" lon="3.72142">
        <ele>1114.599976</ele>
        <time>2017-05-26T09:53:30Z</time>
      </trkpt>
      <trkpt lat="45.75446" lon="3.72158">
        <ele>1114.099976</ele>
        <time>2017-05-26T09:53:33Z</time>
      </trkpt>
      <trkpt lat="45.75453" lon="3.72171">
        <ele>1113</ele>
        <time>2017-05-26T09:53:36Z</time>
      </trkpt>
      <trkpt lat="45.7546" lon="3.72184">
        <ele>1111.900024</ele>
        <time>2017-05-26T09:53:40Z</time>
      </trkpt>
      <trkpt lat="45.75471" lon="3.72191">
        <ele>1111.099976</ele>
        <time>2017-05-26T09:53:43Z</time>
      </trkpt>
      <trkpt lat="45.75477" lon="3.72202">
        <ele>1110.099976</ele>
        <time>2017-05-26T09:53:48Z</time>
      </trkpt>
      <trkpt lat="45.75486" lon="3.72206">
        <ele>1108.5</ele>
        <time>2017-05-26T09:53:59Z</time>
      </trkpt>
      <trkpt lat="45.75492" lon="3.72217">
        <ele>1108.5</ele>
        <time>2017-05-26T09:54:03Z</time>
      </trkpt>
      <trkpt lat="45.75499" lon="3.72227">
        <ele>1107.900024</ele>
        <time>2017-05-26T09:54:06Z</time>
      </trkpt>
      <trkpt lat="45.75506" lon="3.72236">
        <ele>1107.400024</ele>
        <time>2017-05-26T09:54:08Z</time>
      </trkpt>
      <trkpt lat="45.75513" lon="3.72251">
        <ele>1106.199951</ele>
        <time>2017-05-26T09:54:11Z</time>
      </trkpt>
      <trkpt lat="45.75517" lon="3.72264">
        <ele>1104.900024</ele>
        <time>2017-05-26T09:54:14Z</time>
      </trkpt>
      <trkpt lat="45.75521" lon="3.72278">
        <ele>1103.599976</ele>
        <time>2017-05-26T09:54:17Z</time>
      </trkpt>
      <trkpt lat="45.75523" lon="3.72291">
        <ele>1101.199951</ele>
        <time>2017-05-26T09:54:21Z</time>
      </trkpt>
      <trkpt lat="45.75528" lon="3.72305">
        <ele>1099.400024</ele>
        <time>2017-05-26T09:54:26Z</time>
      </trkpt>
      <trkpt lat="45.75531" lon="3.7232">
        <ele>1098.300049</ele>
        <time>2017-05-26T09:54:29Z</time>
      </trkpt>
      <trkpt lat="45.75534" lon="3.72334">
        <ele>1096.5</ele>
        <time>2017-05-26T09:54:33Z</time>
      </trkpt>
      <trkpt lat="45.75535" lon="3.72352">
        <ele>1095</ele>
        <time>2017-05-26T09:54:37Z</time>
      </trkpt>
      <trkpt lat="45.75533" lon="3.72369">
        <ele>1094.099976</ele>
        <time>2017-05-26T09:54:39Z</time>
      </trkpt>
      <trkpt lat="45.75532" lon="3.72385">
        <ele>1093.099976</ele>
        <time>2017-05-26T09:54:41Z</time>
      </trkpt>
      <trkpt lat="45.75532" lon="3.72399">
        <ele>1091.5</ele>
        <time>2017-05-26T09:54:43Z</time>
      </trkpt>
      <trkpt lat="45.75536" lon="3.72411">
        <ele>1090.099976</ele>
        <time>2017-05-26T09:54:46Z</time>
      </trkpt>
      <trkpt lat="45.75536" lon="3.72425">
        <ele>1088.199951</ele>
        <time>2017-05-26T09:54:50Z</time>
      </trkpt>
      <trkpt lat="45.75538" lon="3.7244">
        <ele>1087.099976</ele>
        <time>2017-05-26T09:54:53Z</time>
      </trkpt>
      <trkpt lat="45.75543" lon="3.72458">
        <ele>1085.5</ele>
        <time>2017-05-26T09:54:56Z</time>
      </trkpt>
      <trkpt lat="45.75546" lon="3.72472">
        <ele>1084</ele>
        <time>2017-05-26T09:54:58Z</time>
      </trkpt>
      <trkpt lat="45.75549" lon="3.7249">
        <ele>1082.599976</ele>
        <time>2017-05-26T09:55:00Z</time>
      </trkpt>
      <trkpt lat="45.75552" lon="3.72502">
        <ele>1080.699951</ele>
        <time>2017-05-26T09:55:03Z</time>
      </trkpt>
      <trkpt lat="45.75563" lon="3.72507">
        <ele>1077.400024</ele>
        <time>2017-05-26T09:55:10Z</time>
      </trkpt>
      <trkpt lat="45.7557" lon="3.72516">
        <ele>1075.699951</ele>
        <time>2017-05-26T09:55:24Z</time>
      </trkpt>
      <trkpt lat="45.75566" lon="3.72503">
        <ele>1075.699951</ele>
        <time>2017-05-26T09:56:15Z</time>
      </trkpt>
      <trkpt lat="45.75567" lon="3.72487">
        <ele>1075.400024</ele>
        <time>2017-05-26T09:56:19Z</time>
      </trkpt>
      <trkpt lat="45.75567" lon="3.72473">
        <ele>1075.099976</ele>
        <time>2017-05-26T09:56:22Z</time>
      </trkpt>
      <trkpt lat="45.75571" lon="3.72456">
        <ele>1074.800049</ele>
        <time>2017-05-26T09:56:26Z</time>
      </trkpt>
      <trkpt lat="45.75576" lon="3.72442">
        <ele>1074.800049</ele>
        <time>2017-05-26T09:56:30Z</time>
      </trkpt>
      <trkpt lat="45.75582" lon="3.72432">
        <ele>1074.5</ele>
        <time>2017-05-26T09:56:33Z</time>
      </trkpt>
      <trkpt lat="45.75589" lon="3.72419">
        <ele>1074.400024</ele>
        <time>2017-05-26T09:56:37Z</time>
      </trkpt>
      <trkpt lat="45.75593" lon="3.72405">
        <ele>1074.199951</ele>
        <time>2017-05-26T09:56:42Z</time>
      </trkpt>
      <trkpt lat="45.75599" lon="3.72392">
        <ele>1073.800049</ele>
        <time>2017-05-26T09:56:46Z</time>
      </trkpt>
      <trkpt lat="45.75605" lon="3.72378">
        <ele>1073.199951</ele>
        <time>2017-05-26T09:56:49Z</time>
      </trkpt>
      <trkpt lat="45.75608" lon="3.72364">
        <ele>1072.300049</ele>
        <time>2017-05-26T09:56:52Z</time>
      </trkpt>
      <trkpt lat="45.75615" lon="3.72352">
        <ele>1071.699951</ele>
        <time>2017-05-26T09:56:55Z</time>
      </trkpt>
      <trkpt lat="45.75622" lon="3.72343">
        <ele>1070.800049</ele>
        <time>2017-05-26T09:56:58Z</time>
      </trkpt>
      <trkpt lat="45.75629" lon="3.72332">
        <ele>1069.800049</ele>
        <time>2017-05-26T09:57:01Z</time>
      </trkpt>
      <trkpt lat="45.75636" lon="3.72322">
        <ele>1069.099976</ele>
        <time>2017-05-26T09:57:03Z</time>
      </trkpt>
      <trkpt lat="45.75642" lon="3.72309">
        <ele>1068.199951</ele>
        <time>2017-05-26T09:57:05Z</time>
      </trkpt>
      <trkpt lat="45.7565" lon="3.72297">
        <ele>1067.400024</ele>
        <time>2017-05-26T09:57:07Z</time>
      </trkpt>
      <trkpt lat="45.75656" lon="3.72284">
        <ele>1066.599976</ele>
        <time>2017-05-26T09:57:09Z</time>
      </trkpt>
      <trkpt lat="45.7566" lon="3.72269">
        <ele>1066</ele>
        <time>2017-05-26T09:57:11Z</time>
      </trkpt>
      <trkpt lat="45.75665" lon="3.72254">
        <ele>1065.400024</ele>
        <time>2017-05-26T09:57:13Z</time>
      </trkpt>
      <trkpt lat="45.75667" lon="3.72241">
        <ele>1064.699951</ele>
        <time>2017-05-26T09:57:15Z</time>
      </trkpt>
      <trkpt lat="45.75671" lon="3.72224">
        <ele>1063.800049</ele>
        <time>2017-05-26T09:57:18Z</time>
      </trkpt>
      <trkpt lat="45.75676" lon="3.72212">
        <ele>1063</ele>
        <time>2017-05-26T09:57:21Z</time>
      </trkpt>
      <trkpt lat="45.7568" lon="3.722">
        <ele>1062.199951</ele>
        <time>2017-05-26T09:57:24Z</time>
      </trkpt>
      <trkpt lat="45.75684" lon="3.72188">
        <ele>1060.699951</ele>
        <time>2017-05-26T09:57:28Z</time>
      </trkpt>
      <trkpt lat="45.75689" lon="3.72175">
        <ele>1059.300049</ele>
        <time>2017-05-26T09:57:34Z</time>
      </trkpt>
      <trkpt lat="45.75691" lon="3.72162">
        <ele>1058.099976</ele>
        <time>2017-05-26T09:58:00Z</time>
      </trkpt>
      <trkpt lat="45.75694" lon="3.72149">
        <ele>1057.300049</ele>
        <time>2017-05-26T09:58:23Z</time>
      </trkpt>
      <trkpt lat="45.75693" lon="3.72135">
        <ele>1056.900024</ele>
        <time>2017-05-26T09:58:38Z</time>
      </trkpt>
      <trkpt lat="45.75697" lon="3.72119">
        <ele>1056.699951</ele>
        <time>2017-05-26T09:58:41Z</time>
      </trkpt>
      <trkpt lat="45.757" lon="3.72104">
        <ele>1056.5</ele>
        <time>2017-05-26T09:58:43Z</time>
      </trkpt>
      <trkpt lat="45.75702" lon="3.72089">
        <ele>1056.199951</ele>
        <time>2017-05-26T09:58:45Z</time>
      </trkpt>
      <trkpt lat="45.75706" lon="3.72073">
        <ele>1055.900024</ele>
        <time>2017-05-26T09:58:47Z</time>
      </trkpt>
      <trkpt lat="45.75712" lon="3.72057">
        <ele>1055.5</ele>
        <time>2017-05-26T09:58:49Z</time>
      </trkpt>
      <trkpt lat="45.75717" lon="3.7204">
        <ele>1054.900024</ele>
        <time>2017-05-26T09:58:51Z</time>
      </trkpt>
      <trkpt lat="45.75721" lon="3.72022">
        <ele>1054.300049</ele>
        <time>2017-05-26T09:58:53Z</time>
      </trkpt>
      <trkpt lat="45.75721" lon="3.72003">
        <ele>1053.599976</ele>
        <time>2017-05-26T09:58:55Z</time>
      </trkpt>
      <trkpt lat="45.75718" lon="3.71984">
        <ele>1052.900024</ele>
        <time>2017-05-26T09:58:57Z</time>
      </trkpt>
      <trkpt lat="45.75712" lon="3.71967">
        <ele>1052.199951</ele>
        <time>2017-05-26T09:58:59Z</time>
      </trkpt>
      <trkpt lat="45.75706" lon="3.71947">
        <ele>1051.5</ele>
        <time>2017-05-26T09:59:01Z</time>
      </trkpt>
      <trkpt lat="45.75702" lon="3.71927">
        <ele>1050.699951</ele>
        <time>2017-05-26T09:59:03Z</time>
      </trkpt>
      <trkpt lat="45.757" lon="3.71907">
        <ele>1049.5</ele>
        <time>2017-05-26T09:59:05Z</time>
      </trkpt>
      <trkpt lat="45.75701" lon="3.71886">
        <ele>1048.5</ele>
        <time>2017-05-26T09:59:07Z</time>
      </trkpt>
      <trkpt lat="45.75701" lon="3.71864">
        <ele>1047.800049</ele>
        <time>2017-05-26T09:59:09Z</time>
      </trkpt>
      <trkpt lat="45.757" lon="3.71842">
        <ele>1047.699951</ele>
        <time>2017-05-26T09:59:11Z</time>
      </trkpt>
      <trkpt lat="45.75703" lon="3.71821">
        <ele>1046.900024</ele>
        <time>2017-05-26T09:59:13Z</time>
      </trkpt>
      <trkpt lat="45.75709" lon="3.71801">
        <ele>1046.300049</ele>
        <time>2017-05-26T09:59:15Z</time>
      </trkpt>
      <trkpt lat="45.75717" lon="3.71783">
        <ele>1045.900024</ele>
        <time>2017-05-26T09:59:17Z</time>
      </trkpt>
      <trkpt lat="45.75728" lon="3.71768">
        <ele>1045.599976</ele>
        <time>2017-05-26T09:59:19Z</time>
      </trkpt>
      <trkpt lat="45.75736" lon="3.71754">
        <ele>1044.800049</ele>
        <time>2017-05-26T09:59:21Z</time>
      </trkpt>
      <trkpt lat="45.75739" lon="3.71735">
        <ele>1044.300049</ele>
        <time>2017-05-26T09:59:23Z</time>
      </trkpt>
      <trkpt lat="45.75745" lon="3.71718">
        <ele>1043.900024</ele>
        <time>2017-05-26T09:59:25Z</time>
      </trkpt>
      <trkpt lat="45.75753" lon="3.71704">
        <ele>1043.5</ele>
        <time>2017-05-26T09:59:27Z</time>
      </trkpt>
      <trkpt lat="45.75761" lon="3.71691">
        <ele>1042.800049</ele>
        <time>2017-05-26T09:59:29Z</time>
      </trkpt>
      <trkpt lat="45.75767" lon="3.71678">
        <ele>1042.199951</ele>
        <time>2017-05-26T09:59:31Z</time>
      </trkpt>
      <trkpt lat="45.75779" lon="3.71672">
        <ele>1041.599976</ele>
        <time>2017-05-26T09:59:33Z</time>
      </trkpt>
      <trkpt lat="45.75792" lon="3.71667">
        <ele>1041</ele>
        <time>2017-05-26T09:59:35Z</time>
      </trkpt>
      <trkpt lat="45.75802" lon="3.71663">
        <ele>1040.5</ele>
        <time>2017-05-26T09:59:37Z</time>
      </trkpt>
      <trkpt lat="45.75813" lon="3.71656">
        <ele>1039.800049</ele>
        <time>2017-05-26T09:59:39Z</time>
      </trkpt>
      <trkpt lat="45.75828" lon="3.71645">
        <ele>1038.800049</ele>
        <time>2017-05-26T09:59:41Z</time>
      </trkpt>
      <trkpt lat="45.75843" lon="3.71633">
        <ele>1038</ele>
        <time>2017-05-26T09:59:43Z</time>
      </trkpt>
      <trkpt lat="45.75855" lon="3.71618">
        <ele>1037.400024</ele>
        <time>2017-05-26T09:59:45Z</time>
      </trkpt>
      <trkpt lat="45.75862" lon="3.71606">
        <ele>1036.199951</ele>
        <time>2017-05-26T09:59:47Z</time>
      </trkpt>
      <trkpt lat="45.7587" lon="3.71596">
        <ele>1034.599976</ele>
        <time>2017-05-26T09:59:50Z</time>
      </trkpt>
      <trkpt lat="45.7588" lon="3.7159">
        <ele>1032.800049</ele>
        <time>2017-05-26T09:59:55Z</time>
      </trkpt>
      <trkpt lat="45.75889" lon="3.71587">
        <ele>1032.300049</ele>
        <time>2017-05-26T10:00:02Z</time>
      </trkpt>
      <trkpt lat="45.75898" lon="3.71586">
        <ele>1032.800049</ele>
        <time>2017-05-26T10:00:09Z</time>
      </trkpt>
      <trkpt lat="45.75908" lon="3.71587">
        <ele>1033.599976</ele>
        <time>2017-05-26T10:00:14Z</time>
      </trkpt>
      <trkpt lat="45.75917" lon="3.71588">
        <ele>1034.800049</ele>
        <time>2017-05-26T10:00:19Z</time>
      </trkpt>
      <trkpt lat="45.75927" lon="3.71589">
        <ele>1036.400024</ele>
        <time>2017-05-26T10:00:24Z</time>
      </trkpt>
      <trkpt lat="45.75935" lon="3.71597">
        <ele>1037.900024</ele>
        <time>2017-05-26T10:00:31Z</time>
      </trkpt>
      <trkpt lat="45.75944" lon="3.71604">
        <ele>1038.599976</ele>
        <time>2017-05-26T10:00:37Z</time>
      </trkpt>
      <trkpt lat="45.75952" lon="3.71613">
        <ele>1039</ele>
        <time>2017-05-26T10:00:43Z</time>
      </trkpt>
      <trkpt lat="45.75958" lon="3.71624">
        <ele>1039.199951</ele>
        <time>2017-05-26T10:00:48Z</time>
      </trkpt>
      <trkpt lat="45.75964" lon="3.71635">
        <ele>1039</ele>
        <time>2017-05-26T10:00:51Z</time>
      </trkpt>
      <trkpt lat="45.75971" lon="3.71646">
        <ele>1038.800049</ele>
        <time>2017-05-26T10:00:55Z</time>
      </trkpt>
      <trkpt lat="45.75977" lon="3.71659">
        <ele>1038.900024</ele>
        <time>2017-05-26T10:01:00Z</time>
      </trkpt>
      <trkpt lat="45.75984" lon="3.71669">
        <ele>1039.199951</ele>
        <time>2017-05-26T10:01:05Z</time>
      </trkpt>
      <trkpt lat="45.7599" lon="3.71679">
        <ele>1039.900024</ele>
        <time>2017-05-26T10:01:12Z</time>
      </trkpt>
      <trkpt lat="45.75999" lon="3.71685">
        <ele>1041.5</ele>
        <time>2017-05-26T10:01:19Z</time>
      </trkpt>
      <trkpt lat="45.76008" lon="3.7169">
        <ele>1043.199951</ele>
        <time>2017-05-26T10:01:26Z</time>
      </trkpt>
      <trkpt lat="45.76018" lon="3.71691">
        <ele>1044.900024</ele>
        <time>2017-05-26T10:01:31Z</time>
      </trkpt>
      <trkpt lat="45.76026" lon="3.71686">
        <ele>1046.800049</ele>
        <time>2017-05-26T10:01:51Z</time>
      </trkpt>
      <trkpt lat="45.76034" lon="3.71693">
        <ele>1047.599976</ele>
        <time>2017-05-26T10:02:55Z</time>
      </trkpt>
      <trkpt lat="45.76043" lon="3.71696">
        <ele>1048.300049</ele>
        <time>2017-05-26T10:03:03Z</time>
      </trkpt>
      <trkpt lat="45.76051" lon="3.71702">
        <ele>1049.5</ele>
        <time>2017-05-26T10:03:11Z</time>
      </trkpt>
      <trkpt lat="45.7606" lon="3.71704">
        <ele>1050.199951</ele>
        <time>2017-05-26T10:03:15Z</time>
      </trkpt>
      <trkpt lat="45.76069" lon="3.71708">
        <ele>1051.400024</ele>
        <time>2017-05-26T10:03:20Z</time>
      </trkpt>
      <trkpt lat="45.76079" lon="3.71712">
        <ele>1053</ele>
        <time>2017-05-26T10:03:27Z</time>
      </trkpt>
      <trkpt lat="45.76088" lon="3.71717">
        <ele>1054.800049</ele>
        <time>2017-05-26T10:03:34Z</time>
      </trkpt>
      <trkpt lat="45.76096" lon="3.71724">
        <ele>1056.300049</ele>
        <time>2017-05-26T10:03:42Z</time>
      </trkpt>
      <trkpt lat="45.76104" lon="3.7173">
        <ele>1057.300049</ele>
        <time>2017-05-26T10:03:50Z</time>
      </trkpt>
      <trkpt lat="45.76111" lon="3.71738">
        <ele>1058.900024</ele>
        <time>2017-05-26T10:03:59Z</time>
      </trkpt>
      <trkpt lat="45.7612" lon="3.71744">
        <ele>1060.699951</ele>
        <time>2017-05-26T10:04:07Z</time>
      </trkpt>
      <trkpt lat="45.76129" lon="3.71749">
        <ele>1062</ele>
        <time>2017-05-26T10:04:14Z</time>
      </trkpt>
      <trkpt lat="45.76138" lon="3.71753">
        <ele>1063.300049</ele>
        <time>2017-05-26T10:04:23Z</time>
      </trkpt>
      <trkpt lat="45.76147" lon="3.71755">
        <ele>1065.400024</ele>
        <time>2017-05-26T10:04:36Z</time>
      </trkpt>
      <trkpt lat="45.76157" lon="3.71759">
        <ele>1065.900024</ele>
        <time>2017-05-26T10:04:45Z</time>
      </trkpt>
      <trkpt lat="45.76165" lon="3.71765">
        <ele>1066.699951</ele>
        <time>2017-05-26T10:04:52Z</time>
      </trkpt>
      <trkpt lat="45.76174" lon="3.71769">
        <ele>1068.099976</ele>
        <time>2017-05-26T10:04:59Z</time>
      </trkpt>
      <trkpt lat="45.76182" lon="3.71775">
        <ele>1069.5</ele>
        <time>2017-05-26T10:05:08Z</time>
      </trkpt>
      <trkpt lat="45.76189" lon="3.71784">
        <ele>1070.199951</ele>
        <time>2017-05-26T10:05:15Z</time>
      </trkpt>
      <trkpt lat="45.76198" lon="3.7179">
        <ele>1071.400024</ele>
        <time>2017-05-26T10:05:21Z</time>
      </trkpt>
      <trkpt lat="45.76207" lon="3.71796">
        <ele>1072.800049</ele>
        <time>2017-05-26T10:05:27Z</time>
      </trkpt>
      <trkpt lat="45.76216" lon="3.718">
        <ele>1074.099976</ele>
        <time>2017-05-26T10:05:32Z</time>
      </trkpt>
      <trkpt lat="45.76226" lon="3.71801">
        <ele>1074.699951</ele>
        <time>2017-05-26T10:05:36Z</time>
      </trkpt>
      <trkpt lat="45.76235" lon="3.71804">
        <ele>1074.800049</ele>
        <time>2017-05-26T10:05:40Z</time>
      </trkpt>
      <trkpt lat="45.76244" lon="3.71811">
        <ele>1075.5</ele>
        <time>2017-05-26T10:05:44Z</time>
      </trkpt>
      <trkpt lat="45.76254" lon="3.71814">
        <ele>1076.5</ele>
        <time>2017-05-26T10:05:49Z</time>
      </trkpt>
      <trkpt lat="45.76261" lon="3.71821">
        <ele>1077.099976</ele>
        <time>2017-05-26T10:05:55Z</time>
      </trkpt>
      <trkpt lat="45.76273" lon="3.71824">
        <ele>1077.699951</ele>
        <time>2017-05-26T10:06:00Z</time>
      </trkpt>
      <trkpt lat="45.76282" lon="3.71828">
        <ele>1078.5</ele>
        <time>2017-05-26T10:06:05Z</time>
      </trkpt>
      <trkpt lat="45.76292" lon="3.7183">
        <ele>1079.099976</ele>
        <time>2017-05-26T10:06:09Z</time>
      </trkpt>
      <trkpt lat="45.763" lon="3.71841">
        <ele>1080</ele>
        <time>2017-05-26T10:06:13Z</time>
      </trkpt>
      <trkpt lat="45.76308" lon="3.7185">
        <ele>1080.599976</ele>
        <time>2017-05-26T10:06:17Z</time>
      </trkpt>
      <trkpt lat="45.76319" lon="3.71858">
        <ele>1081.199951</ele>
        <time>2017-05-26T10:06:21Z</time>
      </trkpt>
      <trkpt lat="45.76327" lon="3.71865">
        <ele>1081.400024</ele>
        <time>2017-05-26T10:06:24Z</time>
      </trkpt>
      <trkpt lat="45.76335" lon="3.71872">
        <ele>1081.599976</ele>
        <time>2017-05-26T10:06:27Z</time>
      </trkpt>
      <trkpt lat="45.76338" lon="3.71885">
        <ele>1081.900024</ele>
        <time>2017-05-26T10:06:31Z</time>
      </trkpt>
      <trkpt lat="45.7634" lon="3.71899">
        <ele>1082.699951</ele>
        <time>2017-05-26T10:06:36Z</time>
      </trkpt>
      <trkpt lat="45.76342" lon="3.71912">
        <ele>1083.099976</ele>
        <time>2017-05-26T10:06:40Z</time>
      </trkpt>
      <trkpt lat="45.76346" lon="3.71924">
        <ele>1083.599976</ele>
        <time>2017-05-26T10:06:43Z</time>
      </trkpt>
      <trkpt lat="45.76351" lon="3.71938">
        <ele>1084.099976</ele>
        <time>2017-05-26T10:06:47Z</time>
      </trkpt>
      <trkpt lat="45.76356" lon="3.71951">
        <ele>1084.599976</ele>
        <time>2017-05-26T10:06:51Z</time>
      </trkpt>
      <trkpt lat="45.7636" lon="3.71966">
        <ele>1085</ele>
        <time>2017-05-26T10:06:55Z</time>
      </trkpt>
      <trkpt lat="45.76365" lon="3.71982">
        <ele>1085.5</ele>
        <time>2017-05-26T10:06:59Z</time>
      </trkpt>
      <trkpt lat="45.7637" lon="3.71993">
        <ele>1085.800049</ele>
        <time>2017-05-26T10:07:02Z</time>
      </trkpt>
      <trkpt lat="45.76375" lon="3.72007">
        <ele>1086.300049</ele>
        <time>2017-05-26T10:07:05Z</time>
      </trkpt>
      <trkpt lat="45.76381" lon="3.72021">
        <ele>1086.699951</ele>
        <time>2017-05-26T10:07:08Z</time>
      </trkpt>
      <trkpt lat="45.76385" lon="3.72033">
        <ele>1087.099976</ele>
        <time>2017-05-26T10:07:11Z</time>
      </trkpt>
      <trkpt lat="45.7639" lon="3.72044">
        <ele>1087.599976</ele>
        <time>2017-05-26T10:07:14Z</time>
      </trkpt>
      <trkpt lat="45.76395" lon="3.72057">
        <ele>1088.099976</ele>
        <time>2017-05-26T10:07:17Z</time>
      </trkpt>
      <trkpt lat="45.764" lon="3.72072">
        <ele>1089</ele>
        <time>2017-05-26T10:07:21Z</time>
      </trkpt>
      <trkpt lat="45.76405" lon="3.72085">
        <ele>1089.900024</ele>
        <time>2017-05-26T10:07:25Z</time>
      </trkpt>
      <trkpt lat="45.76411" lon="3.72099">
        <ele>1090.699951</ele>
        <time>2017-05-26T10:07:29Z</time>
      </trkpt>
      <trkpt lat="45.76415" lon="3.72111">
        <ele>1091.599976</ele>
        <time>2017-05-26T10:07:33Z</time>
      </trkpt>
      <trkpt lat="45.76421" lon="3.72123">
        <ele>1092.400024</ele>
        <time>2017-05-26T10:07:37Z</time>
      </trkpt>
      <trkpt lat="45.76425" lon="3.72138">
        <ele>1093.300049</ele>
        <time>2017-05-26T10:07:42Z</time>
      </trkpt>
      <trkpt lat="45.76426" lon="3.72153">
        <ele>1094.5</ele>
        <time>2017-05-26T10:07:48Z</time>
      </trkpt>
      <trkpt lat="45.76427" lon="3.72166">
        <ele>1095.800049</ele>
        <time>2017-05-26T10:07:54Z</time>
      </trkpt>
      <trkpt lat="45.76427" lon="3.7218">
        <ele>1097.199951</ele>
        <time>2017-05-26T10:08:00Z</time>
      </trkpt>
      <trkpt lat="45.7643" lon="3.72194">
        <ele>1098.5</ele>
        <time>2017-05-26T10:08:06Z</time>
      </trkpt>
      <trkpt lat="45.76435" lon="3.72205">
        <ele>1099.099976</ele>
        <time>2017-05-26T10:08:11Z</time>
      </trkpt>
      <trkpt lat="45.76439" lon="3.72219">
        <ele>1099.900024</ele>
        <time>2017-05-26T10:08:16Z</time>
      </trkpt>
      <trkpt lat="45.76445" lon="3.72232">
        <ele>1100.5</ele>
        <time>2017-05-26T10:08:21Z</time>
      </trkpt>
      <trkpt lat="45.76448" lon="3.72244">
        <ele>1101</ele>
        <time>2017-05-26T10:08:25Z</time>
      </trkpt>
      <trkpt lat="45.76453" lon="3.72256">
        <ele>1101.5</ele>
        <time>2017-05-26T10:08:29Z</time>
      </trkpt>
      <trkpt lat="45.76456" lon="3.72268">
        <ele>1102.300049</ele>
        <time>2017-05-26T10:08:33Z</time>
      </trkpt>
      <trkpt lat="45.76466" lon="3.72278">
        <ele>1103</ele>
        <time>2017-05-26T10:08:37Z</time>
      </trkpt>
      <trkpt lat="45.76475" lon="3.72281">
        <ele>1103.199951</ele>
        <time>2017-05-26T10:08:40Z</time>
      </trkpt>
      <trkpt lat="45.76485" lon="3.72287">
        <ele>1103.400024</ele>
        <time>2017-05-26T10:08:43Z</time>
      </trkpt>
      <trkpt lat="45.76496" lon="3.72292">
        <ele>1103.400024</ele>
        <time>2017-05-26T10:08:46Z</time>
      </trkpt>
      <trkpt lat="45.76509" lon="3.72296">
        <ele>1103.199951</ele>
        <time>2017-05-26T10:08:50Z</time>
      </trkpt>
      <trkpt lat="45.7652" lon="3.72294">
        <ele>1103.599976</ele>
        <time>2017-05-26T10:08:53Z</time>
      </trkpt>
      <trkpt lat="45.76532" lon="3.72289">
        <ele>1104.099976</ele>
        <time>2017-05-26T10:08:56Z</time>
      </trkpt>
      <trkpt lat="45.76542" lon="3.72282">
        <ele>1104.300049</ele>
        <time>2017-05-26T10:08:59Z</time>
      </trkpt>
      <trkpt lat="45.76552" lon="3.72276">
        <ele>1104.400024</ele>
        <time>2017-05-26T10:09:02Z</time>
      </trkpt>
      <trkpt lat="45.76562" lon="3.72273">
        <ele>1104.400024</ele>
        <time>2017-05-26T10:09:05Z</time>
      </trkpt>
      <trkpt lat="45.76571" lon="3.72274">
        <ele>1105.099976</ele>
        <time>2017-05-26T10:09:13Z</time>
      </trkpt>
      <trkpt lat="45.7658" lon="3.72278">
        <ele>1105.800049</ele>
        <time>2017-05-26T10:13:38Z</time>
      </trkpt>
      <trkpt lat="45.76589" lon="3.72273">
        <ele>1106</ele>
        <time>2017-05-26T10:13:44Z</time>
      </trkpt>
      <trkpt lat="45.76599" lon="3.72273">
        <ele>1106.800049</ele>
        <time>2017-05-26T10:13:50Z</time>
      </trkpt>
      <trkpt lat="45.76609" lon="3.72273">
        <ele>1107.5</ele>
        <time>2017-05-26T10:13:55Z</time>
      </trkpt>
      <trkpt lat="45.76619" lon="3.72269">
        <ele>1108.099976</ele>
        <time>2017-05-26T10:14:00Z</time>
      </trkpt>
      <trkpt lat="45.76628" lon="3.72262">
        <ele>1108.699951</ele>
        <time>2017-05-26T10:14:05Z</time>
      </trkpt>
      <trkpt lat="45.76636" lon="3.72252">
        <ele>1109.5</ele>
        <time>2017-05-26T10:14:10Z</time>
      </trkpt>
      <trkpt lat="45.76641" lon="3.72241">
        <ele>1110.199951</ele>
        <time>2017-05-26T10:14:14Z</time>
      </trkpt>
      <trkpt lat="45.76643" lon="3.72226">
        <ele>1111.099976</ele>
        <time>2017-05-26T10:14:19Z</time>
      </trkpt>
      <trkpt lat="45.76644" lon="3.72213">
        <ele>1112.300049</ele>
        <time>2017-05-26T10:14:24Z</time>
      </trkpt>
      <trkpt lat="45.76644" lon="3.72197">
        <ele>1113.199951</ele>
        <time>2017-05-26T10:14:29Z</time>
      </trkpt>
      <trkpt lat="45.76644" lon="3.72183">
        <ele>1114</ele>
        <time>2017-05-26T10:14:34Z</time>
      </trkpt>
      <trkpt lat="45.76642" lon="3.7217">
        <ele>1114.599976</ele>
        <time>2017-05-26T10:14:39Z</time>
      </trkpt>
      <trkpt lat="45.76641" lon="3.72155">
        <ele>1115.599976</ele>
        <time>2017-05-26T10:14:44Z</time>
      </trkpt>
      <trkpt lat="45.76641" lon="3.7214">
        <ele>1116.599976</ele>
        <time>2017-05-26T10:14:49Z</time>
      </trkpt>
      <trkpt lat="45.76641" lon="3.72124">
        <ele>1117.5</ele>
        <time>2017-05-26T10:14:54Z</time>
      </trkpt>
      <trkpt lat="45.76641" lon="3.7211">
        <ele>1118.400024</ele>
        <time>2017-05-26T10:14:59Z</time>
      </trkpt>
      <trkpt lat="45.76643" lon="3.72094">
        <ele>1119.300049</ele>
        <time>2017-05-26T10:15:04Z</time>
      </trkpt>
      <trkpt lat="45.76648" lon="3.7208">
        <ele>1120.199951</ele>
        <time>2017-05-26T10:15:09Z</time>
      </trkpt>
      <trkpt lat="45.76657" lon="3.72073">
        <ele>1121.099976</ele>
        <time>2017-05-26T10:15:15Z</time>
      </trkpt>
      <trkpt lat="45.76664" lon="3.72062">
        <ele>1122.300049</ele>
        <time>2017-05-26T10:15:24Z</time>
      </trkpt>
      <trkpt lat="45.76665" lon="3.72048">
        <ele>1122.800049</ele>
        <time>2017-05-26T10:15:28Z</time>
      </trkpt>
      <trkpt lat="45.76669" lon="3.72035">
        <ele>1123</ele>
        <time>2017-05-26T10:15:33Z</time>
      </trkpt>
      <trkpt lat="45.76675" lon="3.72021">
        <ele>1123.5</ele>
        <time>2017-05-26T10:15:37Z</time>
      </trkpt>
      <trkpt lat="45.76679" lon="3.72009">
        <ele>1123.699951</ele>
        <time>2017-05-26T10:15:40Z</time>
      </trkpt>
      <trkpt lat="45.76683" lon="3.71993">
        <ele>1123.400024</ele>
        <time>2017-05-26T10:15:44Z</time>
      </trkpt>
      <trkpt lat="45.76693" lon="3.71983">
        <ele>1123.400024</ele>
        <time>2017-05-26T10:15:47Z</time>
      </trkpt>
      <trkpt lat="45.76702" lon="3.71972">
        <ele>1123.300049</ele>
        <time>2017-05-26T10:15:50Z</time>
      </trkpt>
      <trkpt lat="45.7671" lon="3.71962">
        <ele>1123.199951</ele>
        <time>2017-05-26T10:15:53Z</time>
      </trkpt>
      <trkpt lat="45.76719" lon="3.71952">
        <ele>1123.400024</ele>
        <time>2017-05-26T10:15:56Z</time>
      </trkpt>
      <trkpt lat="45.76727" lon="3.71945">
        <ele>1123.699951</ele>
        <time>2017-05-26T10:15:59Z</time>
      </trkpt>
      <trkpt lat="45.76736" lon="3.7194">
        <ele>1123.900024</ele>
        <time>2017-05-26T10:16:02Z</time>
      </trkpt>
      <trkpt lat="45.76746" lon="3.71933">
        <ele>1124.5</ele>
        <time>2017-05-26T10:16:06Z</time>
      </trkpt>
      <trkpt lat="45.76756" lon="3.71933">
        <ele>1125.099976</ele>
        <time>2017-05-26T10:16:10Z</time>
      </trkpt>
      <trkpt lat="45.76766" lon="3.71933">
        <ele>1125.599976</ele>
        <time>2017-05-26T10:16:14Z</time>
      </trkpt>
      <trkpt lat="45.76775" lon="3.71938">
        <ele>1125.900024</ele>
        <time>2017-05-26T10:16:18Z</time>
      </trkpt>
      <trkpt lat="45.76783" lon="3.71944">
        <ele>1126.300049</ele>
        <time>2017-05-26T10:16:21Z</time>
      </trkpt>
      <trkpt lat="45.76793" lon="3.7195">
        <ele>1126.800049</ele>
        <time>2017-05-26T10:16:25Z</time>
      </trkpt>
      <trkpt lat="45.76802" lon="3.71954">
        <ele>1127.800049</ele>
        <time>2017-05-26T10:16:29Z</time>
      </trkpt>
      <trkpt lat="45.76812" lon="3.71958">
        <ele>1128.5</ele>
        <time>2017-05-26T10:16:36Z</time>
      </trkpt>
      <trkpt lat="45.76821" lon="3.71959">
        <ele>1128.699951</ele>
        <time>2017-05-26T10:16:46Z</time>
      </trkpt>
      <trkpt lat="45.76831" lon="3.71955">
        <ele>1128.400024</ele>
        <time>2017-05-26T10:16:59Z</time>
      </trkpt>
      <trkpt lat="45.76843" lon="3.71954">
        <ele>1128.199951</ele>
        <time>2017-05-26T10:17:03Z</time>
      </trkpt>
      <trkpt lat="45.76852" lon="3.71953">
        <ele>1127.800049</ele>
        <time>2017-05-26T10:17:06Z</time>
      </trkpt>
      <trkpt lat="45.76862" lon="3.71954">
        <ele>1127.5</ele>
        <time>2017-05-26T10:17:09Z</time>
      </trkpt>
      <trkpt lat="45.76873" lon="3.71955">
        <ele>1127.400024</ele>
        <time>2017-05-26T10:17:13Z</time>
      </trkpt>
      <trkpt lat="45.76884" lon="3.71952">
        <ele>1127.300049</ele>
        <time>2017-05-26T10:17:18Z</time>
      </trkpt>
      <trkpt lat="45.76894" lon="3.71951">
        <ele>1127.099976</ele>
        <time>2017-05-26T10:17:21Z</time>
      </trkpt>
      <trkpt lat="45.76902" lon="3.71947">
        <ele>1126.800049</ele>
        <time>2017-05-26T10:17:24Z</time>
      </trkpt>
      <trkpt lat="45.76911" lon="3.71942">
        <ele>1126.599976</ele>
        <time>2017-05-26T10:17:26Z</time>
      </trkpt>
      <trkpt lat="45.76924" lon="3.7193">
        <ele>1125.900024</ele>
        <time>2017-05-26T10:17:28Z</time>
      </trkpt>
      <trkpt lat="45.76939" lon="3.71921">
        <ele>1125</ele>
        <time>2017-05-26T10:17:30Z</time>
      </trkpt>
      <trkpt lat="45.76955" lon="3.7191">
        <ele>1123.699951</ele>
        <time>2017-05-26T10:17:32Z</time>
      </trkpt>
      <trkpt lat="45.76968" lon="3.71899">
        <ele>1122.800049</ele>
        <time>2017-05-26T10:17:34Z</time>
      </trkpt>
      <trkpt lat="45.76975" lon="3.71892">
        <ele>1122.300049</ele>
        <time>2017-05-26T10:17:35Z</time>
      </trkpt>
      <trkpt lat="45.76989" lon="3.71878">
        <ele>1121.5</ele>
        <time>2017-05-26T10:17:37Z</time>
      </trkpt>
      <trkpt lat="45.76998" lon="3.71871">
        <ele>1121.199951</ele>
        <time>2017-05-26T10:17:38Z</time>
      </trkpt>
      <trkpt lat="45.77011" lon="3.71854">
        <ele>1120.099976</ele>
        <time>2017-05-26T10:17:40Z</time>
      </trkpt>
      <trkpt lat="45.7702" lon="3.71838">
        <ele>1119</ele>
        <time>2017-05-26T10:17:42Z</time>
      </trkpt>
      <trkpt lat="45.77026" lon="3.71828">
        <ele>1118.099976</ele>
        <time>2017-05-26T10:17:44Z</time>
      </trkpt>
      <trkpt lat="45.77031" lon="3.71816">
        <ele>1117</ele>
        <time>2017-05-26T10:17:47Z</time>
      </trkpt>
      <trkpt lat="45.77034" lon="3.718">
        <ele>1115.400024</ele>
        <time>2017-05-26T10:18:05Z</time>
      </trkpt>
      <trkpt lat="45.77038" lon="3.71783">
        <ele>1115.199951</ele>
        <time>2017-05-26T10:18:09Z</time>
      </trkpt>
      <trkpt lat="45.77039" lon="3.71764">
        <ele>1114.699951</ele>
        <time>2017-05-26T10:18:12Z</time>
      </trkpt>
      <trkpt lat="45.77032" lon="3.7175">
        <ele>1114.400024</ele>
        <time>2017-05-26T10:18:15Z</time>
      </trkpt>
      <trkpt lat="45.77021" lon="3.71743">
        <ele>1114.099976</ele>
        <time>2017-05-26T10:18:17Z</time>
      </trkpt>
      <trkpt lat="45.77006" lon="3.71738">
        <ele>1113.5</ele>
        <time>2017-05-26T10:18:19Z</time>
      </trkpt>
      <trkpt lat="45.7699" lon="3.7173">
        <ele>1112.599976</ele>
        <time>2017-05-26T10:18:21Z</time>
      </trkpt>
      <trkpt lat="45.76978" lon="3.71717">
        <ele>1112</ele>
        <time>2017-05-26T10:18:23Z</time>
      </trkpt>
      <trkpt lat="45.76968" lon="3.71701">
        <ele>1111.300049</ele>
        <time>2017-05-26T10:18:25Z</time>
      </trkpt>
      <trkpt lat="45.76959" lon="3.71689">
        <ele>1110.699951</ele>
        <time>2017-05-26T10:18:27Z</time>
      </trkpt>
      <trkpt lat="45.76952" lon="3.71677">
        <ele>1110.199951</ele>
        <time>2017-05-26T10:18:29Z</time>
      </trkpt>
      <trkpt lat="45.76946" lon="3.71661">
        <ele>1109.900024</ele>
        <time>2017-05-26T10:18:31Z</time>
      </trkpt>
      <trkpt lat="45.76942" lon="3.71644">
        <ele>1109.900024</ele>
        <time>2017-05-26T10:18:33Z</time>
      </trkpt>
      <trkpt lat="45.76939" lon="3.71628">
        <ele>1109.900024</ele>
        <time>2017-05-26T10:18:35Z</time>
      </trkpt>
      <trkpt lat="45.76936" lon="3.71612">
        <ele>1109.699951</ele>
        <time>2017-05-26T10:18:37Z</time>
      </trkpt>
      <trkpt lat="45.76933" lon="3.71597">
        <ele>1109.199951</ele>
        <time>2017-05-26T10:18:39Z</time>
      </trkpt>
      <trkpt lat="45.76931" lon="3.7158">
        <ele>1108.699951</ele>
        <time>2017-05-26T10:18:42Z</time>
      </trkpt>
      <trkpt lat="45.76928" lon="3.71565">
        <ele>1107.800049</ele>
        <time>2017-05-26T10:18:45Z</time>
      </trkpt>
      <trkpt lat="45.76927" lon="3.71549">
        <ele>1107.199951</ele>
        <time>2017-05-26T10:18:49Z</time>
      </trkpt>
      <trkpt lat="45.76931" lon="3.71535">
        <ele>1106.199951</ele>
        <time>2017-05-26T10:18:56Z</time>
      </trkpt>
      <trkpt lat="45.7694" lon="3.71523">
        <ele>1105.599976</ele>
        <time>2017-05-26T10:18:59Z</time>
      </trkpt>
      <trkpt lat="45.7695" lon="3.71512">
        <ele>1105</ele>
        <time>2017-05-26T10:19:01Z</time>
      </trkpt>
      <trkpt lat="45.76961" lon="3.71494">
        <ele>1103.699951</ele>
        <time>2017-05-26T10:19:03Z</time>
      </trkpt>
      <trkpt lat="45.76965" lon="3.71475">
        <ele>1102.400024</ele>
        <time>2017-05-26T10:19:05Z</time>
      </trkpt>
      <trkpt lat="45.76966" lon="3.71461">
        <ele>1101.699951</ele>
        <time>2017-05-26T10:19:06Z</time>
      </trkpt>
      <trkpt lat="45.76963" lon="3.71449">
        <ele>1100.900024</ele>
        <time>2017-05-26T10:19:07Z</time>
      </trkpt>
      <trkpt lat="45.76958" lon="3.71437">
        <ele>1100.199951</ele>
        <time>2017-05-26T10:19:08Z</time>
      </trkpt>
      <trkpt lat="45.76947" lon="3.71418">
        <ele>1099.5</ele>
        <time>2017-05-26T10:19:10Z</time>
      </trkpt>
      <trkpt lat="45.7694" lon="3.714">
        <ele>1098.699951</ele>
        <time>2017-05-26T10:19:12Z</time>
      </trkpt>
      <trkpt lat="45.76939" lon="3.71386">
        <ele>1098.099976</ele>
        <time>2017-05-26T10:19:14Z</time>
      </trkpt>
      <trkpt lat="45.76939" lon="3.71373">
        <ele>1097.199951</ele>
        <time>2017-05-26T10:19:18Z</time>
      </trkpt>
      <trkpt lat="45.7694" lon="3.7137">
        <ele>1096.099976</ele>
        <time>2017-05-26T10:24:37Z</time>
      </trkpt>
      <trkpt lat="45.7694" lon="3.71357">
        <ele>1096</ele>
        <time>2017-05-26T10:24:39Z</time>
      </trkpt>
      <trkpt lat="45.76942" lon="3.71341">
        <ele>1095.900024</ele>
        <time>2017-05-26T10:24:41Z</time>
      </trkpt>
      <trkpt lat="45.76943" lon="3.71326">
        <ele>1095.699951</ele>
        <time>2017-05-26T10:24:43Z</time>
      </trkpt>
      <trkpt lat="45.76946" lon="3.71312">
        <ele>1095.599976</ele>
        <time>2017-05-26T10:24:45Z</time>
      </trkpt>
      <trkpt lat="45.76948" lon="3.71293">
        <ele>1095.5</ele>
        <time>2017-05-26T10:24:48Z</time>
      </trkpt>
      <trkpt lat="45.76949" lon="3.7128">
        <ele>1095.599976</ele>
        <time>2017-05-26T10:24:50Z</time>
      </trkpt>
      <trkpt lat="45.7695" lon="3.71266">
        <ele>1095.800049</ele>
        <time>2017-05-26T10:24:52Z</time>
      </trkpt>
      <trkpt lat="45.76952" lon="3.71253">
        <ele>1096.099976</ele>
        <time>2017-05-26T10:24:54Z</time>
      </trkpt>
      <trkpt lat="45.76953" lon="3.7124">
        <ele>1096.300049</ele>
        <time>2017-05-26T10:24:56Z</time>
      </trkpt>
      <trkpt lat="45.76954" lon="3.71221">
        <ele>1096.599976</ele>
        <time>2017-05-26T10:24:59Z</time>
      </trkpt>
      <trkpt lat="45.76957" lon="3.71206">
        <ele>1096.800049</ele>
        <time>2017-05-26T10:25:02Z</time>
      </trkpt>
      <trkpt lat="45.76959" lon="3.71191">
        <ele>1097.199951</ele>
        <time>2017-05-26T10:25:05Z</time>
      </trkpt>
      <trkpt lat="45.76963" lon="3.71177">
        <ele>1097.800049</ele>
        <time>2017-05-26T10:25:08Z</time>
      </trkpt>
      <trkpt lat="45.76966" lon="3.71161">
        <ele>1097.699951</ele>
        <time>2017-05-26T10:25:11Z</time>
      </trkpt>
      <trkpt lat="45.76969" lon="3.71144">
        <ele>1097.800049</ele>
        <time>2017-05-26T10:25:14Z</time>
      </trkpt>
      <trkpt lat="45.76973" lon="3.71127">
        <ele>1097.699951</ele>
        <time>2017-05-26T10:25:17Z</time>
      </trkpt>
      <trkpt lat="45.76975" lon="3.71111">
        <ele>1097.900024</ele>
        <time>2017-05-26T10:25:20Z</time>
      </trkpt>
      <trkpt lat="45.76978" lon="3.71097">
        <ele>1097.800049</ele>
        <time>2017-05-26T10:25:23Z</time>
      </trkpt>
      <trkpt lat="45.76979" lon="3.71083">
        <ele>1097.800049</ele>
        <time>2017-05-26T10:25:27Z</time>
      </trkpt>
      <trkpt lat="45.7698" lon="3.7107">
        <ele>1098.099976</ele>
        <time>2017-05-26T10:25:43Z</time>
      </trkpt>
      <trkpt lat="45.76982" lon="3.71058">
        <ele>1097.900024</ele>
        <time>2017-05-26T10:26:01Z</time>
      </trkpt>
      <trkpt lat="45.76984" lon="3.71042">
        <ele>1098</ele>
        <time>2017-05-26T10:26:05Z</time>
      </trkpt>
      <trkpt lat="45.76987" lon="3.71025">
        <ele>1097.699951</ele>
        <time>2017-05-26T10:26:09Z</time>
      </trkpt>
      <trkpt lat="45.76989" lon="3.7101">
        <ele>1097.5</ele>
        <time>2017-05-26T10:26:12Z</time>
      </trkpt>
      <trkpt lat="45.76992" lon="3.70991">
        <ele>1097.300049</ele>
        <time>2017-05-26T10:26:15Z</time>
      </trkpt>
      <trkpt lat="45.76995" lon="3.70976">
        <ele>1097</ele>
        <time>2017-05-26T10:26:17Z</time>
      </trkpt>
      <trkpt lat="45.76999" lon="3.70959">
        <ele>1096.599976</ele>
        <time>2017-05-26T10:26:19Z</time>
      </trkpt>
      <trkpt lat="45.77002" lon="3.70943">
        <ele>1096.099976</ele>
        <time>2017-05-26T10:26:21Z</time>
      </trkpt>
      <trkpt lat="45.77006" lon="3.70927">
        <ele>1095.699951</ele>
        <time>2017-05-26T10:26:23Z</time>
      </trkpt>
      <trkpt lat="45.7701" lon="3.70911">
        <ele>1095.5</ele>
        <time>2017-05-26T10:26:25Z</time>
      </trkpt>
      <trkpt lat="45.77015" lon="3.70896">
        <ele>1095.400024</ele>
        <time>2017-05-26T10:26:27Z</time>
      </trkpt>
      <trkpt lat="45.7702" lon="3.7088">
        <ele>1095.199951</ele>
        <time>2017-05-26T10:26:29Z</time>
      </trkpt>
      <trkpt lat="45.77025" lon="3.70866">
        <ele>1095</ele>
        <time>2017-05-26T10:26:31Z</time>
      </trkpt>
      <trkpt lat="45.7703" lon="3.70853">
        <ele>1094.699951</ele>
        <time>2017-05-26T10:26:34Z</time>
      </trkpt>
      <trkpt lat="45.77033" lon="3.70841">
        <ele>1093.699951</ele>
        <time>2017-05-26T10:27:01Z</time>
      </trkpt>
      <trkpt lat="45.77037" lon="3.70828">
        <ele>1093.800049</ele>
        <time>2017-05-26T10:27:11Z</time>
      </trkpt>
      <trkpt lat="45.77042" lon="3.70816">
        <ele>1093.699951</ele>
        <time>2017-05-26T10:27:14Z</time>
      </trkpt>
      <trkpt lat="45.77049" lon="3.70804">
        <ele>1093.800049</ele>
        <time>2017-05-26T10:27:17Z</time>
      </trkpt>
      <trkpt lat="45.77056" lon="3.70791">
        <ele>1093.699951</ele>
        <time>2017-05-26T10:27:20Z</time>
      </trkpt>
      <trkpt lat="45.77065" lon="3.70777">
        <ele>1093.599976</ele>
        <time>2017-05-26T10:27:23Z</time>
      </trkpt>
      <trkpt lat="45.77071" lon="3.70767">
        <ele>1093.5</ele>
        <time>2017-05-26T10:27:25Z</time>
      </trkpt>
      <trkpt lat="45.77077" lon="3.70756">
        <ele>1093.300049</ele>
        <time>2017-05-26T10:27:27Z</time>
      </trkpt>
      <trkpt lat="45.77085" lon="3.70743">
        <ele>1093</ele>
        <time>2017-05-26T10:27:29Z</time>
      </trkpt>
      <trkpt lat="45.77095" lon="3.70732">
        <ele>1092.699951</ele>
        <time>2017-05-26T10:27:31Z</time>
      </trkpt>
      <trkpt lat="45.77105" lon="3.70724">
        <ele>1092.400024</ele>
        <time>2017-05-26T10:27:33Z</time>
      </trkpt>
      <trkpt lat="45.77115" lon="3.70718">
        <ele>1092.199951</ele>
        <time>2017-05-26T10:27:35Z</time>
      </trkpt>
      <trkpt lat="45.77125" lon="3.70712">
        <ele>1092.099976</ele>
        <time>2017-05-26T10:27:37Z</time>
      </trkpt>
      <trkpt lat="45.77136" lon="3.70707">
        <ele>1092.099976</ele>
        <time>2017-05-26T10:27:39Z</time>
      </trkpt>
      <trkpt lat="45.77146" lon="3.70702">
        <ele>1092.400024</ele>
        <time>2017-05-26T10:27:41Z</time>
      </trkpt>
      <trkpt lat="45.77156" lon="3.70694">
        <ele>1092.599976</ele>
        <time>2017-05-26T10:27:43Z</time>
      </trkpt>
      <trkpt lat="45.77165" lon="3.70688">
        <ele>1092.699951</ele>
        <time>2017-05-26T10:27:45Z</time>
      </trkpt>
      <trkpt lat="45.77174" lon="3.70682">
        <ele>1092.599976</ele>
        <time>2017-05-26T10:27:47Z</time>
      </trkpt>
      <trkpt lat="45.77182" lon="3.70676">
        <ele>1092.699951</ele>
        <time>2017-05-26T10:27:49Z</time>
      </trkpt>
      <trkpt lat="45.77193" lon="3.70667">
        <ele>1092.800049</ele>
        <time>2017-05-26T10:27:52Z</time>
      </trkpt>
      <trkpt lat="45.77203" lon="3.70657">
        <ele>1092.800049</ele>
        <time>2017-05-26T10:27:55Z</time>
      </trkpt>
      <trkpt lat="45.77212" lon="3.70644">
        <ele>1092.800049</ele>
        <time>2017-05-26T10:27:58Z</time>
      </trkpt>
      <trkpt lat="45.77219" lon="3.70629">
        <ele>1092.699951</ele>
        <time>2017-05-26T10:28:01Z</time>
      </trkpt>
      <trkpt lat="45.77223" lon="3.70615">
        <ele>1092.800049</ele>
        <time>2017-05-26T10:28:04Z</time>
      </trkpt>
      <trkpt lat="45.77228" lon="3.70601">
        <ele>1092.900024</ele>
        <time>2017-05-26T10:28:07Z</time>
      </trkpt>
      <trkpt lat="45.77235" lon="3.70587">
        <ele>1093</ele>
        <time>2017-05-26T10:28:10Z</time>
      </trkpt>
      <trkpt lat="45.77241" lon="3.70578">
        <ele>1093.099976</ele>
        <time>2017-05-26T10:28:12Z</time>
      </trkpt>
      <trkpt lat="45.77248" lon="3.70569">
        <ele>1093.099976</ele>
        <time>2017-05-26T10:28:14Z</time>
      </trkpt>
      <trkpt lat="45.7726" lon="3.70562">
        <ele>1093.099976</ele>
        <time>2017-05-26T10:28:17Z</time>
      </trkpt>
      <trkpt lat="45.77271" lon="3.70559">
        <ele>1093.400024</ele>
        <time>2017-05-26T10:28:20Z</time>
      </trkpt>
      <trkpt lat="45.77281" lon="3.70555">
        <ele>1093.699951</ele>
        <time>2017-05-26T10:28:23Z</time>
      </trkpt>
      <trkpt lat="45.77291" lon="3.70553">
        <ele>1094.099976</ele>
        <time>2017-05-26T10:28:26Z</time>
      </trkpt>
      <trkpt lat="45.77302" lon="3.70551">
        <ele>1094.699951</ele>
        <time>2017-05-26T10:28:29Z</time>
      </trkpt>
      <trkpt lat="45.77313" lon="3.70552">
        <ele>1095.300049</ele>
        <time>2017-05-26T10:28:32Z</time>
      </trkpt>
      <trkpt lat="45.77324" lon="3.70553">
        <ele>1095.699951</ele>
        <time>2017-05-26T10:28:35Z</time>
      </trkpt>
      <trkpt lat="45.77334" lon="3.70554">
        <ele>1095.900024</ele>
        <time>2017-05-26T10:28:38Z</time>
      </trkpt>
      <trkpt lat="45.77343" lon="3.70553">
        <ele>1096.099976</ele>
        <time>2017-05-26T10:28:41Z</time>
      </trkpt>
      <trkpt lat="45.77354" lon="3.70549">
        <ele>1096.599976</ele>
        <time>2017-05-26T10:28:44Z</time>
      </trkpt>
      <trkpt lat="45.77366" lon="3.70546">
        <ele>1097</ele>
        <time>2017-05-26T10:28:47Z</time>
      </trkpt>
      <trkpt lat="45.77375" lon="3.70544">
        <ele>1096.900024</ele>
        <time>2017-05-26T10:28:49Z</time>
      </trkpt>
      <trkpt lat="45.77388" lon="3.70544">
        <ele>1096.800049</ele>
        <time>2017-05-26T10:28:52Z</time>
      </trkpt>
      <trkpt lat="45.774" lon="3.7055">
        <ele>1096.699951</ele>
        <time>2017-05-26T10:28:55Z</time>
      </trkpt>
      <trkpt lat="45.77409" lon="3.70561">
        <ele>1096.699951</ele>
        <time>2017-05-26T10:28:58Z</time>
      </trkpt>
      <trkpt lat="45.77415" lon="3.70573">
        <ele>1096.699951</ele>
        <time>2017-05-26T10:29:01Z</time>
      </trkpt>
      <trkpt lat="45.77421" lon="3.70585">
        <ele>1096.800049</ele>
        <time>2017-05-26T10:29:04Z</time>
      </trkpt>
      <trkpt lat="45.77428" lon="3.70595">
        <ele>1096.599976</ele>
        <time>2017-05-26T10:29:07Z</time>
      </trkpt>
      <trkpt lat="45.77439" lon="3.70596">
        <ele>1096.199951</ele>
        <time>2017-05-26T10:29:10Z</time>
      </trkpt>
      <trkpt lat="45.77448" lon="3.70587">
        <ele>1096.300049</ele>
        <time>2017-05-26T10:29:13Z</time>
      </trkpt>
      <trkpt lat="45.77453" lon="3.70571">
        <ele>1096.400024</ele>
        <time>2017-05-26T10:29:16Z</time>
      </trkpt>
      <trkpt lat="45.77454" lon="3.70554">
        <ele>1096.5</ele>
        <time>2017-05-26T10:29:19Z</time>
      </trkpt>
      <trkpt lat="45.77456" lon="3.70537">
        <ele>1096.699951</ele>
        <time>2017-05-26T10:29:22Z</time>
      </trkpt>
      <trkpt lat="45.77459" lon="3.7052">
        <ele>1097</ele>
        <time>2017-05-26T10:29:25Z</time>
      </trkpt>
      <trkpt lat="45.77464" lon="3.70505">
        <ele>1097.400024</ele>
        <time>2017-05-26T10:29:28Z</time>
      </trkpt>
      <trkpt lat="45.77473" lon="3.70492">
        <ele>1097.599976</ele>
        <time>2017-05-26T10:29:31Z</time>
      </trkpt>
      <trkpt lat="45.77482" lon="3.70481">
        <ele>1097.599976</ele>
        <time>2017-05-26T10:29:34Z</time>
      </trkpt>
      <trkpt lat="45.77492" lon="3.7047">
        <ele>1097.699951</ele>
        <time>2017-05-26T10:29:37Z</time>
      </trkpt>
      <trkpt lat="45.77501" lon="3.7046">
        <ele>1097.300049</ele>
        <time>2017-05-26T10:29:40Z</time>
      </trkpt>
      <trkpt lat="45.77507" lon="3.70447">
        <ele>1097.400024</ele>
        <time>2017-05-26T10:29:43Z</time>
      </trkpt>
      <trkpt lat="45.77512" lon="3.70433">
        <ele>1097.699951</ele>
        <time>2017-05-26T10:29:46Z</time>
      </trkpt>
      <trkpt lat="45.77515" lon="3.70425">
        <ele>1098.099976</ele>
        <time>2017-05-26T10:31:23Z</time>
      </trkpt>
      <trkpt lat="45.77515" lon="3.70411">
        <ele>1097.900024</ele>
        <time>2017-05-26T10:31:31Z</time>
      </trkpt>
      <trkpt lat="45.77515" lon="3.70397">
        <ele>1097.800049</ele>
        <time>2017-05-26T11:38:27Z</time>
      </trkpt>
      <trkpt lat="45.77522" lon="3.70387">
        <ele>1098.699951</ele>
        <time>2017-05-26T11:40:09Z</time>
      </trkpt>
      <trkpt lat="45.77528" lon="3.70375">
        <ele>1098.599976</ele>
        <time>2017-05-26T11:40:19Z</time>
      </trkpt>
      <trkpt lat="45.77532" lon="3.70363">
        <ele>1098.800049</ele>
        <time>2017-05-26T11:40:30Z</time>
      </trkpt>
      <trkpt lat="45.77539" lon="3.70353">
        <ele>1098.900024</ele>
        <time>2017-05-26T11:40:48Z</time>
      </trkpt>
      <trkpt lat="45.77546" lon="3.70343">
        <ele>1098.900024</ele>
        <time>2017-05-26T11:42:07Z</time>
      </trkpt>
      <trkpt lat="45.77554" lon="3.70335">
        <ele>1099</ele>
        <time>2017-05-26T11:42:11Z</time>
      </trkpt>
      <trkpt lat="45.77562" lon="3.70328">
        <ele>1099.199951</ele>
        <time>2017-05-26T11:42:14Z</time>
      </trkpt>
      <trkpt lat="45.7757" lon="3.7032">
        <ele>1099.400024</ele>
        <time>2017-05-26T11:42:17Z</time>
      </trkpt>
      <trkpt lat="45.7758" lon="3.70311">
        <ele>1099.5</ele>
        <time>2017-05-26T11:42:20Z</time>
      </trkpt>
      <trkpt lat="45.77588" lon="3.70301">
        <ele>1099.5</ele>
        <time>2017-05-26T11:42:23Z</time>
      </trkpt>
      <trkpt lat="45.77597" lon="3.7029">
        <ele>1099.400024</ele>
        <time>2017-05-26T11:42:26Z</time>
      </trkpt>
      <trkpt lat="45.77603" lon="3.70275">
        <ele>1099.099976</ele>
        <time>2017-05-26T11:42:29Z</time>
      </trkpt>
      <trkpt lat="45.77612" lon="3.70264">
        <ele>1098.900024</ele>
        <time>2017-05-26T11:42:32Z</time>
      </trkpt>
      <trkpt lat="45.77619" lon="3.70256">
        <ele>1099</ele>
        <time>2017-05-26T11:42:35Z</time>
      </trkpt>
      <trkpt lat="45.77626" lon="3.70246">
        <ele>1099.400024</ele>
        <time>2017-05-26T11:42:39Z</time>
      </trkpt>
      <trkpt lat="45.77633" lon="3.70236">
        <ele>1100.800049</ele>
        <time>2017-05-26T11:42:44Z</time>
      </trkpt>
      <trkpt lat="45.7764" lon="3.70227">
        <ele>1103.199951</ele>
        <time>2017-05-26T11:42:57Z</time>
      </trkpt>
      <trkpt lat="45.77644" lon="3.70216">
        <ele>1104.900024</ele>
        <time>2017-05-26T11:43:09Z</time>
      </trkpt>
      <trkpt lat="45.77652" lon="3.70208">
        <ele>1106.199951</ele>
        <time>2017-05-26T11:43:29Z</time>
      </trkpt>
      <trkpt lat="45.77658" lon="3.70198">
        <ele>1107.199951</ele>
        <time>2017-05-26T11:43:37Z</time>
      </trkpt>
      <trkpt lat="45.77666" lon="3.7019">
        <ele>1108.599976</ele>
        <time>2017-05-26T11:43:45Z</time>
      </trkpt>
      <trkpt lat="45.77674" lon="3.70182">
        <ele>1110</ele>
        <time>2017-05-26T11:43:53Z</time>
      </trkpt>
      <trkpt lat="45.77682" lon="3.70173">
        <ele>1110.900024</ele>
        <time>2017-05-26T11:43:59Z</time>
      </trkpt>
      <trkpt lat="45.77691" lon="3.70166">
        <ele>1111.5</ele>
        <time>2017-05-26T11:44:05Z</time>
      </trkpt>
      <trkpt lat="45.77699" lon="3.70157">
        <ele>1112</ele>
        <time>2017-05-26T11:44:10Z</time>
      </trkpt>
      <trkpt lat="45.77707" lon="3.70151">
        <ele>1112.300049</ele>
        <time>2017-05-26T11:44:14Z</time>
      </trkpt>
      <trkpt lat="45.77715" lon="3.70142">
        <ele>1112.5</ele>
        <time>2017-05-26T11:44:18Z</time>
      </trkpt>
      <trkpt lat="45.77724" lon="3.70133">
        <ele>1112.800049</ele>
        <time>2017-05-26T11:44:22Z</time>
      </trkpt>
      <trkpt lat="45.77732" lon="3.70126">
        <ele>1113.199951</ele>
        <time>2017-05-26T11:44:25Z</time>
      </trkpt>
      <trkpt lat="45.7774" lon="3.7012">
        <ele>1113.099976</ele>
        <time>2017-05-26T11:44:28Z</time>
      </trkpt>
      <trkpt lat="45.77751" lon="3.70112">
        <ele>1113.5</ele>
        <time>2017-05-26T11:44:32Z</time>
      </trkpt>
      <trkpt lat="45.77761" lon="3.70105">
        <ele>1113.5</ele>
        <time>2017-05-26T11:44:36Z</time>
      </trkpt>
      <trkpt lat="45.77769" lon="3.70097">
        <ele>1113.599976</ele>
        <time>2017-05-26T11:44:39Z</time>
      </trkpt>
      <trkpt lat="45.77778" lon="3.7009">
        <ele>1113.800049</ele>
        <time>2017-05-26T11:44:42Z</time>
      </trkpt>
      <trkpt lat="45.77787" lon="3.70083">
        <ele>1113.900024</ele>
        <time>2017-05-26T11:44:45Z</time>
      </trkpt>
      <trkpt lat="45.77796" lon="3.70076">
        <ele>1113.800049</ele>
        <time>2017-05-26T11:44:48Z</time>
      </trkpt>
      <trkpt lat="45.77804" lon="3.70068">
        <ele>1113.699951</ele>
        <time>2017-05-26T11:44:51Z</time>
      </trkpt>
      <trkpt lat="45.77813" lon="3.70062">
        <ele>1113.5</ele>
        <time>2017-05-26T11:44:54Z</time>
      </trkpt>
      <trkpt lat="45.77822" lon="3.70056">
        <ele>1113.300049</ele>
        <time>2017-05-26T11:44:57Z</time>
      </trkpt>
      <trkpt lat="45.77833" lon="3.70048">
        <ele>1113</ele>
        <time>2017-05-26T11:45:01Z</time>
      </trkpt>
      <trkpt lat="45.77842" lon="3.70039">
        <ele>1112.400024</ele>
        <time>2017-05-26T11:45:04Z</time>
      </trkpt>
      <trkpt lat="45.7785" lon="3.7003">
        <ele>1111.900024</ele>
        <time>2017-05-26T11:45:07Z</time>
      </trkpt>
      <trkpt lat="45.77859" lon="3.70022">
        <ele>1111.800049</ele>
        <time>2017-05-26T11:45:10Z</time>
      </trkpt>
      <trkpt lat="45.77868" lon="3.70017">
        <ele>1111.900024</ele>
        <time>2017-05-26T11:45:13Z</time>
      </trkpt>
      <trkpt lat="45.77877" lon="3.70012">
        <ele>1112</ele>
        <time>2017-05-26T11:45:18Z</time>
      </trkpt>
      <trkpt lat="45.77886" lon="3.70007">
        <ele>1111.900024</ele>
        <time>2017-05-26T11:45:22Z</time>
      </trkpt>
      <trkpt lat="45.77896" lon="3.70002">
        <ele>1111.800049</ele>
        <time>2017-05-26T11:45:26Z</time>
      </trkpt>
      <trkpt lat="45.77906" lon="3.69998">
        <ele>1111.599976</ele>
        <time>2017-05-26T11:45:31Z</time>
      </trkpt>
      <trkpt lat="45.77917" lon="3.69996">
        <ele>1111.599976</ele>
        <time>2017-05-26T11:45:53Z</time>
      </trkpt>
      <trkpt lat="45.77926" lon="3.69996">
        <ele>1111.800049</ele>
        <time>2017-05-26T11:45:57Z</time>
      </trkpt>
      <trkpt lat="45.77937" lon="3.69994">
        <ele>1112.800049</ele>
        <time>2017-05-26T11:46:03Z</time>
      </trkpt>
      <trkpt lat="45.77948" lon="3.69994">
        <ele>1113.400024</ele>
        <time>2017-05-26T11:46:08Z</time>
      </trkpt>
      <trkpt lat="45.77958" lon="3.69993">
        <ele>1114.199951</ele>
        <time>2017-05-26T11:46:14Z</time>
      </trkpt>
      <trkpt lat="45.77968" lon="3.69992">
        <ele>1115</ele>
        <time>2017-05-26T11:46:21Z</time>
      </trkpt>
      <trkpt lat="45.77977" lon="3.69992">
        <ele>1115.800049</ele>
        <time>2017-05-26T11:46:27Z</time>
      </trkpt>
      <trkpt lat="45.77987" lon="3.69991">
        <ele>1116.699951</ele>
        <time>2017-05-26T11:46:34Z</time>
      </trkpt>
      <trkpt lat="45.77997" lon="3.69991">
        <ele>1117.400024</ele>
        <time>2017-05-26T11:46:41Z</time>
      </trkpt>
      <trkpt lat="45.78006" lon="3.69989">
        <ele>1117.900024</ele>
        <time>2017-05-26T11:46:47Z</time>
      </trkpt>
      <trkpt lat="45.78016" lon="3.69989">
        <ele>1118.599976</ele>
        <time>2017-05-26T11:46:54Z</time>
      </trkpt>
      <trkpt lat="45.78026" lon="3.69988">
        <ele>1119.699951</ele>
        <time>2017-05-26T11:47:01Z</time>
      </trkpt>
      <trkpt lat="45.78036" lon="3.69989">
        <ele>1121</ele>
        <time>2017-05-26T11:47:08Z</time>
      </trkpt>
      <trkpt lat="45.78046" lon="3.6999">
        <ele>1121.900024</ele>
        <time>2017-05-26T11:47:14Z</time>
      </trkpt>
      <trkpt lat="45.78055" lon="3.69992">
        <ele>1122.199951</ele>
        <time>2017-05-26T11:47:20Z</time>
      </trkpt>
      <trkpt lat="45.78064" lon="3.69995">
        <ele>1123</ele>
        <time>2017-05-26T11:47:27Z</time>
      </trkpt>
      <trkpt lat="45.78073" lon="3.7">
        <ele>1123.900024</ele>
        <time>2017-05-26T11:47:34Z</time>
      </trkpt>
      <trkpt lat="45.7808" lon="3.70011">
        <ele>1125.300049</ele>
        <time>2017-05-26T11:47:42Z</time>
      </trkpt>
      <trkpt lat="45.78082" lon="3.70025">
        <ele>1126.800049</ele>
        <time>2017-05-26T11:47:50Z</time>
      </trkpt>
      <trkpt lat="45.78082" lon="3.70038">
        <ele>1127.900024</ele>
        <time>2017-05-26T11:47:57Z</time>
      </trkpt>
      <trkpt lat="45.78083" lon="3.70053">
        <ele>1129</ele>
        <time>2017-05-26T11:48:05Z</time>
      </trkpt>
      <trkpt lat="45.78086" lon="3.70066">
        <ele>1129.699951</ele>
        <time>2017-05-26T11:48:12Z</time>
      </trkpt>
      <trkpt lat="45.78088" lon="3.70079">
        <ele>1130.5</ele>
        <time>2017-05-26T11:48:19Z</time>
      </trkpt>
      <trkpt lat="45.7809" lon="3.70093">
        <ele>1131.599976</ele>
        <time>2017-05-26T11:48:26Z</time>
      </trkpt>
      <trkpt lat="45.78092" lon="3.70106">
        <ele>1132.400024</ele>
        <time>2017-05-26T11:48:33Z</time>
      </trkpt>
      <trkpt lat="45.78094" lon="3.7012">
        <ele>1133.400024</ele>
        <time>2017-05-26T11:48:40Z</time>
      </trkpt>
      <trkpt lat="45.78096" lon="3.70134">
        <ele>1134.199951</ele>
        <time>2017-05-26T11:48:47Z</time>
      </trkpt>
      <trkpt lat="45.78098" lon="3.70146">
        <ele>1134.699951</ele>
        <time>2017-05-26T11:48:54Z</time>
      </trkpt>
      <trkpt lat="45.78099" lon="3.7016">
        <ele>1135.900024</ele>
        <time>2017-05-26T11:49:02Z</time>
      </trkpt>
      <trkpt lat="45.78102" lon="3.70174">
        <ele>1137</ele>
        <time>2017-05-26T11:49:09Z</time>
      </trkpt>
      <trkpt lat="45.78105" lon="3.70187">
        <ele>1137.900024</ele>
        <time>2017-05-26T11:49:17Z</time>
      </trkpt>
      <trkpt lat="45.78105" lon="3.70201">
        <ele>1138.800049</ele>
        <time>2017-05-26T11:49:25Z</time>
      </trkpt>
      <trkpt lat="45.78099" lon="3.70213">
        <ele>1139.900024</ele>
        <time>2017-05-26T11:49:32Z</time>
      </trkpt>
      <trkpt lat="45.78091" lon="3.7022">
        <ele>1141</ele>
        <time>2017-05-26T11:49:39Z</time>
      </trkpt>
      <trkpt lat="45.78083" lon="3.70223">
        <ele>1142</ele>
        <time>2017-05-26T11:49:46Z</time>
      </trkpt>
      <trkpt lat="45.78073" lon="3.70226">
        <ele>1143</ele>
        <time>2017-05-26T11:49:53Z</time>
      </trkpt>
      <trkpt lat="45.78064" lon="3.7023">
        <ele>1144.199951</ele>
        <time>2017-05-26T11:49:59Z</time>
      </trkpt>
      <trkpt lat="45.78054" lon="3.70234">
        <ele>1145.300049</ele>
        <time>2017-05-26T11:50:07Z</time>
      </trkpt>
      <trkpt lat="45.78045" lon="3.70237">
        <ele>1146.199951</ele>
        <time>2017-05-26T11:50:13Z</time>
      </trkpt>
      <trkpt lat="45.78037" lon="3.7024">
        <ele>1146.800049</ele>
        <time>2017-05-26T11:50:19Z</time>
      </trkpt>
      <trkpt lat="45.78027" lon="3.70241">
        <ele>1147.199951</ele>
        <time>2017-05-26T11:50:24Z</time>
      </trkpt>
      <trkpt lat="45.78017" lon="3.70244">
        <ele>1147.699951</ele>
        <time>2017-05-26T11:50:29Z</time>
      </trkpt>
      <trkpt lat="45.78008" lon="3.70244">
        <ele>1148.099976</ele>
        <time>2017-05-26T11:50:33Z</time>
      </trkpt>
      <trkpt lat="45.77998" lon="3.70244">
        <ele>1148.599976</ele>
        <time>2017-05-26T11:50:37Z</time>
      </trkpt>
      <trkpt lat="45.77987" lon="3.70245">
        <ele>1149</ele>
        <time>2017-05-26T11:50:41Z</time>
      </trkpt>
      <trkpt lat="45.77976" lon="3.70246">
        <ele>1149.300049</ele>
        <time>2017-05-26T11:50:46Z</time>
      </trkpt>
      <trkpt lat="45.77968" lon="3.70248">
        <ele>1149.599976</ele>
        <time>2017-05-26T11:50:51Z</time>
      </trkpt>
      <trkpt lat="45.77957" lon="3.7025">
        <ele>1150.400024</ele>
        <time>2017-05-26T11:50:57Z</time>
      </trkpt>
      <trkpt lat="45.77947" lon="3.70254">
        <ele>1151.199951</ele>
        <time>2017-05-26T11:51:03Z</time>
      </trkpt>
      <trkpt lat="45.77939" lon="3.70258">
        <ele>1151.5</ele>
        <time>2017-05-26T11:51:08Z</time>
      </trkpt>
      <trkpt lat="45.77929" lon="3.70263">
        <ele>1152.400024</ele>
        <time>2017-05-26T11:51:14Z</time>
      </trkpt>
      <trkpt lat="45.77919" lon="3.70269">
        <ele>1152.900024</ele>
        <time>2017-05-26T11:51:20Z</time>
      </trkpt>
      <trkpt lat="45.77911" lon="3.70278">
        <ele>1153.900024</ele>
        <time>2017-05-26T11:51:26Z</time>
      </trkpt>
      <trkpt lat="45.77904" lon="3.70287">
        <ele>1154.699951</ele>
        <time>2017-05-26T11:51:33Z</time>
      </trkpt>
      <trkpt lat="45.77896" lon="3.70296">
        <ele>1155.400024</ele>
        <time>2017-05-26T11:51:39Z</time>
      </trkpt>
      <trkpt lat="45.77889" lon="3.70306">
        <ele>1156.800049</ele>
        <time>2017-05-26T11:51:46Z</time>
      </trkpt>
      <trkpt lat="45.77881" lon="3.70315">
        <ele>1157.699951</ele>
        <time>2017-05-26T11:51:52Z</time>
      </trkpt>
      <trkpt lat="45.77874" lon="3.70324">
        <ele>1158.900024</ele>
        <time>2017-05-26T11:51:58Z</time>
      </trkpt>
      <trkpt lat="45.77867" lon="3.70334">
        <ele>1159.5</ele>
        <time>2017-05-26T11:52:04Z</time>
      </trkpt>
      <trkpt lat="45.77861" lon="3.70345">
        <ele>1160.599976</ele>
        <time>2017-05-26T11:52:10Z</time>
      </trkpt>
      <trkpt lat="45.77856" lon="3.70358">
        <ele>1161.300049</ele>
        <time>2017-05-26T11:52:16Z</time>
      </trkpt>
      <trkpt lat="45.77851" lon="3.7037">
        <ele>1162.400024</ele>
        <time>2017-05-26T11:52:22Z</time>
      </trkpt>
      <trkpt lat="45.77847" lon="3.70382">
        <ele>1163.400024</ele>
        <time>2017-05-26T11:52:28Z</time>
      </trkpt>
      <trkpt lat="45.77843" lon="3.70394">
        <ele>1164.400024</ele>
        <time>2017-05-26T11:52:33Z</time>
      </trkpt>
      <trkpt lat="45.77838" lon="3.70406">
        <ele>1165.199951</ele>
        <time>2017-05-26T11:52:38Z</time>
      </trkpt>
      <trkpt lat="45.77835" lon="3.7042">
        <ele>1165.699951</ele>
        <time>2017-05-26T11:52:44Z</time>
      </trkpt>
      <trkpt lat="45.77835" lon="3.70435">
        <ele>1166.800049</ele>
        <time>2017-05-26T11:52:51Z</time>
      </trkpt>
      <trkpt lat="45.77832" lon="3.70448">
        <ele>1167.900024</ele>
        <time>2017-05-26T11:52:57Z</time>
      </trkpt>
      <trkpt lat="45.77826" lon="3.7046">
        <ele>1168.900024</ele>
        <time>2017-05-26T11:53:02Z</time>
      </trkpt>
      <trkpt lat="45.77825" lon="3.70473">
        <ele>1169.699951</ele>
        <time>2017-05-26T11:53:07Z</time>
      </trkpt>
      <trkpt lat="45.77823" lon="3.70488">
        <ele>1170.400024</ele>
        <time>2017-05-26T11:53:12Z</time>
      </trkpt>
      <trkpt lat="45.7782" lon="3.70501">
        <ele>1171.400024</ele>
        <time>2017-05-26T11:53:17Z</time>
      </trkpt>
      <trkpt lat="45.77818" lon="3.70514">
        <ele>1172.099976</ele>
        <time>2017-05-26T11:53:22Z</time>
      </trkpt>
      <trkpt lat="45.77816" lon="3.7053">
        <ele>1173.099976</ele>
        <time>2017-05-26T11:53:27Z</time>
      </trkpt>
      <trkpt lat="45.77815" lon="3.70545">
        <ele>1173.800049</ele>
        <time>2017-05-26T11:53:32Z</time>
      </trkpt>
      <trkpt lat="45.77813" lon="3.70558">
        <ele>1174.400024</ele>
        <time>2017-05-26T11:53:37Z</time>
      </trkpt>
      <trkpt lat="45.77811" lon="3.70572">
        <ele>1175.900024</ele>
        <time>2017-05-26T11:53:43Z</time>
      </trkpt>
      <trkpt lat="45.7781" lon="3.70585">
        <ele>1177</ele>
        <time>2017-05-26T11:53:48Z</time>
      </trkpt>
      <trkpt lat="45.77811" lon="3.706">
        <ele>1177.699951</ele>
        <time>2017-05-26T11:53:53Z</time>
      </trkpt>
      <trkpt lat="45.7781" lon="3.70614">
        <ele>1179</ele>
        <time>2017-05-26T11:53:59Z</time>
      </trkpt>
      <trkpt lat="45.77809" lon="3.70627">
        <ele>1179.900024</ele>
        <time>2017-05-26T11:54:04Z</time>
      </trkpt>
      <trkpt lat="45.77807" lon="3.7064">
        <ele>1181.099976</ele>
        <time>2017-05-26T11:54:10Z</time>
      </trkpt>
      <trkpt lat="45.77808" lon="3.70654">
        <ele>1182.599976</ele>
        <time>2017-05-26T11:54:17Z</time>
      </trkpt>
      <trkpt lat="45.77805" lon="3.70667">
        <ele>1183.5</ele>
        <time>2017-05-26T11:54:22Z</time>
      </trkpt>
      <trkpt lat="45.77804" lon="3.70681">
        <ele>1184.5</ele>
        <time>2017-05-26T11:54:28Z</time>
      </trkpt>
      <trkpt lat="45.77803" lon="3.70695">
        <ele>1185.699951</ele>
        <time>2017-05-26T11:54:34Z</time>
      </trkpt>
      <trkpt lat="45.77804" lon="3.7071">
        <ele>1187.099976</ele>
        <time>2017-05-26T11:54:40Z</time>
      </trkpt>
      <trkpt lat="45.77801" lon="3.70725">
        <ele>1188.400024</ele>
        <time>2017-05-26T11:54:46Z</time>
      </trkpt>
      <trkpt lat="45.77799" lon="3.7074">
        <ele>1189.5</ele>
        <time>2017-05-26T11:54:51Z</time>
      </trkpt>
      <trkpt lat="45.77797" lon="3.70754">
        <ele>1190.900024</ele>
        <time>2017-05-26T11:54:57Z</time>
      </trkpt>
      <trkpt lat="45.77796" lon="3.70768">
        <ele>1191.900024</ele>
        <time>2017-05-26T11:55:02Z</time>
      </trkpt>
      <trkpt lat="45.77794" lon="3.70782">
        <ele>1193.199951</ele>
        <time>2017-05-26T11:55:07Z</time>
      </trkpt>
      <trkpt lat="45.77792" lon="3.70796">
        <ele>1193.900024</ele>
        <time>2017-05-26T11:55:12Z</time>
      </trkpt>
      <trkpt lat="45.77792" lon="3.70809">
        <ele>1194.800049</ele>
        <time>2017-05-26T11:55:17Z</time>
      </trkpt>
      <trkpt lat="45.77793" lon="3.70824">
        <ele>1195.699951</ele>
        <time>2017-05-26T11:55:22Z</time>
      </trkpt>
      <trkpt lat="45.77791" lon="3.70837">
        <ele>1196.199951</ele>
        <time>2017-05-26T11:55:26Z</time>
      </trkpt>
      <trkpt lat="45.77791" lon="3.7085">
        <ele>1196.900024</ele>
        <time>2017-05-26T11:55:30Z</time>
      </trkpt>
      <trkpt lat="45.77789" lon="3.70866">
        <ele>1197.400024</ele>
        <time>2017-05-26T11:55:34Z</time>
      </trkpt>
      <trkpt lat="45.77788" lon="3.70882">
        <ele>1198.300049</ele>
        <time>2017-05-26T11:55:39Z</time>
      </trkpt>
      <trkpt lat="45.77788" lon="3.70898">
        <ele>1199</ele>
        <time>2017-05-26T11:55:44Z</time>
      </trkpt>
      <trkpt lat="45.77789" lon="3.70914">
        <ele>1199.699951</ele>
        <time>2017-05-26T11:55:49Z</time>
      </trkpt>
      <trkpt lat="45.77789" lon="3.70928">
        <ele>1200.400024</ele>
        <time>2017-05-26T11:55:53Z</time>
      </trkpt>
      <trkpt lat="45.7779" lon="3.70942">
        <ele>1201.099976</ele>
        <time>2017-05-26T11:55:57Z</time>
      </trkpt>
      <trkpt lat="45.7779" lon="3.70957">
        <ele>1201.900024</ele>
        <time>2017-05-26T11:56:01Z</time>
      </trkpt>
      <trkpt lat="45.77788" lon="3.70969">
        <ele>1202.099976</ele>
        <time>2017-05-26T11:56:04Z</time>
      </trkpt>
      <trkpt lat="45.77789" lon="3.70983">
        <ele>1202.800049</ele>
        <time>2017-05-26T11:56:08Z</time>
      </trkpt>
      <trkpt lat="45.77791" lon="3.70998">
        <ele>1203.400024</ele>
        <time>2017-05-26T11:56:12Z</time>
      </trkpt>
      <trkpt lat="45.77794" lon="3.7101">
        <ele>1203.900024</ele>
        <time>2017-05-26T11:56:16Z</time>
      </trkpt>
      <trkpt lat="45.77796" lon="3.71024">
        <ele>1204.699951</ele>
        <time>2017-05-26T11:56:21Z</time>
      </trkpt>
      <trkpt lat="45.77797" lon="3.71038">
        <ele>1205.599976</ele>
        <time>2017-05-26T11:56:26Z</time>
      </trkpt>
      <trkpt lat="45.77799" lon="3.71053">
        <ele>1206.800049</ele>
        <time>2017-05-26T11:56:32Z</time>
      </trkpt>
      <trkpt lat="45.77802" lon="3.71066">
        <ele>1207.599976</ele>
        <time>2017-05-26T11:56:37Z</time>
      </trkpt>
      <trkpt lat="45.77802" lon="3.7108">
        <ele>1208.199951</ele>
        <time>2017-05-26T11:56:42Z</time>
      </trkpt>
      <trkpt lat="45.77804" lon="3.71094">
        <ele>1209.199951</ele>
        <time>2017-05-26T11:56:47Z</time>
      </trkpt>
      <trkpt lat="45.77807" lon="3.71107">
        <ele>1210.300049</ele>
        <time>2017-05-26T11:56:52Z</time>
      </trkpt>
      <trkpt lat="45.778" lon="3.71136">
        <ele>1212.699951</ele>
        <time>2017-05-26T12:02:50Z</time>
      </trkpt>
      <trkpt lat="45.77803" lon="3.71149">
        <ele>1213.900024</ele>
        <time>2017-05-26T12:02:57Z</time>
      </trkpt>
      <trkpt lat="45.77806" lon="3.71162">
        <ele>1215.599976</ele>
        <time>2017-05-26T12:03:05Z</time>
      </trkpt>
      <trkpt lat="45.77808" lon="3.71175">
        <ele>1217.5</ele>
        <time>2017-05-26T12:03:16Z</time>
      </trkpt>
      <trkpt lat="45.7781" lon="3.71188">
        <ele>1219.199951</ele>
        <time>2017-05-26T12:03:32Z</time>
      </trkpt>
      <trkpt lat="45.77813" lon="3.71202">
        <ele>1220.300049</ele>
        <time>2017-05-26T12:03:41Z</time>
      </trkpt>
      <trkpt lat="45.77814" lon="3.71216">
        <ele>1221.599976</ele>
        <time>2017-05-26T12:03:51Z</time>
      </trkpt>
      <trkpt lat="45.77815" lon="3.71229">
        <ele>1223.099976</ele>
        <time>2017-05-26T12:04:02Z</time>
      </trkpt>
      <trkpt lat="45.77817" lon="3.71242">
        <ele>1224.599976</ele>
        <time>2017-05-26T12:04:11Z</time>
      </trkpt>
      <trkpt lat="45.7782" lon="3.71257">
        <ele>1226.199951</ele>
        <time>2017-05-26T12:04:21Z</time>
      </trkpt>
      <trkpt lat="45.77824" lon="3.71269">
        <ele>1227.900024</ele>
        <time>2017-05-26T12:04:30Z</time>
      </trkpt>
      <trkpt lat="45.77827" lon="3.71283">
        <ele>1229.900024</ele>
        <time>2017-05-26T12:04:39Z</time>
      </trkpt>
      <trkpt lat="45.7783" lon="3.71295">
        <ele>1231.599976</ele>
        <time>2017-05-26T12:04:48Z</time>
      </trkpt>
      <trkpt lat="45.77835" lon="3.71306">
        <ele>1233.099976</ele>
        <time>2017-05-26T12:04:57Z</time>
      </trkpt>
      <trkpt lat="45.77839" lon="3.71318">
        <ele>1234.599976</ele>
        <time>2017-05-26T12:05:07Z</time>
      </trkpt>
      <trkpt lat="45.77845" lon="3.71329">
        <ele>1235.699951</ele>
        <time>2017-05-26T12:05:14Z</time>
      </trkpt>
      <trkpt lat="45.77851" lon="3.7134">
        <ele>1237.099976</ele>
        <time>2017-05-26T12:05:22Z</time>
      </trkpt>
      <trkpt lat="45.77858" lon="3.71349">
        <ele>1238.099976</ele>
        <time>2017-05-26T12:05:29Z</time>
      </trkpt>
      <trkpt lat="45.77866" lon="3.71358">
        <ele>1239.099976</ele>
        <time>2017-05-26T12:05:37Z</time>
      </trkpt>
      <trkpt lat="45.77874" lon="3.71366">
        <ele>1240.099976</ele>
        <time>2017-05-26T12:05:45Z</time>
      </trkpt>
      <trkpt lat="45.7788" lon="3.71375">
        <ele>1240.699951</ele>
        <time>2017-05-26T12:05:52Z</time>
      </trkpt>
      <trkpt lat="45.77887" lon="3.71386">
        <ele>1241.599976</ele>
        <time>2017-05-26T12:05:59Z</time>
      </trkpt>
      <trkpt lat="45.77896" lon="3.71392">
        <ele>1242.300049</ele>
        <time>2017-05-26T12:06:04Z</time>
      </trkpt>
      <trkpt lat="45.77903" lon="3.714">
        <ele>1242.900024</ele>
        <time>2017-05-26T12:06:09Z</time>
      </trkpt>
      <trkpt lat="45.77912" lon="3.71409">
        <ele>1243.900024</ele>
        <time>2017-05-26T12:06:15Z</time>
      </trkpt>
      <trkpt lat="45.77922" lon="3.71416">
        <ele>1244.199951</ele>
        <time>2017-05-26T12:06:21Z</time>
      </trkpt>
      <trkpt lat="45.77931" lon="3.71422">
        <ele>1244.400024</ele>
        <time>2017-05-26T12:06:25Z</time>
      </trkpt>
      <trkpt lat="45.7794" lon="3.71428">
        <ele>1244.599976</ele>
        <time>2017-05-26T12:06:30Z</time>
      </trkpt>
      <trkpt lat="45.77948" lon="3.71433">
        <ele>1244.900024</ele>
        <time>2017-05-26T12:06:35Z</time>
      </trkpt>
      <trkpt lat="45.77952" lon="3.71445">
        <ele>1244.5</ele>
        <time>2017-05-26T12:07:24Z</time>
      </trkpt>
      <trkpt lat="45.7796" lon="3.71453">
        <ele>1245.099976</ele>
        <time>2017-05-26T12:09:17Z</time>
      </trkpt>
      <trkpt lat="45.77962" lon="3.71468">
        <ele>1245.099976</ele>
        <time>2017-05-26T12:09:23Z</time>
      </trkpt>
      <trkpt lat="45.77973" lon="3.71479">
        <ele>1245.900024</ele>
        <time>2017-05-26T12:09:45Z</time>
      </trkpt>
      <trkpt lat="45.77982" lon="3.71483">
        <ele>1245.5</ele>
        <time>2017-05-26T12:09:52Z</time>
      </trkpt>
      <trkpt lat="45.7799" lon="3.71494">
        <ele>1245.400024</ele>
        <time>2017-05-26T12:09:58Z</time>
      </trkpt>
      <trkpt lat="45.77994" lon="3.71506">
        <ele>1245.300049</ele>
        <time>2017-05-26T12:10:03Z</time>
      </trkpt>
      <trkpt lat="45.77998" lon="3.71519">
        <ele>1245.5</ele>
        <time>2017-05-26T12:10:08Z</time>
      </trkpt>
      <trkpt lat="45.78002" lon="3.71533">
        <ele>1246.099976</ele>
        <time>2017-05-26T12:10:14Z</time>
      </trkpt>
      <trkpt lat="45.78008" lon="3.71542">
        <ele>1246.300049</ele>
        <time>2017-05-26T12:10:21Z</time>
      </trkpt>
      <trkpt lat="45.78016" lon="3.71551">
        <ele>1246.599976</ele>
        <time>2017-05-26T12:10:27Z</time>
      </trkpt>
      <trkpt lat="45.78024" lon="3.7156">
        <ele>1246.5</ele>
        <time>2017-05-26T12:10:32Z</time>
      </trkpt>
      <trkpt lat="45.78029" lon="3.71571">
        <ele>1246.599976</ele>
        <time>2017-05-26T12:10:36Z</time>
      </trkpt>
      <trkpt lat="45.78034" lon="3.71582">
        <ele>1247</ele>
        <time>2017-05-26T12:10:40Z</time>
      </trkpt>
      <trkpt lat="45.78041" lon="3.71594">
        <ele>1247.300049</ele>
        <time>2017-05-26T12:10:44Z</time>
      </trkpt>
      <trkpt lat="45.78046" lon="3.71605">
        <ele>1247.599976</ele>
        <time>2017-05-26T12:10:48Z</time>
      </trkpt>
      <trkpt lat="45.78053" lon="3.71613">
        <ele>1247.699951</ele>
        <time>2017-05-26T12:10:53Z</time>
      </trkpt>
      <trkpt lat="45.78062" lon="3.71622">
        <ele>1247.599976</ele>
        <time>2017-05-26T12:10:58Z</time>
      </trkpt>
      <trkpt lat="45.7807" lon="3.71632">
        <ele>1247.400024</ele>
        <time>2017-05-26T12:11:03Z</time>
      </trkpt>
      <trkpt lat="45.78076" lon="3.71642">
        <ele>1247.400024</ele>
        <time>2017-05-26T12:11:07Z</time>
      </trkpt>
      <trkpt lat="45.78083" lon="3.71653">
        <ele>1247.5</ele>
        <time>2017-05-26T12:11:13Z</time>
      </trkpt>
      <trkpt lat="45.78088" lon="3.71664">
        <ele>1247.5</ele>
        <time>2017-05-26T12:11:18Z</time>
      </trkpt>
      <trkpt lat="45.78092" lon="3.71676">
        <ele>1247.599976</ele>
        <time>2017-05-26T12:11:22Z</time>
      </trkpt>
      <trkpt lat="45.78098" lon="3.7169">
        <ele>1247.699951</ele>
        <time>2017-05-26T12:11:26Z</time>
      </trkpt>
      <trkpt lat="45.78103" lon="3.71702">
        <ele>1247.800049</ele>
        <time>2017-05-26T12:11:30Z</time>
      </trkpt>
      <trkpt lat="45.78108" lon="3.71716">
        <ele>1248.099976</ele>
        <time>2017-05-26T12:11:34Z</time>
      </trkpt>
      <trkpt lat="45.78113" lon="3.71729">
        <ele>1248.400024</ele>
        <time>2017-05-26T12:11:37Z</time>
      </trkpt>
      <trkpt lat="45.7812" lon="3.71738">
        <ele>1248.699951</ele>
        <time>2017-05-26T12:11:40Z</time>
      </trkpt>
      <trkpt lat="45.78127" lon="3.71748">
        <ele>1249.199951</ele>
        <time>2017-05-26T12:11:42Z</time>
      </trkpt>
      <trkpt lat="45.78133" lon="3.71764">
        <ele>1249.599976</ele>
        <time>2017-05-26T12:11:45Z</time>
      </trkpt>
      <trkpt lat="45.78139" lon="3.71774">
        <ele>1250.199951</ele>
        <time>2017-05-26T12:11:48Z</time>
      </trkpt>
      <trkpt lat="45.78148" lon="3.71777">
        <ele>1250</ele>
        <time>2017-05-26T12:12:45Z</time>
      </trkpt>
      <trkpt lat="45.78156" lon="3.71786">
        <ele>1250.099976</ele>
        <time>2017-05-26T12:12:58Z</time>
      </trkpt>
      <trkpt lat="45.7816" lon="3.71797">
        <ele>1250.300049</ele>
        <time>2017-05-26T12:13:02Z</time>
      </trkpt>
      <trkpt lat="45.78165" lon="3.7181">
        <ele>1250.400024</ele>
        <time>2017-05-26T12:13:06Z</time>
      </trkpt>
      <trkpt lat="45.78171" lon="3.71823">
        <ele>1250.5</ele>
        <time>2017-05-26T12:13:09Z</time>
      </trkpt>
      <trkpt lat="45.78178" lon="3.71834">
        <ele>1250.800049</ele>
        <time>2017-05-26T12:13:12Z</time>
      </trkpt>
      <trkpt lat="45.78184" lon="3.71847">
        <ele>1251.099976</ele>
        <time>2017-05-26T12:13:15Z</time>
      </trkpt>
      <trkpt lat="45.78192" lon="3.71858">
        <ele>1251.099976</ele>
        <time>2017-05-26T12:13:18Z</time>
      </trkpt>
      <trkpt lat="45.78197" lon="3.71871">
        <ele>1251.099976</ele>
        <time>2017-05-26T12:13:21Z</time>
      </trkpt>
      <trkpt lat="45.78204" lon="3.71882">
        <ele>1251.099976</ele>
        <time>2017-05-26T12:13:25Z</time>
      </trkpt>
      <trkpt lat="45.78207" lon="3.71895">
        <ele>1251.300049</ele>
        <time>2017-05-26T12:13:31Z</time>
      </trkpt>
      <trkpt lat="45.7821" lon="3.71909">
        <ele>1251.800049</ele>
        <time>2017-05-26T12:13:37Z</time>
      </trkpt>
      <trkpt lat="45.78216" lon="3.7192">
        <ele>1252.300049</ele>
        <time>2017-05-26T12:13:41Z</time>
      </trkpt>
      <trkpt lat="45.78222" lon="3.71931">
        <ele>1252.5</ele>
        <time>2017-05-26T12:13:46Z</time>
      </trkpt>
      <trkpt lat="45.7823" lon="3.71943">
        <ele>1252.800049</ele>
        <time>2017-05-26T12:13:51Z</time>
      </trkpt>
      <trkpt lat="45.78238" lon="3.71949">
        <ele>1252.900024</ele>
        <time>2017-05-26T12:13:55Z</time>
      </trkpt>
      <trkpt lat="45.78246" lon="3.71961">
        <ele>1252.900024</ele>
        <time>2017-05-26T12:13:59Z</time>
      </trkpt>
      <trkpt lat="45.7825" lon="3.71973">
        <ele>1252.900024</ele>
        <time>2017-05-26T12:14:02Z</time>
      </trkpt>
      <trkpt lat="45.78256" lon="3.71983">
        <ele>1253.5</ele>
        <time>2017-05-26T12:14:07Z</time>
      </trkpt>
      <trkpt lat="45.78258" lon="3.71997">
        <ele>1253.900024</ele>
        <time>2017-05-26T12:14:14Z</time>
      </trkpt>
      <trkpt lat="45.78266" lon="3.72004">
        <ele>1253.800049</ele>
        <time>2017-05-26T12:14:19Z</time>
      </trkpt>
      <trkpt lat="45.78274" lon="3.72011">
        <ele>1254</ele>
        <time>2017-05-26T12:14:23Z</time>
      </trkpt>
      <trkpt lat="45.7828" lon="3.72021">
        <ele>1253.800049</ele>
        <time>2017-05-26T12:14:27Z</time>
      </trkpt>
      <trkpt lat="45.78287" lon="3.72032">
        <ele>1254</ele>
        <time>2017-05-26T12:14:31Z</time>
      </trkpt>
      <trkpt lat="45.7829" lon="3.72044">
        <ele>1253.900024</ele>
        <time>2017-05-26T12:14:35Z</time>
      </trkpt>
      <trkpt lat="45.78296" lon="3.72056">
        <ele>1253.800049</ele>
        <time>2017-05-26T12:14:40Z</time>
      </trkpt>
      <trkpt lat="45.78303" lon="3.72066">
        <ele>1254.099976</ele>
        <time>2017-05-26T12:14:46Z</time>
      </trkpt>
      <trkpt lat="45.78307" lon="3.72078">
        <ele>1254.400024</ele>
        <time>2017-05-26T12:14:52Z</time>
      </trkpt>
      <trkpt lat="45.78314" lon="3.7209">
        <ele>1254.800049</ele>
        <time>2017-05-26T12:14:58Z</time>
      </trkpt>
      <trkpt lat="45.7832" lon="3.72099">
        <ele>1255.199951</ele>
        <time>2017-05-26T12:15:03Z</time>
      </trkpt>
      <trkpt lat="45.78327" lon="3.72108">
        <ele>1255.5</ele>
        <time>2017-05-26T12:15:08Z</time>
      </trkpt>
      <trkpt lat="45.78333" lon="3.72118">
        <ele>1255.599976</ele>
        <time>2017-05-26T12:15:11Z</time>
      </trkpt>
      <trkpt lat="45.78337" lon="3.72132">
        <ele>1255.900024</ele>
        <time>2017-05-26T12:15:16Z</time>
      </trkpt>
      <trkpt lat="45.78342" lon="3.72143">
        <ele>1255.599976</ele>
        <time>2017-05-26T12:15:33Z</time>
      </trkpt>
      <trkpt lat="45.78351" lon="3.72146">
        <ele>1254.900024</ele>
        <time>2017-05-26T12:16:01Z</time>
      </trkpt>
      <trkpt lat="45.78359" lon="3.72138">
        <ele>1252.199951</ele>
        <time>2017-05-26T12:16:10Z</time>
      </trkpt>
      <trkpt lat="45.78369" lon="3.72134">
        <ele>1250</ele>
        <time>2017-05-26T12:16:15Z</time>
      </trkpt>
      <trkpt lat="45.7838" lon="3.72128">
        <ele>1247.400024</ele>
        <time>2017-05-26T12:16:20Z</time>
      </trkpt>
      <trkpt lat="45.78391" lon="3.72126">
        <ele>1245.5</ele>
        <time>2017-05-26T12:16:24Z</time>
      </trkpt>
      <trkpt lat="45.784" lon="3.72125">
        <ele>1243.699951</ele>
        <time>2017-05-26T12:16:28Z</time>
      </trkpt>
      <trkpt lat="45.78409" lon="3.72122">
        <ele>1241.599976</ele>
        <time>2017-05-26T12:16:32Z</time>
      </trkpt>
      <trkpt lat="45.78419" lon="3.72117">
        <ele>1238.800049</ele>
        <time>2017-05-26T12:16:38Z</time>
      </trkpt>
      <trkpt lat="45.78429" lon="3.72115">
        <ele>1236.900024</ele>
        <time>2017-05-26T12:16:42Z</time>
      </trkpt>
      <trkpt lat="45.7844" lon="3.72114">
        <ele>1235.099976</ele>
        <time>2017-05-26T12:16:46Z</time>
      </trkpt>
      <trkpt lat="45.7845" lon="3.7211">
        <ele>1233</ele>
        <time>2017-05-26T12:16:51Z</time>
      </trkpt>
      <trkpt lat="45.7846" lon="3.72106">
        <ele>1230.599976</ele>
        <time>2017-05-26T12:16:57Z</time>
      </trkpt>
      <trkpt lat="45.78469" lon="3.72101">
        <ele>1228.199951</ele>
        <time>2017-05-26T12:17:03Z</time>
      </trkpt>
      <trkpt lat="45.78477" lon="3.72095">
        <ele>1225.300049</ele>
        <time>2017-05-26T12:17:12Z</time>
      </trkpt>
      <trkpt lat="45.78487" lon="3.72092">
        <ele>1223.5</ele>
        <time>2017-05-26T12:17:24Z</time>
      </trkpt>
      <trkpt lat="45.78496" lon="3.72087">
        <ele>1221.400024</ele>
        <time>2017-05-26T12:17:36Z</time>
      </trkpt>
      <trkpt lat="45.78506" lon="3.72081">
        <ele>1219.400024</ele>
        <time>2017-05-26T12:17:43Z</time>
      </trkpt>
      <trkpt lat="45.78515" lon="3.72079">
        <ele>1216.400024</ele>
        <time>2017-05-26T12:17:52Z</time>
      </trkpt>
      <trkpt lat="45.78525" lon="3.72076">
        <ele>1214.400024</ele>
        <time>2017-05-26T12:18:00Z</time>
      </trkpt>
      <trkpt lat="45.78535" lon="3.72074">
        <ele>1212.099976</ele>
        <time>2017-05-26T12:18:08Z</time>
      </trkpt>
      <trkpt lat="45.78544" lon="3.72071">
        <ele>1210</ele>
        <time>2017-05-26T12:18:16Z</time>
      </trkpt>
      <trkpt lat="45.78553" lon="3.72071">
        <ele>1207.099976</ele>
        <time>2017-05-26T12:18:27Z</time>
      </trkpt>
      <trkpt lat="45.78563" lon="3.72069">
        <ele>1205.599976</ele>
        <time>2017-05-26T12:18:43Z</time>
      </trkpt>
      <trkpt lat="45.78572" lon="3.72064">
        <ele>1204.199951</ele>
        <time>2017-05-26T12:18:49Z</time>
      </trkpt>
      <trkpt lat="45.78581" lon="3.72058">
        <ele>1201</ele>
        <time>2017-05-26T12:19:06Z</time>
      </trkpt>
      <trkpt lat="45.78589" lon="3.72052">
        <ele>1199.300049</ele>
        <time>2017-05-26T12:19:19Z</time>
      </trkpt>
      <trkpt lat="45.78599" lon="3.72042">
        <ele>1197.300049</ele>
        <time>2017-05-26T12:19:26Z</time>
      </trkpt>
      <trkpt lat="45.78607" lon="3.72033">
        <ele>1195</ele>
        <time>2017-05-26T12:19:33Z</time>
      </trkpt>
      <trkpt lat="45.78616" lon="3.72029">
        <ele>1192.699951</ele>
        <time>2017-05-26T12:19:38Z</time>
      </trkpt>
      <trkpt lat="45.78626" lon="3.72026">
        <ele>1191.199951</ele>
        <time>2017-05-26T12:19:41Z</time>
      </trkpt>
      <trkpt lat="45.78634" lon="3.72018">
        <ele>1189.5</ele>
        <time>2017-05-26T12:19:45Z</time>
      </trkpt>
      <trkpt lat="45.78643" lon="3.72015">
        <ele>1187.699951</ele>
        <time>2017-05-26T12:19:50Z</time>
      </trkpt>
      <trkpt lat="45.78654" lon="3.7201">
        <ele>1186</ele>
        <time>2017-05-26T12:19:54Z</time>
      </trkpt>
      <trkpt lat="45.78663" lon="3.72007">
        <ele>1182.599976</ele>
        <time>2017-05-26T12:20:16Z</time>
      </trkpt>
      <trkpt lat="45.7867" lon="3.71997">
        <ele>1182.300049</ele>
        <time>2017-05-26T12:20:47Z</time>
      </trkpt>
      <trkpt lat="45.78678" lon="3.7199">
        <ele>1180.900024</ele>
        <time>2017-05-26T12:20:52Z</time>
      </trkpt>
      <trkpt lat="45.78686" lon="3.71985">
        <ele>1179</ele>
        <time>2017-05-26T12:20:56Z</time>
      </trkpt>
      <trkpt lat="45.78696" lon="3.71982">
        <ele>1177.300049</ele>
        <time>2017-05-26T12:20:59Z</time>
      </trkpt>
      <trkpt lat="45.78705" lon="3.71979">
        <ele>1174.599976</ele>
        <time>2017-05-26T12:21:04Z</time>
      </trkpt>
      <trkpt lat="45.78716" lon="3.71977">
        <ele>1172</ele>
        <time>2017-05-26T12:21:09Z</time>
      </trkpt>
      <trkpt lat="45.78725" lon="3.71973">
        <ele>1170.099976</ele>
        <time>2017-05-26T12:21:13Z</time>
      </trkpt>
      <trkpt lat="45.78735" lon="3.71969">
        <ele>1168.699951</ele>
        <time>2017-05-26T12:21:16Z</time>
      </trkpt>
      <trkpt lat="45.78746" lon="3.7196">
        <ele>1166.699951</ele>
        <time>2017-05-26T12:21:20Z</time>
      </trkpt>
      <trkpt lat="45.78755" lon="3.71957">
        <ele>1165.5</ele>
        <time>2017-05-26T12:21:22Z</time>
      </trkpt>
      <trkpt lat="45.78765" lon="3.71955">
        <ele>1164.099976</ele>
        <time>2017-05-26T12:21:24Z</time>
      </trkpt>
      <trkpt lat="45.78777" lon="3.71953">
        <ele>1162.099976</ele>
        <time>2017-05-26T12:21:27Z</time>
      </trkpt>
      <trkpt lat="45.78787" lon="3.71951">
        <ele>1160.699951</ele>
        <time>2017-05-26T12:21:29Z</time>
      </trkpt>
      <trkpt lat="45.78796" lon="3.7195">
        <ele>1159.199951</ele>
        <time>2017-05-26T12:21:31Z</time>
      </trkpt>
      <trkpt lat="45.78806" lon="3.7195">
        <ele>1157.099976</ele>
        <time>2017-05-26T12:21:34Z</time>
      </trkpt>
      <trkpt lat="45.78816" lon="3.71946">
        <ele>1155.800049</ele>
        <time>2017-05-26T12:21:36Z</time>
      </trkpt>
      <trkpt lat="45.78827" lon="3.71944">
        <ele>1154</ele>
        <time>2017-05-26T12:21:39Z</time>
      </trkpt>
      <trkpt lat="45.7884" lon="3.71942">
        <ele>1152</ele>
        <time>2017-05-26T12:21:43Z</time>
      </trkpt>
      <trkpt lat="45.7885" lon="3.71942">
        <ele>1150.599976</ele>
        <time>2017-05-26T12:21:46Z</time>
      </trkpt>
      <trkpt lat="45.78864" lon="3.71939">
        <ele>1149</ele>
        <time>2017-05-26T12:21:50Z</time>
      </trkpt>
      <trkpt lat="45.78874" lon="3.71937">
        <ele>1147.199951</ele>
        <time>2017-05-26T12:21:54Z</time>
      </trkpt>
      <trkpt lat="45.78883" lon="3.71942">
        <ele>1145.400024</ele>
        <time>2017-05-26T12:22:51Z</time>
      </trkpt>
      <trkpt lat="45.78893" lon="3.71948">
        <ele>1145.400024</ele>
        <time>2017-05-26T12:22:55Z</time>
      </trkpt>
      <trkpt lat="45.78902" lon="3.71961">
        <ele>1145.099976</ele>
        <time>2017-05-26T12:22:58Z</time>
      </trkpt>
      <trkpt lat="45.78907" lon="3.71972">
        <ele>1145</ele>
        <time>2017-05-26T12:23:00Z</time>
      </trkpt>
      <trkpt lat="45.78913" lon="3.71985">
        <ele>1144.599976</ele>
        <time>2017-05-26T12:23:02Z</time>
      </trkpt>
      <trkpt lat="45.78919" lon="3.71998">
        <ele>1143.900024</ele>
        <time>2017-05-26T12:23:04Z</time>
      </trkpt>
      <trkpt lat="45.78926" lon="3.72012">
        <ele>1143.5</ele>
        <time>2017-05-26T12:23:06Z</time>
      </trkpt>
      <trkpt lat="45.78935" lon="3.72028">
        <ele>1142.800049</ele>
        <time>2017-05-26T12:23:08Z</time>
      </trkpt>
      <trkpt lat="45.78944" lon="3.72045">
        <ele>1142</ele>
        <time>2017-05-26T12:23:10Z</time>
      </trkpt>
      <trkpt lat="45.78954" lon="3.72064">
        <ele>1141.099976</ele>
        <time>2017-05-26T12:23:12Z</time>
      </trkpt>
      <trkpt lat="45.78964" lon="3.72084">
        <ele>1140.300049</ele>
        <time>2017-05-26T12:23:14Z</time>
      </trkpt>
      <trkpt lat="45.78973" lon="3.72106">
        <ele>1139.5</ele>
        <time>2017-05-26T12:23:16Z</time>
      </trkpt>
      <trkpt lat="45.78981" lon="3.72127">
        <ele>1138.199951</ele>
        <time>2017-05-26T12:23:18Z</time>
      </trkpt>
      <trkpt lat="45.78989" lon="3.72148">
        <ele>1136.800049</ele>
        <time>2017-05-26T12:23:20Z</time>
      </trkpt>
      <trkpt lat="45.78997" lon="3.72168">
        <ele>1135.199951</ele>
        <time>2017-05-26T12:23:22Z</time>
      </trkpt>
      <trkpt lat="45.79006" lon="3.7219">
        <ele>1133.599976</ele>
        <time>2017-05-26T12:23:24Z</time>
      </trkpt>
      <trkpt lat="45.7901" lon="3.72202">
        <ele>1132.800049</ele>
        <time>2017-05-26T12:23:25Z</time>
      </trkpt>
      <trkpt lat="45.79016" lon="3.72214">
        <ele>1132.099976</ele>
        <time>2017-05-26T12:23:26Z</time>
      </trkpt>
      <trkpt lat="45.7902" lon="3.72225">
        <ele>1131.5</ele>
        <time>2017-05-26T12:23:27Z</time>
      </trkpt>
      <trkpt lat="45.79024" lon="3.72236">
        <ele>1130.900024</ele>
        <time>2017-05-26T12:23:28Z</time>
      </trkpt>
      <trkpt lat="45.79029" lon="3.72249">
        <ele>1130</ele>
        <time>2017-05-26T12:23:29Z</time>
      </trkpt>
      <trkpt lat="45.79032" lon="3.72262">
        <ele>1129.199951</ele>
        <time>2017-05-26T12:23:30Z</time>
      </trkpt>
      <trkpt lat="45.79035" lon="3.72277">
        <ele>1128.300049</ele>
        <time>2017-05-26T12:23:31Z</time>
      </trkpt>
      <trkpt lat="45.79038" lon="3.72293">
        <ele>1127.400024</ele>
        <time>2017-05-26T12:23:32Z</time>
      </trkpt>
      <trkpt lat="45.7904" lon="3.72308">
        <ele>1126.400024</ele>
        <time>2017-05-26T12:23:33Z</time>
      </trkpt>
      <trkpt lat="45.79042" lon="3.72324">
        <ele>1125.400024</ele>
        <time>2017-05-26T12:23:34Z</time>
      </trkpt>
      <trkpt lat="45.79043" lon="3.72339">
        <ele>1124.300049</ele>
        <time>2017-05-26T12:23:35Z</time>
      </trkpt>
      <trkpt lat="45.79042" lon="3.72354">
        <ele>1123.300049</ele>
        <time>2017-05-26T12:23:36Z</time>
      </trkpt>
      <trkpt lat="45.79042" lon="3.72368">
        <ele>1122.199951</ele>
        <time>2017-05-26T12:23:37Z</time>
      </trkpt>
      <trkpt lat="45.79043" lon="3.7239">
        <ele>1120.099976</ele>
        <time>2017-05-26T12:23:39Z</time>
      </trkpt>
      <trkpt lat="45.79047" lon="3.72408">
        <ele>1117.900024</ele>
        <time>2017-05-26T12:23:41Z</time>
      </trkpt>
      <trkpt lat="45.79059" lon="3.7242">
        <ele>1115.699951</ele>
        <time>2017-05-26T12:23:43Z</time>
      </trkpt>
      <trkpt lat="45.79068" lon="3.72424">
        <ele>1114.800049</ele>
        <time>2017-05-26T12:23:44Z</time>
      </trkpt>
      <trkpt lat="45.79084" lon="3.72422">
        <ele>1112.800049</ele>
        <time>2017-05-26T12:23:46Z</time>
      </trkpt>
      <trkpt lat="45.79099" lon="3.7242">
        <ele>1111</ele>
        <time>2017-05-26T12:23:48Z</time>
      </trkpt>
      <trkpt lat="45.7911" lon="3.72419">
        <ele>1109.5</ele>
        <time>2017-05-26T12:23:50Z</time>
      </trkpt>
      <trkpt lat="45.79119" lon="3.72422">
        <ele>1108.400024</ele>
        <time>2017-05-26T12:23:52Z</time>
      </trkpt>
      <trkpt lat="45.7913" lon="3.72431">
        <ele>1107.099976</ele>
        <time>2017-05-26T12:23:55Z</time>
      </trkpt>
      <trkpt lat="45.79142" lon="3.7244">
        <ele>1106.199951</ele>
        <time>2017-05-26T12:23:58Z</time>
      </trkpt>
      <trkpt lat="45.79152" lon="3.72439">
        <ele>1105.400024</ele>
        <time>2017-05-26T12:24:02Z</time>
      </trkpt>
      <trkpt lat="45.79156" lon="3.72425">
        <ele>1105</ele>
        <time>2017-05-26T12:24:10Z</time>
      </trkpt>
      <trkpt lat="45.79161" lon="3.72415">
        <ele>1103.5</ele>
        <time>2017-05-26T12:24:28Z</time>
      </trkpt>
      <trkpt lat="45.7917" lon="3.72413">
        <ele>1102.199951</ele>
        <time>2017-05-26T12:25:39Z</time>
      </trkpt>
      <trkpt lat="45.79178" lon="3.72408">
        <ele>1100.099976</ele>
        <time>2017-05-26T12:26:02Z</time>
      </trkpt>
      <trkpt lat="45.79187" lon="3.72407">
        <ele>1098.300049</ele>
        <time>2017-05-26T12:26:40Z</time>
      </trkpt>
      <trkpt lat="45.79196" lon="3.72404">
        <ele>1097.199951</ele>
        <time>2017-05-26T12:26:55Z</time>
      </trkpt>
      <trkpt lat="45.79205" lon="3.72398">
        <ele>1096.300049</ele>
        <time>2017-05-26T12:27:00Z</time>
      </trkpt>
      <trkpt lat="45.79214" lon="3.72391">
        <ele>1095.199951</ele>
        <time>2017-05-26T12:27:05Z</time>
      </trkpt>
      <trkpt lat="45.7922" lon="3.72377">
        <ele>1094</ele>
        <time>2017-05-26T12:27:09Z</time>
      </trkpt>
      <trkpt lat="45.79227" lon="3.72368">
        <ele>1093</ele>
        <time>2017-05-26T12:27:12Z</time>
      </trkpt>
      <trkpt lat="45.79235" lon="3.72362">
        <ele>1092.199951</ele>
        <time>2017-05-26T12:27:15Z</time>
      </trkpt>
      <trkpt lat="45.79241" lon="3.72352">
        <ele>1091</ele>
        <time>2017-05-26T12:27:19Z</time>
      </trkpt>
      <trkpt lat="45.79247" lon="3.72342">
        <ele>1089.900024</ele>
        <time>2017-05-26T12:27:23Z</time>
      </trkpt>
      <trkpt lat="45.79257" lon="3.72333">
        <ele>1088.199951</ele>
        <time>2017-05-26T12:27:29Z</time>
      </trkpt>
      <trkpt lat="45.79266" lon="3.72324">
        <ele>1086.699951</ele>
        <time>2017-05-26T12:27:33Z</time>
      </trkpt>
      <trkpt lat="45.7927" lon="3.72309">
        <ele>1084.400024</ele>
        <time>2017-05-26T12:27:37Z</time>
      </trkpt>
      <trkpt lat="45.79274" lon="3.72297">
        <ele>1083.5</ele>
        <time>2017-05-26T12:27:40Z</time>
      </trkpt>
      <trkpt lat="45.79282" lon="3.72285">
        <ele>1082.5</ele>
        <time>2017-05-26T12:27:43Z</time>
      </trkpt>
      <trkpt lat="45.79286" lon="3.72269">
        <ele>1081.199951</ele>
        <time>2017-05-26T12:27:46Z</time>
      </trkpt>
      <trkpt lat="45.79287" lon="3.72251">
        <ele>1079.599976</ele>
        <time>2017-05-26T12:27:49Z</time>
      </trkpt>
      <trkpt lat="45.79281" lon="3.72239">
        <ele>1079</ele>
        <time>2017-05-26T12:27:51Z</time>
      </trkpt>
      <trkpt lat="45.79276" lon="3.72224">
        <ele>1077.900024</ele>
        <time>2017-05-26T12:27:54Z</time>
      </trkpt>
      <trkpt lat="45.79271" lon="3.72211">
        <ele>1077.400024</ele>
        <time>2017-05-26T12:27:56Z</time>
      </trkpt>
      <trkpt lat="45.79266" lon="3.72199">
        <ele>1076.599976</ele>
        <time>2017-05-26T12:27:59Z</time>
      </trkpt>
      <trkpt lat="45.79268" lon="3.72186">
        <ele>1075.900024</ele>
        <time>2017-05-26T12:28:02Z</time>
      </trkpt>
      <trkpt lat="45.79273" lon="3.72175">
        <ele>1075.400024</ele>
        <time>2017-05-26T12:28:05Z</time>
      </trkpt>
      <trkpt lat="45.79277" lon="3.72162">
        <ele>1075</ele>
        <time>2017-05-26T12:28:09Z</time>
      </trkpt>
      <trkpt lat="45.79283" lon="3.72151">
        <ele>1073.199951</ele>
        <time>2017-05-26T12:28:19Z</time>
      </trkpt>
      <trkpt lat="45.79288" lon="3.7214">
        <ele>1072</ele>
        <time>2017-05-26T12:28:35Z</time>
      </trkpt>
      <trkpt lat="45.79296" lon="3.72132">
        <ele>1071.699951</ele>
        <time>2017-05-26T12:28:46Z</time>
      </trkpt>
      <trkpt lat="45.79304" lon="3.7212">
        <ele>1071</ele>
        <time>2017-05-26T12:28:52Z</time>
      </trkpt>
      <trkpt lat="45.79311" lon="3.72111">
        <ele>1070.199951</ele>
        <time>2017-05-26T12:28:56Z</time>
      </trkpt>
      <trkpt lat="45.79318" lon="3.721">
        <ele>1069.400024</ele>
        <time>2017-05-26T12:29:02Z</time>
      </trkpt>
      <trkpt lat="45.79326" lon="3.72095">
        <ele>1069.400024</ele>
        <time>2017-05-26T12:29:07Z</time>
      </trkpt>
      <trkpt lat="45.79338" lon="3.72092">
        <ele>1068.699951</ele>
        <time>2017-05-26T12:29:12Z</time>
      </trkpt>
      <trkpt lat="45.79349" lon="3.72089">
        <ele>1068.199951</ele>
        <time>2017-05-26T12:29:14Z</time>
      </trkpt>
      <trkpt lat="45.79361" lon="3.72085">
        <ele>1067.800049</ele>
        <time>2017-05-26T12:29:17Z</time>
      </trkpt>
      <trkpt lat="45.79371" lon="3.7208">
        <ele>1067.199951</ele>
        <time>2017-05-26T12:29:21Z</time>
      </trkpt>
      <trkpt lat="45.79382" lon="3.72077">
        <ele>1066.400024</ele>
        <time>2017-05-26T12:29:26Z</time>
      </trkpt>
      <trkpt lat="45.79391" lon="3.72075">
        <ele>1065.699951</ele>
        <time>2017-05-26T12:29:29Z</time>
      </trkpt>
      <trkpt lat="45.79402" lon="3.72074">
        <ele>1065.5</ele>
        <time>2017-05-26T12:29:33Z</time>
      </trkpt>
      <trkpt lat="45.79411" lon="3.72073">
        <ele>1065.699951</ele>
        <time>2017-05-26T12:29:37Z</time>
      </trkpt>
      <trkpt lat="45.79421" lon="3.72069">
        <ele>1065.199951</ele>
        <time>2017-05-26T12:29:43Z</time>
      </trkpt>
      <trkpt lat="45.7943" lon="3.72063">
        <ele>1064.199951</ele>
        <time>2017-05-26T12:29:46Z</time>
      </trkpt>
      <trkpt lat="45.79442" lon="3.72058">
        <ele>1063</ele>
        <time>2017-05-26T12:29:50Z</time>
      </trkpt>
      <trkpt lat="45.79451" lon="3.72051">
        <ele>1062</ele>
        <time>2017-05-26T12:29:53Z</time>
      </trkpt>
      <trkpt lat="45.79463" lon="3.72042">
        <ele>1061</ele>
        <time>2017-05-26T12:29:56Z</time>
      </trkpt>
      <trkpt lat="45.79471" lon="3.72034">
        <ele>1060.199951</ele>
        <time>2017-05-26T12:29:58Z</time>
      </trkpt>
      <trkpt lat="45.79482" lon="3.72026">
        <ele>1058.800049</ele>
        <time>2017-05-26T12:30:01Z</time>
      </trkpt>
      <trkpt lat="45.7949" lon="3.72019">
        <ele>1057.599976</ele>
        <time>2017-05-26T12:30:03Z</time>
      </trkpt>
      <trkpt lat="45.79499" lon="3.72011">
        <ele>1054.699951</ele>
        <time>2017-05-26T12:30:06Z</time>
      </trkpt>
      <trkpt lat="45.79508" lon="3.72005">
        <ele>1053.199951</ele>
        <time>2017-05-26T12:30:10Z</time>
      </trkpt>
      <trkpt lat="45.79516" lon="3.71993">
        <ele>1051.5</ele>
        <time>2017-05-26T12:30:14Z</time>
      </trkpt>
      <trkpt lat="45.79526" lon="3.71985">
        <ele>1050</ele>
        <time>2017-05-26T12:30:17Z</time>
      </trkpt>
      <trkpt lat="45.79536" lon="3.71974">
        <ele>1048.699951</ele>
        <time>2017-05-26T12:30:20Z</time>
      </trkpt>
      <trkpt lat="45.79546" lon="3.71964">
        <ele>1046.800049</ele>
        <time>2017-05-26T12:30:23Z</time>
      </trkpt>
      <trkpt lat="45.79556" lon="3.71957">
        <ele>1045.5</ele>
        <time>2017-05-26T12:30:26Z</time>
      </trkpt>
      <trkpt lat="45.79566" lon="3.71952">
        <ele>1044.099976</ele>
        <time>2017-05-26T12:30:29Z</time>
      </trkpt>
      <trkpt lat="45.79575" lon="3.71949">
        <ele>1042.5</ele>
        <time>2017-05-26T12:30:32Z</time>
      </trkpt>
      <trkpt lat="45.79586" lon="3.71944">
        <ele>1040.900024</ele>
        <time>2017-05-26T12:30:35Z</time>
      </trkpt>
      <trkpt lat="45.79596" lon="3.71939">
        <ele>1038.800049</ele>
        <time>2017-05-26T12:30:39Z</time>
      </trkpt>
      <trkpt lat="45.79605" lon="3.71934">
        <ele>1037.099976</ele>
        <time>2017-05-26T12:30:44Z</time>
      </trkpt>
      <trkpt lat="45.79614" lon="3.71927">
        <ele>1036</ele>
        <time>2017-05-26T12:30:47Z</time>
      </trkpt>
      <trkpt lat="45.79623" lon="3.71928">
        <ele>1034.099976</ele>
        <time>2017-05-26T12:30:50Z</time>
      </trkpt>
      <trkpt lat="45.79633" lon="3.71931">
        <ele>1031.900024</ele>
        <time>2017-05-26T12:30:54Z</time>
      </trkpt>
      <trkpt lat="45.79643" lon="3.71936">
        <ele>1030.400024</ele>
        <time>2017-05-26T12:30:57Z</time>
      </trkpt>
      <trkpt lat="45.79655" lon="3.71942">
        <ele>1028.199951</ele>
        <time>2017-05-26T12:31:00Z</time>
      </trkpt>
      <trkpt lat="45.79665" lon="3.71947">
        <ele>1026.900024</ele>
        <time>2017-05-26T12:31:02Z</time>
      </trkpt>
      <trkpt lat="45.79673" lon="3.71955">
        <ele>1026</ele>
        <time>2017-05-26T12:31:04Z</time>
      </trkpt>
      <trkpt lat="45.7968" lon="3.71965">
        <ele>1024.900024</ele>
        <time>2017-05-26T12:31:06Z</time>
      </trkpt>
      <trkpt lat="45.79682" lon="3.71978">
        <ele>1023.900024</ele>
        <time>2017-05-26T12:31:10Z</time>
      </trkpt>
      <trkpt lat="45.79691" lon="3.71982">
        <ele>1023</ele>
        <time>2017-05-26T12:32:00Z</time>
      </trkpt>
      <trkpt lat="45.79686" lon="3.71993">
        <ele>1023.299988</ele>
        <time>2017-05-26T12:34:05Z</time>
      </trkpt>
      <trkpt lat="45.79679" lon="3.72002">
        <ele>1023.599976</ele>
        <time>2017-05-26T12:34:09Z</time>
      </trkpt>
      <trkpt lat="45.79672" lon="3.72011">
        <ele>1023.799988</ele>
        <time>2017-05-26T12:34:13Z</time>
      </trkpt>
      <trkpt lat="45.79664" lon="3.72018">
        <ele>1023.900024</ele>
        <time>2017-05-26T12:34:17Z</time>
      </trkpt>
      <trkpt lat="45.79655" lon="3.72024">
        <ele>1024.199951</ele>
        <time>2017-05-26T12:34:21Z</time>
      </trkpt>
      <trkpt lat="45.79645" lon="3.72029">
        <ele>1024.5</ele>
        <time>2017-05-26T12:34:26Z</time>
      </trkpt>
      <trkpt lat="45.79636" lon="3.72034">
        <ele>1025.199951</ele>
        <time>2017-05-26T12:34:31Z</time>
      </trkpt>
      <trkpt lat="45.79627" lon="3.72041">
        <ele>1025.800049</ele>
        <time>2017-05-26T12:34:36Z</time>
      </trkpt>
      <trkpt lat="45.79619" lon="3.72048">
        <ele>1026.400024</ele>
        <time>2017-05-26T12:34:42Z</time>
      </trkpt>
      <trkpt lat="45.79611" lon="3.72057">
        <ele>1027</ele>
        <time>2017-05-26T12:34:47Z</time>
      </trkpt>
      <trkpt lat="45.79603" lon="3.72066">
        <ele>1027.800049</ele>
        <time>2017-05-26T12:34:52Z</time>
      </trkpt>
      <trkpt lat="45.79595" lon="3.72075">
        <ele>1029</ele>
        <time>2017-05-26T12:34:58Z</time>
      </trkpt>
      <trkpt lat="45.79586" lon="3.72085">
        <ele>1029.800049</ele>
        <time>2017-05-26T12:35:03Z</time>
      </trkpt>
      <trkpt lat="45.7958" lon="3.721">
        <ele>1030.400024</ele>
        <time>2017-05-26T12:35:08Z</time>
      </trkpt>
      <trkpt lat="45.79575" lon="3.72114">
        <ele>1030.5</ele>
        <time>2017-05-26T12:35:12Z</time>
      </trkpt>
      <trkpt lat="45.79572" lon="3.72127">
        <ele>1030.699951</ele>
        <time>2017-05-26T12:35:15Z</time>
      </trkpt>
      <trkpt lat="45.79566" lon="3.72141">
        <ele>1031.099976</ele>
        <time>2017-05-26T12:35:19Z</time>
      </trkpt>
      <trkpt lat="45.79565" lon="3.72158">
        <ele>1031</ele>
        <time>2017-05-26T12:35:23Z</time>
      </trkpt>
      <trkpt lat="45.79562" lon="3.72171">
        <ele>1030.900024</ele>
        <time>2017-05-26T12:35:26Z</time>
      </trkpt>
      <trkpt lat="45.79559" lon="3.72184">
        <ele>1031.099976</ele>
        <time>2017-05-26T12:35:29Z</time>
      </trkpt>
      <trkpt lat="45.79556" lon="3.72198">
        <ele>1031.099976</ele>
        <time>2017-05-26T12:35:32Z</time>
      </trkpt>
      <trkpt lat="45.79551" lon="3.72214">
        <ele>1031.400024</ele>
        <time>2017-05-26T12:35:35Z</time>
      </trkpt>
      <trkpt lat="45.79553" lon="3.72228">
        <ele>1031.5</ele>
        <time>2017-05-26T12:35:38Z</time>
      </trkpt>
      <trkpt lat="45.79553" lon="3.72241">
        <ele>1031.599976</ele>
        <time>2017-05-26T12:35:41Z</time>
      </trkpt>
      <trkpt lat="45.79558" lon="3.72254">
        <ele>1031.699951</ele>
        <time>2017-05-26T12:35:44Z</time>
      </trkpt>
      <trkpt lat="45.79561" lon="3.7227">
        <ele>1032</ele>
        <time>2017-05-26T12:35:48Z</time>
      </trkpt>
      <trkpt lat="45.79564" lon="3.72285">
        <ele>1032.300049</ele>
        <time>2017-05-26T12:35:52Z</time>
      </trkpt>
      <trkpt lat="45.79566" lon="3.72301">
        <ele>1032.400024</ele>
        <time>2017-05-26T12:35:56Z</time>
      </trkpt>
      <trkpt lat="45.79567" lon="3.72316">
        <ele>1032.5</ele>
        <time>2017-05-26T12:36:00Z</time>
      </trkpt>
      <trkpt lat="45.79569" lon="3.72331">
        <ele>1032.599976</ele>
        <time>2017-05-26T12:36:05Z</time>
      </trkpt>
      <trkpt lat="45.7957" lon="3.72345">
        <ele>1032.900024</ele>
        <time>2017-05-26T12:36:09Z</time>
      </trkpt>
      <trkpt lat="45.79573" lon="3.72361">
        <ele>1032.900024</ele>
        <time>2017-05-26T12:36:13Z</time>
      </trkpt>
      <trkpt lat="45.79571" lon="3.72377">
        <ele>1033.099976</ele>
        <time>2017-05-26T12:36:17Z</time>
      </trkpt>
      <trkpt lat="45.79574" lon="3.72389">
        <ele>1033.099976</ele>
        <time>2017-05-26T12:36:20Z</time>
      </trkpt>
      <trkpt lat="45.79575" lon="3.72403">
        <ele>1033.199951</ele>
        <time>2017-05-26T12:36:23Z</time>
      </trkpt>
      <trkpt lat="45.79581" lon="3.72418">
        <ele>1033.300049</ele>
        <time>2017-05-26T12:36:27Z</time>
      </trkpt>
      <trkpt lat="45.79589" lon="3.72428">
        <ele>1033.300049</ele>
        <time>2017-05-26T12:36:30Z</time>
      </trkpt>
      <trkpt lat="45.79594" lon="3.72443">
        <ele>1033.199951</ele>
        <time>2017-05-26T12:36:33Z</time>
      </trkpt>
      <trkpt lat="45.79599" lon="3.72456">
        <ele>1032.900024</ele>
        <time>2017-05-26T12:36:36Z</time>
      </trkpt>
      <trkpt lat="45.79604" lon="3.72468">
        <ele>1032.800049</ele>
        <time>2017-05-26T12:36:39Z</time>
      </trkpt>
      <trkpt lat="45.79604" lon="3.72485">
        <ele>1032.699951</ele>
        <time>2017-05-26T12:36:42Z</time>
      </trkpt>
      <trkpt lat="45.79601" lon="3.72501">
        <ele>1032.599976</ele>
        <time>2017-05-26T12:36:45Z</time>
      </trkpt>
      <trkpt lat="45.79602" lon="3.72518">
        <ele>1032.599976</ele>
        <time>2017-05-26T12:36:48Z</time>
      </trkpt>
      <trkpt lat="45.796" lon="3.72534">
        <ele>1032</ele>
        <time>2017-05-26T12:36:51Z</time>
      </trkpt>
      <trkpt lat="45.79599" lon="3.72552">
        <ele>1032.5</ele>
        <time>2017-05-26T12:36:54Z</time>
      </trkpt>
      <trkpt lat="45.79601" lon="3.72569">
        <ele>1032.599976</ele>
        <time>2017-05-26T12:36:58Z</time>
      </trkpt>
      <trkpt lat="45.79603" lon="3.72583">
        <ele>1032.699951</ele>
        <time>2017-05-26T12:37:02Z</time>
      </trkpt>
      <trkpt lat="45.79613" lon="3.72595">
        <ele>1032.199951</ele>
        <time>2017-05-26T12:37:05Z</time>
      </trkpt>
      <trkpt lat="45.79623" lon="3.72609">
        <ele>1031.099976</ele>
        <time>2017-05-26T12:37:08Z</time>
      </trkpt>
      <trkpt lat="45.79634" lon="3.72618">
        <ele>1030.400024</ele>
        <time>2017-05-26T12:37:10Z</time>
      </trkpt>
      <trkpt lat="45.79642" lon="3.72624">
        <ele>1029.800049</ele>
        <time>2017-05-26T12:37:12Z</time>
      </trkpt>
      <trkpt lat="45.7965" lon="3.72631">
        <ele>1029.400024</ele>
        <time>2017-05-26T12:37:14Z</time>
      </trkpt>
      <trkpt lat="45.79659" lon="3.72637">
        <ele>1028.199951</ele>
        <time>2017-05-26T12:37:18Z</time>
      </trkpt>
      <trkpt lat="45.79664" lon="3.72649">
        <ele>1026.099976</ele>
        <time>2017-05-26T12:37:26Z</time>
      </trkpt>
      <trkpt lat="45.7967" lon="3.72661">
        <ele>1025.900024</ele>
        <time>2017-05-26T12:37:43Z</time>
      </trkpt>
      <trkpt lat="45.79678" lon="3.7267">
        <ele>1025.199951</ele>
        <time>2017-05-26T12:37:48Z</time>
      </trkpt>
      <trkpt lat="45.79687" lon="3.72675">
        <ele>1024.199951</ele>
        <time>2017-05-26T12:37:50Z</time>
      </trkpt>
      <trkpt lat="45.79695" lon="3.72685">
        <ele>1023.299988</ele>
        <time>2017-05-26T12:37:52Z</time>
      </trkpt>
      <trkpt lat="45.79702" lon="3.72698">
        <ele>1021.700012</ele>
        <time>2017-05-26T12:37:54Z</time>
      </trkpt>
      <trkpt lat="45.7971" lon="3.72711">
        <ele>1021</ele>
        <time>2017-05-26T12:37:56Z</time>
      </trkpt>
      <trkpt lat="45.79719" lon="3.72723">
        <ele>1020.400024</ele>
        <time>2017-05-26T12:37:58Z</time>
      </trkpt>
      <trkpt lat="45.79727" lon="3.72734">
        <ele>1019.900024</ele>
        <time>2017-05-26T12:38:00Z</time>
      </trkpt>
      <trkpt lat="45.79734" lon="3.72743">
        <ele>1019.5</ele>
        <time>2017-05-26T12:38:02Z</time>
      </trkpt>
      <trkpt lat="45.79743" lon="3.72756">
        <ele>1019.299988</ele>
        <time>2017-05-26T12:38:05Z</time>
      </trkpt>
      <trkpt lat="45.79752" lon="3.72768">
        <ele>1019</ele>
        <time>2017-05-26T12:38:08Z</time>
      </trkpt>
      <trkpt lat="45.7976" lon="3.72779">
        <ele>1019</ele>
        <time>2017-05-26T12:38:11Z</time>
      </trkpt>
      <trkpt lat="45.79768" lon="3.72791">
        <ele>1019.200012</ele>
        <time>2017-05-26T12:38:14Z</time>
      </trkpt>
      <trkpt lat="45.79775" lon="3.72804">
        <ele>1019.099976</ele>
        <time>2017-05-26T12:38:17Z</time>
      </trkpt>
      <trkpt lat="45.79782" lon="3.72817">
        <ele>1019.299988</ele>
        <time>2017-05-26T12:38:20Z</time>
      </trkpt>
      <trkpt lat="45.79789" lon="3.72828">
        <ele>1019.400024</ele>
        <time>2017-05-26T12:38:23Z</time>
      </trkpt>
      <trkpt lat="45.79793" lon="3.72841">
        <ele>1019.700012</ele>
        <time>2017-05-26T12:38:26Z</time>
      </trkpt>
      <trkpt lat="45.79799" lon="3.72853">
        <ele>1019.900024</ele>
        <time>2017-05-26T12:38:29Z</time>
      </trkpt>
      <trkpt lat="45.79805" lon="3.72867">
        <ele>1020.099976</ele>
        <time>2017-05-26T12:38:32Z</time>
      </trkpt>
      <trkpt lat="45.7981" lon="3.7288">
        <ele>1020.5</ele>
        <time>2017-05-26T12:38:35Z</time>
      </trkpt>
      <trkpt lat="45.79814" lon="3.72893">
        <ele>1021</ele>
        <time>2017-05-26T12:38:38Z</time>
      </trkpt>
      <trkpt lat="45.7982" lon="3.72907">
        <ele>1021.5</ele>
        <time>2017-05-26T12:38:42Z</time>
      </trkpt>
      <trkpt lat="45.79825" lon="3.72922">
        <ele>1021.900024</ele>
        <time>2017-05-26T12:38:46Z</time>
      </trkpt>
      <trkpt lat="45.7983" lon="3.72938">
        <ele>1022.200012</ele>
        <time>2017-05-26T12:38:50Z</time>
      </trkpt>
      <trkpt lat="45.79833" lon="3.7295">
        <ele>1022.299988</ele>
        <time>2017-05-26T12:38:53Z</time>
      </trkpt>
      <trkpt lat="45.79835" lon="3.72965">
        <ele>1022.5</ele>
        <time>2017-05-26T12:38:56Z</time>
      </trkpt>
      <trkpt lat="45.79835" lon="3.7298">
        <ele>1022.599976</ele>
        <time>2017-05-26T12:38:59Z</time>
      </trkpt>
      <trkpt lat="45.79836" lon="3.72994">
        <ele>1022.599976</ele>
        <time>2017-05-26T12:39:02Z</time>
      </trkpt>
      <trkpt lat="45.79838" lon="3.73011">
        <ele>1022.799988</ele>
        <time>2017-05-26T12:39:06Z</time>
      </trkpt>
      <trkpt lat="45.79838" lon="3.73027">
        <ele>1022.900024</ele>
        <time>2017-05-26T12:39:10Z</time>
      </trkpt>
      <trkpt lat="45.79837" lon="3.73045">
        <ele>1023</ele>
        <time>2017-05-26T12:39:13Z</time>
      </trkpt>
      <trkpt lat="45.79835" lon="3.73061">
        <ele>1022.900024</ele>
        <time>2017-05-26T12:39:16Z</time>
      </trkpt>
      <trkpt lat="45.79834" lon="3.73076">
        <ele>1023.099976</ele>
        <time>2017-05-26T12:39:19Z</time>
      </trkpt>
      <trkpt lat="45.79835" lon="3.7309">
        <ele>1023.299988</ele>
        <time>2017-05-26T12:39:22Z</time>
      </trkpt>
      <trkpt lat="45.79836" lon="3.73107">
        <ele>1023.700012</ele>
        <time>2017-05-26T12:39:26Z</time>
      </trkpt>
      <trkpt lat="45.79838" lon="3.73121">
        <ele>1023.900024</ele>
        <time>2017-05-26T12:39:29Z</time>
      </trkpt>
      <trkpt lat="45.7984" lon="3.73134">
        <ele>1024.300049</ele>
        <time>2017-05-26T12:39:32Z</time>
      </trkpt>
      <trkpt lat="45.79843" lon="3.73147">
        <ele>1024.800049</ele>
        <time>2017-05-26T12:39:36Z</time>
      </trkpt>
      <trkpt lat="45.79848" lon="3.73162">
        <ele>1025.199951</ele>
        <time>2017-05-26T12:39:40Z</time>
      </trkpt>
      <trkpt lat="45.79853" lon="3.73173">
        <ele>1025.400024</ele>
        <time>2017-05-26T12:39:43Z</time>
      </trkpt>
      <trkpt lat="45.79859" lon="3.73185">
        <ele>1025.300049</ele>
        <time>2017-05-26T12:39:46Z</time>
      </trkpt>
      <trkpt lat="45.79865" lon="3.73197">
        <ele>1025.5</ele>
        <time>2017-05-26T12:39:49Z</time>
      </trkpt>
      <trkpt lat="45.79873" lon="3.73208">
        <ele>1025.5</ele>
        <time>2017-05-26T12:39:52Z</time>
      </trkpt>
      <trkpt lat="45.79882" lon="3.73217">
        <ele>1025.5</ele>
        <time>2017-05-26T12:39:55Z</time>
      </trkpt>
      <trkpt lat="45.79891" lon="3.73226">
        <ele>1025.400024</ele>
        <time>2017-05-26T12:39:58Z</time>
      </trkpt>
      <trkpt lat="45.799" lon="3.73233">
        <ele>1025.400024</ele>
        <time>2017-05-26T12:40:01Z</time>
      </trkpt>
      <trkpt lat="45.7991" lon="3.7324">
        <ele>1025.5</ele>
        <time>2017-05-26T12:40:04Z</time>
      </trkpt>
      <trkpt lat="45.79919" lon="3.73245">
        <ele>1025.699951</ele>
        <time>2017-05-26T12:40:07Z</time>
      </trkpt>
      <trkpt lat="45.79928" lon="3.7325">
        <ele>1025.699951</ele>
        <time>2017-05-26T12:40:10Z</time>
      </trkpt>
      <trkpt lat="45.79938" lon="3.73258">
        <ele>1025.599976</ele>
        <time>2017-05-26T12:40:14Z</time>
      </trkpt>
      <trkpt lat="45.79946" lon="3.73265">
        <ele>1025.699951</ele>
        <time>2017-05-26T12:40:17Z</time>
      </trkpt>
      <trkpt lat="45.79959" lon="3.73277">
        <ele>1026</ele>
        <time>2017-05-26T12:40:22Z</time>
      </trkpt>
      <trkpt lat="45.79967" lon="3.73284">
        <ele>1026.199951</ele>
        <time>2017-05-26T12:40:25Z</time>
      </trkpt>
      <trkpt lat="45.79974" lon="3.73291">
        <ele>1026.400024</ele>
        <time>2017-05-26T12:40:28Z</time>
      </trkpt>
      <trkpt lat="45.79984" lon="3.73297">
        <ele>1026.5</ele>
        <time>2017-05-26T12:40:32Z</time>
      </trkpt>
      <trkpt lat="45.79994" lon="3.73298">
        <ele>1027</ele>
        <time>2017-05-26T12:40:36Z</time>
      </trkpt>
      <trkpt lat="45.80004" lon="3.73298">
        <ele>1027.400024</ele>
        <time>2017-05-26T12:40:42Z</time>
      </trkpt>
      <trkpt lat="45.80013" lon="3.73295">
        <ele>1027.400024</ele>
        <time>2017-05-26T12:40:55Z</time>
      </trkpt>
      <trkpt lat="45.80024" lon="3.73296">
        <ele>1027.5</ele>
        <time>2017-05-26T12:41:12Z</time>
      </trkpt>
      <trkpt lat="45.80037" lon="3.73295">
        <ele>1027.5</ele>
        <time>2017-05-26T12:41:16Z</time>
      </trkpt>
      <trkpt lat="45.80047" lon="3.73296">
        <ele>1027.400024</ele>
        <time>2017-05-26T12:41:18Z</time>
      </trkpt>
      <trkpt lat="45.80056" lon="3.73297">
        <ele>1027.199951</ele>
        <time>2017-05-26T12:41:20Z</time>
      </trkpt>
      <trkpt lat="45.80069" lon="3.733">
        <ele>1026.699951</ele>
        <time>2017-05-26T12:41:23Z</time>
      </trkpt>
      <trkpt lat="45.80081" lon="3.73306">
        <ele>1026</ele>
        <time>2017-05-26T12:41:25Z</time>
      </trkpt>
      <trkpt lat="45.8009" lon="3.73313">
        <ele>1025.300049</ele>
        <time>2017-05-26T12:41:27Z</time>
      </trkpt>
      <trkpt lat="45.80101" lon="3.73318">
        <ele>1024.199951</ele>
        <time>2017-05-26T12:41:29Z</time>
      </trkpt>
      <trkpt lat="45.80112" lon="3.73319">
        <ele>1022.599976</ele>
        <time>2017-05-26T12:41:32Z</time>
      </trkpt>
      <trkpt lat="45.80124" lon="3.73318">
        <ele>1021</ele>
        <time>2017-05-26T12:41:35Z</time>
      </trkpt>
      <trkpt lat="45.80133" lon="3.73317">
        <ele>1019.599976</ele>
        <time>2017-05-26T12:41:38Z</time>
      </trkpt>
      <trkpt lat="45.80142" lon="3.73317">
        <ele>1018.400024</ele>
        <time>2017-05-26T12:41:41Z</time>
      </trkpt>
      <trkpt lat="45.80152" lon="3.73317">
        <ele>1016.5</ele>
        <time>2017-05-26T12:41:44Z</time>
      </trkpt>
      <trkpt lat="45.80162" lon="3.73316">
        <ele>1013.900024</ele>
        <time>2017-05-26T12:41:48Z</time>
      </trkpt>
      <trkpt lat="45.80172" lon="3.73316">
        <ele>1011.799988</ele>
        <time>2017-05-26T12:41:52Z</time>
      </trkpt>
      <trkpt lat="45.80183" lon="3.73316">
        <ele>1010</ele>
        <time>2017-05-26T12:41:55Z</time>
      </trkpt>
      <trkpt lat="45.80192" lon="3.73317">
        <ele>1008.700012</ele>
        <time>2017-05-26T12:41:58Z</time>
      </trkpt>
      <trkpt lat="45.80201" lon="3.73315">
        <ele>1006.299988</ele>
        <time>2017-05-26T12:42:02Z</time>
      </trkpt>
      <trkpt lat="45.80211" lon="3.73313">
        <ele>1003.900024</ele>
        <time>2017-05-26T12:42:06Z</time>
      </trkpt>
      <trkpt lat="45.80222" lon="3.73314">
        <ele>1002.099976</ele>
        <time>2017-05-26T12:42:09Z</time>
      </trkpt>
      <trkpt lat="45.80231" lon="3.73314">
        <ele>1001</ele>
        <time>2017-05-26T12:42:11Z</time>
      </trkpt>
      <trkpt lat="45.80241" lon="3.73315">
        <ele>999.200012</ele>
        <time>2017-05-26T12:42:14Z</time>
      </trkpt>
      <trkpt lat="45.8025" lon="3.73318">
        <ele>996</ele>
        <time>2017-05-26T12:42:20Z</time>
      </trkpt>
      <trkpt lat="45.80259" lon="3.73322">
        <ele>995.599976</ele>
        <time>2017-05-26T12:42:35Z</time>
      </trkpt>
      <trkpt lat="45.80262" lon="3.73339">
        <ele>995.400024</ele>
        <time>2017-05-26T12:42:38Z</time>
      </trkpt>
      <trkpt lat="45.80269" lon="3.73358">
        <ele>995</ele>
        <time>2017-05-26T12:42:40Z</time>
      </trkpt>
      <trkpt lat="45.80275" lon="3.73378">
        <ele>994.099976</ele>
        <time>2017-05-26T12:42:42Z</time>
      </trkpt>
      <trkpt lat="45.8028" lon="3.73396">
        <ele>992.400024</ele>
        <time>2017-05-26T12:42:44Z</time>
      </trkpt>
      <trkpt lat="45.80282" lon="3.73413">
        <ele>990.799988</ele>
        <time>2017-05-26T12:42:46Z</time>
      </trkpt>
      <trkpt lat="45.80283" lon="3.73426">
        <ele>989.599976</ele>
        <time>2017-05-26T12:42:48Z</time>
      </trkpt>
      <trkpt lat="45.80281" lon="3.73445">
        <ele>987.400024</ele>
        <time>2017-05-26T12:42:51Z</time>
      </trkpt>
      <trkpt lat="45.8028" lon="3.73459">
        <ele>985.599976</ele>
        <time>2017-05-26T12:42:53Z</time>
      </trkpt>
      <trkpt lat="45.80278" lon="3.73476">
        <ele>983.099976</ele>
        <time>2017-05-26T12:42:55Z</time>
      </trkpt>
      <trkpt lat="45.80279" lon="3.7349">
        <ele>981.400024</ele>
        <time>2017-05-26T12:42:57Z</time>
      </trkpt>
      <trkpt lat="45.80275" lon="3.73508">
        <ele>980</ele>
        <time>2017-05-26T12:42:59Z</time>
      </trkpt>
      <trkpt lat="45.80274" lon="3.73522">
        <ele>978</ele>
        <time>2017-05-26T12:43:01Z</time>
      </trkpt>
      <trkpt lat="45.80267" lon="3.73538">
        <ele>974.900024</ele>
        <time>2017-05-26T12:43:03Z</time>
      </trkpt>
      <trkpt lat="45.80267" lon="3.73554">
        <ele>972.599976</ele>
        <time>2017-05-26T12:43:05Z</time>
      </trkpt>
      <trkpt lat="45.80266" lon="3.73569">
        <ele>971.599976</ele>
        <time>2017-05-26T12:43:07Z</time>
      </trkpt>
      <trkpt lat="45.80269" lon="3.73585">
        <ele>970.599976</ele>
        <time>2017-05-26T12:43:09Z</time>
      </trkpt>
      <trkpt lat="45.80266" lon="3.73604">
        <ele>968.700012</ele>
        <time>2017-05-26T12:43:12Z</time>
      </trkpt>
      <trkpt lat="45.80264" lon="3.7362">
        <ele>966.5</ele>
        <time>2017-05-26T12:43:15Z</time>
      </trkpt>
      <trkpt lat="45.80259" lon="3.73632">
        <ele>965.299988</ele>
        <time>2017-05-26T12:43:17Z</time>
      </trkpt>
      <trkpt lat="45.80254" lon="3.73648">
        <ele>963.799988</ele>
        <time>2017-05-26T12:43:20Z</time>
      </trkpt>
      <trkpt lat="45.80251" lon="3.7366">
        <ele>961.900024</ele>
        <time>2017-05-26T12:43:24Z</time>
      </trkpt>
      <trkpt lat="45.80247" lon="3.73671">
        <ele>960.299988</ele>
        <time>2017-05-26T12:43:28Z</time>
      </trkpt>
      <trkpt lat="45.80239" lon="3.73683">
        <ele>958.299988</ele>
        <time>2017-05-26T12:43:35Z</time>
      </trkpt>
      <trkpt lat="45.80233" lon="3.73693">
        <ele>957.599976</ele>
        <time>2017-05-26T12:43:40Z</time>
      </trkpt>
      <trkpt lat="45.80226" lon="3.73705">
        <ele>955.799988</ele>
        <time>2017-05-26T12:43:45Z</time>
      </trkpt>
      <trkpt lat="45.80216" lon="3.73716">
        <ele>954.599976</ele>
        <time>2017-05-26T12:43:48Z</time>
      </trkpt>
      <trkpt lat="45.80205" lon="3.73725">
        <ele>953.5</ele>
        <time>2017-05-26T12:43:51Z</time>
      </trkpt>
      <trkpt lat="45.80194" lon="3.73726">
        <ele>952.700012</ele>
        <time>2017-05-26T12:43:54Z</time>
      </trkpt>
      <trkpt lat="45.80184" lon="3.73729">
        <ele>952.200012</ele>
        <time>2017-05-26T12:43:58Z</time>
      </trkpt>
      <trkpt lat="45.80186" lon="3.73763">
        <ele>951.200012</ele>
        <time>2017-05-26T13:15:50Z</time>
      </trkpt>
      <trkpt lat="45.80178" lon="3.73773">
        <ele>950.799988</ele>
        <time>2017-05-26T13:15:52Z</time>
      </trkpt>
      <trkpt lat="45.80172" lon="3.73787">
        <ele>950.099976</ele>
        <time>2017-05-26T13:15:54Z</time>
      </trkpt>
      <trkpt lat="45.80167" lon="3.73802">
        <ele>949.299988</ele>
        <time>2017-05-26T13:15:56Z</time>
      </trkpt>
      <trkpt lat="45.80165" lon="3.73819">
        <ele>948.200012</ele>
        <time>2017-05-26T13:15:58Z</time>
      </trkpt>
      <trkpt lat="45.80165" lon="3.73834">
        <ele>947.5</ele>
        <time>2017-05-26T13:16:00Z</time>
      </trkpt>
      <trkpt lat="45.80168" lon="3.7385">
        <ele>947.099976</ele>
        <time>2017-05-26T13:16:02Z</time>
      </trkpt>
      <trkpt lat="45.80171" lon="3.73863">
        <ele>946.599976</ele>
        <time>2017-05-26T13:16:04Z</time>
      </trkpt>
      <trkpt lat="45.80175" lon="3.73878">
        <ele>946</ele>
        <time>2017-05-26T13:16:06Z</time>
      </trkpt>
      <trkpt lat="45.80178" lon="3.73892">
        <ele>945.599976</ele>
        <time>2017-05-26T13:16:08Z</time>
      </trkpt>
      <trkpt lat="45.80182" lon="3.73908">
        <ele>945</ele>
        <time>2017-05-26T13:16:10Z</time>
      </trkpt>
      <trkpt lat="45.80188" lon="3.73924">
        <ele>944.400024</ele>
        <time>2017-05-26T13:16:12Z</time>
      </trkpt>
      <trkpt lat="45.80195" lon="3.73941">
        <ele>943.799988</ele>
        <time>2017-05-26T13:16:14Z</time>
      </trkpt>
      <trkpt lat="45.802" lon="3.73954">
        <ele>943.099976</ele>
        <time>2017-05-26T13:16:16Z</time>
      </trkpt>
      <trkpt lat="45.80202" lon="3.73968">
        <ele>941.900024</ele>
        <time>2017-05-26T13:16:19Z</time>
      </trkpt>
      <trkpt lat="45.80204" lon="3.73985">
        <ele>940.599976</ele>
        <time>2017-05-26T13:16:23Z</time>
      </trkpt>
      <trkpt lat="45.80206" lon="3.74001">
        <ele>939.5</ele>
        <time>2017-05-26T13:16:26Z</time>
      </trkpt>
      <trkpt lat="45.80203" lon="3.74012">
        <ele>860.641602</ele>
        <time>2017-05-26T13:17:08Z</time>
      </trkpt>
      <trkpt lat="45.80208" lon="3.7403">
        <ele>937.099976</ele>
        <time>2017-05-26T13:17:18Z</time>
      </trkpt>
      <trkpt lat="45.80212" lon="3.74045">
        <ele>936.299988</ele>
        <time>2017-05-26T13:17:21Z</time>
      </trkpt>
      <trkpt lat="45.80217" lon="3.74061">
        <ele>935.5</ele>
        <time>2017-05-26T13:17:24Z</time>
      </trkpt>
      <trkpt lat="45.80222" lon="3.74078">
        <ele>934.900024</ele>
        <time>2017-05-26T13:17:27Z</time>
      </trkpt>
      <trkpt lat="45.80224" lon="3.74094">
        <ele>934.099976</ele>
        <time>2017-05-26T13:17:30Z</time>
      </trkpt>
      <trkpt lat="45.80226" lon="3.74108">
        <ele>932.799988</ele>
        <time>2017-05-26T13:17:33Z</time>
      </trkpt>
      <trkpt lat="45.80225" lon="3.74123">
        <ele>930.900024</ele>
        <time>2017-05-26T13:17:37Z</time>
      </trkpt>
      <trkpt lat="45.80227" lon="3.74139">
        <ele>928.5</ele>
        <time>2017-05-26T13:17:42Z</time>
      </trkpt>
      <trkpt lat="45.80232" lon="3.7415">
        <ele>925.799988</ele>
        <time>2017-05-26T13:17:47Z</time>
      </trkpt>
      <trkpt lat="45.80234" lon="3.74165">
        <ele>923.299988</ele>
        <time>2017-05-26T13:17:52Z</time>
      </trkpt>
      <trkpt lat="45.80234" lon="3.74179">
        <ele>921.299988</ele>
        <time>2017-05-26T13:17:56Z</time>
      </trkpt>
      <trkpt lat="45.80235" lon="3.74196">
        <ele>919.299988</ele>
        <time>2017-05-26T13:18:00Z</time>
      </trkpt>
      <trkpt lat="45.80235" lon="3.7421">
        <ele>917.200012</ele>
        <time>2017-05-26T13:18:03Z</time>
      </trkpt>
      <trkpt lat="45.80235" lon="3.74225">
        <ele>915.099976</ele>
        <time>2017-05-26T13:18:06Z</time>
      </trkpt>
      <trkpt lat="45.80235" lon="3.74238">
        <ele>912</ele>
        <time>2017-05-26T13:18:09Z</time>
      </trkpt>
      <trkpt lat="45.80235" lon="3.74253">
        <ele>909.099976</ele>
        <time>2017-05-26T13:18:12Z</time>
      </trkpt>
      <trkpt lat="45.80232" lon="3.74266">
        <ele>907.900024</ele>
        <time>2017-05-26T13:18:14Z</time>
      </trkpt>
      <trkpt lat="45.80228" lon="3.74279">
        <ele>906.200012</ele>
        <time>2017-05-26T13:18:17Z</time>
      </trkpt>
      <trkpt lat="45.80218" lon="3.74294">
        <ele>903</ele>
        <time>2017-05-26T13:18:22Z</time>
      </trkpt>
      <trkpt lat="45.8021" lon="3.74303">
        <ele>901.900024</ele>
        <time>2017-05-26T13:18:25Z</time>
      </trkpt>
      <trkpt lat="45.80206" lon="3.74314">
        <ele>900.299988</ele>
        <time>2017-05-26T13:18:28Z</time>
      </trkpt>
      <trkpt lat="45.80206" lon="3.74328">
        <ele>898.700012</ele>
        <time>2017-05-26T13:18:31Z</time>
      </trkpt>
      <trkpt lat="45.80208" lon="3.74343">
        <ele>896.400024</ele>
        <time>2017-05-26T13:18:34Z</time>
      </trkpt>
      <trkpt lat="45.80215" lon="3.74357">
        <ele>894</ele>
        <time>2017-05-26T13:18:37Z</time>
      </trkpt>
      <trkpt lat="45.80224" lon="3.7436">
        <ele>891.400024</ele>
        <time>2017-05-26T13:18:40Z</time>
      </trkpt>
      <trkpt lat="45.80236" lon="3.74353">
        <ele>889.799988</ele>
        <time>2017-05-26T13:18:43Z</time>
      </trkpt>
      <trkpt lat="45.80246" lon="3.74346">
        <ele>888.5</ele>
        <time>2017-05-26T13:18:46Z</time>
      </trkpt>
      <trkpt lat="45.80258" lon="3.74345">
        <ele>885.599976</ele>
        <time>2017-05-26T13:18:50Z</time>
      </trkpt>
      <trkpt lat="45.80266" lon="3.74336">
        <ele>883.599976</ele>
        <time>2017-05-26T13:18:55Z</time>
      </trkpt>
      <trkpt lat="45.80273" lon="3.74329">
        <ele>883.5</ele>
        <time>2017-05-26T13:19:01Z</time>
      </trkpt>
      <trkpt lat="45.80282" lon="3.74324">
        <ele>883.700012</ele>
        <time>2017-05-26T13:19:05Z</time>
      </trkpt>
      <trkpt lat="45.80292" lon="3.74321">
        <ele>883.700012</ele>
        <time>2017-05-26T13:19:09Z</time>
      </trkpt>
      <trkpt lat="45.80302" lon="3.74318">
        <ele>883.900024</ele>
        <time>2017-05-26T13:19:13Z</time>
      </trkpt>
      <trkpt lat="45.80312" lon="3.74316">
        <ele>884.200012</ele>
        <time>2017-05-26T13:19:16Z</time>
      </trkpt>
      <trkpt lat="45.80323" lon="3.74314">
        <ele>884.299988</ele>
        <time>2017-05-26T13:19:20Z</time>
      </trkpt>
      <trkpt lat="45.80334" lon="3.7431">
        <ele>884.400024</ele>
        <time>2017-05-26T13:19:24Z</time>
      </trkpt>
      <trkpt lat="45.80344" lon="3.74307">
        <ele>884.200012</ele>
        <time>2017-05-26T13:19:27Z</time>
      </trkpt>
      <trkpt lat="45.80357" lon="3.74303">
        <ele>883.799988</ele>
        <time>2017-05-26T13:19:30Z</time>
      </trkpt>
      <trkpt lat="45.80368" lon="3.743">
        <ele>883.400024</ele>
        <time>2017-05-26T13:19:32Z</time>
      </trkpt>
      <trkpt lat="45.80378" lon="3.74295">
        <ele>882.900024</ele>
        <time>2017-05-26T13:19:34Z</time>
      </trkpt>
      <trkpt lat="45.8039" lon="3.7429">
        <ele>882.299988</ele>
        <time>2017-05-26T13:19:36Z</time>
      </trkpt>
      <trkpt lat="45.80403" lon="3.74285">
        <ele>881.799988</ele>
        <time>2017-05-26T13:19:38Z</time>
      </trkpt>
      <trkpt lat="45.80416" lon="3.74281">
        <ele>880.799988</ele>
        <time>2017-05-26T13:19:40Z</time>
      </trkpt>
      <trkpt lat="45.8043" lon="3.74278">
        <ele>880.099976</ele>
        <time>2017-05-26T13:19:42Z</time>
      </trkpt>
      <trkpt lat="45.80444" lon="3.74278">
        <ele>879.5</ele>
        <time>2017-05-26T13:19:44Z</time>
      </trkpt>
      <trkpt lat="45.80461" lon="3.74279">
        <ele>878.400024</ele>
        <time>2017-05-26T13:19:46Z</time>
      </trkpt>
      <trkpt lat="45.80472" lon="3.74277">
        <ele>877.599976</ele>
        <time>2017-05-26T13:19:47Z</time>
      </trkpt>
      <trkpt lat="45.80482" lon="3.74274">
        <ele>877.099976</ele>
        <time>2017-05-26T13:19:48Z</time>
      </trkpt>
      <trkpt lat="45.80493" lon="3.74269">
        <ele>876.599976</ele>
        <time>2017-05-26T13:19:49Z</time>
      </trkpt>
      <trkpt lat="45.80501" lon="3.74264">
        <ele>875.900024</ele>
        <time>2017-05-26T13:19:50Z</time>
      </trkpt>
      <trkpt lat="45.80513" lon="3.74251">
        <ele>874.299988</ele>
        <time>2017-05-26T13:19:52Z</time>
      </trkpt>
      <trkpt lat="45.80519" lon="3.74233">
        <ele>873.200012</ele>
        <time>2017-05-26T13:19:54Z</time>
      </trkpt>
      <trkpt lat="45.80523" lon="3.74208">
        <ele>871</ele>
        <time>2017-05-26T13:19:57Z</time>
      </trkpt>
      <trkpt lat="45.80522" lon="3.74187">
        <ele>870.799988</ele>
        <time>2017-05-26T13:20:00Z</time>
      </trkpt>
      <trkpt lat="45.80517" lon="3.74163">
        <ele>870</ele>
        <time>2017-05-26T13:20:03Z</time>
      </trkpt>
      <trkpt lat="45.80525" lon="3.74141">
        <ele>869.5</ele>
        <time>2017-05-26T13:20:06Z</time>
      </trkpt>
      <trkpt lat="45.80534" lon="3.74139">
        <ele>869.200012</ele>
        <time>2017-05-26T13:20:08Z</time>
      </trkpt>
      <trkpt lat="45.80543" lon="3.74145">
        <ele>868</ele>
        <time>2017-05-26T13:20:10Z</time>
      </trkpt>
      <trkpt lat="45.80556" lon="3.74155">
        <ele>868.200012</ele>
        <time>2017-05-26T13:20:13Z</time>
      </trkpt>
      <trkpt lat="45.80566" lon="3.7416">
        <ele>867.799988</ele>
        <time>2017-05-26T13:20:15Z</time>
      </trkpt>
      <trkpt lat="45.80575" lon="3.74159">
        <ele>867.599976</ele>
        <time>2017-05-26T13:20:17Z</time>
      </trkpt>
      <trkpt lat="45.80586" lon="3.74152">
        <ele>867.5</ele>
        <time>2017-05-26T13:20:19Z</time>
      </trkpt>
      <trkpt lat="45.80595" lon="3.74143">
        <ele>867.099976</ele>
        <time>2017-05-26T13:20:21Z</time>
      </trkpt>
      <trkpt lat="45.80603" lon="3.74136">
        <ele>866.799988</ele>
        <time>2017-05-26T13:20:23Z</time>
      </trkpt>
      <trkpt lat="45.80613" lon="3.74138">
        <ele>866.5</ele>
        <time>2017-05-26T13:20:25Z</time>
      </trkpt>
      <trkpt lat="45.8062" lon="3.74152">
        <ele>866.200012</ele>
        <time>2017-05-26T13:20:27Z</time>
      </trkpt>
      <trkpt lat="45.80621" lon="3.74167">
        <ele>865.799988</ele>
        <time>2017-05-26T13:20:29Z</time>
      </trkpt>
      <trkpt lat="45.8062" lon="3.74181">
        <ele>865.599976</ele>
        <time>2017-05-26T13:20:31Z</time>
      </trkpt>
      <trkpt lat="45.8062" lon="3.74194">
        <ele>865.599976</ele>
        <time>2017-05-26T13:20:33Z</time>
      </trkpt>
      <trkpt lat="45.8062" lon="3.74207">
        <ele>865.700012</ele>
        <time>2017-05-26T13:20:35Z</time>
      </trkpt>
      <trkpt lat="45.80618" lon="3.74221">
        <ele>865.900024</ele>
        <time>2017-05-26T13:20:37Z</time>
      </trkpt>
      <trkpt lat="45.80617" lon="3.74234">
        <ele>865.900024</ele>
        <time>2017-05-26T13:20:39Z</time>
      </trkpt>
      <trkpt lat="45.80616" lon="3.74253">
        <ele>866.099976</ele>
        <time>2017-05-26T13:20:42Z</time>
      </trkpt>
      <trkpt lat="45.80614" lon="3.74271">
        <ele>866.400024</ele>
        <time>2017-05-26T13:20:45Z</time>
      </trkpt>
      <trkpt lat="45.80613" lon="3.74286">
        <ele>866.900024</ele>
        <time>2017-05-26T13:20:48Z</time>
      </trkpt>
      <trkpt lat="45.80611" lon="3.743">
        <ele>867.700012</ele>
        <time>2017-05-26T13:20:51Z</time>
      </trkpt>
      <trkpt lat="45.80611" lon="3.74313">
        <ele>868.799988</ele>
        <time>2017-05-26T13:20:54Z</time>
      </trkpt>
      <trkpt lat="45.80609" lon="3.7433">
        <ele>869.5</ele>
        <time>2017-05-26T13:20:58Z</time>
      </trkpt>
      <trkpt lat="45.8061" lon="3.74345">
        <ele>870.099976</ele>
        <time>2017-05-26T13:21:02Z</time>
      </trkpt>
      <trkpt lat="45.80611" lon="3.74358">
        <ele>870.700012</ele>
        <time>2017-05-26T13:21:06Z</time>
      </trkpt>
      <trkpt lat="45.80615" lon="3.7437">
        <ele>871.799988</ele>
        <time>2017-05-26T13:21:10Z</time>
      </trkpt>
      <trkpt lat="45.80621" lon="3.74383">
        <ele>872.900024</ele>
        <time>2017-05-26T13:21:15Z</time>
      </trkpt>
      <trkpt lat="45.80629" lon="3.74392">
        <ele>874.200012</ele>
        <time>2017-05-26T13:21:20Z</time>
      </trkpt>
      <trkpt lat="45.80637" lon="3.74399">
        <ele>875</ele>
        <time>2017-05-26T13:21:24Z</time>
      </trkpt>
      <trkpt lat="45.80646" lon="3.74403">
        <ele>875.599976</ele>
        <time>2017-05-26T13:21:28Z</time>
      </trkpt>
      <trkpt lat="45.80654" lon="3.74409">
        <ele>876.299988</ele>
        <time>2017-05-26T13:21:32Z</time>
      </trkpt>
      <trkpt lat="45.80664" lon="3.74413">
        <ele>876.900024</ele>
        <time>2017-05-26T13:21:36Z</time>
      </trkpt>
      <trkpt lat="45.80674" lon="3.74419">
        <ele>877.200012</ele>
        <time>2017-05-26T13:21:40Z</time>
      </trkpt>
      <trkpt lat="45.80684" lon="3.74425">
        <ele>877.5</ele>
        <time>2017-05-26T13:21:44Z</time>
      </trkpt>
      <trkpt lat="45.80695" lon="3.74431">
        <ele>877.700012</ele>
        <time>2017-05-26T13:21:48Z</time>
      </trkpt>
      <trkpt lat="45.80705" lon="3.7444">
        <ele>877.900024</ele>
        <time>2017-05-26T13:21:52Z</time>
      </trkpt>
      <trkpt lat="45.80712" lon="3.74449">
        <ele>878.099976</ele>
        <time>2017-05-26T13:21:55Z</time>
      </trkpt>
      <trkpt lat="45.80718" lon="3.74459">
        <ele>878.099976</ele>
        <time>2017-05-26T13:21:58Z</time>
      </trkpt>
      <trkpt lat="45.80723" lon="3.74471">
        <ele>878.099976</ele>
        <time>2017-05-26T13:22:01Z</time>
      </trkpt>
      <trkpt lat="45.8073" lon="3.74481">
        <ele>878</ele>
        <time>2017-05-26T13:22:04Z</time>
      </trkpt>
      <trkpt lat="45.80736" lon="3.74491">
        <ele>878</ele>
        <time>2017-05-26T13:22:07Z</time>
      </trkpt>
      <trkpt lat="45.80745" lon="3.74501">
        <ele>878</ele>
        <time>2017-05-26T13:22:11Z</time>
      </trkpt>
      <trkpt lat="45.80746" lon="3.74518">
        <ele>877.599976</ele>
        <time>2017-05-26T13:22:15Z</time>
      </trkpt>
      <trkpt lat="45.80741" lon="3.74529">
        <ele>877</ele>
        <time>2017-05-26T13:22:22Z</time>
      </trkpt>
      <trkpt lat="45.80735" lon="3.74541">
        <ele>876.599976</ele>
        <time>2017-05-26T13:22:27Z</time>
      </trkpt>
      <trkpt lat="45.80729" lon="3.74554">
        <ele>876.400024</ele>
        <time>2017-05-26T13:22:31Z</time>
      </trkpt>
      <trkpt lat="45.80724" lon="3.74565">
        <ele>876.299988</ele>
        <time>2017-05-26T13:22:34Z</time>
      </trkpt>
      <trkpt lat="45.80717" lon="3.74578">
        <ele>876.099976</ele>
        <time>2017-05-26T13:22:38Z</time>
      </trkpt>
      <trkpt lat="45.80713" lon="3.7459">
        <ele>875</ele>
        <time>2017-05-26T13:23:03Z</time>
      </trkpt>
      <trkpt lat="45.80708" lon="3.74606">
        <ele>874.799988</ele>
        <time>2017-05-26T13:23:08Z</time>
      </trkpt>
      <trkpt lat="45.80703" lon="3.74621">
        <ele>874.599976</ele>
        <time>2017-05-26T13:23:11Z</time>
      </trkpt>
      <trkpt lat="45.80698" lon="3.74632">
        <ele>874.400024</ele>
        <time>2017-05-26T13:23:13Z</time>
      </trkpt>
      <trkpt lat="45.80692" lon="3.74645">
        <ele>873.700012</ele>
        <time>2017-05-26T13:23:15Z</time>
      </trkpt>
      <trkpt lat="45.80684" lon="3.74662">
        <ele>872.900024</ele>
        <time>2017-05-26T13:23:17Z</time>
      </trkpt>
      <trkpt lat="45.80675" lon="3.74682">
        <ele>871.799988</ele>
        <time>2017-05-26T13:23:19Z</time>
      </trkpt>
      <trkpt lat="45.80669" lon="3.74702">
        <ele>870.400024</ele>
        <time>2017-05-26T13:23:21Z</time>
      </trkpt>
      <trkpt lat="45.80664" lon="3.74723">
        <ele>868.700012</ele>
        <time>2017-05-26T13:23:23Z</time>
      </trkpt>
      <trkpt lat="45.80662" lon="3.74748">
        <ele>867</ele>
        <time>2017-05-26T13:23:25Z</time>
      </trkpt>
      <trkpt lat="45.80663" lon="3.74761">
        <ele>866.299988</ele>
        <time>2017-05-26T13:23:26Z</time>
      </trkpt>
      <trkpt lat="45.80664" lon="3.74774">
        <ele>865.200012</ele>
        <time>2017-05-26T13:23:27Z</time>
      </trkpt>
      <trkpt lat="45.80664" lon="3.74788">
        <ele>864.299988</ele>
        <time>2017-05-26T13:23:28Z</time>
      </trkpt>
      <trkpt lat="45.80663" lon="3.74801">
        <ele>863.700012</ele>
        <time>2017-05-26T13:23:29Z</time>
      </trkpt>
      <trkpt lat="45.80664" lon="3.74816">
        <ele>863.099976</ele>
        <time>2017-05-26T13:23:30Z</time>
      </trkpt>
      <trkpt lat="45.80664" lon="3.74829">
        <ele>862.5</ele>
        <time>2017-05-26T13:23:31Z</time>
      </trkpt>
      <trkpt lat="45.80664" lon="3.74843">
        <ele>862</ele>
        <time>2017-05-26T13:23:32Z</time>
      </trkpt>
      <trkpt lat="45.80663" lon="3.74856">
        <ele>861.5</ele>
        <time>2017-05-26T13:23:33Z</time>
      </trkpt>
      <trkpt lat="45.80662" lon="3.74869">
        <ele>860.799988</ele>
        <time>2017-05-26T13:23:34Z</time>
      </trkpt>
      <trkpt lat="45.80661" lon="3.74883">
        <ele>860.299988</ele>
        <time>2017-05-26T13:23:35Z</time>
      </trkpt>
      <trkpt lat="45.8066" lon="3.74896">
        <ele>859.900024</ele>
        <time>2017-05-26T13:23:36Z</time>
      </trkpt>
      <trkpt lat="45.80657" lon="3.74923">
        <ele>859.200012</ele>
        <time>2017-05-26T13:23:38Z</time>
      </trkpt>
      <trkpt lat="45.80655" lon="3.74948">
        <ele>858.5</ele>
        <time>2017-05-26T13:23:40Z</time>
      </trkpt>
      <trkpt lat="45.80654" lon="3.74973">
        <ele>857.700012</ele>
        <time>2017-05-26T13:23:42Z</time>
      </trkpt>
      <trkpt lat="45.80652" lon="3.74996">
        <ele>857.099976</ele>
        <time>2017-05-26T13:23:44Z</time>
      </trkpt>
      <trkpt lat="45.80651" lon="3.75019">
        <ele>856.400024</ele>
        <time>2017-05-26T13:23:46Z</time>
      </trkpt>
      <trkpt lat="45.80648" lon="3.75041">
        <ele>856.099976</ele>
        <time>2017-05-26T13:23:48Z</time>
      </trkpt>
      <trkpt lat="45.80644" lon="3.75061">
        <ele>855.400024</ele>
        <time>2017-05-26T13:23:50Z</time>
      </trkpt>
      <trkpt lat="45.80641" lon="3.75081">
        <ele>854.799988</ele>
        <time>2017-05-26T13:23:52Z</time>
      </trkpt>
      <trkpt lat="45.80636" lon="3.75101">
        <ele>854.200012</ele>
        <time>2017-05-26T13:23:54Z</time>
      </trkpt>
      <trkpt lat="45.80631" lon="3.7512">
        <ele>853.299988</ele>
        <time>2017-05-26T13:23:56Z</time>
      </trkpt>
      <trkpt lat="45.80625" lon="3.75138">
        <ele>852.900024</ele>
        <time>2017-05-26T13:23:58Z</time>
      </trkpt>
      <trkpt lat="45.8062" lon="3.75155">
        <ele>852.099976</ele>
        <time>2017-05-26T13:24:00Z</time>
      </trkpt>
      <trkpt lat="45.80614" lon="3.75172">
        <ele>851.799988</ele>
        <time>2017-05-26T13:24:02Z</time>
      </trkpt>
      <trkpt lat="45.80608" lon="3.75189">
        <ele>851.5</ele>
        <time>2017-05-26T13:24:04Z</time>
      </trkpt>
      <trkpt lat="45.80602" lon="3.75205">
        <ele>851.200012</ele>
        <time>2017-05-26T13:24:06Z</time>
      </trkpt>
      <trkpt lat="45.80594" lon="3.7522">
        <ele>850.599976</ele>
        <time>2017-05-26T13:24:08Z</time>
      </trkpt>
      <trkpt lat="45.80586" lon="3.75235">
        <ele>850</ele>
        <time>2017-05-26T13:24:10Z</time>
      </trkpt>
      <trkpt lat="45.80577" lon="3.7525">
        <ele>849.700012</ele>
        <time>2017-05-26T13:24:12Z</time>
      </trkpt>
      <trkpt lat="45.80569" lon="3.75265">
        <ele>849.200012</ele>
        <time>2017-05-26T13:24:14Z</time>
      </trkpt>
      <trkpt lat="45.80562" lon="3.7528">
        <ele>849</ele>
        <time>2017-05-26T13:24:16Z</time>
      </trkpt>
      <trkpt lat="45.80554" lon="3.75295">
        <ele>848.299988</ele>
        <time>2017-05-26T13:24:18Z</time>
      </trkpt>
      <trkpt lat="45.80548" lon="3.75309">
        <ele>848.5</ele>
        <time>2017-05-26T13:24:20Z</time>
      </trkpt>
      <trkpt lat="45.80543" lon="3.75323">
        <ele>848.200012</ele>
        <time>2017-05-26T13:24:22Z</time>
      </trkpt>
      <trkpt lat="45.80537" lon="3.75336">
        <ele>847.900024</ele>
        <time>2017-05-26T13:24:24Z</time>
      </trkpt>
      <trkpt lat="45.8053" lon="3.75347">
        <ele>847.5</ele>
        <time>2017-05-26T13:24:26Z</time>
      </trkpt>
      <trkpt lat="45.80525" lon="3.75366">
        <ele>846.700012</ele>
        <time>2017-05-26T13:24:29Z</time>
      </trkpt>
      <trkpt lat="45.80521" lon="3.75382">
        <ele>845.900024</ele>
        <time>2017-05-26T13:24:31Z</time>
      </trkpt>
      <trkpt lat="45.80516" lon="3.75398">
        <ele>844.599976</ele>
        <time>2017-05-26T13:24:33Z</time>
      </trkpt>
      <trkpt lat="45.80513" lon="3.75418">
        <ele>842.400024</ele>
        <time>2017-05-26T13:24:35Z</time>
      </trkpt>
      <trkpt lat="45.8051" lon="3.7544">
        <ele>840.799988</ele>
        <time>2017-05-26T13:24:37Z</time>
      </trkpt>
      <trkpt lat="45.80504" lon="3.75462">
        <ele>839.099976</ele>
        <time>2017-05-26T13:24:39Z</time>
      </trkpt>
      <trkpt lat="45.80498" lon="3.75484">
        <ele>837.5</ele>
        <time>2017-05-26T13:24:41Z</time>
      </trkpt>
      <trkpt lat="45.80492" lon="3.75506">
        <ele>836.200012</ele>
        <time>2017-05-26T13:24:43Z</time>
      </trkpt>
      <trkpt lat="45.80486" lon="3.75528">
        <ele>834.5</ele>
        <time>2017-05-26T13:24:45Z</time>
      </trkpt>
      <trkpt lat="45.80479" lon="3.75549">
        <ele>833.099976</ele>
        <time>2017-05-26T13:24:47Z</time>
      </trkpt>
      <trkpt lat="45.80472" lon="3.75572">
        <ele>832</ele>
        <time>2017-05-26T13:24:49Z</time>
      </trkpt>
      <trkpt lat="45.80468" lon="3.75584">
        <ele>831.5</ele>
        <time>2017-05-26T13:24:50Z</time>
      </trkpt>
      <trkpt lat="45.80463" lon="3.75596">
        <ele>830.900024</ele>
        <time>2017-05-26T13:24:51Z</time>
      </trkpt>
      <trkpt lat="45.8046" lon="3.75608">
        <ele>830.400024</ele>
        <time>2017-05-26T13:24:52Z</time>
      </trkpt>
      <trkpt lat="45.80453" lon="3.75631">
        <ele>829.099976</ele>
        <time>2017-05-26T13:24:54Z</time>
      </trkpt>
      <trkpt lat="45.80449" lon="3.75655">
        <ele>826.700012</ele>
        <time>2017-05-26T13:24:56Z</time>
      </trkpt>
      <trkpt lat="45.80447" lon="3.75679">
        <ele>824.700012</ele>
        <time>2017-05-26T13:24:58Z</time>
      </trkpt>
      <trkpt lat="45.80447" lon="3.75703">
        <ele>822.799988</ele>
        <time>2017-05-26T13:25:00Z</time>
      </trkpt>
      <trkpt lat="45.80447" lon="3.75716">
        <ele>821.5</ele>
        <time>2017-05-26T13:25:01Z</time>
      </trkpt>
      <trkpt lat="45.80447" lon="3.7573">
        <ele>820.200012</ele>
        <time>2017-05-26T13:25:02Z</time>
      </trkpt>
      <trkpt lat="45.80447" lon="3.75744">
        <ele>819.099976</ele>
        <time>2017-05-26T13:25:03Z</time>
      </trkpt>
      <trkpt lat="45.80448" lon="3.75758">
        <ele>817.799988</ele>
        <time>2017-05-26T13:25:04Z</time>
      </trkpt>
      <trkpt lat="45.80448" lon="3.75772">
        <ele>817</ele>
        <time>2017-05-26T13:25:05Z</time>
      </trkpt>
      <trkpt lat="45.8045" lon="3.75797">
        <ele>814.900024</ele>
        <time>2017-05-26T13:25:07Z</time>
      </trkpt>
      <trkpt lat="45.80453" lon="3.75818">
        <ele>812.900024</ele>
        <time>2017-05-26T13:25:09Z</time>
      </trkpt>
      <trkpt lat="45.80458" lon="3.75835">
        <ele>811.099976</ele>
        <time>2017-05-26T13:25:11Z</time>
      </trkpt>
      <trkpt lat="45.80461" lon="3.75848">
        <ele>809.400024</ele>
        <time>2017-05-26T13:25:13Z</time>
      </trkpt>
      <trkpt lat="45.80458" lon="3.75862">
        <ele>804.400024</ele>
        <time>2017-05-26T13:25:20Z</time>
      </trkpt>
      <trkpt lat="45.80456" lon="3.75875">
        <ele>803.099976</ele>
        <time>2017-05-26T13:25:23Z</time>
      </trkpt>
      <trkpt lat="45.80451" lon="3.75892">
        <ele>801.599976</ele>
        <time>2017-05-26T13:25:27Z</time>
      </trkpt>
      <trkpt lat="45.80447" lon="3.75905">
        <ele>800.799988</ele>
        <time>2017-05-26T13:25:29Z</time>
      </trkpt>
      <trkpt lat="45.80443" lon="3.75917">
        <ele>800</ele>
        <time>2017-05-26T13:25:31Z</time>
      </trkpt>
      <trkpt lat="45.80439" lon="3.75933">
        <ele>799</ele>
        <time>2017-05-26T13:25:33Z</time>
      </trkpt>
      <trkpt lat="45.80432" lon="3.7595">
        <ele>797.900024</ele>
        <time>2017-05-26T13:25:35Z</time>
      </trkpt>
      <trkpt lat="45.80427" lon="3.75968">
        <ele>796.099976</ele>
        <time>2017-05-26T13:25:37Z</time>
      </trkpt>
      <trkpt lat="45.80425" lon="3.75983">
        <ele>794.599976</ele>
        <time>2017-05-26T13:25:39Z</time>
      </trkpt>
      <trkpt lat="45.80425" lon="3.76002">
        <ele>793.299988</ele>
        <time>2017-05-26T13:25:41Z</time>
      </trkpt>
      <trkpt lat="45.80427" lon="3.76024">
        <ele>792.099976</ele>
        <time>2017-05-26T13:25:43Z</time>
      </trkpt>
      <trkpt lat="45.80431" lon="3.76045">
        <ele>790.700012</ele>
        <time>2017-05-26T13:25:45Z</time>
      </trkpt>
      <trkpt lat="45.80433" lon="3.7606">
        <ele>789.5</ele>
        <time>2017-05-26T13:25:47Z</time>
      </trkpt>
      <trkpt lat="45.80442" lon="3.76074">
        <ele>787.5</ele>
        <time>2017-05-26T13:25:50Z</time>
      </trkpt>
      <trkpt lat="45.80452" lon="3.76078">
        <ele>786.400024</ele>
        <time>2017-05-26T13:25:53Z</time>
      </trkpt>
      <trkpt lat="45.80462" lon="3.76082">
        <ele>785.700012</ele>
        <time>2017-05-26T13:25:56Z</time>
      </trkpt>
      <trkpt lat="45.80473" lon="3.76087">
        <ele>785.400024</ele>
        <time>2017-05-26T13:25:59Z</time>
      </trkpt>
      <trkpt lat="45.80485" lon="3.7609">
        <ele>785</ele>
        <time>2017-05-26T13:26:02Z</time>
      </trkpt>
      <trkpt lat="45.80497" lon="3.76093">
        <ele>784.599976</ele>
        <time>2017-05-26T13:26:05Z</time>
      </trkpt>
      <trkpt lat="45.80506" lon="3.76096">
        <ele>784.200012</ele>
        <time>2017-05-26T13:26:07Z</time>
      </trkpt>
      <trkpt lat="45.80516" lon="3.76104">
        <ele>783.700012</ele>
        <time>2017-05-26T13:26:09Z</time>
      </trkpt>
      <trkpt lat="45.80526" lon="3.76118">
        <ele>783.200012</ele>
        <time>2017-05-26T13:26:11Z</time>
      </trkpt>
      <trkpt lat="45.80533" lon="3.76134">
        <ele>782.700012</ele>
        <time>2017-05-26T13:26:13Z</time>
      </trkpt>
      <trkpt lat="45.80538" lon="3.7615">
        <ele>782.200012</ele>
        <time>2017-05-26T13:26:15Z</time>
      </trkpt>
      <trkpt lat="45.80541" lon="3.76168">
        <ele>781.900024</ele>
        <time>2017-05-26T13:26:17Z</time>
      </trkpt>
      <trkpt lat="45.80542" lon="3.76182">
        <ele>781.700012</ele>
        <time>2017-05-26T13:26:19Z</time>
      </trkpt>
      <trkpt lat="45.8054" lon="3.76195">
        <ele>780.400024</ele>
        <time>2017-05-26T13:26:27Z</time>
      </trkpt>
      <trkpt lat="45.80533" lon="3.76204">
        <ele>780.5</ele>
        <time>2017-05-26T13:26:31Z</time>
      </trkpt>
      <trkpt lat="45.80523" lon="3.76216">
        <ele>780.400024</ele>
        <time>2017-05-26T13:26:34Z</time>
      </trkpt>
      <trkpt lat="45.80514" lon="3.76227">
        <ele>780.099976</ele>
        <time>2017-05-26T13:26:36Z</time>
      </trkpt>
      <trkpt lat="45.80506" lon="3.76239">
        <ele>779.599976</ele>
        <time>2017-05-26T13:26:38Z</time>
      </trkpt>
      <trkpt lat="45.805" lon="3.7625">
        <ele>779.299988</ele>
        <time>2017-05-26T13:26:40Z</time>
      </trkpt>
      <trkpt lat="45.80492" lon="3.76264">
        <ele>779.099976</ele>
        <time>2017-05-26T13:26:43Z</time>
      </trkpt>
      <trkpt lat="45.80485" lon="3.76276">
        <ele>778.799988</ele>
        <time>2017-05-26T13:26:46Z</time>
      </trkpt>
      <trkpt lat="45.80477" lon="3.7629">
        <ele>778.5</ele>
        <time>2017-05-26T13:26:49Z</time>
      </trkpt>
      <trkpt lat="45.8047" lon="3.76304">
        <ele>778.900024</ele>
        <time>2017-05-26T13:26:52Z</time>
      </trkpt>
      <trkpt lat="45.80465" lon="3.76318">
        <ele>778.900024</ele>
        <time>2017-05-26T13:26:55Z</time>
      </trkpt>
      <trkpt lat="45.80459" lon="3.76333">
        <ele>778.5</ele>
        <time>2017-05-26T13:26:59Z</time>
      </trkpt>
      <trkpt lat="45.80453" lon="3.76348">
        <ele>778.200012</ele>
        <time>2017-05-26T13:27:02Z</time>
      </trkpt>
      <trkpt lat="45.80447" lon="3.76359">
        <ele>778</ele>
        <time>2017-05-26T13:27:04Z</time>
      </trkpt>
      <trkpt lat="45.80442" lon="3.76371">
        <ele>777.5</ele>
        <time>2017-05-26T13:27:06Z</time>
      </trkpt>
      <trkpt lat="45.80436" lon="3.76384">
        <ele>776.900024</ele>
        <time>2017-05-26T13:27:08Z</time>
      </trkpt>
      <trkpt lat="45.8043" lon="3.76399">
        <ele>776.700012</ele>
        <time>2017-05-26T13:27:10Z</time>
      </trkpt>
      <trkpt lat="45.80425" lon="3.76415">
        <ele>776.400024</ele>
        <time>2017-05-26T13:27:12Z</time>
      </trkpt>
      <trkpt lat="45.8042" lon="3.7643">
        <ele>776</ele>
        <time>2017-05-26T13:27:14Z</time>
      </trkpt>
      <trkpt lat="45.80415" lon="3.76445">
        <ele>775.599976</ele>
        <time>2017-05-26T13:27:16Z</time>
      </trkpt>
      <trkpt lat="45.8041" lon="3.76461">
        <ele>775.400024</ele>
        <time>2017-05-26T13:27:18Z</time>
      </trkpt>
      <trkpt lat="45.80406" lon="3.76477">
        <ele>774.900024</ele>
        <time>2017-05-26T13:27:20Z</time>
      </trkpt>
      <trkpt lat="45.80403" lon="3.76493">
        <ele>774.599976</ele>
        <time>2017-05-26T13:27:22Z</time>
      </trkpt>
      <trkpt lat="45.80399" lon="3.76511">
        <ele>773.400024</ele>
        <time>2017-05-26T13:27:25Z</time>
      </trkpt>
      <trkpt lat="45.80397" lon="3.76526">
        <ele>772.799988</ele>
        <time>2017-05-26T13:27:27Z</time>
      </trkpt>
      <trkpt lat="45.80396" lon="3.7654">
        <ele>772.5</ele>
        <time>2017-05-26T13:27:29Z</time>
      </trkpt>
      <trkpt lat="45.80393" lon="3.76554">
        <ele>772.200012</ele>
        <time>2017-05-26T13:27:31Z</time>
      </trkpt>
      <trkpt lat="45.80391" lon="3.76571">
        <ele>771.900024</ele>
        <time>2017-05-26T13:27:33Z</time>
      </trkpt>
      <trkpt lat="45.80389" lon="3.76585">
        <ele>771.799988</ele>
        <time>2017-05-26T13:27:35Z</time>
      </trkpt>
      <trkpt lat="45.80386" lon="3.766">
        <ele>771.5</ele>
        <time>2017-05-26T13:27:37Z</time>
      </trkpt>
      <trkpt lat="45.8038" lon="3.76618">
        <ele>771.299988</ele>
        <time>2017-05-26T13:27:39Z</time>
      </trkpt>
      <trkpt lat="45.80376" lon="3.76636">
        <ele>771</ele>
        <time>2017-05-26T13:27:41Z</time>
      </trkpt>
      <trkpt lat="45.80372" lon="3.76651">
        <ele>771</ele>
        <time>2017-05-26T13:27:43Z</time>
      </trkpt>
      <trkpt lat="45.8037" lon="3.7667">
        <ele>770.900024</ele>
        <time>2017-05-26T13:27:45Z</time>
      </trkpt>
      <trkpt lat="45.80368" lon="3.76688">
        <ele>770.900024</ele>
        <time>2017-05-26T13:27:47Z</time>
      </trkpt>
      <trkpt lat="45.80366" lon="3.76707">
        <ele>770.599976</ele>
        <time>2017-05-26T13:27:49Z</time>
      </trkpt>
      <trkpt lat="45.80368" lon="3.76725">
        <ele>770.299988</ele>
        <time>2017-05-26T13:27:51Z</time>
      </trkpt>
      <trkpt lat="45.80369" lon="3.76744">
        <ele>769.799988</ele>
        <time>2017-05-26T13:27:53Z</time>
      </trkpt>
      <trkpt lat="45.80373" lon="3.7676">
        <ele>768.299988</ele>
        <time>2017-05-26T13:27:55Z</time>
      </trkpt>
      <trkpt lat="45.80375" lon="3.7678">
        <ele>767.400024</ele>
        <time>2017-05-26T13:27:57Z</time>
      </trkpt>
      <trkpt lat="45.80374" lon="3.76798">
        <ele>767.299988</ele>
        <time>2017-05-26T13:27:59Z</time>
      </trkpt>
      <trkpt lat="45.80369" lon="3.7681">
        <ele>767</ele>
        <time>2017-05-26T13:28:02Z</time>
      </trkpt>
      <trkpt lat="45.80359" lon="3.76807">
        <ele>766.900024</ele>
        <time>2017-05-26T13:28:06Z</time>
      </trkpt>
      <trkpt lat="45.80347" lon="3.768">
        <ele>767.200012</ele>
        <time>2017-05-26T13:28:10Z</time>
      </trkpt>
      <trkpt lat="45.80339" lon="3.76793">
        <ele>767.700012</ele>
        <time>2017-05-26T13:28:13Z</time>
      </trkpt>
      <trkpt lat="45.80329" lon="3.76785">
        <ele>768.200012</ele>
        <time>2017-05-26T13:28:17Z</time>
      </trkpt>
      <trkpt lat="45.8032" lon="3.76777">
        <ele>769</ele>
        <time>2017-05-26T13:28:21Z</time>
      </trkpt>
      <trkpt lat="45.8031" lon="3.7677">
        <ele>769.5</ele>
        <time>2017-05-26T13:28:25Z</time>
      </trkpt>
      <trkpt lat="45.803" lon="3.76774">
        <ele>770.099976</ele>
        <time>2017-05-26T13:28:31Z</time>
      </trkpt>
      <trkpt lat="45.80298" lon="3.76786">
        <ele>770</ele>
        <time>2017-05-26T13:28:33Z</time>
      </trkpt>
      <trkpt lat="45.80295" lon="3.76801">
        <ele>769.599976</ele>
        <time>2017-05-26T13:28:35Z</time>
      </trkpt>
      <trkpt lat="45.80292" lon="3.76816">
        <ele>769</ele>
        <time>2017-05-26T13:28:37Z</time>
      </trkpt>
      <trkpt lat="45.80291" lon="3.7683">
        <ele>768.599976</ele>
        <time>2017-05-26T13:28:39Z</time>
      </trkpt>
      <trkpt lat="45.80288" lon="3.76846">
        <ele>768.299988</ele>
        <time>2017-05-26T13:28:42Z</time>
      </trkpt>
      <trkpt lat="45.80286" lon="3.76861">
        <ele>768.5</ele>
        <time>2017-05-26T13:28:45Z</time>
      </trkpt>
      <trkpt lat="45.80284" lon="3.76878">
        <ele>768.5</ele>
        <time>2017-05-26T13:28:48Z</time>
      </trkpt>
      <trkpt lat="45.80281" lon="3.76896">
        <ele>768.200012</ele>
        <time>2017-05-26T13:28:51Z</time>
      </trkpt>
      <trkpt lat="45.80279" lon="3.76914">
        <ele>768.200012</ele>
        <time>2017-05-26T13:28:54Z</time>
      </trkpt>
      <trkpt lat="45.80278" lon="3.76932">
        <ele>768.599976</ele>
        <time>2017-05-26T13:28:57Z</time>
      </trkpt>
      <trkpt lat="45.80279" lon="3.76946">
        <ele>768.799988</ele>
        <time>2017-05-26T13:29:00Z</time>
      </trkpt>
      <trkpt lat="45.80278" lon="3.76963">
        <ele>769.5</ele>
        <time>2017-05-26T13:29:04Z</time>
      </trkpt>
      <trkpt lat="45.80278" lon="3.76978">
        <ele>769.700012</ele>
        <time>2017-05-26T13:29:07Z</time>
      </trkpt>
      <trkpt lat="45.80279" lon="3.76997">
        <ele>769.900024</ele>
        <time>2017-05-26T13:29:10Z</time>
      </trkpt>
      <trkpt lat="45.80279" lon="3.77012">
        <ele>770</ele>
        <time>2017-05-26T13:29:12Z</time>
      </trkpt>
      <trkpt lat="45.80278" lon="3.77027">
        <ele>769.799988</ele>
        <time>2017-05-26T13:29:14Z</time>
      </trkpt>
      <trkpt lat="45.80278" lon="3.77043">
        <ele>769.400024</ele>
        <time>2017-05-26T13:29:16Z</time>
      </trkpt>
      <trkpt lat="45.80277" lon="3.77059">
        <ele>769.200012</ele>
        <time>2017-05-26T13:29:18Z</time>
      </trkpt>
      <trkpt lat="45.80277" lon="3.77076">
        <ele>768.900024</ele>
        <time>2017-05-26T13:29:20Z</time>
      </trkpt>
      <trkpt lat="45.80277" lon="3.77091">
        <ele>768.599976</ele>
        <time>2017-05-26T13:29:22Z</time>
      </trkpt>
      <trkpt lat="45.80276" lon="3.77107">
        <ele>768.299988</ele>
        <time>2017-05-26T13:29:24Z</time>
      </trkpt>
      <trkpt lat="45.80276" lon="3.77123">
        <ele>767.799988</ele>
        <time>2017-05-26T13:29:26Z</time>
      </trkpt>
      <trkpt lat="45.80275" lon="3.7714">
        <ele>767.5</ele>
        <time>2017-05-26T13:29:28Z</time>
      </trkpt>
      <trkpt lat="45.80275" lon="3.77156">
        <ele>767.200012</ele>
        <time>2017-05-26T13:29:30Z</time>
      </trkpt>
      <trkpt lat="45.80274" lon="3.77172">
        <ele>766.400024</ele>
        <time>2017-05-26T13:29:32Z</time>
      </trkpt>
      <trkpt lat="45.80274" lon="3.77187">
        <ele>766.5</ele>
        <time>2017-05-26T13:29:34Z</time>
      </trkpt>
      <trkpt lat="45.80273" lon="3.77203">
        <ele>766.299988</ele>
        <time>2017-05-26T13:29:36Z</time>
      </trkpt>
      <trkpt lat="45.80273" lon="3.77218">
        <ele>766</ele>
        <time>2017-05-26T13:29:38Z</time>
      </trkpt>
      <trkpt lat="45.80272" lon="3.77234">
        <ele>765.799988</ele>
        <time>2017-05-26T13:29:40Z</time>
      </trkpt>
      <trkpt lat="45.80272" lon="3.77251">
        <ele>765.599976</ele>
        <time>2017-05-26T13:29:42Z</time>
      </trkpt>
      <trkpt lat="45.80271" lon="3.77268">
        <ele>765.5</ele>
        <time>2017-05-26T13:29:44Z</time>
      </trkpt>
      <trkpt lat="45.8027" lon="3.77284">
        <ele>765.400024</ele>
        <time>2017-05-26T13:29:46Z</time>
      </trkpt>
      <trkpt lat="45.8027" lon="3.773">
        <ele>764.900024</ele>
        <time>2017-05-26T13:29:48Z</time>
      </trkpt>
      <trkpt lat="45.80269" lon="3.77316">
        <ele>764.700012</ele>
        <time>2017-05-26T13:29:50Z</time>
      </trkpt>
      <trkpt lat="45.80269" lon="3.77332">
        <ele>764.599976</ele>
        <time>2017-05-26T13:29:52Z</time>
      </trkpt>
      <trkpt lat="45.80269" lon="3.7735">
        <ele>764.099976</ele>
        <time>2017-05-26T13:29:54Z</time>
      </trkpt>
      <trkpt lat="45.80269" lon="3.77367">
        <ele>763.299988</ele>
        <time>2017-05-26T13:29:56Z</time>
      </trkpt>
      <trkpt lat="45.80269" lon="3.77384">
        <ele>762.700012</ele>
        <time>2017-05-26T13:29:58Z</time>
      </trkpt>
      <trkpt lat="45.80268" lon="3.774">
        <ele>761.900024</ele>
        <time>2017-05-26T13:30:00Z</time>
      </trkpt>
      <trkpt lat="45.80267" lon="3.77416">
        <ele>761.900024</ele>
        <time>2017-05-26T13:30:02Z</time>
      </trkpt>
      <trkpt lat="45.80265" lon="3.77432">
        <ele>761.700012</ele>
        <time>2017-05-26T13:30:04Z</time>
      </trkpt>
      <trkpt lat="45.80263" lon="3.7745">
        <ele>761.599976</ele>
        <time>2017-05-26T13:30:06Z</time>
      </trkpt>
      <trkpt lat="45.80263" lon="3.77469">
        <ele>761.200012</ele>
        <time>2017-05-26T13:30:08Z</time>
      </trkpt>
      <trkpt lat="45.80262" lon="3.77487">
        <ele>760.5</ele>
        <time>2017-05-26T13:30:10Z</time>
      </trkpt>
      <trkpt lat="45.80262" lon="3.77504">
        <ele>760.099976</ele>
        <time>2017-05-26T13:30:12Z</time>
      </trkpt>
      <trkpt lat="45.80262" lon="3.7752">
        <ele>759.799988</ele>
        <time>2017-05-26T13:30:14Z</time>
      </trkpt>
      <trkpt lat="45.80261" lon="3.77536">
        <ele>759.5</ele>
        <time>2017-05-26T13:30:16Z</time>
      </trkpt>
      <trkpt lat="45.8026" lon="3.77551">
        <ele>759.200012</ele>
        <time>2017-05-26T13:30:18Z</time>
      </trkpt>
      <trkpt lat="45.80259" lon="3.77564">
        <ele>758.900024</ele>
        <time>2017-05-26T13:30:20Z</time>
      </trkpt>
      <trkpt lat="45.80257" lon="3.7758">
        <ele>758.5</ele>
        <time>2017-05-26T13:30:23Z</time>
      </trkpt>
      <trkpt lat="45.8025" lon="3.77588">
        <ele>758.400024</ele>
        <time>2017-05-26T13:30:26Z</time>
      </trkpt>
      <trkpt lat="45.8024" lon="3.77594">
        <ele>758.5</ele>
        <time>2017-05-26T13:30:30Z</time>
      </trkpt>
      <trkpt lat="45.80232" lon="3.77599">
        <ele>759</ele>
        <time>2017-05-26T13:30:34Z</time>
      </trkpt>
      <trkpt lat="45.80222" lon="3.77598">
        <ele>760.599976</ele>
        <time>2017-05-26T13:30:40Z</time>
      </trkpt>
      <trkpt lat="45.80212" lon="3.77599">
        <ele>762.5</ele>
        <time>2017-05-26T13:30:46Z</time>
      </trkpt>
      <trkpt lat="45.80204" lon="3.77606">
        <ele>763.900024</ele>
        <time>2017-05-26T13:30:51Z</time>
      </trkpt>
      <trkpt lat="45.80197" lon="3.77615">
        <ele>764.900024</ele>
        <time>2017-05-26T13:30:56Z</time>
      </trkpt>
      <trkpt lat="45.8019" lon="3.77624">
        <ele>765.599976</ele>
        <time>2017-05-26T13:31:01Z</time>
      </trkpt>
      <trkpt lat="45.8018" lon="3.77628">
        <ele>765.700012</ele>
        <time>2017-05-26T13:31:06Z</time>
      </trkpt>
      <trkpt lat="45.80169" lon="3.77629">
        <ele>765.799988</ele>
        <time>2017-05-26T13:31:10Z</time>
      </trkpt>
      <trkpt lat="45.8016" lon="3.77629">
        <ele>766</ele>
        <time>2017-05-26T13:31:13Z</time>
      </trkpt>
      <trkpt lat="45.80148" lon="3.77628">
        <ele>766.200012</ele>
        <time>2017-05-26T13:31:16Z</time>
      </trkpt>
      <trkpt lat="45.80138" lon="3.77628">
        <ele>766.400024</ele>
        <time>2017-05-26T13:31:19Z</time>
      </trkpt>
      <trkpt lat="45.80128" lon="3.7763">
        <ele>766.599976</ele>
        <time>2017-05-26T13:31:22Z</time>
      </trkpt>
      <trkpt lat="45.80119" lon="3.77633">
        <ele>766.700012</ele>
        <time>2017-05-26T13:31:25Z</time>
      </trkpt>
      <trkpt lat="45.80109" lon="3.77641">
        <ele>767</ele>
        <time>2017-05-26T13:31:29Z</time>
      </trkpt>
      <trkpt lat="45.80099" lon="3.77649">
        <ele>767.200012</ele>
        <time>2017-05-26T13:31:33Z</time>
      </trkpt>
      <trkpt lat="45.8009" lon="3.77658">
        <ele>767.400024</ele>
        <time>2017-05-26T13:31:37Z</time>
      </trkpt>
      <trkpt lat="45.80079" lon="3.77665">
        <ele>767.5</ele>
        <time>2017-05-26T13:31:41Z</time>
      </trkpt>
      <trkpt lat="45.80068" lon="3.77667">
        <ele>767.900024</ele>
        <time>2017-05-26T13:31:45Z</time>
      </trkpt>
      <trkpt lat="45.80056" lon="3.77667">
        <ele>768.5</ele>
        <time>2017-05-26T13:31:49Z</time>
      </trkpt>
      <trkpt lat="45.80045" lon="3.7767">
        <ele>768.599976</ele>
        <time>2017-05-26T13:31:52Z</time>
      </trkpt>
      <trkpt lat="45.80033" lon="3.77671">
        <ele>768.700012</ele>
        <time>2017-05-26T13:31:55Z</time>
      </trkpt>
      <trkpt lat="45.80023" lon="3.77672">
        <ele>768.599976</ele>
        <time>2017-05-26T13:31:58Z</time>
      </trkpt>
      <trkpt lat="45.80013" lon="3.77672">
        <ele>768.799988</ele>
        <time>2017-05-26T13:32:01Z</time>
      </trkpt>
      <trkpt lat="45.80003" lon="3.77673">
        <ele>769</ele>
        <time>2017-05-26T13:32:04Z</time>
      </trkpt>
      <trkpt lat="45.79994" lon="3.77677">
        <ele>769.299988</ele>
        <time>2017-05-26T13:32:07Z</time>
      </trkpt>
      <trkpt lat="45.79985" lon="3.77681">
        <ele>769.5</ele>
        <time>2017-05-26T13:32:10Z</time>
      </trkpt>
      <trkpt lat="45.79976" lon="3.77684">
        <ele>769.900024</ele>
        <time>2017-05-26T13:32:13Z</time>
      </trkpt>
      <trkpt lat="45.79964" lon="3.77687">
        <ele>770.200012</ele>
        <time>2017-05-26T13:32:17Z</time>
      </trkpt>
      <trkpt lat="45.79954" lon="3.77686">
        <ele>770.599976</ele>
        <time>2017-05-26T13:32:21Z</time>
      </trkpt>
      <trkpt lat="45.79943" lon="3.77683">
        <ele>771.200012</ele>
        <time>2017-05-26T13:32:25Z</time>
      </trkpt>
      <trkpt lat="45.79931" lon="3.77679">
        <ele>771.700012</ele>
        <time>2017-05-26T13:32:29Z</time>
      </trkpt>
      <trkpt lat="45.7992" lon="3.77675">
        <ele>772.200012</ele>
        <time>2017-05-26T13:32:33Z</time>
      </trkpt>
      <trkpt lat="45.79908" lon="3.77672">
        <ele>772.799988</ele>
        <time>2017-05-26T13:32:37Z</time>
      </trkpt>
      <trkpt lat="45.79898" lon="3.77669">
        <ele>773.700012</ele>
        <time>2017-05-26T13:32:41Z</time>
      </trkpt>
      <trkpt lat="45.79887" lon="3.77667">
        <ele>775</ele>
        <time>2017-05-26T13:32:46Z</time>
      </trkpt>
      <trkpt lat="45.79877" lon="3.77666">
        <ele>776.700012</ele>
        <time>2017-05-26T13:32:53Z</time>
      </trkpt>
      <trkpt lat="45.79867" lon="3.77666">
        <ele>777.900024</ele>
        <time>2017-05-26T13:32:58Z</time>
      </trkpt>
      <trkpt lat="45.79856" lon="3.77664">
        <ele>779.099976</ele>
        <time>2017-05-26T13:33:03Z</time>
      </trkpt>
      <trkpt lat="45.79846" lon="3.77661">
        <ele>779.700012</ele>
        <time>2017-05-26T13:33:07Z</time>
      </trkpt>
      <trkpt lat="45.79835" lon="3.77658">
        <ele>780.200012</ele>
        <time>2017-05-26T13:33:11Z</time>
      </trkpt>
      <trkpt lat="45.79824" lon="3.77656">
        <ele>781</ele>
        <time>2017-05-26T13:33:16Z</time>
      </trkpt>
      <trkpt lat="45.79815" lon="3.77655">
        <ele>781.700012</ele>
        <time>2017-05-26T13:33:20Z</time>
      </trkpt>
      <trkpt lat="45.79804" lon="3.77651">
        <ele>783</ele>
        <time>2017-05-26T13:33:25Z</time>
      </trkpt>
      <trkpt lat="45.79795" lon="3.77649">
        <ele>783.799988</ele>
        <time>2017-05-26T13:33:29Z</time>
      </trkpt>
      <trkpt lat="45.79786" lon="3.77646">
        <ele>784.700012</ele>
        <time>2017-05-26T13:33:33Z</time>
      </trkpt>
      <trkpt lat="45.79777" lon="3.77644">
        <ele>785.299988</ele>
        <time>2017-05-26T13:33:37Z</time>
      </trkpt>
      <trkpt lat="45.79766" lon="3.7764">
        <ele>786.599976</ele>
        <time>2017-05-26T13:33:42Z</time>
      </trkpt>
      <trkpt lat="45.79756" lon="3.77636">
        <ele>787.799988</ele>
        <time>2017-05-26T13:33:47Z</time>
      </trkpt>
      <trkpt lat="45.7975" lon="3.77626">
        <ele>789.099976</ele>
        <time>2017-05-26T13:33:51Z</time>
      </trkpt>
      <trkpt lat="45.79744" lon="3.77616">
        <ele>790.200012</ele>
        <time>2017-05-26T13:33:55Z</time>
      </trkpt>
      <trkpt lat="45.79736" lon="3.77607">
        <ele>791.099976</ele>
        <time>2017-05-26T13:34:00Z</time>
      </trkpt>
      <trkpt lat="45.79729" lon="3.77599">
        <ele>792.099976</ele>
        <time>2017-05-26T13:34:06Z</time>
      </trkpt>
      <trkpt lat="45.7972" lon="3.77592">
        <ele>792</ele>
        <time>2017-05-26T13:34:11Z</time>
      </trkpt>
      <trkpt lat="45.79711" lon="3.7759">
        <ele>792.200012</ele>
        <time>2017-05-26T13:34:17Z</time>
      </trkpt>
      <trkpt lat="45.79703" lon="3.77598">
        <ele>792.599976</ele>
        <time>2017-05-26T13:34:23Z</time>
      </trkpt>
      <trkpt lat="45.79698" lon="3.77609">
        <ele>793.400024</ele>
        <time>2017-05-26T13:34:28Z</time>
      </trkpt>
      <trkpt lat="45.79694" lon="3.77623">
        <ele>794</ele>
        <time>2017-05-26T13:34:33Z</time>
      </trkpt>
      <trkpt lat="45.79691" lon="3.77635">
        <ele>794.799988</ele>
        <time>2017-05-26T13:34:38Z</time>
      </trkpt>
      <trkpt lat="45.79681" lon="3.7764">
        <ele>795.799988</ele>
        <time>2017-05-26T13:34:44Z</time>
      </trkpt>
      <trkpt lat="45.79672" lon="3.77644">
        <ele>796.700012</ele>
        <time>2017-05-26T13:34:50Z</time>
      </trkpt>
      <trkpt lat="45.79664" lon="3.77647">
        <ele>797.700012</ele>
        <time>2017-05-26T13:34:55Z</time>
      </trkpt>
      <trkpt lat="45.79654" lon="3.77652">
        <ele>799</ele>
        <time>2017-05-26T13:35:00Z</time>
      </trkpt>
      <trkpt lat="45.79645" lon="3.77656">
        <ele>800</ele>
        <time>2017-05-26T13:35:06Z</time>
      </trkpt>
      <trkpt lat="45.79634" lon="3.77659">
        <ele>801</ele>
        <time>2017-05-26T13:35:13Z</time>
      </trkpt>
      <trkpt lat="45.79625" lon="3.77662">
        <ele>801.900024</ele>
        <time>2017-05-26T13:35:19Z</time>
      </trkpt>
      <trkpt lat="45.79615" lon="3.77665">
        <ele>802.799988</ele>
        <time>2017-05-26T13:35:25Z</time>
      </trkpt>
      <trkpt lat="45.79605" lon="3.77667">
        <ele>803.900024</ele>
        <time>2017-05-26T13:35:31Z</time>
      </trkpt>
      <trkpt lat="45.79597" lon="3.77671">
        <ele>804.900024</ele>
        <time>2017-05-26T13:35:36Z</time>
      </trkpt>
      <trkpt lat="45.79587" lon="3.77677">
        <ele>805.700012</ele>
        <time>2017-05-26T13:35:42Z</time>
      </trkpt>
      <trkpt lat="45.79578" lon="3.77684">
        <ele>806.599976</ele>
        <time>2017-05-26T13:35:48Z</time>
      </trkpt>
      <trkpt lat="45.79569" lon="3.77689">
        <ele>808.099976</ele>
        <time>2017-05-26T13:35:55Z</time>
      </trkpt>
      <trkpt lat="45.79561" lon="3.77696">
        <ele>809.099976</ele>
        <time>2017-05-26T13:36:00Z</time>
      </trkpt>
      <trkpt lat="45.79551" lon="3.777">
        <ele>809.700012</ele>
        <time>2017-05-26T13:36:05Z</time>
      </trkpt>
      <trkpt lat="45.79543" lon="3.77705">
        <ele>811.099976</ele>
        <time>2017-05-26T13:36:11Z</time>
      </trkpt>
      <trkpt lat="45.79533" lon="3.77709">
        <ele>812.200012</ele>
        <time>2017-05-26T13:36:16Z</time>
      </trkpt>
      <trkpt lat="45.79524" lon="3.77714">
        <ele>813.400024</ele>
        <time>2017-05-26T13:36:21Z</time>
      </trkpt>
      <trkpt lat="45.79516" lon="3.77721">
        <ele>814.5</ele>
        <time>2017-05-26T13:36:26Z</time>
      </trkpt>
      <trkpt lat="45.79509" lon="3.77729">
        <ele>815.599976</ele>
        <time>2017-05-26T13:36:31Z</time>
      </trkpt>
      <trkpt lat="45.79501" lon="3.77738">
        <ele>816.700012</ele>
        <time>2017-05-26T13:36:37Z</time>
      </trkpt>
      <trkpt lat="45.79493" lon="3.77748">
        <ele>817.799988</ele>
        <time>2017-05-26T13:36:43Z</time>
      </trkpt>
      <trkpt lat="45.79486" lon="3.77758">
        <ele>818.900024</ele>
        <time>2017-05-26T13:36:49Z</time>
      </trkpt>
      <trkpt lat="45.79479" lon="3.77768">
        <ele>819.900024</ele>
        <time>2017-05-26T13:36:54Z</time>
      </trkpt>
      <trkpt lat="45.79474" lon="3.77779">
        <ele>820.700012</ele>
        <time>2017-05-26T13:36:59Z</time>
      </trkpt>
      <trkpt lat="45.79468" lon="3.7779">
        <ele>821.200012</ele>
        <time>2017-05-26T13:37:04Z</time>
      </trkpt>
      <trkpt lat="45.79461" lon="3.77802">
        <ele>822.200012</ele>
        <time>2017-05-26T13:37:09Z</time>
      </trkpt>
      <trkpt lat="45.79455" lon="3.77812">
        <ele>822.799988</ele>
        <time>2017-05-26T13:37:13Z</time>
      </trkpt>
      <trkpt lat="45.79448" lon="3.77823">
        <ele>823.299988</ele>
        <time>2017-05-26T13:37:17Z</time>
      </trkpt>
      <trkpt lat="45.7944" lon="3.77831">
        <ele>823.900024</ele>
        <time>2017-05-26T13:37:21Z</time>
      </trkpt>
      <trkpt lat="45.79431" lon="3.77837">
        <ele>824.5</ele>
        <time>2017-05-26T13:37:27Z</time>
      </trkpt>
      <trkpt lat="45.79415" lon="3.77845">
        <ele>825.700012</ele>
        <time>2017-05-26T13:41:18Z</time>
      </trkpt>
      <trkpt lat="45.79406" lon="3.77847">
        <ele>826.400024</ele>
        <time>2017-05-26T13:41:23Z</time>
      </trkpt>
      <trkpt lat="45.79397" lon="3.7785">
        <ele>826.799988</ele>
        <time>2017-05-26T13:41:27Z</time>
      </trkpt>
      <trkpt lat="45.79387" lon="3.77853">
        <ele>828</ele>
        <time>2017-05-26T13:41:33Z</time>
      </trkpt>
      <trkpt lat="45.79377" lon="3.77856">
        <ele>829.200012</ele>
        <time>2017-05-26T13:41:41Z</time>
      </trkpt>
      <trkpt lat="45.79368" lon="3.77858">
        <ele>830.700012</ele>
        <time>2017-05-26T13:41:49Z</time>
      </trkpt>
      <trkpt lat="45.7936" lon="3.77861">
        <ele>831.700012</ele>
        <time>2017-05-26T13:41:56Z</time>
      </trkpt>
      <trkpt lat="45.7935" lon="3.77862">
        <ele>832.700012</ele>
        <time>2017-05-26T13:42:05Z</time>
      </trkpt>
      <trkpt lat="45.79341" lon="3.77864">
        <ele>833.700012</ele>
        <time>2017-05-26T13:42:12Z</time>
      </trkpt>
      <trkpt lat="45.79332" lon="3.77864">
        <ele>835.200012</ele>
        <time>2017-05-26T13:42:21Z</time>
      </trkpt>
      <trkpt lat="45.79322" lon="3.77865">
        <ele>836.900024</ele>
        <time>2017-05-26T13:42:31Z</time>
      </trkpt>
      <trkpt lat="45.79312" lon="3.77865">
        <ele>837.599976</ele>
        <time>2017-05-26T13:42:39Z</time>
      </trkpt>
      <trkpt lat="45.79302" lon="3.77866">
        <ele>837.900024</ele>
        <time>2017-05-26T13:42:46Z</time>
      </trkpt>
      <trkpt lat="45.79292" lon="3.77867">
        <ele>838.299988</ele>
        <time>2017-05-26T13:42:53Z</time>
      </trkpt>
      <trkpt lat="45.79282" lon="3.7787">
        <ele>838.799988</ele>
        <time>2017-05-26T13:43:00Z</time>
      </trkpt>
      <trkpt lat="45.79273" lon="3.77873">
        <ele>839.400024</ele>
        <time>2017-05-26T13:43:07Z</time>
      </trkpt>
      <trkpt lat="45.79263" lon="3.77876">
        <ele>839.900024</ele>
        <time>2017-05-26T13:43:14Z</time>
      </trkpt>
      <trkpt lat="45.79253" lon="3.77879">
        <ele>840.599976</ele>
        <time>2017-05-26T13:43:21Z</time>
      </trkpt>
      <trkpt lat="45.79243" lon="3.77882">
        <ele>841.200012</ele>
        <time>2017-05-26T13:43:28Z</time>
      </trkpt>
      <trkpt lat="45.79233" lon="3.77884">
        <ele>842.099976</ele>
        <time>2017-05-26T13:43:35Z</time>
      </trkpt>
      <trkpt lat="45.79224" lon="3.77885">
        <ele>842.900024</ele>
        <time>2017-05-26T13:43:41Z</time>
      </trkpt>
      <trkpt lat="45.79214" lon="3.77886">
        <ele>844</ele>
        <time>2017-05-26T13:43:48Z</time>
      </trkpt>
      <trkpt lat="45.79205" lon="3.77889">
        <ele>844.900024</ele>
        <time>2017-05-26T13:43:55Z</time>
      </trkpt>
      <trkpt lat="45.79196" lon="3.77893">
        <ele>845.900024</ele>
        <time>2017-05-26T13:44:01Z</time>
      </trkpt>
      <trkpt lat="45.79187" lon="3.779">
        <ele>847.200012</ele>
        <time>2017-05-26T13:44:09Z</time>
      </trkpt>
      <trkpt lat="45.79179" lon="3.77908">
        <ele>848.200012</ele>
        <time>2017-05-26T13:44:18Z</time>
      </trkpt>
      <trkpt lat="45.79171" lon="3.77915">
        <ele>849.200012</ele>
        <time>2017-05-26T13:44:26Z</time>
      </trkpt>
      <trkpt lat="45.79163" lon="3.77923">
        <ele>849.900024</ele>
        <time>2017-05-26T13:44:33Z</time>
      </trkpt>
      <trkpt lat="45.79155" lon="3.77931">
        <ele>850.599976</ele>
        <time>2017-05-26T13:44:39Z</time>
      </trkpt>
      <trkpt lat="45.79147" lon="3.77941">
        <ele>851.400024</ele>
        <time>2017-05-26T13:44:46Z</time>
      </trkpt>
      <trkpt lat="45.79139" lon="3.77948">
        <ele>852.599976</ele>
        <time>2017-05-26T13:44:53Z</time>
      </trkpt>
      <trkpt lat="45.79132" lon="3.77958">
        <ele>853.5</ele>
        <time>2017-05-26T13:44:59Z</time>
      </trkpt>
      <trkpt lat="45.79129" lon="3.7797">
        <ele>854.400024</ele>
        <time>2017-05-26T13:46:59Z</time>
      </trkpt>
      <trkpt lat="45.7912" lon="3.77977">
        <ele>854.5</ele>
        <time>2017-05-26T13:48:33Z</time>
      </trkpt>
      <trkpt lat="45.79112" lon="3.77986">
        <ele>854.900024</ele>
        <time>2017-05-26T13:48:39Z</time>
      </trkpt>
      <trkpt lat="45.79104" lon="3.77996">
        <ele>855.299988</ele>
        <time>2017-05-26T13:48:44Z</time>
      </trkpt>
      <trkpt lat="45.79097" lon="3.78007">
        <ele>856</ele>
        <time>2017-05-26T13:48:49Z</time>
      </trkpt>
      <trkpt lat="45.7909" lon="3.78016">
        <ele>856.599976</ele>
        <time>2017-05-26T13:48:54Z</time>
      </trkpt>
      <trkpt lat="45.79083" lon="3.78027">
        <ele>857</ele>
        <time>2017-05-26T13:48:59Z</time>
      </trkpt>
      <trkpt lat="45.79076" lon="3.78036">
        <ele>857.599976</ele>
        <time>2017-05-26T13:49:04Z</time>
      </trkpt>
      <trkpt lat="45.79068" lon="3.78044">
        <ele>858.200012</ele>
        <time>2017-05-26T13:49:09Z</time>
      </trkpt>
      <trkpt lat="45.79059" lon="3.78051">
        <ele>859.099976</ele>
        <time>2017-05-26T13:49:14Z</time>
      </trkpt>
      <trkpt lat="45.79051" lon="3.78058">
        <ele>859.5</ele>
        <time>2017-05-26T13:49:19Z</time>
      </trkpt>
      <trkpt lat="45.79042" lon="3.78064">
        <ele>860.200012</ele>
        <time>2017-05-26T13:49:24Z</time>
      </trkpt>
      <trkpt lat="45.79033" lon="3.78071">
        <ele>860.900024</ele>
        <time>2017-05-26T13:49:29Z</time>
      </trkpt>
      <trkpt lat="45.79023" lon="3.78078">
        <ele>861.799988</ele>
        <time>2017-05-26T13:49:34Z</time>
      </trkpt>
      <trkpt lat="45.79013" lon="3.78084">
        <ele>862.799988</ele>
        <time>2017-05-26T13:49:39Z</time>
      </trkpt>
      <trkpt lat="45.79003" lon="3.78086">
        <ele>863.5</ele>
        <time>2017-05-26T13:49:44Z</time>
      </trkpt>
      <trkpt lat="45.78992" lon="3.78087">
        <ele>864.099976</ele>
        <time>2017-05-26T13:49:49Z</time>
      </trkpt>
      <trkpt lat="45.78982" lon="3.78084">
        <ele>864.700012</ele>
        <time>2017-05-26T13:49:53Z</time>
      </trkpt>
      <trkpt lat="45.78974" lon="3.78079">
        <ele>865.299988</ele>
        <time>2017-05-26T13:49:57Z</time>
      </trkpt>
      <trkpt lat="45.78966" lon="3.78071">
        <ele>865.599976</ele>
        <time>2017-05-26T13:50:01Z</time>
      </trkpt>
      <trkpt lat="45.78957" lon="3.78061">
        <ele>866.200012</ele>
        <time>2017-05-26T13:50:06Z</time>
      </trkpt>
      <trkpt lat="45.7895" lon="3.78052">
        <ele>866.900024</ele>
        <time>2017-05-26T13:50:10Z</time>
      </trkpt>
      <trkpt lat="45.78943" lon="3.78042">
        <ele>867.299988</ele>
        <time>2017-05-26T13:50:14Z</time>
      </trkpt>
      <trkpt lat="45.78936" lon="3.78032">
        <ele>867.5</ele>
        <time>2017-05-26T13:50:18Z</time>
      </trkpt>
      <trkpt lat="45.78928" lon="3.78022">
        <ele>868.200012</ele>
        <time>2017-05-26T13:50:22Z</time>
      </trkpt>
      <trkpt lat="45.7892" lon="3.78011">
        <ele>868.599976</ele>
        <time>2017-05-26T13:50:26Z</time>
      </trkpt>
      <trkpt lat="45.78912" lon="3.78">
        <ele>868.700012</ele>
        <time>2017-05-26T13:50:30Z</time>
      </trkpt>
      <trkpt lat="45.78905" lon="3.7799">
        <ele>868.799988</ele>
        <time>2017-05-26T13:50:33Z</time>
      </trkpt>
      <trkpt lat="45.78898" lon="3.77981">
        <ele>868.900024</ele>
        <time>2017-05-26T13:50:36Z</time>
      </trkpt>
      <trkpt lat="45.78891" lon="3.7797">
        <ele>869</ele>
        <time>2017-05-26T13:50:39Z</time>
      </trkpt>
      <trkpt lat="45.78883" lon="3.77959">
        <ele>869</ele>
        <time>2017-05-26T13:50:42Z</time>
      </trkpt>
      <trkpt lat="45.78875" lon="3.77949">
        <ele>868.900024</ele>
        <time>2017-05-26T13:50:45Z</time>
      </trkpt>
      <trkpt lat="45.78867" lon="3.77938">
        <ele>869</ele>
        <time>2017-05-26T13:50:48Z</time>
      </trkpt>
      <trkpt lat="45.78859" lon="3.77926">
        <ele>869.099976</ele>
        <time>2017-05-26T13:50:51Z</time>
      </trkpt>
      <trkpt lat="45.78851" lon="3.77915">
        <ele>869.200012</ele>
        <time>2017-05-26T13:50:54Z</time>
      </trkpt>
      <trkpt lat="45.78843" lon="3.77904">
        <ele>869.400024</ele>
        <time>2017-05-26T13:50:57Z</time>
      </trkpt>
      <trkpt lat="45.78833" lon="3.77893">
        <ele>869.5</ele>
        <time>2017-05-26T13:51:00Z</time>
      </trkpt>
      <trkpt lat="45.78823" lon="3.77884">
        <ele>869.599976</ele>
        <time>2017-05-26T13:51:03Z</time>
      </trkpt>
      <trkpt lat="45.78811" lon="3.77877">
        <ele>869.599976</ele>
        <time>2017-05-26T13:51:06Z</time>
      </trkpt>
      <trkpt lat="45.788" lon="3.7787">
        <ele>869.599976</ele>
        <time>2017-05-26T13:51:09Z</time>
      </trkpt>
      <trkpt lat="45.78788" lon="3.77864">
        <ele>869.799988</ele>
        <time>2017-05-26T13:51:12Z</time>
      </trkpt>
      <trkpt lat="45.78777" lon="3.77859">
        <ele>870</ele>
        <time>2017-05-26T13:51:15Z</time>
      </trkpt>
      <trkpt lat="45.78765" lon="3.77854">
        <ele>870</ele>
        <time>2017-05-26T13:51:18Z</time>
      </trkpt>
      <trkpt lat="45.78753" lon="3.77849">
        <ele>870.200012</ele>
        <time>2017-05-26T13:51:21Z</time>
      </trkpt>
      <trkpt lat="45.78742" lon="3.77845">
        <ele>870.299988</ele>
        <time>2017-05-26T13:51:24Z</time>
      </trkpt>
      <trkpt lat="45.7873" lon="3.77841">
        <ele>870.5</ele>
        <time>2017-05-26T13:51:27Z</time>
      </trkpt>
      <trkpt lat="45.78719" lon="3.77838">
        <ele>870.599976</ele>
        <time>2017-05-26T13:51:30Z</time>
      </trkpt>
      <trkpt lat="45.78709" lon="3.77836">
        <ele>870.799988</ele>
        <time>2017-05-26T13:51:33Z</time>
      </trkpt>
      <trkpt lat="45.78698" lon="3.77832">
        <ele>871.200012</ele>
        <time>2017-05-26T13:51:36Z</time>
      </trkpt>
      <trkpt lat="45.78687" lon="3.77828">
        <ele>871.599976</ele>
        <time>2017-05-26T13:51:39Z</time>
      </trkpt>
      <trkpt lat="45.78678" lon="3.77823">
        <ele>872</ele>
        <time>2017-05-26T13:51:42Z</time>
      </trkpt>
      <trkpt lat="45.78669" lon="3.77816">
        <ele>872.200012</ele>
        <time>2017-05-26T13:51:45Z</time>
      </trkpt>
      <trkpt lat="45.78662" lon="3.77808">
        <ele>872.5</ele>
        <time>2017-05-26T13:51:48Z</time>
      </trkpt>
      <trkpt lat="45.78655" lon="3.778">
        <ele>873.099976</ele>
        <time>2017-05-26T13:51:51Z</time>
      </trkpt>
      <trkpt lat="45.78647" lon="3.77793">
        <ele>873.700012</ele>
        <time>2017-05-26T13:51:54Z</time>
      </trkpt>
      <trkpt lat="45.78637" lon="3.77785">
        <ele>874.299988</ele>
        <time>2017-05-26T13:51:58Z</time>
      </trkpt>
      <trkpt lat="45.78627" lon="3.77777">
        <ele>875.099976</ele>
        <time>2017-05-26T13:52:02Z</time>
      </trkpt>
      <trkpt lat="45.78617" lon="3.77768">
        <ele>875.900024</ele>
        <time>2017-05-26T13:52:06Z</time>
      </trkpt>
      <trkpt lat="45.78608" lon="3.77762">
        <ele>876.299988</ele>
        <time>2017-05-26T13:52:09Z</time>
      </trkpt>
      <trkpt lat="45.78597" lon="3.77754">
        <ele>876.400024</ele>
        <time>2017-05-26T13:52:12Z</time>
      </trkpt>
      <trkpt lat="45.78587" lon="3.77747">
        <ele>876.299988</ele>
        <time>2017-05-26T13:52:15Z</time>
      </trkpt>
      <trkpt lat="45.78576" lon="3.7774">
        <ele>876.299988</ele>
        <time>2017-05-26T13:52:18Z</time>
      </trkpt>
      <trkpt lat="45.78565" lon="3.77734">
        <ele>876.400024</ele>
        <time>2017-05-26T13:52:21Z</time>
      </trkpt>
      <trkpt lat="45.78554" lon="3.7773">
        <ele>876.400024</ele>
        <time>2017-05-26T13:52:24Z</time>
      </trkpt>
      <trkpt lat="45.78542" lon="3.77731">
        <ele>876.5</ele>
        <time>2017-05-26T13:52:27Z</time>
      </trkpt>
      <trkpt lat="45.78532" lon="3.77735">
        <ele>876.599976</ele>
        <time>2017-05-26T13:52:30Z</time>
      </trkpt>
      <trkpt lat="45.78523" lon="3.77743">
        <ele>876.900024</ele>
        <time>2017-05-26T13:52:33Z</time>
      </trkpt>
      <trkpt lat="45.78516" lon="3.77753">
        <ele>877.200012</ele>
        <time>2017-05-26T13:52:36Z</time>
      </trkpt>
      <trkpt lat="45.7851" lon="3.77765">
        <ele>877.400024</ele>
        <time>2017-05-26T13:52:39Z</time>
      </trkpt>
      <trkpt lat="45.78505" lon="3.77779">
        <ele>877.599976</ele>
        <time>2017-05-26T13:52:42Z</time>
      </trkpt>
      <trkpt lat="45.785" lon="3.77792">
        <ele>877.700012</ele>
        <time>2017-05-26T13:52:45Z</time>
      </trkpt>
      <trkpt lat="45.78495" lon="3.77805">
        <ele>877.700012</ele>
        <time>2017-05-26T13:52:48Z</time>
      </trkpt>
      <trkpt lat="45.7849" lon="3.77819">
        <ele>878.099976</ele>
        <time>2017-05-26T13:52:52Z</time>
      </trkpt>
      <trkpt lat="45.78485" lon="3.77831">
        <ele>878.700012</ele>
        <time>2017-05-26T13:52:56Z</time>
      </trkpt>
      <trkpt lat="45.78481" lon="3.77843">
        <ele>879.5</ele>
        <time>2017-05-26T13:53:00Z</time>
      </trkpt>
      <trkpt lat="45.78477" lon="3.77855">
        <ele>880.299988</ele>
        <time>2017-05-26T13:53:04Z</time>
      </trkpt>
      <trkpt lat="45.78472" lon="3.77867">
        <ele>881</ele>
        <time>2017-05-26T13:53:08Z</time>
      </trkpt>
      <trkpt lat="45.78468" lon="3.7788">
        <ele>881.700012</ele>
        <time>2017-05-26T13:53:12Z</time>
      </trkpt>
      <trkpt lat="45.78463" lon="3.77895">
        <ele>882.799988</ele>
        <time>2017-05-26T13:53:17Z</time>
      </trkpt>
      <trkpt lat="45.78458" lon="3.77906">
        <ele>883.5</ele>
        <time>2017-05-26T13:53:21Z</time>
      </trkpt>
      <trkpt lat="45.78454" lon="3.77921">
        <ele>884.400024</ele>
        <time>2017-05-26T13:53:26Z</time>
      </trkpt>
      <trkpt lat="45.78449" lon="3.77933">
        <ele>885.700012</ele>
        <time>2017-05-26T13:53:31Z</time>
      </trkpt>
      <trkpt lat="45.78445" lon="3.77946">
        <ele>886.599976</ele>
        <time>2017-05-26T13:53:35Z</time>
      </trkpt>
      <trkpt lat="45.78439" lon="3.77957">
        <ele>887.599976</ele>
        <time>2017-05-26T13:53:39Z</time>
      </trkpt>
      <trkpt lat="45.78434" lon="3.77968">
        <ele>888.700012</ele>
        <time>2017-05-26T13:53:43Z</time>
      </trkpt>
      <trkpt lat="45.78428" lon="3.77981">
        <ele>889.700012</ele>
        <time>2017-05-26T13:53:48Z</time>
      </trkpt>
      <trkpt lat="45.78422" lon="3.77994">
        <ele>891</ele>
        <time>2017-05-26T13:53:54Z</time>
      </trkpt>
      <trkpt lat="45.78419" lon="3.78008">
        <ele>892</ele>
        <time>2017-05-26T13:53:58Z</time>
      </trkpt>
      <trkpt lat="45.78417" lon="3.78023">
        <ele>892.700012</ele>
        <time>2017-05-26T13:54:02Z</time>
      </trkpt>
      <trkpt lat="45.78415" lon="3.78037">
        <ele>893.5</ele>
        <time>2017-05-26T13:54:06Z</time>
      </trkpt>
      <trkpt lat="45.78414" lon="3.78049">
        <ele>894.099976</ele>
        <time>2017-05-26T13:54:10Z</time>
      </trkpt>
      <trkpt lat="45.78412" lon="3.78063">
        <ele>894.900024</ele>
        <time>2017-05-26T13:54:14Z</time>
      </trkpt>
      <trkpt lat="45.7841" lon="3.78077">
        <ele>895.700012</ele>
        <time>2017-05-26T13:54:18Z</time>
      </trkpt>
      <trkpt lat="45.78408" lon="3.7809">
        <ele>896.299988</ele>
        <time>2017-05-26T13:54:22Z</time>
      </trkpt>
      <trkpt lat="45.78406" lon="3.78104">
        <ele>896.799988</ele>
        <time>2017-05-26T13:54:26Z</time>
      </trkpt>
      <trkpt lat="45.78402" lon="3.78117">
        <ele>897.400024</ele>
        <time>2017-05-26T13:54:30Z</time>
      </trkpt>
      <trkpt lat="45.78398" lon="3.78128">
        <ele>898.299988</ele>
        <time>2017-05-26T13:54:34Z</time>
      </trkpt>
      <trkpt lat="45.78389" lon="3.78134">
        <ele>899.400024</ele>
        <time>2017-05-26T13:54:39Z</time>
      </trkpt>
      <trkpt lat="45.7838" lon="3.78132">
        <ele>900.700012</ele>
        <time>2017-05-26T13:54:45Z</time>
      </trkpt>
      <trkpt lat="45.78374" lon="3.78122">
        <ele>902.099976</ele>
        <time>2017-05-26T13:54:51Z</time>
      </trkpt>
      <trkpt lat="45.78365" lon="3.78116">
        <ele>903.700012</ele>
        <time>2017-05-26T13:55:11Z</time>
      </trkpt>
      <trkpt lat="45.78357" lon="3.78124">
        <ele>904.599976</ele>
        <time>2017-05-26T13:55:16Z</time>
      </trkpt>
      <trkpt lat="45.78351" lon="3.78136">
        <ele>905.599976</ele>
        <time>2017-05-26T13:55:22Z</time>
      </trkpt>
      <trkpt lat="45.78345" lon="3.78146">
        <ele>906.200012</ele>
        <time>2017-05-26T13:55:27Z</time>
      </trkpt>
      <trkpt lat="45.78338" lon="3.78156">
        <ele>907.299988</ele>
        <time>2017-05-26T13:55:33Z</time>
      </trkpt>
      <trkpt lat="45.7833" lon="3.78165">
        <ele>908.099976</ele>
        <time>2017-05-26T13:55:39Z</time>
      </trkpt>
      <trkpt lat="45.78321" lon="3.78172">
        <ele>908.799988</ele>
        <time>2017-05-26T13:55:45Z</time>
      </trkpt>
      <trkpt lat="45.78312" lon="3.78177">
        <ele>909.200012</ele>
        <time>2017-05-26T13:55:50Z</time>
      </trkpt>
      <trkpt lat="45.78301" lon="3.78177">
        <ele>910.299988</ele>
        <time>2017-05-26T13:55:56Z</time>
      </trkpt>
      <trkpt lat="45.78292" lon="3.78176">
        <ele>911.299988</ele>
        <time>2017-05-26T13:56:02Z</time>
      </trkpt>
      <trkpt lat="45.78285" lon="3.78185">
        <ele>912.900024</ele>
        <time>2017-05-26T13:56:09Z</time>
      </trkpt>
      <trkpt lat="45.78275" lon="3.78193">
        <ele>913.5</ele>
        <time>2017-05-26T13:56:14Z</time>
      </trkpt>
      <trkpt lat="45.7826" lon="3.78195">
        <ele>913.200012</ele>
        <time>2017-05-26T13:56:17Z</time>
      </trkpt>
      <trkpt lat="45.78249" lon="3.78195">
        <ele>912.599976</ele>
        <time>2017-05-26T13:56:21Z</time>
      </trkpt>
      <trkpt lat="45.78239" lon="3.78197">
        <ele>912.299988</ele>
        <time>2017-05-26T13:56:24Z</time>
      </trkpt>
      <trkpt lat="45.7823" lon="3.782">
        <ele>912</ele>
        <time>2017-05-26T13:56:27Z</time>
      </trkpt>
      <trkpt lat="45.7822" lon="3.78207">
        <ele>911.299988</ele>
        <time>2017-05-26T13:56:31Z</time>
      </trkpt>
      <trkpt lat="45.78209" lon="3.78212">
        <ele>910.599976</ele>
        <time>2017-05-26T13:56:35Z</time>
      </trkpt>
      <trkpt lat="45.78201" lon="3.7822">
        <ele>910.400024</ele>
        <time>2017-05-26T13:56:42Z</time>
      </trkpt>
      <trkpt lat="45.78192" lon="3.78226">
        <ele>910.5</ele>
        <time>2017-05-26T13:56:54Z</time>
      </trkpt>
      <trkpt lat="45.78184" lon="3.7823">
        <ele>910.400024</ele>
        <time>2017-05-26T13:59:11Z</time>
      </trkpt>
      <trkpt lat="45.78175" lon="3.78233">
        <ele>910.299988</ele>
        <time>2017-05-26T14:00:30Z</time>
      </trkpt>
      <trkpt lat="45.78166" lon="3.78237">
        <ele>910.200012</ele>
        <time>2017-05-26T14:00:34Z</time>
      </trkpt>
      <trkpt lat="45.78156" lon="3.78244">
        <ele>909.599976</ele>
        <time>2017-05-26T14:00:38Z</time>
      </trkpt>
      <trkpt lat="45.78144" lon="3.78248">
        <ele>909.099976</ele>
        <time>2017-05-26T14:00:41Z</time>
      </trkpt>
      <trkpt lat="45.78132" lon="3.78253">
        <ele>908.400024</ele>
        <time>2017-05-26T14:00:44Z</time>
      </trkpt>
      <trkpt lat="45.7812" lon="3.78256">
        <ele>908</ele>
        <time>2017-05-26T14:00:47Z</time>
      </trkpt>
      <trkpt lat="45.78109" lon="3.78264">
        <ele>907.900024</ele>
        <time>2017-05-26T14:00:50Z</time>
      </trkpt>
      <trkpt lat="45.781" lon="3.78274">
        <ele>907.599976</ele>
        <time>2017-05-26T14:00:53Z</time>
      </trkpt>
      <trkpt lat="45.78089" lon="3.78284">
        <ele>907.200012</ele>
        <time>2017-05-26T14:00:56Z</time>
      </trkpt>
      <trkpt lat="45.7808" lon="3.7829">
        <ele>906.299988</ele>
        <time>2017-05-26T14:00:58Z</time>
      </trkpt>
      <trkpt lat="45.7807" lon="3.78294">
        <ele>905.700012</ele>
        <time>2017-05-26T14:01:01Z</time>
      </trkpt>
      <trkpt lat="45.7806" lon="3.78297">
        <ele>905.299988</ele>
        <time>2017-05-26T14:01:03Z</time>
      </trkpt>
      <trkpt lat="45.78048" lon="3.78299">
        <ele>904.700012</ele>
        <time>2017-05-26T14:01:05Z</time>
      </trkpt>
      <trkpt lat="45.78035" lon="3.78295">
        <ele>903.700012</ele>
        <time>2017-05-26T14:01:07Z</time>
      </trkpt>
      <trkpt lat="45.78022" lon="3.78288">
        <ele>902.599976</ele>
        <time>2017-05-26T14:01:09Z</time>
      </trkpt>
      <trkpt lat="45.78009" lon="3.78283">
        <ele>901.299988</ele>
        <time>2017-05-26T14:01:11Z</time>
      </trkpt>
      <trkpt lat="45.77998" lon="3.78282">
        <ele>899.900024</ele>
        <time>2017-05-26T14:01:13Z</time>
      </trkpt>
      <trkpt lat="45.77989" lon="3.78282">
        <ele>898.700012</ele>
        <time>2017-05-26T14:01:15Z</time>
      </trkpt>
      <trkpt lat="45.77977" lon="3.7828">
        <ele>897.5</ele>
        <time>2017-05-26T14:01:17Z</time>
      </trkpt>
      <trkpt lat="45.77963" lon="3.78281">
        <ele>896.200012</ele>
        <time>2017-05-26T14:01:19Z</time>
      </trkpt>
      <trkpt lat="45.77951" lon="3.78285">
        <ele>894.700012</ele>
        <time>2017-05-26T14:01:21Z</time>
      </trkpt>
      <trkpt lat="45.77941" lon="3.7829">
        <ele>893.200012</ele>
        <time>2017-05-26T14:01:23Z</time>
      </trkpt>
      <trkpt lat="45.77928" lon="3.78294">
        <ele>891.400024</ele>
        <time>2017-05-26T14:01:26Z</time>
      </trkpt>
      <trkpt lat="45.77918" lon="3.78305">
        <ele>889.799988</ele>
        <time>2017-05-26T14:01:29Z</time>
      </trkpt>
      <trkpt lat="45.77913" lon="3.78317">
        <ele>888.799988</ele>
        <time>2017-05-26T14:01:31Z</time>
      </trkpt>
      <trkpt lat="45.77909" lon="3.7834">
        <ele>886</ele>
        <time>2017-05-26T14:02:17Z</time>
      </trkpt>
      <trkpt lat="45.77903" lon="3.78352">
        <ele>885.5</ele>
        <time>2017-05-26T14:02:19Z</time>
      </trkpt>
      <trkpt lat="45.77895" lon="3.78368">
        <ele>884.599976</ele>
        <time>2017-05-26T14:02:21Z</time>
      </trkpt>
      <trkpt lat="45.77887" lon="3.78386">
        <ele>883.700012</ele>
        <time>2017-05-26T14:02:23Z</time>
      </trkpt>
      <trkpt lat="45.77877" lon="3.78402">
        <ele>882.700012</ele>
        <time>2017-05-26T14:02:25Z</time>
      </trkpt>
      <trkpt lat="45.77867" lon="3.78414">
        <ele>881.5</ele>
        <time>2017-05-26T14:02:27Z</time>
      </trkpt>
      <trkpt lat="45.7786" lon="3.78423">
        <ele>879.599976</ele>
        <time>2017-05-26T14:02:29Z</time>
      </trkpt>
      <trkpt lat="45.77844" lon="3.78433">
        <ele>874.200012</ele>
        <time>2017-05-26T14:02:53Z</time>
      </trkpt>
      <trkpt lat="45.77832" lon="3.78429">
        <ele>873.599976</ele>
        <time>2017-05-26T14:02:55Z</time>
      </trkpt>
      <trkpt lat="45.77818" lon="3.78427">
        <ele>872.700012</ele>
        <time>2017-05-26T14:02:57Z</time>
      </trkpt>
      <trkpt lat="45.77805" lon="3.78427">
        <ele>872</ele>
        <time>2017-05-26T14:02:59Z</time>
      </trkpt>
      <trkpt lat="45.77795" lon="3.78429">
        <ele>871.599976</ele>
        <time>2017-05-26T14:03:01Z</time>
      </trkpt>
      <trkpt lat="45.77786" lon="3.78432">
        <ele>870.700012</ele>
        <time>2017-05-26T14:03:04Z</time>
      </trkpt>
      <trkpt lat="45.77777" lon="3.78428">
        <ele>870</ele>
        <time>2017-05-26T14:03:09Z</time>
      </trkpt>
      <trkpt lat="45.77768" lon="3.78423">
        <ele>869.700012</ele>
        <time>2017-05-26T14:03:14Z</time>
      </trkpt>
      <trkpt lat="45.77759" lon="3.78426">
        <ele>869.900024</ele>
        <time>2017-05-26T14:03:19Z</time>
      </trkpt>
      <trkpt lat="45.7775" lon="3.78432">
        <ele>870.200012</ele>
        <time>2017-05-26T14:03:24Z</time>
      </trkpt>
      <trkpt lat="45.77742" lon="3.78439">
        <ele>870.700012</ele>
        <time>2017-05-26T14:03:29Z</time>
      </trkpt>
      <trkpt lat="45.77735" lon="3.78447">
        <ele>871.799988</ele>
        <time>2017-05-26T14:03:37Z</time>
      </trkpt>
      <trkpt lat="45.77731" lon="3.78459">
        <ele>872.599976</ele>
        <time>2017-05-26T14:03:43Z</time>
      </trkpt>
      <trkpt lat="45.77724" lon="3.78471">
        <ele>873.299988</ele>
        <time>2017-05-26T14:03:48Z</time>
      </trkpt>
      <trkpt lat="45.77715" lon="3.78479">
        <ele>873.900024</ele>
        <time>2017-05-26T14:03:53Z</time>
      </trkpt>
      <trkpt lat="45.77706" lon="3.78487">
        <ele>874.200012</ele>
        <time>2017-05-26T14:03:58Z</time>
      </trkpt>
      <trkpt lat="45.77698" lon="3.78496">
        <ele>875</ele>
        <time>2017-05-26T14:04:03Z</time>
      </trkpt>
      <trkpt lat="45.77688" lon="3.785">
        <ele>875.700012</ele>
        <time>2017-05-26T14:04:10Z</time>
      </trkpt>
      <trkpt lat="45.77682" lon="3.7851">
        <ele>876.400024</ele>
        <time>2017-05-26T14:04:16Z</time>
      </trkpt>
      <trkpt lat="45.77674" lon="3.78519">
        <ele>877.299988</ele>
        <time>2017-05-26T14:04:22Z</time>
      </trkpt>
      <trkpt lat="45.77665" lon="3.78525">
        <ele>877.900024</ele>
        <time>2017-05-26T14:04:26Z</time>
      </trkpt>
      <trkpt lat="45.77656" lon="3.78532">
        <ele>878.799988</ele>
        <time>2017-05-26T14:04:31Z</time>
      </trkpt>
      <trkpt lat="45.77648" lon="3.78544">
        <ele>879.099976</ele>
        <time>2017-05-26T14:04:35Z</time>
      </trkpt>
      <trkpt lat="45.77642" lon="3.78556">
        <ele>878.900024</ele>
        <time>2017-05-26T14:04:39Z</time>
      </trkpt>
      <trkpt lat="45.77638" lon="3.78568">
        <ele>878</ele>
        <time>2017-05-26T14:04:43Z</time>
      </trkpt>
      <trkpt lat="45.77643" lon="3.78582">
        <ele>877.099976</ele>
        <time>2017-05-26T14:04:48Z</time>
      </trkpt>
      <trkpt lat="45.77653" lon="3.78591">
        <ele>876.900024</ele>
        <time>2017-05-26T14:04:52Z</time>
      </trkpt>
      <trkpt lat="45.77662" lon="3.78592">
        <ele>876.900024</ele>
        <time>2017-05-26T14:04:55Z</time>
      </trkpt>
      <trkpt lat="45.77673" lon="3.78588">
        <ele>876.900024</ele>
        <time>2017-05-26T14:04:59Z</time>
      </trkpt>
      <trkpt lat="45.77682" lon="3.78585">
        <ele>876.799988</ele>
        <time>2017-05-26T14:05:04Z</time>
      </trkpt>
      <trkpt lat="45.77693" lon="3.7858">
        <ele>877.299988</ele>
        <time>2017-05-26T14:05:10Z</time>
      </trkpt>
      <trkpt lat="45.77704" lon="3.78579">
        <ele>877.5</ele>
        <time>2017-05-26T14:05:15Z</time>
      </trkpt>
      <trkpt lat="45.77715" lon="3.78577">
        <ele>877.799988</ele>
        <time>2017-05-26T14:05:19Z</time>
      </trkpt>
      <trkpt lat="45.77724" lon="3.78579">
        <ele>877.700012</ele>
        <time>2017-05-26T14:05:24Z</time>
      </trkpt>
      <trkpt lat="45.77732" lon="3.78585">
        <ele>877.799988</ele>
        <time>2017-05-26T14:05:29Z</time>
      </trkpt>
      <trkpt lat="45.77741" lon="3.78586">
        <ele>879.200012</ele>
        <time>2017-05-26T14:05:38Z</time>
      </trkpt>
      <trkpt lat="45.77751" lon="3.78588">
        <ele>879.299988</ele>
        <time>2017-05-26T14:05:49Z</time>
      </trkpt>
      <trkpt lat="45.7776" lon="3.78592">
        <ele>879.700012</ele>
        <time>2017-05-26T14:05:53Z</time>
      </trkpt>
      <trkpt lat="45.77768" lon="3.78601">
        <ele>880.200012</ele>
        <time>2017-05-26T14:05:58Z</time>
      </trkpt>
      <trkpt lat="45.77776" lon="3.78608">
        <ele>880.599976</ele>
        <time>2017-05-26T14:06:02Z</time>
      </trkpt>
      <trkpt lat="45.77785" lon="3.78612">
        <ele>881.599976</ele>
        <time>2017-05-26T14:06:08Z</time>
      </trkpt>
      <trkpt lat="45.77793" lon="3.78619">
        <ele>882.400024</ele>
        <time>2017-05-26T14:06:14Z</time>
      </trkpt>
      <trkpt lat="45.77803" lon="3.78625">
        <ele>883.5</ele>
        <time>2017-05-26T14:06:21Z</time>
      </trkpt>
      <trkpt lat="45.77812" lon="3.78631">
        <ele>884.200012</ele>
        <time>2017-05-26T14:06:29Z</time>
      </trkpt>
      <trkpt lat="45.77822" lon="3.78638">
        <ele>884.599976</ele>
        <time>2017-05-26T14:06:34Z</time>
      </trkpt>
      <trkpt lat="45.77829" lon="3.78646">
        <ele>884.599976</ele>
        <time>2017-05-26T14:06:39Z</time>
      </trkpt>
      <trkpt lat="45.77839" lon="3.78658">
        <ele>884.299988</ele>
        <time>2017-05-26T14:06:44Z</time>
      </trkpt>
      <trkpt lat="45.7785" lon="3.78668">
        <ele>884.299988</ele>
        <time>2017-05-26T14:06:47Z</time>
      </trkpt>
      <trkpt lat="45.77858" lon="3.78678">
        <ele>884.299988</ele>
        <time>2017-05-26T14:06:51Z</time>
      </trkpt>
      <trkpt lat="45.77864" lon="3.78687">
        <ele>884.599976</ele>
        <time>2017-05-26T14:06:55Z</time>
      </trkpt>
      <trkpt lat="45.77871" lon="3.78695">
        <ele>884.599976</ele>
        <time>2017-05-26T14:06:58Z</time>
      </trkpt>
      <trkpt lat="45.77879" lon="3.78703">
        <ele>884.799988</ele>
        <time>2017-05-26T14:07:01Z</time>
      </trkpt>
      <trkpt lat="45.77887" lon="3.78714">
        <ele>885.400024</ele>
        <time>2017-05-26T14:07:05Z</time>
      </trkpt>
      <trkpt lat="45.77897" lon="3.78725">
        <ele>885.700012</ele>
        <time>2017-05-26T14:07:09Z</time>
      </trkpt>
      <trkpt lat="45.77906" lon="3.78736">
        <ele>885.799988</ele>
        <time>2017-05-26T14:07:12Z</time>
      </trkpt>
      <trkpt lat="45.77915" lon="3.78747">
        <ele>886</ele>
        <time>2017-05-26T14:07:15Z</time>
      </trkpt>
      <trkpt lat="45.77923" lon="3.78756">
        <ele>886.200012</ele>
        <time>2017-05-26T14:07:18Z</time>
      </trkpt>
      <trkpt lat="45.7793" lon="3.78765">
        <ele>886.599976</ele>
        <time>2017-05-26T14:07:21Z</time>
      </trkpt>
      <trkpt lat="45.77938" lon="3.78776">
        <ele>887.200012</ele>
        <time>2017-05-26T14:07:24Z</time>
      </trkpt>
      <trkpt lat="45.77945" lon="3.78787">
        <ele>887.900024</ele>
        <time>2017-05-26T14:07:27Z</time>
      </trkpt>
      <trkpt lat="45.77949" lon="3.78799">
        <ele>888.599976</ele>
        <time>2017-05-26T14:07:30Z</time>
      </trkpt>
      <trkpt lat="45.77952" lon="3.78814">
        <ele>889.400024</ele>
        <time>2017-05-26T14:07:34Z</time>
      </trkpt>
      <trkpt lat="45.7795" lon="3.78828">
        <ele>890.400024</ele>
        <time>2017-05-26T14:07:39Z</time>
      </trkpt>
      <trkpt lat="45.77943" lon="3.78818">
        <ele>891.900024</ele>
        <time>2017-05-26T14:07:58Z</time>
      </trkpt>
      <trkpt lat="45.77934" lon="3.78821">
        <ele>893.599976</ele>
        <time>2017-05-26T14:08:06Z</time>
      </trkpt>
      <trkpt lat="45.77928" lon="3.7883">
        <ele>894.099976</ele>
        <time>2017-05-26T14:08:10Z</time>
      </trkpt>
      <trkpt lat="45.7792" lon="3.78838">
        <ele>895.299988</ele>
        <time>2017-05-26T14:08:16Z</time>
      </trkpt>
      <trkpt lat="45.77911" lon="3.78845">
        <ele>897.400024</ele>
        <time>2017-05-26T14:08:22Z</time>
      </trkpt>
      <trkpt lat="45.77904" lon="3.78852">
        <ele>899.5</ele>
        <time>2017-05-26T14:08:29Z</time>
      </trkpt>
      <trkpt lat="45.77896" lon="3.7886">
        <ele>901.099976</ele>
        <time>2017-05-26T14:08:36Z</time>
      </trkpt>
      <trkpt lat="45.77888" lon="3.78867">
        <ele>902.299988</ele>
        <time>2017-05-26T14:08:43Z</time>
      </trkpt>
      <trkpt lat="45.77879" lon="3.78874">
        <ele>903.5</ele>
        <time>2017-05-26T14:08:50Z</time>
      </trkpt>
      <trkpt lat="45.7787" lon="3.78876">
        <ele>904.799988</ele>
        <time>2017-05-26T14:10:42Z</time>
      </trkpt>
      <trkpt lat="45.77863" lon="3.78885">
        <ele>905.5</ele>
        <time>2017-05-26T14:12:23Z</time>
      </trkpt>
      <trkpt lat="45.77853" lon="3.78885">
        <ele>906.700012</ele>
        <time>2017-05-26T14:12:30Z</time>
      </trkpt>
      <trkpt lat="45.77843" lon="3.78878">
        <ele>907.900024</ele>
        <time>2017-05-26T14:12:37Z</time>
      </trkpt>
      <trkpt lat="45.77835" lon="3.7887">
        <ele>908.700012</ele>
        <time>2017-05-26T14:12:43Z</time>
      </trkpt>
      <trkpt lat="45.77827" lon="3.78861">
        <ele>909.900024</ele>
        <time>2017-05-26T14:12:49Z</time>
      </trkpt>
      <trkpt lat="45.77817" lon="3.78859">
        <ele>911.400024</ele>
        <time>2017-05-26T14:12:56Z</time>
      </trkpt>
      <trkpt lat="45.77808" lon="3.78851">
        <ele>913.200012</ele>
        <time>2017-05-26T14:13:03Z</time>
      </trkpt>
      <trkpt lat="45.77798" lon="3.78845">
        <ele>914</ele>
        <time>2017-05-26T14:13:09Z</time>
      </trkpt>
      <trkpt lat="45.77789" lon="3.78842">
        <ele>914.5</ele>
        <time>2017-05-26T14:13:14Z</time>
      </trkpt>
      <trkpt lat="45.77777" lon="3.78837">
        <ele>914.799988</ele>
        <time>2017-05-26T14:13:19Z</time>
      </trkpt>
      <trkpt lat="45.77767" lon="3.78834">
        <ele>915.200012</ele>
        <time>2017-05-26T14:13:23Z</time>
      </trkpt>
      <trkpt lat="45.77757" lon="3.78833">
        <ele>915.5</ele>
        <time>2017-05-26T14:13:27Z</time>
      </trkpt>
      <trkpt lat="45.77748" lon="3.78829">
        <ele>915.900024</ele>
        <time>2017-05-26T14:13:31Z</time>
      </trkpt>
      <trkpt lat="45.77738" lon="3.7883">
        <ele>916.400024</ele>
        <time>2017-05-26T14:13:36Z</time>
      </trkpt>
      <trkpt lat="45.77725" lon="3.78831">
        <ele>916.599976</ele>
        <time>2017-05-26T14:13:40Z</time>
      </trkpt>
      <trkpt lat="45.77716" lon="3.78831">
        <ele>916.900024</ele>
        <time>2017-05-26T14:13:43Z</time>
      </trkpt>
      <trkpt lat="45.77705" lon="3.7883">
        <ele>917.099976</ele>
        <time>2017-05-26T14:13:47Z</time>
      </trkpt>
      <trkpt lat="45.77694" lon="3.78829">
        <ele>917.400024</ele>
        <time>2017-05-26T14:13:51Z</time>
      </trkpt>
      <trkpt lat="45.77683" lon="3.78826">
        <ele>917.900024</ele>
        <time>2017-05-26T14:13:55Z</time>
      </trkpt>
      <trkpt lat="45.77673" lon="3.78826">
        <ele>918.200012</ele>
        <time>2017-05-26T14:13:59Z</time>
      </trkpt>
      <trkpt lat="45.77662" lon="3.78828">
        <ele>918.599976</ele>
        <time>2017-05-26T14:14:04Z</time>
      </trkpt>
      <trkpt lat="45.77652" lon="3.78836">
        <ele>919.400024</ele>
        <time>2017-05-26T14:14:09Z</time>
      </trkpt>
      <trkpt lat="45.77646" lon="3.78847">
        <ele>920.900024</ele>
        <time>2017-05-26T14:14:16Z</time>
      </trkpt>
      <trkpt lat="45.77645" lon="3.78862">
        <ele>922.299988</ele>
        <time>2017-05-26T14:14:22Z</time>
      </trkpt>
      <trkpt lat="45.77644" lon="3.78877">
        <ele>923.5</ele>
        <time>2017-05-26T14:14:28Z</time>
      </trkpt>
      <trkpt lat="45.77644" lon="3.78892">
        <ele>925</ele>
        <time>2017-05-26T14:14:35Z</time>
      </trkpt>
      <trkpt lat="45.77645" lon="3.78906">
        <ele>926.299988</ele>
        <time>2017-05-26T14:14:42Z</time>
      </trkpt>
      <trkpt lat="45.77646" lon="3.78921">
        <ele>927.099976</ele>
        <time>2017-05-26T14:14:49Z</time>
      </trkpt>
      <trkpt lat="45.77646" lon="3.78935">
        <ele>928.200012</ele>
        <time>2017-05-26T14:14:55Z</time>
      </trkpt>
      <trkpt lat="45.77643" lon="3.78948">
        <ele>929.099976</ele>
        <time>2017-05-26T14:15:02Z</time>
      </trkpt>
      <trkpt lat="45.77637" lon="3.7896">
        <ele>929.700012</ele>
        <time>2017-05-26T14:15:07Z</time>
      </trkpt>
      <trkpt lat="45.77632" lon="3.78973">
        <ele>930.400024</ele>
        <time>2017-05-26T14:15:13Z</time>
      </trkpt>
      <trkpt lat="45.77626" lon="3.78983">
        <ele>931.099976</ele>
        <time>2017-05-26T14:15:19Z</time>
      </trkpt>
      <trkpt lat="45.77622" lon="3.78996">
        <ele>932</ele>
        <time>2017-05-26T14:15:25Z</time>
      </trkpt>
      <trkpt lat="45.77617" lon="3.79009">
        <ele>932.900024</ele>
        <time>2017-05-26T14:15:30Z</time>
      </trkpt>
      <trkpt lat="45.77612" lon="3.7902">
        <ele>933.799988</ele>
        <time>2017-05-26T14:15:35Z</time>
      </trkpt>
      <trkpt lat="45.77606" lon="3.79031">
        <ele>934.799988</ele>
        <time>2017-05-26T14:15:40Z</time>
      </trkpt>
      <trkpt lat="45.77601" lon="3.79044">
        <ele>936.099976</ele>
        <time>2017-05-26T14:15:45Z</time>
      </trkpt>
      <trkpt lat="45.77602" lon="3.79057">
        <ele>937.799988</ele>
        <time>2017-05-26T14:16:54Z</time>
      </trkpt>
      <trkpt lat="45.77596" lon="3.79067">
        <ele>938.099976</ele>
        <time>2017-05-26T14:18:54Z</time>
      </trkpt>
      <trkpt lat="45.7759" lon="3.79078">
        <ele>939.099976</ele>
        <time>2017-05-26T14:19:04Z</time>
      </trkpt>
      <trkpt lat="45.77583" lon="3.79089">
        <ele>939.5</ele>
        <time>2017-05-26T14:19:13Z</time>
      </trkpt>
      <trkpt lat="45.77578" lon="3.79101">
        <ele>939.900024</ele>
        <time>2017-05-26T14:19:25Z</time>
      </trkpt>
      <trkpt lat="45.77573" lon="3.79113">
        <ele>940.400024</ele>
        <time>2017-05-26T14:19:30Z</time>
      </trkpt>
      <trkpt lat="45.77568" lon="3.79125">
        <ele>940.799988</ele>
        <time>2017-05-26T14:19:35Z</time>
      </trkpt>
      <trkpt lat="45.77563" lon="3.79138">
        <ele>941.200012</ele>
        <time>2017-05-26T14:19:41Z</time>
      </trkpt>
      <trkpt lat="45.77557" lon="3.7915">
        <ele>941.799988</ele>
        <time>2017-05-26T14:19:48Z</time>
      </trkpt>
      <trkpt lat="45.77553" lon="3.79163">
        <ele>942.299988</ele>
        <time>2017-05-26T14:19:55Z</time>
      </trkpt>
      <trkpt lat="45.77548" lon="3.79176">
        <ele>942.900024</ele>
        <time>2017-05-26T14:20:04Z</time>
      </trkpt>
      <trkpt lat="45.77544" lon="3.79189">
        <ele>943.400024</ele>
        <time>2017-05-26T14:20:11Z</time>
      </trkpt>
      <trkpt lat="45.77538" lon="3.79199">
        <ele>944.200012</ele>
        <time>2017-05-26T14:20:18Z</time>
      </trkpt>
      <trkpt lat="45.77532" lon="3.7921">
        <ele>945.400024</ele>
        <time>2017-05-26T14:20:28Z</time>
      </trkpt>
      <trkpt lat="45.77526" lon="3.79221">
        <ele>946.599976</ele>
        <time>2017-05-26T14:20:36Z</time>
      </trkpt>
      <trkpt lat="45.77522" lon="3.79233">
        <ele>947.900024</ele>
        <time>2017-05-26T14:20:42Z</time>
      </trkpt>
      <trkpt lat="45.77521" lon="3.79246">
        <ele>949.599976</ele>
        <time>2017-05-26T14:20:51Z</time>
      </trkpt>
      <trkpt lat="45.77523" lon="3.79259">
        <ele>950.900024</ele>
        <time>2017-05-26T14:20:59Z</time>
      </trkpt>
      <trkpt lat="45.77521" lon="3.79273">
        <ele>952.099976</ele>
        <time>2017-05-26T14:21:07Z</time>
      </trkpt>
      <trkpt lat="45.7752" lon="3.79286">
        <ele>953.200012</ele>
        <time>2017-05-26T14:21:14Z</time>
      </trkpt>
      <trkpt lat="45.77521" lon="3.793">
        <ele>953.799988</ele>
        <time>2017-05-26T14:21:23Z</time>
      </trkpt>
      <trkpt lat="45.77523" lon="3.79314">
        <ele>954.599976</ele>
        <time>2017-05-26T14:21:30Z</time>
      </trkpt>
      <trkpt lat="45.77519" lon="3.79327">
        <ele>955.299988</ele>
        <time>2017-05-26T14:21:37Z</time>
      </trkpt>
      <trkpt lat="45.7752" lon="3.79342">
        <ele>956.599976</ele>
        <time>2017-05-26T14:21:47Z</time>
      </trkpt>
      <trkpt lat="45.7752" lon="3.79355">
        <ele>958</ele>
        <time>2017-05-26T14:21:55Z</time>
      </trkpt>
      <trkpt lat="45.77516" lon="3.79367">
        <ele>960.299988</ele>
        <time>2017-05-26T14:22:05Z</time>
      </trkpt>
      <trkpt lat="45.77507" lon="3.79371">
        <ele>961.5</ele>
        <time>2017-05-26T14:22:10Z</time>
      </trkpt>
      <trkpt lat="45.77499" lon="3.79364">
        <ele>963.400024</ele>
        <time>2017-05-26T14:22:17Z</time>
      </trkpt>
      <trkpt lat="45.77492" lon="3.79354">
        <ele>964.400024</ele>
        <time>2017-05-26T14:22:24Z</time>
      </trkpt>
      <trkpt lat="45.77486" lon="3.79343">
        <ele>965.5</ele>
        <time>2017-05-26T14:22:31Z</time>
      </trkpt>
      <trkpt lat="45.7748" lon="3.79333">
        <ele>966.299988</ele>
        <time>2017-05-26T14:22:37Z</time>
      </trkpt>
      <trkpt lat="45.77473" lon="3.79323">
        <ele>966.799988</ele>
        <time>2017-05-26T14:22:42Z</time>
      </trkpt>
      <trkpt lat="45.77466" lon="3.79314">
        <ele>967.400024</ele>
        <time>2017-05-26T14:22:46Z</time>
      </trkpt>
      <trkpt lat="45.77459" lon="3.79305">
        <ele>968</ele>
        <time>2017-05-26T14:22:51Z</time>
      </trkpt>
      <trkpt lat="45.77452" lon="3.79297">
        <ele>968.700012</ele>
        <time>2017-05-26T14:22:57Z</time>
      </trkpt>
      <trkpt lat="45.77443" lon="3.7929">
        <ele>969.5</ele>
        <time>2017-05-26T14:23:02Z</time>
      </trkpt>
      <trkpt lat="45.77434" lon="3.79284">
        <ele>970.299988</ele>
        <time>2017-05-26T14:23:07Z</time>
      </trkpt>
      <trkpt lat="45.77424" lon="3.7928">
        <ele>971</ele>
        <time>2017-05-26T14:23:12Z</time>
      </trkpt>
      <trkpt lat="45.77414" lon="3.79276">
        <ele>971.799988</ele>
        <time>2017-05-26T14:23:17Z</time>
      </trkpt>
      <trkpt lat="45.77404" lon="3.79275">
        <ele>972.599976</ele>
        <time>2017-05-26T14:23:21Z</time>
      </trkpt>
      <trkpt lat="45.77394" lon="3.79272">
        <ele>973.200012</ele>
        <time>2017-05-26T14:23:26Z</time>
      </trkpt>
      <trkpt lat="45.77383" lon="3.7927">
        <ele>974</ele>
        <time>2017-05-26T14:23:32Z</time>
      </trkpt>
      <trkpt lat="45.77373" lon="3.79273">
        <ele>975</ele>
        <time>2017-05-26T14:23:37Z</time>
      </trkpt>
      <trkpt lat="45.77361" lon="3.79272">
        <ele>975.700012</ele>
        <time>2017-05-26T14:23:42Z</time>
      </trkpt>
      <trkpt lat="45.77354" lon="3.79278">
        <ele>976.5</ele>
        <time>2017-05-26T14:25:24Z</time>
      </trkpt>
      <trkpt lat="45.77344" lon="3.79278">
        <ele>976.900024</ele>
        <time>2017-05-26T14:25:30Z</time>
      </trkpt>
      <trkpt lat="45.77335" lon="3.79281">
        <ele>977.599976</ele>
        <time>2017-05-26T14:25:36Z</time>
      </trkpt>
      <trkpt lat="45.77325" lon="3.79281">
        <ele>978.599976</ele>
        <time>2017-05-26T14:25:42Z</time>
      </trkpt>
      <trkpt lat="45.77314" lon="3.79282">
        <ele>979.099976</ele>
        <time>2017-05-26T14:25:48Z</time>
      </trkpt>
      <trkpt lat="45.77305" lon="3.79283">
        <ele>979.900024</ele>
        <time>2017-05-26T14:25:53Z</time>
      </trkpt>
      <trkpt lat="45.77295" lon="3.79285">
        <ele>980.599976</ele>
        <time>2017-05-26T14:25:59Z</time>
      </trkpt>
      <trkpt lat="45.77286" lon="3.79286">
        <ele>981.200012</ele>
        <time>2017-05-26T14:26:04Z</time>
      </trkpt>
      <trkpt lat="45.77276" lon="3.79285">
        <ele>981.900024</ele>
        <time>2017-05-26T14:26:09Z</time>
      </trkpt>
      <trkpt lat="45.77266" lon="3.79286">
        <ele>982.5</ele>
        <time>2017-05-26T14:26:15Z</time>
      </trkpt>
      <trkpt lat="45.77257" lon="3.7929">
        <ele>983.099976</ele>
        <time>2017-05-26T14:26:20Z</time>
      </trkpt>
      <trkpt lat="45.77248" lon="3.79295">
        <ele>983.799988</ele>
        <time>2017-05-26T14:26:26Z</time>
      </trkpt>
      <trkpt lat="45.7724" lon="3.79302">
        <ele>985.200012</ele>
        <time>2017-05-26T14:26:33Z</time>
      </trkpt>
      <trkpt lat="45.77235" lon="3.79314">
        <ele>986.099976</ele>
        <time>2017-05-26T14:26:39Z</time>
      </trkpt>
      <trkpt lat="45.77231" lon="3.79328">
        <ele>988.099976</ele>
        <time>2017-05-26T14:26:46Z</time>
      </trkpt>
      <trkpt lat="45.77227" lon="3.79341">
        <ele>989.299988</ele>
        <time>2017-05-26T14:26:51Z</time>
      </trkpt>
      <trkpt lat="45.77218" lon="3.79351">
        <ele>990.299988</ele>
        <time>2017-05-26T14:26:56Z</time>
      </trkpt>
      <trkpt lat="45.77214" lon="3.79362">
        <ele>991.200012</ele>
        <time>2017-05-26T14:27:00Z</time>
      </trkpt>
      <trkpt lat="45.77209" lon="3.79374">
        <ele>992</ele>
        <time>2017-05-26T14:27:04Z</time>
      </trkpt>
      <trkpt lat="45.77204" lon="3.79387">
        <ele>992.900024</ele>
        <time>2017-05-26T14:27:09Z</time>
      </trkpt>
      <trkpt lat="45.77199" lon="3.79399">
        <ele>993.400024</ele>
        <time>2017-05-26T14:27:13Z</time>
      </trkpt>
      <trkpt lat="45.77196" lon="3.79413">
        <ele>994</ele>
        <time>2017-05-26T14:27:18Z</time>
      </trkpt>
      <trkpt lat="45.77194" lon="3.79426">
        <ele>994.599976</ele>
        <time>2017-05-26T14:27:23Z</time>
      </trkpt>
      <trkpt lat="45.77191" lon="3.79441">
        <ele>995.5</ele>
        <time>2017-05-26T14:27:28Z</time>
      </trkpt>
      <trkpt lat="45.77188" lon="3.79456">
        <ele>996.200012</ele>
        <time>2017-05-26T14:27:33Z</time>
      </trkpt>
      <trkpt lat="45.77185" lon="3.79471">
        <ele>997</ele>
        <time>2017-05-26T14:27:38Z</time>
      </trkpt>
      <trkpt lat="45.77182" lon="3.79483">
        <ele>997.599976</ele>
        <time>2017-05-26T14:27:43Z</time>
      </trkpt>
      <trkpt lat="45.77178" lon="3.79496">
        <ele>998.400024</ele>
        <time>2017-05-26T14:27:49Z</time>
      </trkpt>
      <trkpt lat="45.77179" lon="3.79509">
        <ele>999.400024</ele>
        <time>2017-05-26T14:27:55Z</time>
      </trkpt>
      <trkpt lat="45.77182" lon="3.79521">
        <ele>999.299988</ele>
        <time>2017-05-26T14:28:00Z</time>
      </trkpt>
      <trkpt lat="45.77185" lon="3.79533">
        <ele>999.299988</ele>
        <time>2017-05-26T14:28:03Z</time>
      </trkpt>
      <trkpt lat="45.7719" lon="3.7955">
        <ele>999</ele>
        <time>2017-05-26T14:28:06Z</time>
      </trkpt>
      <trkpt lat="45.77193" lon="3.79563">
        <ele>998.799988</ele>
        <time>2017-05-26T14:28:08Z</time>
      </trkpt>
      <trkpt lat="45.77196" lon="3.79577">
        <ele>998.599976</ele>
        <time>2017-05-26T14:28:10Z</time>
      </trkpt>
      <trkpt lat="45.77199" lon="3.79591">
        <ele>998.400024</ele>
        <time>2017-05-26T14:28:12Z</time>
      </trkpt>
      <trkpt lat="45.77203" lon="3.79608">
        <ele>997.799988</ele>
        <time>2017-05-26T14:28:14Z</time>
      </trkpt>
      <trkpt lat="45.77204" lon="3.79626">
        <ele>997.299988</ele>
        <time>2017-05-26T14:28:16Z</time>
      </trkpt>
      <trkpt lat="45.77204" lon="3.79645">
        <ele>996.799988</ele>
        <time>2017-05-26T14:28:18Z</time>
      </trkpt>
      <trkpt lat="45.77203" lon="3.79664">
        <ele>996.299988</ele>
        <time>2017-05-26T14:28:20Z</time>
      </trkpt>
      <trkpt lat="45.77202" lon="3.79681">
        <ele>996</ele>
        <time>2017-05-26T14:28:22Z</time>
      </trkpt>
      <trkpt lat="45.77203" lon="3.79696">
        <ele>995.400024</ele>
        <time>2017-05-26T14:28:24Z</time>
      </trkpt>
      <trkpt lat="45.77203" lon="3.79709">
        <ele>994.799988</ele>
        <time>2017-05-26T14:28:26Z</time>
      </trkpt>
      <trkpt lat="45.77205" lon="3.79722">
        <ele>994.400024</ele>
        <time>2017-05-26T14:28:28Z</time>
      </trkpt>
      <trkpt lat="45.77209" lon="3.79736">
        <ele>994.099976</ele>
        <time>2017-05-26T14:28:30Z</time>
      </trkpt>
      <trkpt lat="45.77215" lon="3.79748">
        <ele>993.900024</ele>
        <time>2017-05-26T14:28:32Z</time>
      </trkpt>
      <trkpt lat="45.77221" lon="3.79757">
        <ele>993.5</ele>
        <time>2017-05-26T14:28:34Z</time>
      </trkpt>
      <trkpt lat="45.77228" lon="3.79768">
        <ele>992.700012</ele>
        <time>2017-05-26T14:28:37Z</time>
      </trkpt>
      <trkpt lat="45.77237" lon="3.79779">
        <ele>991.799988</ele>
        <time>2017-05-26T14:28:41Z</time>
      </trkpt>
      <trkpt lat="45.77245" lon="3.79788">
        <ele>991.299988</ele>
        <time>2017-05-26T14:28:45Z</time>
      </trkpt>
      <trkpt lat="45.77252" lon="3.79797">
        <ele>990.700012</ele>
        <time>2017-05-26T14:28:52Z</time>
      </trkpt>
      <trkpt lat="45.77257" lon="3.79812">
        <ele>990.200012</ele>
        <time>2017-05-26T14:29:21Z</time>
      </trkpt>
      <trkpt lat="45.77263" lon="3.79826">
        <ele>990.099976</ele>
        <time>2017-05-26T14:29:25Z</time>
      </trkpt>
      <trkpt lat="45.77269" lon="3.79837">
        <ele>990</ele>
        <time>2017-05-26T14:29:28Z</time>
      </trkpt>
      <trkpt lat="45.77276" lon="3.79848">
        <ele>989.900024</ele>
        <time>2017-05-26T14:29:31Z</time>
      </trkpt>
      <trkpt lat="45.77285" lon="3.79859">
        <ele>989.700012</ele>
        <time>2017-05-26T14:29:34Z</time>
      </trkpt>
      <trkpt lat="45.77294" lon="3.79867">
        <ele>989.900024</ele>
        <time>2017-05-26T14:29:37Z</time>
      </trkpt>
      <trkpt lat="45.77304" lon="3.79874">
        <ele>989.700012</ele>
        <time>2017-05-26T14:29:40Z</time>
      </trkpt>
      <trkpt lat="45.77314" lon="3.79881">
        <ele>989.599976</ele>
        <time>2017-05-26T14:29:43Z</time>
      </trkpt>
      <trkpt lat="45.77324" lon="3.79889">
        <ele>989.5</ele>
        <time>2017-05-26T14:29:46Z</time>
      </trkpt>
      <trkpt lat="45.77335" lon="3.79896">
        <ele>989.299988</ele>
        <time>2017-05-26T14:29:49Z</time>
      </trkpt>
      <trkpt lat="45.77346" lon="3.79902">
        <ele>989.099976</ele>
        <time>2017-05-26T14:29:52Z</time>
      </trkpt>
      <trkpt lat="45.77355" lon="3.79906">
        <ele>988.700012</ele>
        <time>2017-05-26T14:29:54Z</time>
      </trkpt>
      <trkpt lat="45.77365" lon="3.79911">
        <ele>988.5</ele>
        <time>2017-05-26T14:29:56Z</time>
      </trkpt>
      <trkpt lat="45.77375" lon="3.79916">
        <ele>987.599976</ele>
        <time>2017-05-26T14:29:59Z</time>
      </trkpt>
      <trkpt lat="45.77384" lon="3.79921">
        <ele>986.599976</ele>
        <time>2017-05-26T14:30:02Z</time>
      </trkpt>
      <trkpt lat="45.77398" lon="3.79929">
        <ele>985.700012</ele>
        <time>2017-05-26T14:30:05Z</time>
      </trkpt>
      <trkpt lat="45.77408" lon="3.79937">
        <ele>984.900024</ele>
        <time>2017-05-26T14:30:07Z</time>
      </trkpt>
      <trkpt lat="45.77419" lon="3.79942">
        <ele>984</ele>
        <time>2017-05-26T14:30:09Z</time>
      </trkpt>
      <trkpt lat="45.77428" lon="3.79947">
        <ele>983.099976</ele>
        <time>2017-05-26T14:30:11Z</time>
      </trkpt>
      <trkpt lat="45.77441" lon="3.79949">
        <ele>981.799988</ele>
        <time>2017-05-26T14:30:14Z</time>
      </trkpt>
      <trkpt lat="45.77455" lon="3.7995">
        <ele>980.400024</ele>
        <time>2017-05-26T14:30:17Z</time>
      </trkpt>
      <trkpt lat="45.77468" lon="3.7995">
        <ele>979.5</ele>
        <time>2017-05-26T14:30:19Z</time>
      </trkpt>
      <trkpt lat="45.77483" lon="3.7995">
        <ele>978.299988</ele>
        <time>2017-05-26T14:30:21Z</time>
      </trkpt>
      <trkpt lat="45.775" lon="3.79953">
        <ele>977.099976</ele>
        <time>2017-05-26T14:30:23Z</time>
      </trkpt>
      <trkpt lat="45.77511" lon="3.79955">
        <ele>976.400024</ele>
        <time>2017-05-26T14:30:24Z</time>
      </trkpt>
      <trkpt lat="45.77523" lon="3.79958">
        <ele>975.599976</ele>
        <time>2017-05-26T14:30:25Z</time>
      </trkpt>
      <trkpt lat="45.77533" lon="3.7996">
        <ele>974.900024</ele>
        <time>2017-05-26T14:30:26Z</time>
      </trkpt>
      <trkpt lat="45.77542" lon="3.79963">
        <ele>974.200012</ele>
        <time>2017-05-26T14:30:27Z</time>
      </trkpt>
      <trkpt lat="45.77556" lon="3.79972">
        <ele>972.700012</ele>
        <time>2017-05-26T14:30:29Z</time>
      </trkpt>
      <trkpt lat="45.77567" lon="3.79982">
        <ele>971.200012</ele>
        <time>2017-05-26T14:30:31Z</time>
      </trkpt>
      <trkpt lat="45.77579" lon="3.79995">
        <ele>969.900024</ele>
        <time>2017-05-26T14:30:33Z</time>
      </trkpt>
      <trkpt lat="45.77595" lon="3.80006">
        <ele>968.400024</ele>
        <time>2017-05-26T14:30:35Z</time>
      </trkpt>
      <trkpt lat="45.77611" lon="3.80014">
        <ele>966.599976</ele>
        <time>2017-05-26T14:30:37Z</time>
      </trkpt>
      <trkpt lat="45.77627" lon="3.80017">
        <ele>964.900024</ele>
        <time>2017-05-26T14:30:39Z</time>
      </trkpt>
      <trkpt lat="45.77644" lon="3.80015">
        <ele>962.900024</ele>
        <time>2017-05-26T14:30:41Z</time>
      </trkpt>
      <trkpt lat="45.7766" lon="3.80012">
        <ele>961.5</ele>
        <time>2017-05-26T14:30:43Z</time>
      </trkpt>
      <trkpt lat="45.77675" lon="3.80008">
        <ele>960</ele>
        <time>2017-05-26T14:30:45Z</time>
      </trkpt>
      <trkpt lat="45.7769" lon="3.80003">
        <ele>958.700012</ele>
        <time>2017-05-26T14:30:47Z</time>
      </trkpt>
      <trkpt lat="45.77704" lon="3.8">
        <ele>957.299988</ele>
        <time>2017-05-26T14:30:49Z</time>
      </trkpt>
      <trkpt lat="45.77718" lon="3.79999">
        <ele>956</ele>
        <time>2017-05-26T14:30:51Z</time>
      </trkpt>
      <trkpt lat="45.77732" lon="3.8">
        <ele>954.599976</ele>
        <time>2017-05-26T14:30:53Z</time>
      </trkpt>
      <trkpt lat="45.77741" lon="3.80002">
        <ele>953</ele>
        <time>2017-05-26T14:30:55Z</time>
      </trkpt>
      <trkpt lat="45.77752" lon="3.80004">
        <ele>951.599976</ele>
        <time>2017-05-26T14:30:57Z</time>
      </trkpt>
      <trkpt lat="45.77764" lon="3.80007">
        <ele>949.299988</ele>
        <time>2017-05-26T14:30:59Z</time>
      </trkpt>
      <trkpt lat="45.77777" lon="3.80014">
        <ele>947.5</ele>
        <time>2017-05-26T14:31:01Z</time>
      </trkpt>
      <trkpt lat="45.77786" lon="3.80018">
        <ele>945.700012</ele>
        <time>2017-05-26T14:31:03Z</time>
      </trkpt>
      <trkpt lat="45.77801" lon="3.8002">
        <ele>943.700012</ele>
        <time>2017-05-26T14:31:05Z</time>
      </trkpt>
      <trkpt lat="45.77815" lon="3.8002">
        <ele>941.5</ele>
        <time>2017-05-26T14:31:07Z</time>
      </trkpt>
      <trkpt lat="45.77829" lon="3.80019">
        <ele>939.200012</ele>
        <time>2017-05-26T14:31:09Z</time>
      </trkpt>
      <trkpt lat="45.7784" lon="3.8002">
        <ele>936.700012</ele>
        <time>2017-05-26T14:31:10Z</time>
      </trkpt>
      <trkpt lat="45.77852" lon="3.80022">
        <ele>934.5</ele>
        <time>2017-05-26T14:31:12Z</time>
      </trkpt>
      <trkpt lat="45.77864" lon="3.80027">
        <ele>932.099976</ele>
        <time>2017-05-26T14:31:15Z</time>
      </trkpt>
      <trkpt lat="45.77877" lon="3.8003">
        <ele>929.799988</ele>
        <time>2017-05-26T14:31:17Z</time>
      </trkpt>
      <trkpt lat="45.77891" lon="3.80036">
        <ele>928.700012</ele>
        <time>2017-05-26T14:31:19Z</time>
      </trkpt>
      <trkpt lat="45.77902" lon="3.80041">
        <ele>926.900024</ele>
        <time>2017-05-26T14:31:21Z</time>
      </trkpt>
      <trkpt lat="45.77915" lon="3.80056">
        <ele>923.799988</ele>
        <time>2017-05-26T14:32:30Z</time>
      </trkpt>
      <trkpt lat="45.77908" lon="3.80068">
        <ele>923.5</ele>
        <time>2017-05-26T14:32:33Z</time>
      </trkpt>
      <trkpt lat="45.77902" lon="3.80082">
        <ele>923.299988</ele>
        <time>2017-05-26T14:32:36Z</time>
      </trkpt>
      <trkpt lat="45.77896" lon="3.80092">
        <ele>922.599976</ele>
        <time>2017-05-26T14:32:39Z</time>
      </trkpt>
      <trkpt lat="45.77888" lon="3.801">
        <ele>922.099976</ele>
        <time>2017-05-26T14:32:42Z</time>
      </trkpt>
      <trkpt lat="45.77881" lon="3.8011">
        <ele>922.200012</ele>
        <time>2017-05-26T14:32:45Z</time>
      </trkpt>
      <trkpt lat="45.77869" lon="3.80126">
        <ele>922.200012</ele>
        <time>2017-05-26T14:32:50Z</time>
      </trkpt>
      <trkpt lat="45.77862" lon="3.80134">
        <ele>922.700012</ele>
        <time>2017-05-26T14:32:54Z</time>
      </trkpt>
      <trkpt lat="45.77856" lon="3.80143">
        <ele>923.299988</ele>
        <time>2017-05-26T14:32:58Z</time>
      </trkpt>
      <trkpt lat="45.77847" lon="3.80151">
        <ele>923.700012</ele>
        <time>2017-05-26T14:33:02Z</time>
      </trkpt>
      <trkpt lat="45.7784" lon="3.80161">
        <ele>924.5</ele>
        <time>2017-05-26T14:33:07Z</time>
      </trkpt>
      <trkpt lat="45.77833" lon="3.80172">
        <ele>924.5</ele>
        <time>2017-05-26T14:33:10Z</time>
      </trkpt>
      <trkpt lat="45.77826" lon="3.80181">
        <ele>924.799988</ele>
        <time>2017-05-26T14:33:15Z</time>
      </trkpt>
      <trkpt lat="45.7782" lon="3.80191">
        <ele>925.299988</ele>
        <time>2017-05-26T14:33:20Z</time>
      </trkpt>
      <trkpt lat="45.77812" lon="3.802">
        <ele>925.700012</ele>
        <time>2017-05-26T14:33:26Z</time>
      </trkpt>
      <trkpt lat="45.77805" lon="3.80209">
        <ele>926.099976</ele>
        <time>2017-05-26T14:33:32Z</time>
      </trkpt>
      <trkpt lat="45.77798" lon="3.8022">
        <ele>926.799988</ele>
        <time>2017-05-26T14:33:38Z</time>
      </trkpt>
      <trkpt lat="45.7779" lon="3.80228">
        <ele>927.900024</ele>
        <time>2017-05-26T14:33:46Z</time>
      </trkpt>
      <trkpt lat="45.77781" lon="3.80235">
        <ele>928.5</ele>
        <time>2017-05-26T14:33:50Z</time>
      </trkpt>
      <trkpt lat="45.77774" lon="3.80246">
        <ele>929.400024</ele>
        <time>2017-05-26T14:33:56Z</time>
      </trkpt>
      <trkpt lat="45.77767" lon="3.80256">
        <ele>929.900024</ele>
        <time>2017-05-26T14:34:02Z</time>
      </trkpt>
      <trkpt lat="45.77761" lon="3.80266">
        <ele>930.599976</ele>
        <time>2017-05-26T14:34:09Z</time>
      </trkpt>
      <trkpt lat="45.77754" lon="3.80277">
        <ele>931.700012</ele>
        <time>2017-05-26T14:34:17Z</time>
      </trkpt>
      <trkpt lat="45.77748" lon="3.80287">
        <ele>932.5</ele>
        <time>2017-05-26T14:34:27Z</time>
      </trkpt>
      <trkpt lat="45.77741" lon="3.80295">
        <ele>932.900024</ele>
        <time>2017-05-26T14:34:31Z</time>
      </trkpt>
      <trkpt lat="45.77735" lon="3.80305">
        <ele>933.5</ele>
        <time>2017-05-26T14:34:37Z</time>
      </trkpt>
      <trkpt lat="45.77731" lon="3.80318">
        <ele>933.900024</ele>
        <time>2017-05-26T14:34:44Z</time>
      </trkpt>
      <trkpt lat="45.77725" lon="3.8033">
        <ele>934.5</ele>
        <time>2017-05-26T14:34:50Z</time>
      </trkpt>
      <trkpt lat="45.77719" lon="3.8034">
        <ele>935.099976</ele>
        <time>2017-05-26T14:34:56Z</time>
      </trkpt>
      <trkpt lat="45.77712" lon="3.80348">
        <ele>935.799988</ele>
        <time>2017-05-26T14:35:03Z</time>
      </trkpt>
      <trkpt lat="45.77706" lon="3.8036">
        <ele>937.099976</ele>
        <time>2017-05-26T14:35:11Z</time>
      </trkpt>
      <trkpt lat="45.77702" lon="3.80373">
        <ele>938</ele>
        <time>2017-05-26T14:35:19Z</time>
      </trkpt>
      <trkpt lat="45.77699" lon="3.80384">
        <ele>938.599976</ele>
        <time>2017-05-26T14:35:26Z</time>
      </trkpt>
      <trkpt lat="45.77695" lon="3.80396">
        <ele>939.700012</ele>
        <time>2017-05-26T14:35:34Z</time>
      </trkpt>
      <trkpt lat="45.77691" lon="3.80408">
        <ele>941.099976</ele>
        <time>2017-05-26T14:35:45Z</time>
      </trkpt>
      <trkpt lat="45.77685" lon="3.80419">
        <ele>942.400024</ele>
        <time>2017-05-26T14:36:01Z</time>
      </trkpt>
      <trkpt lat="45.77681" lon="3.80432">
        <ele>943.299988</ele>
        <time>2017-05-26T14:36:08Z</time>
      </trkpt>
      <trkpt lat="45.77678" lon="3.80444">
        <ele>944.599976</ele>
        <time>2017-05-26T14:36:15Z</time>
      </trkpt>
      <trkpt lat="45.77674" lon="3.80456">
        <ele>945.799988</ele>
        <time>2017-05-26T14:36:24Z</time>
      </trkpt>
      <trkpt lat="45.7767" lon="3.80468">
        <ele>947</ele>
        <time>2017-05-26T14:36:33Z</time>
      </trkpt>
      <trkpt lat="45.77667" lon="3.80481">
        <ele>947.900024</ele>
        <time>2017-05-26T14:36:41Z</time>
      </trkpt>
      <trkpt lat="45.77663" lon="3.80493">
        <ele>948.799988</ele>
        <time>2017-05-26T14:36:49Z</time>
      </trkpt>
      <trkpt lat="45.7766" lon="3.80506">
        <ele>949.900024</ele>
        <time>2017-05-26T14:36:59Z</time>
      </trkpt>
      <trkpt lat="45.77661" lon="3.80519">
        <ele>951.299988</ele>
        <time>2017-05-26T14:37:09Z</time>
      </trkpt>
      <trkpt lat="45.77663" lon="3.80533">
        <ele>951.5</ele>
        <time>2017-05-26T14:37:15Z</time>
      </trkpt>
      <trkpt lat="45.7766" lon="3.80546">
        <ele>951.5</ele>
        <time>2017-05-26T14:37:20Z</time>
      </trkpt>
      <trkpt lat="45.77657" lon="3.8056">
        <ele>951.700012</ele>
        <time>2017-05-26T14:37:26Z</time>
      </trkpt>
      <trkpt lat="45.77651" lon="3.80572">
        <ele>952</ele>
        <time>2017-05-26T14:37:32Z</time>
      </trkpt>
      <trkpt lat="45.77645" lon="3.80586">
        <ele>952.099976</ele>
        <time>2017-05-26T14:37:38Z</time>
      </trkpt>
      <trkpt lat="45.77641" lon="3.80599">
        <ele>952.200012</ele>
        <time>2017-05-26T14:37:41Z</time>
      </trkpt>
      <trkpt lat="45.77637" lon="3.80613">
        <ele>952.299988</ele>
        <time>2017-05-26T14:37:44Z</time>
      </trkpt>
      <trkpt lat="45.77634" lon="3.80625">
        <ele>952.200012</ele>
        <time>2017-05-26T14:37:47Z</time>
      </trkpt>
      <trkpt lat="45.7763" lon="3.8064">
        <ele>952.200012</ele>
        <time>2017-05-26T14:37:51Z</time>
      </trkpt>
      <trkpt lat="45.77625" lon="3.80654">
        <ele>952.099976</ele>
        <time>2017-05-26T14:37:55Z</time>
      </trkpt>
      <trkpt lat="45.7762" lon="3.80669">
        <ele>952</ele>
        <time>2017-05-26T14:37:59Z</time>
      </trkpt>
      <trkpt lat="45.77614" lon="3.80681">
        <ele>951.700012</ele>
        <time>2017-05-26T14:38:03Z</time>
      </trkpt>
      <trkpt lat="45.7761" lon="3.80694">
        <ele>951.599976</ele>
        <time>2017-05-26T14:38:07Z</time>
      </trkpt>
      <trkpt lat="45.77611" lon="3.80708">
        <ele>951.5</ele>
        <time>2017-05-26T14:38:10Z</time>
      </trkpt>
      <trkpt lat="45.77614" lon="3.80724">
        <ele>951.099976</ele>
        <time>2017-05-26T14:38:13Z</time>
      </trkpt>
      <trkpt lat="45.77617" lon="3.80738">
        <ele>950.400024</ele>
        <time>2017-05-26T14:38:16Z</time>
      </trkpt>
      <trkpt lat="45.77611" lon="3.80748">
        <ele>949.200012</ele>
        <time>2017-05-26T14:38:21Z</time>
      </trkpt>
      <trkpt lat="45.7761" lon="3.80761">
        <ele>948.200012</ele>
        <time>2017-05-26T14:38:30Z</time>
      </trkpt>
      <trkpt lat="45.77609" lon="3.80762">
        <ele>948</ele>
        <time>2017-05-26T14:38:40Z</time>
      </trkpt>
    </trkseg>
  </trk>
</gpx>